<?xml version="1.0" encoding="UTF-8" standalone="no" ?>
<gpx xmlns="http://www.topografix.com/GPX/1/1" xmlns:xsi="http://www.w3.org/2001/XMLSchema-instance" xsi:schemaLocation="http://www.topografix.com/GPX/1/1 http://www.topografix.com/GPX/1/1/gpx.xsd" version="1.1" creator="VisuGPX - https://www.visugpx.com">
  <metadata>
    <name>Pic de Balonguère</name>
  </metadata>
  <trk>
    <name><![CDATA[2019-03-31 15:23:05]]></name>
    <trkseg>
      <trkpt lat="42.83245" lon="1.0313">
        <ele>973.47</ele>
        <time>2019-03-31T05:30:01Z</time>
      </trkpt>
      <trkpt lat="42.83245" lon="1.0313">
        <ele>973.47</ele>
        <time>2019-03-31T05:30:02Z</time>
      </trkpt>
      <trkpt lat="42.83245" lon="1.03131">
        <ele>960.01</ele>
        <time>2019-03-31T05:30:05Z</time>
      </trkpt>
      <trkpt lat="42.83245" lon="1.03131">
        <ele>960.01</ele>
        <time>2019-03-31T05:30:06Z</time>
      </trkpt>
      <trkpt lat="42.83251" lon="1.03127">
        <ele>960.01</ele>
        <time>2019-03-31T05:30:32Z</time>
      </trkpt>
      <trkpt lat="42.83252" lon="1.03126">
        <ele>960.01</ele>
        <time>2019-03-31T05:30:52Z</time>
      </trkpt>
      <trkpt lat="42.83247" lon="1.03126">
        <ele>959.53</ele>
        <time>2019-03-31T05:31:22Z</time>
      </trkpt>
      <trkpt lat="42.83248" lon="1.03124">
        <ele>959.53</ele>
        <time>2019-03-31T05:31:47Z</time>
      </trkpt>
      <trkpt lat="42.83253" lon="1.03127">
        <ele>959.53</ele>
        <time>2019-03-31T05:32:12Z</time>
      </trkpt>
      <trkpt lat="42.83249" lon="1.03129">
        <ele>959.05</ele>
        <time>2019-03-31T05:32:39Z</time>
      </trkpt>
      <trkpt lat="42.83249" lon="1.03135">
        <ele>959.05</ele>
        <time>2019-03-31T05:33:03Z</time>
      </trkpt>
      <trkpt lat="42.83242" lon="1.03133">
        <ele>958.57</ele>
        <time>2019-03-31T05:33:29Z</time>
      </trkpt>
      <trkpt lat="42.83242" lon="1.03134">
        <ele>958.57</ele>
        <time>2019-03-31T05:33:55Z</time>
      </trkpt>
      <trkpt lat="42.83242" lon="1.03132">
        <ele>957.61</ele>
        <time>2019-03-31T05:33:59Z</time>
      </trkpt>
      <trkpt lat="42.83242" lon="1.03125">
        <ele>957.13</ele>
        <time>2019-03-31T05:34:27Z</time>
      </trkpt>
      <trkpt lat="42.83245" lon="1.0312">
        <ele>956.65</ele>
        <time>2019-03-31T05:34:56Z</time>
      </trkpt>
      <trkpt lat="42.83245" lon="1.0312">
        <ele>957.13</ele>
        <time>2019-03-31T05:35:29Z</time>
      </trkpt>
      <trkpt lat="42.83241" lon="1.03126">
        <ele>956.65</ele>
        <time>2019-03-31T05:35:53Z</time>
      </trkpt>
      <trkpt lat="42.83242" lon="1.03126">
        <ele>956.65</ele>
        <time>2019-03-31T05:36:21Z</time>
      </trkpt>
      <trkpt lat="42.83244" lon="1.03129">
        <ele>957.61</ele>
        <time>2019-03-31T05:36:40Z</time>
      </trkpt>
      <trkpt lat="42.83246" lon="1.03132">
        <ele>957.61</ele>
        <time>2019-03-31T05:36:58Z</time>
      </trkpt>
      <trkpt lat="42.83247" lon="1.03131">
        <ele>957.61</ele>
        <time>2019-03-31T05:37:10Z</time>
      </trkpt>
      <trkpt lat="42.83246" lon="1.03131">
        <ele>957.13</ele>
        <time>2019-03-31T05:37:27Z</time>
      </trkpt>
      <trkpt lat="42.83242" lon="1.03126">
        <ele>958.09</ele>
        <time>2019-03-31T05:37:33Z</time>
      </trkpt>
      <trkpt lat="42.83237" lon="1.03119">
        <ele>958.57</ele>
        <time>2019-03-31T05:37:40Z</time>
      </trkpt>
      <trkpt lat="42.83232" lon="1.03118">
        <ele>958.57</ele>
        <time>2019-03-31T05:37:45Z</time>
      </trkpt>
      <trkpt lat="42.83228" lon="1.03107">
        <ele>961.46</ele>
        <time>2019-03-31T05:37:57Z</time>
      </trkpt>
      <trkpt lat="42.83228" lon="1.03104">
        <ele>962.9</ele>
        <time>2019-03-31T05:38:01Z</time>
      </trkpt>
      <trkpt lat="42.83203" lon="1.03094">
        <ele>964.82</ele>
        <time>2019-03-31T05:38:21Z</time>
      </trkpt>
      <trkpt lat="42.83183" lon="1.03094">
        <ele>965.78</ele>
        <time>2019-03-31T05:38:37Z</time>
      </trkpt>
      <trkpt lat="42.83161" lon="1.03084">
        <ele>966.74</ele>
        <time>2019-03-31T05:38:53Z</time>
      </trkpt>
      <trkpt lat="42.83137" lon="1.03091">
        <ele>967.7</ele>
        <time>2019-03-31T05:39:11Z</time>
      </trkpt>
      <trkpt lat="42.83119" lon="1.03108">
        <ele>968.18</ele>
        <time>2019-03-31T05:39:28Z</time>
      </trkpt>
      <trkpt lat="42.83115" lon="1.03114">
        <ele>968.18</ele>
        <time>2019-03-31T05:39:33Z</time>
      </trkpt>
      <trkpt lat="42.83109" lon="1.03123">
        <ele>968.67</ele>
        <time>2019-03-31T05:39:40Z</time>
      </trkpt>
      <trkpt lat="42.83105" lon="1.03129">
        <ele>968.67</ele>
        <time>2019-03-31T05:39:44Z</time>
      </trkpt>
      <trkpt lat="42.83099" lon="1.03144">
        <ele>969.15</ele>
        <time>2019-03-31T05:39:53Z</time>
      </trkpt>
      <trkpt lat="42.83096" lon="1.03151">
        <ele>969.15</ele>
        <time>2019-03-31T05:39:57Z</time>
      </trkpt>
      <trkpt lat="42.83088" lon="1.03165">
        <ele>969.63</ele>
        <time>2019-03-31T05:40:07Z</time>
      </trkpt>
      <trkpt lat="42.83083" lon="1.03177">
        <ele>969.63</ele>
        <time>2019-03-31T05:40:14Z</time>
      </trkpt>
      <trkpt lat="42.83068" lon="1.03199">
        <ele>970.59</ele>
        <time>2019-03-31T05:40:29Z</time>
      </trkpt>
      <trkpt lat="42.83065" lon="1.03202">
        <ele>970.59</ele>
        <time>2019-03-31T05:40:31Z</time>
      </trkpt>
      <trkpt lat="42.83064" lon="1.03235">
        <ele>971.07</ele>
        <time>2019-03-31T05:40:48Z</time>
      </trkpt>
      <trkpt lat="42.83064" lon="1.03245">
        <ele>971.55</ele>
        <time>2019-03-31T05:40:53Z</time>
      </trkpt>
      <trkpt lat="42.83049" lon="1.03271">
        <ele>972.51</ele>
        <time>2019-03-31T05:41:10Z</time>
      </trkpt>
      <trkpt lat="42.83033" lon="1.03292">
        <ele>972.99</ele>
        <time>2019-03-31T05:41:26Z</time>
      </trkpt>
      <trkpt lat="42.83018" lon="1.03311">
        <ele>973.95</ele>
        <time>2019-03-31T05:41:41Z</time>
      </trkpt>
      <trkpt lat="42.83015" lon="1.03314">
        <ele>973.95</ele>
        <time>2019-03-31T05:41:43Z</time>
      </trkpt>
      <trkpt lat="42.83012" lon="1.0332">
        <ele>973.95</ele>
        <time>2019-03-31T05:41:48Z</time>
      </trkpt>
      <trkpt lat="42.82996" lon="1.03348">
        <ele>974.43</ele>
        <time>2019-03-31T05:42:05Z</time>
      </trkpt>
      <trkpt lat="42.82991" lon="1.03355">
        <ele>974.43</ele>
        <time>2019-03-31T05:42:11Z</time>
      </trkpt>
      <trkpt lat="42.82991" lon="1.03359">
        <ele>974.43</ele>
        <time>2019-03-31T05:42:13Z</time>
      </trkpt>
      <trkpt lat="42.82983" lon="1.03366">
        <ele>974.91</ele>
        <time>2019-03-31T05:42:19Z</time>
      </trkpt>
      <trkpt lat="42.8297" lon="1.03383">
        <ele>975.88</ele>
        <time>2019-03-31T05:42:33Z</time>
      </trkpt>
      <trkpt lat="42.82961" lon="1.03393">
        <ele>976.84</ele>
        <time>2019-03-31T05:42:43Z</time>
      </trkpt>
      <trkpt lat="42.82942" lon="1.03406">
        <ele>977.8</ele>
        <time>2019-03-31T05:42:56Z</time>
      </trkpt>
      <trkpt lat="42.82936" lon="1.03411">
        <ele>977.8</ele>
        <time>2019-03-31T05:43:00Z</time>
      </trkpt>
      <trkpt lat="42.82929" lon="1.03419">
        <ele>978.28</ele>
        <time>2019-03-31T05:43:06Z</time>
      </trkpt>
      <trkpt lat="42.82908" lon="1.03455">
        <ele>979.24</ele>
        <time>2019-03-31T05:43:23Z</time>
      </trkpt>
      <trkpt lat="42.82893" lon="1.03471">
        <ele>979.72</ele>
        <time>2019-03-31T05:43:36Z</time>
      </trkpt>
      <trkpt lat="42.82878" lon="1.03484">
        <ele>980.2</ele>
        <time>2019-03-31T05:43:49Z</time>
      </trkpt>
      <trkpt lat="42.82866" lon="1.03485">
        <ele>980.68</ele>
        <time>2019-03-31T05:43:59Z</time>
      </trkpt>
      <trkpt lat="42.8285" lon="1.03477">
        <ele>981.16</ele>
        <time>2019-03-31T05:44:12Z</time>
      </trkpt>
      <trkpt lat="42.82837" lon="1.03478">
        <ele>982.12</ele>
        <time>2019-03-31T05:44:21Z</time>
      </trkpt>
      <trkpt lat="42.82829" lon="1.0348">
        <ele>982.12</ele>
        <time>2019-03-31T05:44:26Z</time>
      </trkpt>
      <trkpt lat="42.82814" lon="1.03487">
        <ele>982.6</ele>
        <time>2019-03-31T05:44:35Z</time>
      </trkpt>
      <trkpt lat="42.82793" lon="1.03509">
        <ele>984.05</ele>
        <time>2019-03-31T05:44:55Z</time>
      </trkpt>
      <trkpt lat="42.82792" lon="1.03512">
        <ele>984.53</ele>
        <time>2019-03-31T05:44:57Z</time>
      </trkpt>
      <trkpt lat="42.82786" lon="1.03515">
        <ele>985.01</ele>
        <time>2019-03-31T05:45:01Z</time>
      </trkpt>
      <trkpt lat="42.82777" lon="1.03523">
        <ele>985.49</ele>
        <time>2019-03-31T05:45:09Z</time>
      </trkpt>
      <trkpt lat="42.82776" lon="1.03526">
        <ele>985.97</ele>
        <time>2019-03-31T05:45:12Z</time>
      </trkpt>
      <trkpt lat="42.8277" lon="1.0353">
        <ele>986.45</ele>
        <time>2019-03-31T05:45:16Z</time>
      </trkpt>
      <trkpt lat="42.8276" lon="1.03539">
        <ele>986.93</ele>
        <time>2019-03-31T05:45:24Z</time>
      </trkpt>
      <trkpt lat="42.82758" lon="1.0354">
        <ele>986.93</ele>
        <time>2019-03-31T05:45:25Z</time>
      </trkpt>
      <trkpt lat="42.82748" lon="1.03547">
        <ele>987.41</ele>
        <time>2019-03-31T05:45:32Z</time>
      </trkpt>
      <trkpt lat="42.82743" lon="1.03553">
        <ele>987.89</ele>
        <time>2019-03-31T05:45:36Z</time>
      </trkpt>
      <trkpt lat="42.8274" lon="1.03559">
        <ele>988.37</ele>
        <time>2019-03-31T05:45:40Z</time>
      </trkpt>
      <trkpt lat="42.82731" lon="1.03568">
        <ele>988.37</ele>
        <time>2019-03-31T05:45:46Z</time>
      </trkpt>
      <trkpt lat="42.8272" lon="1.03576">
        <ele>988.85</ele>
        <time>2019-03-31T05:45:54Z</time>
      </trkpt>
      <trkpt lat="42.82705" lon="1.03612">
        <ele>989.33</ele>
        <time>2019-03-31T05:46:12Z</time>
      </trkpt>
      <trkpt lat="42.82687" lon="1.03643">
        <ele>989.33</ele>
        <time>2019-03-31T05:46:30Z</time>
      </trkpt>
      <trkpt lat="42.82678" lon="1.03668">
        <ele>989.33</ele>
        <time>2019-03-31T05:46:45Z</time>
      </trkpt>
      <trkpt lat="42.82671" lon="1.03704">
        <ele>989.81</ele>
        <time>2019-03-31T05:47:03Z</time>
      </trkpt>
      <trkpt lat="42.82666" lon="1.03718">
        <ele>990.3</ele>
        <time>2019-03-31T05:47:12Z</time>
      </trkpt>
      <trkpt lat="42.82662" lon="1.03731">
        <ele>990.3</ele>
        <time>2019-03-31T05:47:22Z</time>
      </trkpt>
      <trkpt lat="42.82664" lon="1.0376">
        <ele>990.3</ele>
        <time>2019-03-31T05:47:33Z</time>
      </trkpt>
      <trkpt lat="42.82665" lon="1.03763">
        <ele>990.3</ele>
        <time>2019-03-31T05:47:34Z</time>
      </trkpt>
      <trkpt lat="42.82666" lon="1.03765">
        <ele>990.3</ele>
        <time>2019-03-31T05:47:35Z</time>
      </trkpt>
      <trkpt lat="42.82672" lon="1.0379">
        <ele>990.3</ele>
        <time>2019-03-31T05:47:48Z</time>
      </trkpt>
      <trkpt lat="42.82672" lon="1.03804">
        <ele>991.26</ele>
        <time>2019-03-31T05:47:56Z</time>
      </trkpt>
      <trkpt lat="42.82672" lon="1.03805">
        <ele>991.26</ele>
        <time>2019-03-31T05:47:57Z</time>
      </trkpt>
      <trkpt lat="42.82672" lon="1.03807">
        <ele>991.26</ele>
        <time>2019-03-31T05:47:58Z</time>
      </trkpt>
      <trkpt lat="42.82672" lon="1.03809">
        <ele>991.26</ele>
        <time>2019-03-31T05:47:59Z</time>
      </trkpt>
      <trkpt lat="42.82672" lon="1.03811">
        <ele>991.26</ele>
        <time>2019-03-31T05:48:00Z</time>
      </trkpt>
      <trkpt lat="42.82672" lon="1.03817">
        <ele>991.26</ele>
        <time>2019-03-31T05:48:04Z</time>
      </trkpt>
      <trkpt lat="42.82671" lon="1.03824">
        <ele>992.22</ele>
        <time>2019-03-31T05:48:09Z</time>
      </trkpt>
      <trkpt lat="42.82671" lon="1.03826">
        <ele>992.22</ele>
        <time>2019-03-31T05:48:10Z</time>
      </trkpt>
      <trkpt lat="42.82668" lon="1.03838">
        <ele>993.66</ele>
        <time>2019-03-31T05:48:19Z</time>
      </trkpt>
      <trkpt lat="42.82667" lon="1.03839">
        <ele>993.66</ele>
        <time>2019-03-31T05:48:20Z</time>
      </trkpt>
      <trkpt lat="42.82665" lon="1.03847">
        <ele>993.66</ele>
        <time>2019-03-31T05:48:24Z</time>
      </trkpt>
      <trkpt lat="42.82665" lon="1.03852">
        <ele>993.66</ele>
        <time>2019-03-31T05:48:27Z</time>
      </trkpt>
      <trkpt lat="42.82665" lon="1.03854">
        <ele>993.66</ele>
        <time>2019-03-31T05:48:28Z</time>
      </trkpt>
      <trkpt lat="42.82662" lon="1.03864">
        <ele>993.66</ele>
        <time>2019-03-31T05:48:33Z</time>
      </trkpt>
      <trkpt lat="42.82662" lon="1.03866">
        <ele>994.62</ele>
        <time>2019-03-31T05:48:34Z</time>
      </trkpt>
      <trkpt lat="42.82662" lon="1.03869">
        <ele>994.62</ele>
        <time>2019-03-31T05:48:35Z</time>
      </trkpt>
      <trkpt lat="42.82658" lon="1.03887">
        <ele>997.02</ele>
        <time>2019-03-31T05:48:44Z</time>
      </trkpt>
      <trkpt lat="42.8265" lon="1.03896">
        <ele>1000.39</ele>
        <time>2019-03-31T05:48:55Z</time>
      </trkpt>
      <trkpt lat="42.82648" lon="1.03898">
        <ele>1000.87</ele>
        <time>2019-03-31T05:48:58Z</time>
      </trkpt>
      <trkpt lat="42.82647" lon="1.03899">
        <ele>1001.35</ele>
        <time>2019-03-31T05:48:59Z</time>
      </trkpt>
      <trkpt lat="42.82646" lon="1.039">
        <ele>1001.35</ele>
        <time>2019-03-31T05:49:00Z</time>
      </trkpt>
      <trkpt lat="42.82645" lon="1.03901">
        <ele>1001.83</ele>
        <time>2019-03-31T05:49:01Z</time>
      </trkpt>
      <trkpt lat="42.82643" lon="1.03902">
        <ele>1001.83</ele>
        <time>2019-03-31T05:49:02Z</time>
      </trkpt>
      <trkpt lat="42.82635" lon="1.03909">
        <ele>1003.27</ele>
        <time>2019-03-31T05:49:09Z</time>
      </trkpt>
      <trkpt lat="42.82634" lon="1.0391">
        <ele>1003.27</ele>
        <time>2019-03-31T05:49:10Z</time>
      </trkpt>
      <trkpt lat="42.82633" lon="1.0391">
        <ele>1003.27</ele>
        <time>2019-03-31T05:49:11Z</time>
      </trkpt>
      <trkpt lat="42.82632" lon="1.0391">
        <ele>1003.27</ele>
        <time>2019-03-31T05:49:12Z</time>
      </trkpt>
      <trkpt lat="42.82631" lon="1.0391">
        <ele>1003.27</ele>
        <time>2019-03-31T05:49:13Z</time>
      </trkpt>
      <trkpt lat="42.82629" lon="1.0391">
        <ele>1003.27</ele>
        <time>2019-03-31T05:49:14Z</time>
      </trkpt>
      <trkpt lat="42.82627" lon="1.0391">
        <ele>1003.27</ele>
        <time>2019-03-31T05:49:15Z</time>
      </trkpt>
      <trkpt lat="42.82626" lon="1.0391">
        <ele>1003.27</ele>
        <time>2019-03-31T05:49:16Z</time>
      </trkpt>
      <trkpt lat="42.82624" lon="1.03911">
        <ele>1003.27</ele>
        <time>2019-03-31T05:49:17Z</time>
      </trkpt>
      <trkpt lat="42.82623" lon="1.03912">
        <ele>1003.27</ele>
        <time>2019-03-31T05:49:18Z</time>
      </trkpt>
      <trkpt lat="42.82622" lon="1.03913">
        <ele>1001.83</ele>
        <time>2019-03-31T05:49:19Z</time>
      </trkpt>
      <trkpt lat="42.8262" lon="1.03914">
        <ele>1001.83</ele>
        <time>2019-03-31T05:49:20Z</time>
      </trkpt>
      <trkpt lat="42.82619" lon="1.03915">
        <ele>1001.83</ele>
        <time>2019-03-31T05:49:21Z</time>
      </trkpt>
      <trkpt lat="42.82617" lon="1.03916">
        <ele>1001.83</ele>
        <time>2019-03-31T05:49:22Z</time>
      </trkpt>
      <trkpt lat="42.82611" lon="1.03921">
        <ele>1001.83</ele>
        <time>2019-03-31T05:49:27Z</time>
      </trkpt>
      <trkpt lat="42.82609" lon="1.03921">
        <ele>1001.83</ele>
        <time>2019-03-31T05:49:28Z</time>
      </trkpt>
      <trkpt lat="42.82606" lon="1.03919">
        <ele>1003.27</ele>
        <time>2019-03-31T05:49:30Z</time>
      </trkpt>
      <trkpt lat="42.82588" lon="1.03931">
        <ele>1004.23</ele>
        <time>2019-03-31T05:49:44Z</time>
      </trkpt>
      <trkpt lat="42.82567" lon="1.03934">
        <ele>1006.16</ele>
        <time>2019-03-31T05:50:00Z</time>
      </trkpt>
      <trkpt lat="42.82545" lon="1.0393">
        <ele>1006.64</ele>
        <time>2019-03-31T05:50:15Z</time>
      </trkpt>
      <trkpt lat="42.82532" lon="1.03929">
        <ele>1007.12</ele>
        <time>2019-03-31T05:50:25Z</time>
      </trkpt>
      <trkpt lat="42.82518" lon="1.03924">
        <ele>1008.56</ele>
        <time>2019-03-31T05:50:38Z</time>
      </trkpt>
      <trkpt lat="42.82515" lon="1.03923">
        <ele>1008.08</ele>
        <time>2019-03-31T05:50:40Z</time>
      </trkpt>
      <trkpt lat="42.82514" lon="1.03923">
        <ele>1008.08</ele>
        <time>2019-03-31T05:50:41Z</time>
      </trkpt>
      <trkpt lat="42.82513" lon="1.03923">
        <ele>1008.08</ele>
        <time>2019-03-31T05:50:42Z</time>
      </trkpt>
      <trkpt lat="42.82511" lon="1.03923">
        <ele>1009.52</ele>
        <time>2019-03-31T05:50:53Z</time>
      </trkpt>
      <trkpt lat="42.82511" lon="1.03918">
        <ele>1004.72</ele>
        <time>2019-03-31T05:51:06Z</time>
      </trkpt>
      <trkpt lat="42.82511" lon="1.03918">
        <ele>1009.52</ele>
        <time>2019-03-31T05:51:07Z</time>
      </trkpt>
      <trkpt lat="42.82506" lon="1.03919">
        <ele>1007.12</ele>
        <time>2019-03-31T05:51:31Z</time>
      </trkpt>
      <trkpt lat="42.82505" lon="1.03919">
        <ele>1005.68</ele>
        <time>2019-03-31T05:51:41Z</time>
      </trkpt>
      <trkpt lat="42.82506" lon="1.03917">
        <ele>1007.12</ele>
        <time>2019-03-31T05:51:50Z</time>
      </trkpt>
      <trkpt lat="42.82513" lon="1.03916">
        <ele>1006.64</ele>
        <time>2019-03-31T05:52:27Z</time>
      </trkpt>
      <trkpt lat="42.82512" lon="1.03914">
        <ele>1005.2</ele>
        <time>2019-03-31T05:52:50Z</time>
      </trkpt>
      <trkpt lat="42.82512" lon="1.03914">
        <ele>1005.2</ele>
        <time>2019-03-31T05:52:51Z</time>
      </trkpt>
      <trkpt lat="42.82508" lon="1.03921">
        <ele>1007.12</ele>
        <time>2019-03-31T05:53:02Z</time>
      </trkpt>
      <trkpt lat="42.82506" lon="1.03923">
        <ele>1006.64</ele>
        <time>2019-03-31T05:53:24Z</time>
      </trkpt>
      <trkpt lat="42.82503" lon="1.03926">
        <ele>1007.6</ele>
        <time>2019-03-31T05:53:40Z</time>
      </trkpt>
      <trkpt lat="42.82503" lon="1.03928">
        <ele>1007.6</ele>
        <time>2019-03-31T05:53:57Z</time>
      </trkpt>
      <trkpt lat="42.82498" lon="1.03924">
        <ele>1007.6</ele>
        <time>2019-03-31T05:54:03Z</time>
      </trkpt>
      <trkpt lat="42.82486" lon="1.0392">
        <ele>1008.56</ele>
        <time>2019-03-31T05:54:17Z</time>
      </trkpt>
      <trkpt lat="42.82468" lon="1.0392">
        <ele>1009.52</ele>
        <time>2019-03-31T05:54:31Z</time>
      </trkpt>
      <trkpt lat="42.82449" lon="1.03919">
        <ele>1010</ele>
        <time>2019-03-31T05:54:45Z</time>
      </trkpt>
      <trkpt lat="42.82427" lon="1.03918">
        <ele>1010</ele>
        <time>2019-03-31T05:55:01Z</time>
      </trkpt>
      <trkpt lat="42.82426" lon="1.03919">
        <ele>1010</ele>
        <time>2019-03-31T05:55:02Z</time>
      </trkpt>
      <trkpt lat="42.82425" lon="1.03919">
        <ele>1010</ele>
        <time>2019-03-31T05:55:03Z</time>
      </trkpt>
      <trkpt lat="42.82423" lon="1.0392">
        <ele>1010</ele>
        <time>2019-03-31T05:55:04Z</time>
      </trkpt>
      <trkpt lat="42.82422" lon="1.0392">
        <ele>1010</ele>
        <time>2019-03-31T05:55:05Z</time>
      </trkpt>
      <trkpt lat="42.82421" lon="1.0392">
        <ele>1010.48</ele>
        <time>2019-03-31T05:55:06Z</time>
      </trkpt>
      <trkpt lat="42.82419" lon="1.03921">
        <ele>1010.48</ele>
        <time>2019-03-31T05:55:07Z</time>
      </trkpt>
      <trkpt lat="42.82418" lon="1.03921">
        <ele>1010.48</ele>
        <time>2019-03-31T05:55:08Z</time>
      </trkpt>
      <trkpt lat="42.82402" lon="1.03925">
        <ele>1011.44</ele>
        <time>2019-03-31T05:55:22Z</time>
      </trkpt>
      <trkpt lat="42.82395" lon="1.03924">
        <ele>1011.44</ele>
        <time>2019-03-31T05:55:27Z</time>
      </trkpt>
      <trkpt lat="42.82383" lon="1.03921">
        <ele>1012.41</ele>
        <time>2019-03-31T05:55:36Z</time>
      </trkpt>
      <trkpt lat="42.82371" lon="1.0392">
        <ele>1013.85</ele>
        <time>2019-03-31T05:55:48Z</time>
      </trkpt>
      <trkpt lat="42.82359" lon="1.0392">
        <ele>1014.81</ele>
        <time>2019-03-31T05:55:58Z</time>
      </trkpt>
      <trkpt lat="42.82355" lon="1.0392">
        <ele>1014.81</ele>
        <time>2019-03-31T05:56:00Z</time>
      </trkpt>
      <trkpt lat="42.82352" lon="1.0392">
        <ele>1014.81</ele>
        <time>2019-03-31T05:56:01Z</time>
      </trkpt>
      <trkpt lat="42.8235" lon="1.0392">
        <ele>1014.81</ele>
        <time>2019-03-31T05:56:02Z</time>
      </trkpt>
      <trkpt lat="42.82348" lon="1.0392">
        <ele>1014.81</ele>
        <time>2019-03-31T05:56:03Z</time>
      </trkpt>
      <trkpt lat="42.82346" lon="1.03921">
        <ele>1014.81</ele>
        <time>2019-03-31T05:56:04Z</time>
      </trkpt>
      <trkpt lat="42.82346" lon="1.03923">
        <ele>1014.81</ele>
        <time>2019-03-31T05:56:05Z</time>
      </trkpt>
      <trkpt lat="42.82344" lon="1.03924">
        <ele>1015.29</ele>
        <time>2019-03-31T05:56:07Z</time>
      </trkpt>
      <trkpt lat="42.82326" lon="1.03932">
        <ele>1015.77</ele>
        <time>2019-03-31T05:56:19Z</time>
      </trkpt>
      <trkpt lat="42.82321" lon="1.03931">
        <ele>1016.73</ele>
        <time>2019-03-31T05:56:25Z</time>
      </trkpt>
      <trkpt lat="42.82313" lon="1.03927">
        <ele>1018.17</ele>
        <time>2019-03-31T05:56:32Z</time>
      </trkpt>
      <trkpt lat="42.82305" lon="1.03929">
        <ele>1019.62</ele>
        <time>2019-03-31T05:56:40Z</time>
      </trkpt>
      <trkpt lat="42.82303" lon="1.03929">
        <ele>1019.62</ele>
        <time>2019-03-31T05:56:41Z</time>
      </trkpt>
      <trkpt lat="42.823" lon="1.0393">
        <ele>1020.1</ele>
        <time>2019-03-31T05:56:45Z</time>
      </trkpt>
      <trkpt lat="42.82299" lon="1.0393">
        <ele>1020.1</ele>
        <time>2019-03-31T05:56:46Z</time>
      </trkpt>
      <trkpt lat="42.82294" lon="1.03931">
        <ele>1020.1</ele>
        <time>2019-03-31T05:56:50Z</time>
      </trkpt>
      <trkpt lat="42.82291" lon="1.03931">
        <ele>1020.58</ele>
        <time>2019-03-31T05:56:52Z</time>
      </trkpt>
      <trkpt lat="42.82281" lon="1.03929">
        <ele>1023.46</ele>
        <time>2019-03-31T05:57:03Z</time>
      </trkpt>
      <trkpt lat="42.82279" lon="1.03929">
        <ele>1023.46</ele>
        <time>2019-03-31T05:57:04Z</time>
      </trkpt>
      <trkpt lat="42.82278" lon="1.03929">
        <ele>1023.94</ele>
        <time>2019-03-31T05:57:05Z</time>
      </trkpt>
      <trkpt lat="42.82275" lon="1.03931">
        <ele>1023.94</ele>
        <time>2019-03-31T05:57:07Z</time>
      </trkpt>
      <trkpt lat="42.82262" lon="1.03933">
        <ele>1022.02</ele>
        <time>2019-03-31T05:57:19Z</time>
      </trkpt>
      <trkpt lat="42.82261" lon="1.03934">
        <ele>1022.02</ele>
        <time>2019-03-31T05:57:20Z</time>
      </trkpt>
      <trkpt lat="42.8226" lon="1.03934">
        <ele>1022.02</ele>
        <time>2019-03-31T05:57:21Z</time>
      </trkpt>
      <trkpt lat="42.82254" lon="1.03936">
        <ele>1022.02</ele>
        <time>2019-03-31T05:57:27Z</time>
      </trkpt>
      <trkpt lat="42.82253" lon="1.03935">
        <ele>1022.02</ele>
        <time>2019-03-31T05:57:28Z</time>
      </trkpt>
      <trkpt lat="42.82251" lon="1.03934">
        <ele>1022.02</ele>
        <time>2019-03-31T05:57:29Z</time>
      </trkpt>
      <trkpt lat="42.8225" lon="1.03934">
        <ele>1022.02</ele>
        <time>2019-03-31T05:57:30Z</time>
      </trkpt>
      <trkpt lat="42.82248" lon="1.03933">
        <ele>1022.02</ele>
        <time>2019-03-31T05:57:31Z</time>
      </trkpt>
      <trkpt lat="42.82244" lon="1.03932">
        <ele>1022.02</ele>
        <time>2019-03-31T05:57:35Z</time>
      </trkpt>
      <trkpt lat="42.82242" lon="1.03931">
        <ele>1022.02</ele>
        <time>2019-03-31T05:57:36Z</time>
      </trkpt>
      <trkpt lat="42.82234" lon="1.03928">
        <ele>1023.46</ele>
        <time>2019-03-31T05:57:43Z</time>
      </trkpt>
      <trkpt lat="42.82232" lon="1.03928">
        <ele>1023.46</ele>
        <time>2019-03-31T05:57:45Z</time>
      </trkpt>
      <trkpt lat="42.8223" lon="1.03928">
        <ele>1023.94</ele>
        <time>2019-03-31T05:57:47Z</time>
      </trkpt>
      <trkpt lat="42.82218" lon="1.03926">
        <ele>1023.94</ele>
        <time>2019-03-31T05:57:56Z</time>
      </trkpt>
      <trkpt lat="42.82217" lon="1.03926">
        <ele>1023.94</ele>
        <time>2019-03-31T05:57:57Z</time>
      </trkpt>
      <trkpt lat="42.82208" lon="1.03928">
        <ele>1024.9</ele>
        <time>2019-03-31T05:58:05Z</time>
      </trkpt>
      <trkpt lat="42.82207" lon="1.03928">
        <ele>1024.9</ele>
        <time>2019-03-31T05:58:06Z</time>
      </trkpt>
      <trkpt lat="42.82197" lon="1.03929">
        <ele>1025.38</ele>
        <time>2019-03-31T05:58:18Z</time>
      </trkpt>
      <trkpt lat="42.82194" lon="1.03929">
        <ele>1025.38</ele>
        <time>2019-03-31T05:58:20Z</time>
      </trkpt>
      <trkpt lat="42.82193" lon="1.03928">
        <ele>1025.38</ele>
        <time>2019-03-31T05:58:21Z</time>
      </trkpt>
      <trkpt lat="42.82186" lon="1.03927">
        <ele>1026.83</ele>
        <time>2019-03-31T05:58:27Z</time>
      </trkpt>
      <trkpt lat="42.82173" lon="1.0393">
        <ele>1028.27</ele>
        <time>2019-03-31T05:58:38Z</time>
      </trkpt>
      <trkpt lat="42.82167" lon="1.03926">
        <ele>1029.23</ele>
        <time>2019-03-31T05:58:44Z</time>
      </trkpt>
      <trkpt lat="42.82151" lon="1.03923">
        <ele>1030.67</ele>
        <time>2019-03-31T05:58:58Z</time>
      </trkpt>
      <trkpt lat="42.82147" lon="1.03922">
        <ele>1032.59</ele>
        <time>2019-03-31T05:59:04Z</time>
      </trkpt>
      <trkpt lat="42.82145" lon="1.03921">
        <ele>1032.59</ele>
        <time>2019-03-31T05:59:05Z</time>
      </trkpt>
      <trkpt lat="42.82143" lon="1.03922">
        <ele>1032.59</ele>
        <time>2019-03-31T05:59:06Z</time>
      </trkpt>
      <trkpt lat="42.82141" lon="1.03921">
        <ele>1032.59</ele>
        <time>2019-03-31T05:59:07Z</time>
      </trkpt>
      <trkpt lat="42.82134" lon="1.03922">
        <ele>1032.59</ele>
        <time>2019-03-31T05:59:13Z</time>
      </trkpt>
      <trkpt lat="42.82133" lon="1.03921">
        <ele>1032.59</ele>
        <time>2019-03-31T05:59:14Z</time>
      </trkpt>
      <trkpt lat="42.82121" lon="1.03917">
        <ele>1035</ele>
        <time>2019-03-31T05:59:25Z</time>
      </trkpt>
      <trkpt lat="42.82119" lon="1.03918">
        <ele>1035</ele>
        <time>2019-03-31T05:59:27Z</time>
      </trkpt>
      <trkpt lat="42.82101" lon="1.03923">
        <ele>1038.36</ele>
        <time>2019-03-31T05:59:40Z</time>
      </trkpt>
      <trkpt lat="42.82087" lon="1.03927">
        <ele>1037.4</ele>
        <time>2019-03-31T05:59:50Z</time>
      </trkpt>
      <trkpt lat="42.82086" lon="1.03927">
        <ele>1038.84</ele>
        <time>2019-03-31T05:59:51Z</time>
      </trkpt>
      <trkpt lat="42.82084" lon="1.03927">
        <ele>1038.84</ele>
        <time>2019-03-31T05:59:52Z</time>
      </trkpt>
      <trkpt lat="42.82079" lon="1.03927">
        <ele>1038.84</ele>
        <time>2019-03-31T05:59:55Z</time>
      </trkpt>
      <trkpt lat="42.82078" lon="1.03927">
        <ele>1038.84</ele>
        <time>2019-03-31T05:59:56Z</time>
      </trkpt>
      <trkpt lat="42.82076" lon="1.03927">
        <ele>1038.84</ele>
        <time>2019-03-31T05:59:57Z</time>
      </trkpt>
      <trkpt lat="42.82061" lon="1.03931">
        <ele>1040.28</ele>
        <time>2019-03-31T06:00:11Z</time>
      </trkpt>
      <trkpt lat="42.82053" lon="1.03933">
        <ele>1041.25</ele>
        <time>2019-03-31T06:00:22Z</time>
      </trkpt>
      <trkpt lat="42.82042" lon="1.03937">
        <ele>1043.65</ele>
        <time>2019-03-31T06:00:33Z</time>
      </trkpt>
      <trkpt lat="42.82039" lon="1.03941">
        <ele>1043.17</ele>
        <time>2019-03-31T06:00:36Z</time>
      </trkpt>
      <trkpt lat="42.82033" lon="1.03946">
        <ele>1045.57</ele>
        <time>2019-03-31T06:00:42Z</time>
      </trkpt>
      <trkpt lat="42.82026" lon="1.03946">
        <ele>1047.97</ele>
        <time>2019-03-31T06:00:52Z</time>
      </trkpt>
      <trkpt lat="42.82024" lon="1.03945">
        <ele>1048.45</ele>
        <time>2019-03-31T06:00:53Z</time>
      </trkpt>
      <trkpt lat="42.82022" lon="1.03944">
        <ele>1048.45</ele>
        <time>2019-03-31T06:00:55Z</time>
      </trkpt>
      <trkpt lat="42.82014" lon="1.03947">
        <ele>1051.34</ele>
        <time>2019-03-31T06:01:08Z</time>
      </trkpt>
      <trkpt lat="42.82007" lon="1.03946">
        <ele>1053.74</ele>
        <time>2019-03-31T06:01:20Z</time>
      </trkpt>
      <trkpt lat="42.81996" lon="1.03945">
        <ele>1055.18</ele>
        <time>2019-03-31T06:01:31Z</time>
      </trkpt>
      <trkpt lat="42.81991" lon="1.03945">
        <ele>1056.63</ele>
        <time>2019-03-31T06:01:39Z</time>
      </trkpt>
      <trkpt lat="42.81988" lon="1.03944">
        <ele>1057.11</ele>
        <time>2019-03-31T06:01:41Z</time>
      </trkpt>
      <trkpt lat="42.81982" lon="1.03943">
        <ele>1058.07</ele>
        <time>2019-03-31T06:01:49Z</time>
      </trkpt>
      <trkpt lat="42.81978" lon="1.03942">
        <ele>1058.55</ele>
        <time>2019-03-31T06:01:55Z</time>
      </trkpt>
      <trkpt lat="42.81975" lon="1.03942">
        <ele>1059.03</ele>
        <time>2019-03-31T06:01:58Z</time>
      </trkpt>
      <trkpt lat="42.81961" lon="1.03936">
        <ele>1061.43</ele>
        <time>2019-03-31T06:02:11Z</time>
      </trkpt>
      <trkpt lat="42.81955" lon="1.03932">
        <ele>1061.91</ele>
        <time>2019-03-31T06:02:17Z</time>
      </trkpt>
      <trkpt lat="42.81952" lon="1.03929">
        <ele>1062.39</ele>
        <time>2019-03-31T06:02:21Z</time>
      </trkpt>
      <trkpt lat="42.81951" lon="1.03928">
        <ele>1062.87</ele>
        <time>2019-03-31T06:02:22Z</time>
      </trkpt>
      <trkpt lat="42.81949" lon="1.03926">
        <ele>1062.87</ele>
        <time>2019-03-31T06:02:24Z</time>
      </trkpt>
      <trkpt lat="42.81942" lon="1.03917">
        <ele>1065.28</ele>
        <time>2019-03-31T06:02:34Z</time>
      </trkpt>
      <trkpt lat="42.81937" lon="1.03914">
        <ele>1066.72</ele>
        <time>2019-03-31T06:02:39Z</time>
      </trkpt>
      <trkpt lat="42.81931" lon="1.03903">
        <ele>1069.12</ele>
        <time>2019-03-31T06:02:50Z</time>
      </trkpt>
      <trkpt lat="42.81921" lon="1.03898">
        <ele>1072.49</ele>
        <time>2019-03-31T06:03:03Z</time>
      </trkpt>
      <trkpt lat="42.81917" lon="1.03894">
        <ele>1074.41</ele>
        <time>2019-03-31T06:03:14Z</time>
      </trkpt>
      <trkpt lat="42.81914" lon="1.0389">
        <ele>1076.81</ele>
        <time>2019-03-31T06:03:24Z</time>
      </trkpt>
      <trkpt lat="42.81911" lon="1.03889">
        <ele>1077.29</ele>
        <time>2019-03-31T06:03:28Z</time>
      </trkpt>
      <trkpt lat="42.81905" lon="1.03887">
        <ele>1080.18</ele>
        <time>2019-03-31T06:03:38Z</time>
      </trkpt>
      <trkpt lat="42.81897" lon="1.03881">
        <ele>1083.06</ele>
        <time>2019-03-31T06:03:50Z</time>
      </trkpt>
      <trkpt lat="42.81894" lon="1.03872">
        <ele>1086.43</ele>
        <time>2019-03-31T06:04:01Z</time>
      </trkpt>
      <trkpt lat="42.81894" lon="1.03862">
        <ele>1088.35</ele>
        <time>2019-03-31T06:04:12Z</time>
      </trkpt>
      <trkpt lat="42.81888" lon="1.03857">
        <ele>1091.23</ele>
        <time>2019-03-31T06:04:24Z</time>
      </trkpt>
      <trkpt lat="42.81886" lon="1.0385">
        <ele>1093.64</ele>
        <time>2019-03-31T06:04:37Z</time>
      </trkpt>
      <trkpt lat="42.81889" lon="1.03842">
        <ele>1096.52</ele>
        <time>2019-03-31T06:04:48Z</time>
      </trkpt>
      <trkpt lat="42.81894" lon="1.03837">
        <ele>1099.89</ele>
        <time>2019-03-31T06:05:02Z</time>
      </trkpt>
      <trkpt lat="42.81895" lon="1.03836">
        <ele>1101.33</ele>
        <time>2019-03-31T06:05:09Z</time>
      </trkpt>
      <trkpt lat="42.81897" lon="1.03833">
        <ele>1103.73</ele>
        <time>2019-03-31T06:05:19Z</time>
      </trkpt>
      <trkpt lat="42.81899" lon="1.03824">
        <ele>1107.58</ele>
        <time>2019-03-31T06:05:32Z</time>
      </trkpt>
      <trkpt lat="42.81903" lon="1.03801">
        <ele>1110.46</ele>
        <time>2019-03-31T06:05:44Z</time>
      </trkpt>
      <trkpt lat="42.81906" lon="1.03793">
        <ele>1113.34</ele>
        <time>2019-03-31T06:05:56Z</time>
      </trkpt>
      <trkpt lat="42.81907" lon="1.03785">
        <ele>1116.71</ele>
        <time>2019-03-31T06:06:09Z</time>
      </trkpt>
      <trkpt lat="42.81904" lon="1.03785">
        <ele>1117.67</ele>
        <time>2019-03-31T06:06:23Z</time>
      </trkpt>
      <trkpt lat="42.81904" lon="1.03784">
        <ele>1116.23</ele>
        <time>2019-03-31T06:06:25Z</time>
      </trkpt>
      <trkpt lat="42.81903" lon="1.03773">
        <ele>1115.27</ele>
        <time>2019-03-31T06:06:53Z</time>
      </trkpt>
      <trkpt lat="42.81906" lon="1.03772">
        <ele>1116.23</ele>
        <time>2019-03-31T06:07:05Z</time>
      </trkpt>
      <trkpt lat="42.81902" lon="1.03773">
        <ele>1114.31</ele>
        <time>2019-03-31T06:07:15Z</time>
      </trkpt>
      <trkpt lat="42.81901" lon="1.03773">
        <ele>1116.23</ele>
        <time>2019-03-31T06:07:17Z</time>
      </trkpt>
      <trkpt lat="42.81903" lon="1.03776">
        <ele>1115.75</ele>
        <time>2019-03-31T06:07:35Z</time>
      </trkpt>
      <trkpt lat="42.81906" lon="1.03783">
        <ele>1115.27</ele>
        <time>2019-03-31T06:07:48Z</time>
      </trkpt>
      <trkpt lat="42.81905" lon="1.03785">
        <ele>1115.27</ele>
        <time>2019-03-31T06:08:06Z</time>
      </trkpt>
      <trkpt lat="42.819" lon="1.0378">
        <ele>1117.67</ele>
        <time>2019-03-31T06:08:20Z</time>
      </trkpt>
      <trkpt lat="42.81894" lon="1.03783">
        <ele>1121.52</ele>
        <time>2019-03-31T06:08:33Z</time>
      </trkpt>
      <trkpt lat="42.81888" lon="1.03784">
        <ele>1124.88</ele>
        <time>2019-03-31T06:08:47Z</time>
      </trkpt>
      <trkpt lat="42.81876" lon="1.03784">
        <ele>1128.24</ele>
        <time>2019-03-31T06:09:02Z</time>
      </trkpt>
      <trkpt lat="42.81869" lon="1.03785">
        <ele>1130.65</ele>
        <time>2019-03-31T06:09:14Z</time>
      </trkpt>
      <trkpt lat="42.81862" lon="1.03787">
        <ele>1133.53</ele>
        <time>2019-03-31T06:09:27Z</time>
      </trkpt>
      <trkpt lat="42.81855" lon="1.03788">
        <ele>1136.9</ele>
        <time>2019-03-31T06:09:40Z</time>
      </trkpt>
      <trkpt lat="42.81849" lon="1.03786">
        <ele>1138.82</ele>
        <time>2019-03-31T06:09:53Z</time>
      </trkpt>
      <trkpt lat="42.81852" lon="1.03782">
        <ele>1141.7</ele>
        <time>2019-03-31T06:10:06Z</time>
      </trkpt>
      <trkpt lat="42.81857" lon="1.03775">
        <ele>1144.59</ele>
        <time>2019-03-31T06:10:20Z</time>
      </trkpt>
      <trkpt lat="42.81858" lon="1.03769">
        <ele>1147.47</ele>
        <time>2019-03-31T06:10:34Z</time>
      </trkpt>
      <trkpt lat="42.81859" lon="1.03765">
        <ele>1149.87</ele>
        <time>2019-03-31T06:10:48Z</time>
      </trkpt>
      <trkpt lat="42.81851" lon="1.03768">
        <ele>1153.24</ele>
        <time>2019-03-31T06:11:00Z</time>
      </trkpt>
      <trkpt lat="42.81849" lon="1.0377">
        <ele>1154.2</ele>
        <time>2019-03-31T06:11:04Z</time>
      </trkpt>
      <trkpt lat="42.81847" lon="1.03769">
        <ele>1154.68</ele>
        <time>2019-03-31T06:11:06Z</time>
      </trkpt>
      <trkpt lat="42.81845" lon="1.03768">
        <ele>1156.12</ele>
        <time>2019-03-31T06:11:11Z</time>
      </trkpt>
      <trkpt lat="42.81843" lon="1.03765">
        <ele>1158.05</ele>
        <time>2019-03-31T06:11:22Z</time>
      </trkpt>
      <trkpt lat="42.81846" lon="1.03761">
        <ele>1159.97</ele>
        <time>2019-03-31T06:11:32Z</time>
      </trkpt>
      <trkpt lat="42.81849" lon="1.03751">
        <ele>1163.33</ele>
        <time>2019-03-31T06:11:44Z</time>
      </trkpt>
      <trkpt lat="42.81847" lon="1.03743">
        <ele>1166.22</ele>
        <time>2019-03-31T06:11:56Z</time>
      </trkpt>
      <trkpt lat="42.81845" lon="1.03741">
        <ele>1168.62</ele>
        <time>2019-03-31T06:12:07Z</time>
      </trkpt>
      <trkpt lat="42.81848" lon="1.03738">
        <ele>1171.5</ele>
        <time>2019-03-31T06:12:20Z</time>
      </trkpt>
      <trkpt lat="42.81852" lon="1.03732">
        <ele>1174.87</ele>
        <time>2019-03-31T06:12:33Z</time>
      </trkpt>
      <trkpt lat="42.81856" lon="1.03729">
        <ele>1177.27</ele>
        <time>2019-03-31T06:12:47Z</time>
      </trkpt>
      <trkpt lat="42.81853" lon="1.03726">
        <ele>1179.67</ele>
        <time>2019-03-31T06:12:58Z</time>
      </trkpt>
      <trkpt lat="42.81851" lon="1.03722">
        <ele>1182.56</ele>
        <time>2019-03-31T06:13:10Z</time>
      </trkpt>
      <trkpt lat="42.81849" lon="1.03715">
        <ele>1185.92</ele>
        <time>2019-03-31T06:13:22Z</time>
      </trkpt>
      <trkpt lat="42.8185" lon="1.03712">
        <ele>1188.33</ele>
        <time>2019-03-31T06:13:34Z</time>
      </trkpt>
      <trkpt lat="42.81849" lon="1.03702">
        <ele>1191.21</ele>
        <time>2019-03-31T06:13:46Z</time>
      </trkpt>
      <trkpt lat="42.81844" lon="1.03695">
        <ele>1194.58</ele>
        <time>2019-03-31T06:14:00Z</time>
      </trkpt>
      <trkpt lat="42.81836" lon="1.03689">
        <ele>1197.46</ele>
        <time>2019-03-31T06:14:14Z</time>
      </trkpt>
      <trkpt lat="42.81826" lon="1.03688">
        <ele>1200.34</ele>
        <time>2019-03-31T06:14:27Z</time>
      </trkpt>
      <trkpt lat="42.81818" lon="1.03682">
        <ele>1202.75</ele>
        <time>2019-03-31T06:14:41Z</time>
      </trkpt>
      <trkpt lat="42.81815" lon="1.03681">
        <ele>1205.63</ele>
        <time>2019-03-31T06:14:52Z</time>
      </trkpt>
      <trkpt lat="42.81816" lon="1.03676">
        <ele>1208.03</ele>
        <time>2019-03-31T06:15:04Z</time>
      </trkpt>
      <trkpt lat="42.81817" lon="1.03673">
        <ele>1210.92</ele>
        <time>2019-03-31T06:15:16Z</time>
      </trkpt>
      <trkpt lat="42.81824" lon="1.03668">
        <ele>1214.28</ele>
        <time>2019-03-31T06:15:30Z</time>
      </trkpt>
      <trkpt lat="42.81829" lon="1.03656">
        <ele>1216.69</ele>
        <time>2019-03-31T06:15:44Z</time>
      </trkpt>
      <trkpt lat="42.81831" lon="1.03656">
        <ele>1220.05</ele>
        <time>2019-03-31T06:15:58Z</time>
      </trkpt>
      <trkpt lat="42.81834" lon="1.03656">
        <ele>1223.42</ele>
        <time>2019-03-31T06:16:12Z</time>
      </trkpt>
      <trkpt lat="42.81837" lon="1.03657">
        <ele>1225.34</ele>
        <time>2019-03-31T06:16:23Z</time>
      </trkpt>
      <trkpt lat="42.81844" lon="1.03657">
        <ele>1227.74</ele>
        <time>2019-03-31T06:16:35Z</time>
      </trkpt>
      <trkpt lat="42.81848" lon="1.03658">
        <ele>1229.66</ele>
        <time>2019-03-31T06:16:45Z</time>
      </trkpt>
      <trkpt lat="42.81855" lon="1.03659">
        <ele>1232.55</ele>
        <time>2019-03-31T06:16:58Z</time>
      </trkpt>
      <trkpt lat="42.8186" lon="1.03658">
        <ele>1235.43</ele>
        <time>2019-03-31T06:17:09Z</time>
      </trkpt>
      <trkpt lat="42.81867" lon="1.03655">
        <ele>1235.91</ele>
        <time>2019-03-31T06:17:14Z</time>
      </trkpt>
      <trkpt lat="42.81878" lon="1.03649">
        <ele>1239.76</ele>
        <time>2019-03-31T06:17:27Z</time>
      </trkpt>
      <trkpt lat="42.81884" lon="1.03643">
        <ele>1242.16</ele>
        <time>2019-03-31T06:17:40Z</time>
      </trkpt>
      <trkpt lat="42.81882" lon="1.03637">
        <ele>1245.04</ele>
        <time>2019-03-31T06:17:51Z</time>
      </trkpt>
      <trkpt lat="42.81883" lon="1.03628">
        <ele>1247.93</ele>
        <time>2019-03-31T06:18:06Z</time>
      </trkpt>
      <trkpt lat="42.81874" lon="1.03626">
        <ele>1251.29</ele>
        <time>2019-03-31T06:18:19Z</time>
      </trkpt>
      <trkpt lat="42.81867" lon="1.03625">
        <ele>1254.18</ele>
        <time>2019-03-31T06:18:33Z</time>
      </trkpt>
      <trkpt lat="42.81865" lon="1.03623">
        <ele>1256.58</ele>
        <time>2019-03-31T06:18:43Z</time>
      </trkpt>
      <trkpt lat="42.81862" lon="1.03617">
        <ele>1259.46</ele>
        <time>2019-03-31T06:18:57Z</time>
      </trkpt>
      <trkpt lat="42.81862" lon="1.03617">
        <ele>1259.46</ele>
        <time>2019-03-31T06:18:58Z</time>
      </trkpt>
      <trkpt lat="42.81859" lon="1.03614">
        <ele>1260.91</ele>
        <time>2019-03-31T06:19:03Z</time>
      </trkpt>
      <trkpt lat="42.81848" lon="1.03609">
        <ele>1262.83</ele>
        <time>2019-03-31T06:19:16Z</time>
      </trkpt>
      <trkpt lat="42.81836" lon="1.03609">
        <ele>1263.79</ele>
        <time>2019-03-31T06:19:30Z</time>
      </trkpt>
      <trkpt lat="42.81832" lon="1.03609">
        <ele>1264.27</ele>
        <time>2019-03-31T06:19:36Z</time>
      </trkpt>
      <trkpt lat="42.8182" lon="1.03604">
        <ele>1267.16</ele>
        <time>2019-03-31T06:19:49Z</time>
      </trkpt>
      <trkpt lat="42.81814" lon="1.03603">
        <ele>1268.6</ele>
        <time>2019-03-31T06:20:00Z</time>
      </trkpt>
      <trkpt lat="42.81811" lon="1.03602">
        <ele>1271.96</ele>
        <time>2019-03-31T06:20:11Z</time>
      </trkpt>
      <trkpt lat="42.81799" lon="1.03597">
        <ele>1275.33</ele>
        <time>2019-03-31T06:20:24Z</time>
      </trkpt>
      <trkpt lat="42.81791" lon="1.03594">
        <ele>1277.25</ele>
        <time>2019-03-31T06:20:36Z</time>
      </trkpt>
      <trkpt lat="42.81791" lon="1.03595">
        <ele>1280.61</ele>
        <time>2019-03-31T06:20:48Z</time>
      </trkpt>
      <trkpt lat="42.8179" lon="1.03593">
        <ele>1283.02</ele>
        <time>2019-03-31T06:21:01Z</time>
      </trkpt>
      <trkpt lat="42.81788" lon="1.03586">
        <ele>1286.86</ele>
        <time>2019-03-31T06:21:15Z</time>
      </trkpt>
      <trkpt lat="42.81791" lon="1.03586">
        <ele>1289.27</ele>
        <time>2019-03-31T06:21:27Z</time>
      </trkpt>
      <trkpt lat="42.81793" lon="1.03582">
        <ele>1292.15</ele>
        <time>2019-03-31T06:21:40Z</time>
      </trkpt>
      <trkpt lat="42.81794" lon="1.03581">
        <ele>1293.11</ele>
        <time>2019-03-31T06:21:41Z</time>
      </trkpt>
      <trkpt lat="42.81789" lon="1.03574">
        <ele>1295.99</ele>
        <time>2019-03-31T06:21:53Z</time>
      </trkpt>
      <trkpt lat="42.81791" lon="1.0357">
        <ele>1298.88</ele>
        <time>2019-03-31T06:22:06Z</time>
      </trkpt>
      <trkpt lat="42.81788" lon="1.03566">
        <ele>1300.32</ele>
        <time>2019-03-31T06:22:18Z</time>
      </trkpt>
      <trkpt lat="42.81785" lon="1.03556">
        <ele>1304.17</ele>
        <time>2019-03-31T06:22:31Z</time>
      </trkpt>
      <trkpt lat="42.81783" lon="1.03546">
        <ele>1306.57</ele>
        <time>2019-03-31T06:22:43Z</time>
      </trkpt>
      <trkpt lat="42.81778" lon="1.03535">
        <ele>1309.45</ele>
        <time>2019-03-31T06:22:57Z</time>
      </trkpt>
      <trkpt lat="42.81773" lon="1.03529">
        <ele>1311.86</ele>
        <time>2019-03-31T06:23:11Z</time>
      </trkpt>
      <trkpt lat="42.81768" lon="1.0352">
        <ele>1314.26</ele>
        <time>2019-03-31T06:23:24Z</time>
      </trkpt>
      <trkpt lat="42.81768" lon="1.03518">
        <ele>1317.14</ele>
        <time>2019-03-31T06:23:36Z</time>
      </trkpt>
      <trkpt lat="42.81771" lon="1.03514">
        <ele>1319.07</ele>
        <time>2019-03-31T06:23:47Z</time>
      </trkpt>
      <trkpt lat="42.81776" lon="1.03508">
        <ele>1320.03</ele>
        <time>2019-03-31T06:23:58Z</time>
      </trkpt>
      <trkpt lat="42.81782" lon="1.03511">
        <ele>1322.43</ele>
        <time>2019-03-31T06:24:08Z</time>
      </trkpt>
      <trkpt lat="42.81787" lon="1.03515">
        <ele>1322.91</ele>
        <time>2019-03-31T06:24:11Z</time>
      </trkpt>
      <trkpt lat="42.818" lon="1.03523">
        <ele>1325.8</ele>
        <time>2019-03-31T06:24:24Z</time>
      </trkpt>
      <trkpt lat="42.81804" lon="1.03521">
        <ele>1328.2</ele>
        <time>2019-03-31T06:24:36Z</time>
      </trkpt>
      <trkpt lat="42.81804" lon="1.03518">
        <ele>1328.2</ele>
        <time>2019-03-31T06:24:38Z</time>
      </trkpt>
      <trkpt lat="42.81804" lon="1.03517">
        <ele>1328.68</ele>
        <time>2019-03-31T06:24:40Z</time>
      </trkpt>
      <trkpt lat="42.818" lon="1.03507">
        <ele>1330.6</ele>
        <time>2019-03-31T06:24:54Z</time>
      </trkpt>
      <trkpt lat="42.81793" lon="1.03496">
        <ele>1333.01</ele>
        <time>2019-03-31T06:25:07Z</time>
      </trkpt>
      <trkpt lat="42.81789" lon="1.03489">
        <ele>1335.41</ele>
        <time>2019-03-31T06:25:18Z</time>
      </trkpt>
      <trkpt lat="42.81783" lon="1.03478">
        <ele>1338.29</ele>
        <time>2019-03-31T06:25:30Z</time>
      </trkpt>
      <trkpt lat="42.8178" lon="1.0347">
        <ele>1341.18</ele>
        <time>2019-03-31T06:25:43Z</time>
      </trkpt>
      <trkpt lat="42.81773" lon="1.03457">
        <ele>1344.54</ele>
        <time>2019-03-31T06:25:57Z</time>
      </trkpt>
      <trkpt lat="42.81769" lon="1.03448">
        <ele>1347.91</ele>
        <time>2019-03-31T06:26:11Z</time>
      </trkpt>
      <trkpt lat="42.81764" lon="1.03439">
        <ele>1351.27</ele>
        <time>2019-03-31T06:26:26Z</time>
      </trkpt>
      <trkpt lat="42.8176" lon="1.0343">
        <ele>1353.67</ele>
        <time>2019-03-31T06:26:38Z</time>
      </trkpt>
      <trkpt lat="42.81753" lon="1.03419">
        <ele>1355.6</ele>
        <time>2019-03-31T06:26:52Z</time>
      </trkpt>
      <trkpt lat="42.81748" lon="1.03417">
        <ele>1356.56</ele>
        <time>2019-03-31T06:27:03Z</time>
      </trkpt>
      <trkpt lat="42.81739" lon="1.0341">
        <ele>1359.44</ele>
        <time>2019-03-31T06:27:16Z</time>
      </trkpt>
      <trkpt lat="42.81733" lon="1.03401">
        <ele>1361.36</ele>
        <time>2019-03-31T06:27:28Z</time>
      </trkpt>
      <trkpt lat="42.81732" lon="1.03399">
        <ele>1361.84</ele>
        <time>2019-03-31T06:27:30Z</time>
      </trkpt>
      <trkpt lat="42.81721" lon="1.03388">
        <ele>1364.25</ele>
        <time>2019-03-31T06:27:45Z</time>
      </trkpt>
      <trkpt lat="42.81714" lon="1.03381">
        <ele>1367.13</ele>
        <time>2019-03-31T06:27:58Z</time>
      </trkpt>
      <trkpt lat="42.8171" lon="1.03375">
        <ele>1370.02</ele>
        <time>2019-03-31T06:28:11Z</time>
      </trkpt>
      <trkpt lat="42.81703" lon="1.03368">
        <ele>1372.42</ele>
        <time>2019-03-31T06:28:23Z</time>
      </trkpt>
      <trkpt lat="42.81698" lon="1.03359">
        <ele>1375.3</ele>
        <time>2019-03-31T06:28:35Z</time>
      </trkpt>
      <trkpt lat="42.81692" lon="1.03354">
        <ele>1377.71</ele>
        <time>2019-03-31T06:28:50Z</time>
      </trkpt>
      <trkpt lat="42.81688" lon="1.0335">
        <ele>1380.11</ele>
        <time>2019-03-31T06:29:06Z</time>
      </trkpt>
      <trkpt lat="42.81681" lon="1.03347">
        <ele>1382.51</ele>
        <time>2019-03-31T06:29:17Z</time>
      </trkpt>
      <trkpt lat="42.81674" lon="1.03343">
        <ele>1385.88</ele>
        <time>2019-03-31T06:29:29Z</time>
      </trkpt>
      <trkpt lat="42.81664" lon="1.03344">
        <ele>1388.76</ele>
        <time>2019-03-31T06:29:43Z</time>
      </trkpt>
      <trkpt lat="42.81662" lon="1.03344">
        <ele>1391.65</ele>
        <time>2019-03-31T06:29:56Z</time>
      </trkpt>
      <trkpt lat="42.81656" lon="1.03336">
        <ele>1393.57</ele>
        <time>2019-03-31T06:30:08Z</time>
      </trkpt>
      <trkpt lat="42.8165" lon="1.03333">
        <ele>1395.97</ele>
        <time>2019-03-31T06:30:21Z</time>
      </trkpt>
      <trkpt lat="42.81644" lon="1.03331">
        <ele>1398.37</ele>
        <time>2019-03-31T06:30:32Z</time>
      </trkpt>
      <trkpt lat="42.81637" lon="1.03329">
        <ele>1400.3</ele>
        <time>2019-03-31T06:30:42Z</time>
      </trkpt>
      <trkpt lat="42.81627" lon="1.03329">
        <ele>1400.3</ele>
        <time>2019-03-31T06:30:52Z</time>
      </trkpt>
      <trkpt lat="42.81616" lon="1.03333">
        <ele>1400.78</ele>
        <time>2019-03-31T06:31:05Z</time>
      </trkpt>
      <trkpt lat="42.81616" lon="1.03334">
        <ele>1400.78</ele>
        <time>2019-03-31T06:31:06Z</time>
      </trkpt>
      <trkpt lat="42.81606" lon="1.03338">
        <ele>1400.78</ele>
        <time>2019-03-31T06:31:14Z</time>
      </trkpt>
      <trkpt lat="42.81601" lon="1.03336">
        <ele>1402.22</ele>
        <time>2019-03-31T06:31:21Z</time>
      </trkpt>
      <trkpt lat="42.81582" lon="1.03342">
        <ele>1402.22</ele>
        <time>2019-03-31T06:31:34Z</time>
      </trkpt>
      <trkpt lat="42.81572" lon="1.03342">
        <ele>1404.62</ele>
        <time>2019-03-31T06:31:46Z</time>
      </trkpt>
      <trkpt lat="42.81567" lon="1.03337">
        <ele>1407.99</ele>
        <time>2019-03-31T06:31:59Z</time>
      </trkpt>
      <trkpt lat="42.81564" lon="1.03335">
        <ele>1410.87</ele>
        <time>2019-03-31T06:32:13Z</time>
      </trkpt>
      <trkpt lat="42.81564" lon="1.03327">
        <ele>1413.28</ele>
        <time>2019-03-31T06:32:25Z</time>
      </trkpt>
      <trkpt lat="42.81567" lon="1.03325">
        <ele>1415.68</ele>
        <time>2019-03-31T06:32:35Z</time>
      </trkpt>
      <trkpt lat="42.81568" lon="1.0332">
        <ele>1418.56</ele>
        <time>2019-03-31T06:32:45Z</time>
      </trkpt>
      <trkpt lat="42.81564" lon="1.03318">
        <ele>1420.49</ele>
        <time>2019-03-31T06:32:53Z</time>
      </trkpt>
      <trkpt lat="42.81562" lon="1.03305">
        <ele>1424.33</ele>
        <time>2019-03-31T06:33:07Z</time>
      </trkpt>
      <trkpt lat="42.8156" lon="1.03301">
        <ele>1425.29</ele>
        <time>2019-03-31T06:33:14Z</time>
      </trkpt>
      <trkpt lat="42.81558" lon="1.03299">
        <ele>1423.85</ele>
        <time>2019-03-31T06:33:17Z</time>
      </trkpt>
      <trkpt lat="42.81557" lon="1.03298">
        <ele>1423.85</ele>
        <time>2019-03-31T06:33:18Z</time>
      </trkpt>
      <trkpt lat="42.8155" lon="1.03287">
        <ele>1425.29</ele>
        <time>2019-03-31T06:33:27Z</time>
      </trkpt>
      <trkpt lat="42.81546" lon="1.03282">
        <ele>1425.29</ele>
        <time>2019-03-31T06:33:32Z</time>
      </trkpt>
      <trkpt lat="42.81543" lon="1.03277">
        <ele>1426.73</ele>
        <time>2019-03-31T06:33:38Z</time>
      </trkpt>
      <trkpt lat="42.81533" lon="1.03264">
        <ele>1430.58</ele>
        <time>2019-03-31T06:33:52Z</time>
      </trkpt>
      <trkpt lat="42.8153" lon="1.03257">
        <ele>1432.98</ele>
        <time>2019-03-31T06:34:04Z</time>
      </trkpt>
      <trkpt lat="42.8152" lon="1.03253">
        <ele>1435.87</ele>
        <time>2019-03-31T06:34:16Z</time>
      </trkpt>
      <trkpt lat="42.81519" lon="1.03246">
        <ele>1438.75</ele>
        <time>2019-03-31T06:34:29Z</time>
      </trkpt>
      <trkpt lat="42.81515" lon="1.0324">
        <ele>1441.63</ele>
        <time>2019-03-31T06:34:42Z</time>
      </trkpt>
      <trkpt lat="42.8151" lon="1.03232">
        <ele>1445</ele>
        <time>2019-03-31T06:34:55Z</time>
      </trkpt>
      <trkpt lat="42.81508" lon="1.03224">
        <ele>1447.4</ele>
        <time>2019-03-31T06:35:08Z</time>
      </trkpt>
      <trkpt lat="42.81506" lon="1.03217">
        <ele>1449.81</ele>
        <time>2019-03-31T06:35:18Z</time>
      </trkpt>
      <trkpt lat="42.81503" lon="1.03211">
        <ele>1453.65</ele>
        <time>2019-03-31T06:35:31Z</time>
      </trkpt>
      <trkpt lat="42.81503" lon="1.03204">
        <ele>1456.05</ele>
        <time>2019-03-31T06:35:43Z</time>
      </trkpt>
      <trkpt lat="42.81505" lon="1.03196">
        <ele>1459.42</ele>
        <time>2019-03-31T06:35:55Z</time>
      </trkpt>
      <trkpt lat="42.81502" lon="1.03189">
        <ele>1462.3</ele>
        <time>2019-03-31T06:36:08Z</time>
      </trkpt>
      <trkpt lat="42.81497" lon="1.03181">
        <ele>1465.19</ele>
        <time>2019-03-31T06:36:21Z</time>
      </trkpt>
      <trkpt lat="42.81499" lon="1.03178">
        <ele>1468.07</ele>
        <time>2019-03-31T06:36:33Z</time>
      </trkpt>
      <trkpt lat="42.81503" lon="1.03173">
        <ele>1469.99</ele>
        <time>2019-03-31T06:36:44Z</time>
      </trkpt>
      <trkpt lat="42.81499" lon="1.03167">
        <ele>1472.88</ele>
        <time>2019-03-31T06:36:57Z</time>
      </trkpt>
      <trkpt lat="42.81495" lon="1.03162">
        <ele>1475.28</ele>
        <time>2019-03-31T06:37:09Z</time>
      </trkpt>
      <trkpt lat="42.81495" lon="1.03153">
        <ele>1477.68</ele>
        <time>2019-03-31T06:37:22Z</time>
      </trkpt>
      <trkpt lat="42.81493" lon="1.03148">
        <ele>1481.05</ele>
        <time>2019-03-31T06:37:35Z</time>
      </trkpt>
      <trkpt lat="42.81493" lon="1.03145">
        <ele>1482.01</ele>
        <time>2019-03-31T06:37:44Z</time>
      </trkpt>
      <trkpt lat="42.81492" lon="1.03137">
        <ele>1484.41</ele>
        <time>2019-03-31T06:37:56Z</time>
      </trkpt>
      <trkpt lat="42.81492" lon="1.03135">
        <ele>1485.37</ele>
        <time>2019-03-31T06:38:02Z</time>
      </trkpt>
      <trkpt lat="42.81484" lon="1.03134">
        <ele>1486.82</ele>
        <time>2019-03-31T06:38:17Z</time>
      </trkpt>
      <trkpt lat="42.81477" lon="1.03126">
        <ele>1488.74</ele>
        <time>2019-03-31T06:38:29Z</time>
      </trkpt>
      <trkpt lat="42.81476" lon="1.03126">
        <ele>1488.74</ele>
        <time>2019-03-31T06:38:31Z</time>
      </trkpt>
      <trkpt lat="42.81473" lon="1.03128">
        <ele>1488.74</ele>
        <time>2019-03-31T06:38:34Z</time>
      </trkpt>
      <trkpt lat="42.8147" lon="1.03128">
        <ele>1488.74</ele>
        <time>2019-03-31T06:38:37Z</time>
      </trkpt>
      <trkpt lat="42.81467" lon="1.03128">
        <ele>1488.74</ele>
        <time>2019-03-31T06:38:40Z</time>
      </trkpt>
      <trkpt lat="42.81466" lon="1.03128">
        <ele>1489.22</ele>
        <time>2019-03-31T06:38:42Z</time>
      </trkpt>
      <trkpt lat="42.81463" lon="1.03129">
        <ele>1489.7</ele>
        <time>2019-03-31T06:38:44Z</time>
      </trkpt>
      <trkpt lat="42.81457" lon="1.03126">
        <ele>1490.66</ele>
        <time>2019-03-31T06:38:50Z</time>
      </trkpt>
      <trkpt lat="42.8145" lon="1.03114">
        <ele>1490.66</ele>
        <time>2019-03-31T06:38:59Z</time>
      </trkpt>
      <trkpt lat="42.81449" lon="1.03099">
        <ele>1492.58</ele>
        <time>2019-03-31T06:39:12Z</time>
      </trkpt>
      <trkpt lat="42.81449" lon="1.03098">
        <ele>1492.58</ele>
        <time>2019-03-31T06:39:13Z</time>
      </trkpt>
      <trkpt lat="42.81447" lon="1.03096">
        <ele>1493.06</ele>
        <time>2019-03-31T06:39:16Z</time>
      </trkpt>
      <trkpt lat="42.81444" lon="1.03094">
        <ele>1493.55</ele>
        <time>2019-03-31T06:39:19Z</time>
      </trkpt>
      <trkpt lat="42.8144" lon="1.03096">
        <ele>1494.03</ele>
        <time>2019-03-31T06:39:24Z</time>
      </trkpt>
      <trkpt lat="42.81435" lon="1.03095">
        <ele>1492.58</ele>
        <time>2019-03-31T06:39:32Z</time>
      </trkpt>
      <trkpt lat="42.81427" lon="1.03092">
        <ele>1492.1</ele>
        <time>2019-03-31T06:39:42Z</time>
      </trkpt>
      <trkpt lat="42.81425" lon="1.03091">
        <ele>1492.1</ele>
        <time>2019-03-31T06:39:44Z</time>
      </trkpt>
      <trkpt lat="42.81419" lon="1.0309">
        <ele>1492.1</ele>
        <time>2019-03-31T06:39:49Z</time>
      </trkpt>
      <trkpt lat="42.81416" lon="1.03089">
        <ele>1493.55</ele>
        <time>2019-03-31T06:39:52Z</time>
      </trkpt>
      <trkpt lat="42.81415" lon="1.03088">
        <ele>1494.03</ele>
        <time>2019-03-31T06:39:54Z</time>
      </trkpt>
      <trkpt lat="42.81413" lon="1.03088">
        <ele>1494.51</ele>
        <time>2019-03-31T06:39:57Z</time>
      </trkpt>
      <trkpt lat="42.81408" lon="1.03089">
        <ele>1494.99</ele>
        <time>2019-03-31T06:40:02Z</time>
      </trkpt>
      <trkpt lat="42.81401" lon="1.03089">
        <ele>1495.95</ele>
        <time>2019-03-31T06:40:09Z</time>
      </trkpt>
      <trkpt lat="42.81394" lon="1.0308">
        <ele>1497.87</ele>
        <time>2019-03-31T06:40:20Z</time>
      </trkpt>
      <trkpt lat="42.81392" lon="1.03072">
        <ele>1498.35</ele>
        <time>2019-03-31T06:40:26Z</time>
      </trkpt>
      <trkpt lat="42.81388" lon="1.03067">
        <ele>1498.35</ele>
        <time>2019-03-31T06:40:31Z</time>
      </trkpt>
      <trkpt lat="42.81384" lon="1.0306">
        <ele>1497.87</ele>
        <time>2019-03-31T06:40:38Z</time>
      </trkpt>
      <trkpt lat="42.81377" lon="1.03054">
        <ele>1497.87</ele>
        <time>2019-03-31T06:40:51Z</time>
      </trkpt>
      <trkpt lat="42.81377" lon="1.0305">
        <ele>1498.35</ele>
        <time>2019-03-31T06:41:06Z</time>
      </trkpt>
      <trkpt lat="42.81375" lon="1.03046">
        <ele>1498.83</ele>
        <time>2019-03-31T06:41:13Z</time>
      </trkpt>
      <trkpt lat="42.81371" lon="1.03046">
        <ele>1498.83</ele>
        <time>2019-03-31T06:41:17Z</time>
      </trkpt>
      <trkpt lat="42.81365" lon="1.03045">
        <ele>1499.31</ele>
        <time>2019-03-31T06:41:23Z</time>
      </trkpt>
      <trkpt lat="42.81356" lon="1.03047">
        <ele>1499.31</ele>
        <time>2019-03-31T06:41:32Z</time>
      </trkpt>
      <trkpt lat="42.81351" lon="1.03045">
        <ele>1499.31</ele>
        <time>2019-03-31T06:41:39Z</time>
      </trkpt>
      <trkpt lat="42.81348" lon="1.03039">
        <ele>1500.27</ele>
        <time>2019-03-31T06:41:52Z</time>
      </trkpt>
      <trkpt lat="42.81346" lon="1.03033">
        <ele>1501.24</ele>
        <time>2019-03-31T06:41:57Z</time>
      </trkpt>
      <trkpt lat="42.81345" lon="1.03032">
        <ele>1502.2</ele>
        <time>2019-03-31T06:41:59Z</time>
      </trkpt>
      <trkpt lat="42.81344" lon="1.03031">
        <ele>1501.72</ele>
        <time>2019-03-31T06:42:01Z</time>
      </trkpt>
      <trkpt lat="42.81339" lon="1.0303">
        <ele>1501.72</ele>
        <time>2019-03-31T06:42:07Z</time>
      </trkpt>
      <trkpt lat="42.81338" lon="1.03021">
        <ele>1502.68</ele>
        <time>2019-03-31T06:42:16Z</time>
      </trkpt>
      <trkpt lat="42.81338" lon="1.03012">
        <ele>1503.64</ele>
        <time>2019-03-31T06:42:32Z</time>
      </trkpt>
      <trkpt lat="42.81337" lon="1.03013">
        <ele>1503.64</ele>
        <time>2019-03-31T06:42:35Z</time>
      </trkpt>
      <trkpt lat="42.81334" lon="1.03015">
        <ele>1502.2</ele>
        <time>2019-03-31T06:42:39Z</time>
      </trkpt>
      <trkpt lat="42.81333" lon="1.03016">
        <ele>1501.72</ele>
        <time>2019-03-31T06:42:42Z</time>
      </trkpt>
      <trkpt lat="42.81331" lon="1.03018">
        <ele>1500.76</ele>
        <time>2019-03-31T06:42:45Z</time>
      </trkpt>
      <trkpt lat="42.81328" lon="1.03022">
        <ele>1500.76</ele>
        <time>2019-03-31T06:42:55Z</time>
      </trkpt>
      <trkpt lat="42.81325" lon="1.03023">
        <ele>1502.2</ele>
        <time>2019-03-31T06:43:00Z</time>
      </trkpt>
      <trkpt lat="42.81325" lon="1.03022">
        <ele>1502.2</ele>
        <time>2019-03-31T06:43:03Z</time>
      </trkpt>
      <trkpt lat="42.81324" lon="1.03012">
        <ele>1503.64</ele>
        <time>2019-03-31T06:43:11Z</time>
      </trkpt>
      <trkpt lat="42.81323" lon="1.03004">
        <ele>1504.12</ele>
        <time>2019-03-31T06:43:18Z</time>
      </trkpt>
      <trkpt lat="42.81316" lon="1.02994">
        <ele>1506.04</ele>
        <time>2019-03-31T06:43:31Z</time>
      </trkpt>
      <trkpt lat="42.81311" lon="1.03001">
        <ele>1508.93</ele>
        <time>2019-03-31T06:43:45Z</time>
      </trkpt>
      <trkpt lat="42.81306" lon="1.03003">
        <ele>1510.37</ele>
        <time>2019-03-31T06:43:58Z</time>
      </trkpt>
      <trkpt lat="42.81304" lon="1.03005">
        <ele>1510.37</ele>
        <time>2019-03-31T06:44:12Z</time>
      </trkpt>
      <trkpt lat="42.81297" lon="1.03013">
        <ele>1513.25</ele>
        <time>2019-03-31T06:44:25Z</time>
      </trkpt>
      <trkpt lat="42.81296" lon="1.03013">
        <ele>1513.25</ele>
        <time>2019-03-31T06:44:40Z</time>
      </trkpt>
      <trkpt lat="42.81296" lon="1.03015">
        <ele>1511.81</ele>
        <time>2019-03-31T06:44:57Z</time>
      </trkpt>
      <trkpt lat="42.81298" lon="1.03017">
        <ele>1512.77</ele>
        <time>2019-03-31T06:45:19Z</time>
      </trkpt>
      <trkpt lat="42.81297" lon="1.03013">
        <ele>1512.77</ele>
        <time>2019-03-31T06:45:55Z</time>
      </trkpt>
      <trkpt lat="42.81295" lon="1.03014">
        <ele>1511.81</ele>
        <time>2019-03-31T06:46:31Z</time>
      </trkpt>
      <trkpt lat="42.81299" lon="1.03015">
        <ele>1511.33</ele>
        <time>2019-03-31T06:47:13Z</time>
      </trkpt>
      <trkpt lat="42.81297" lon="1.03015">
        <ele>1511.33</ele>
        <time>2019-03-31T06:47:40Z</time>
      </trkpt>
      <trkpt lat="42.81293" lon="1.03016">
        <ele>1511.33</ele>
        <time>2019-03-31T06:48:17Z</time>
      </trkpt>
      <trkpt lat="42.81293" lon="1.03018">
        <ele>1511.33</ele>
        <time>2019-03-31T06:48:47Z</time>
      </trkpt>
      <trkpt lat="42.81298" lon="1.03013">
        <ele>1511.33</ele>
        <time>2019-03-31T06:49:15Z</time>
      </trkpt>
      <trkpt lat="42.81295" lon="1.03015">
        <ele>1511.33</ele>
        <time>2019-03-31T06:49:45Z</time>
      </trkpt>
      <trkpt lat="42.81295" lon="1.03014">
        <ele>1513.25</ele>
        <time>2019-03-31T06:50:06Z</time>
      </trkpt>
      <trkpt lat="42.81296" lon="1.03015">
        <ele>1511.33</ele>
        <time>2019-03-31T06:50:22Z</time>
      </trkpt>
      <trkpt lat="42.81297" lon="1.03013">
        <ele>1511.33</ele>
        <time>2019-03-31T06:50:45Z</time>
      </trkpt>
      <trkpt lat="42.81297" lon="1.03007">
        <ele>1511.33</ele>
        <time>2019-03-31T06:51:15Z</time>
      </trkpt>
      <trkpt lat="42.81301" lon="1.03015">
        <ele>1511.33</ele>
        <time>2019-03-31T06:51:43Z</time>
      </trkpt>
      <trkpt lat="42.813" lon="1.0301">
        <ele>1511.33</ele>
        <time>2019-03-31T06:52:12Z</time>
      </trkpt>
      <trkpt lat="42.813" lon="1.0301">
        <ele>1510.85</ele>
        <time>2019-03-31T06:52:49Z</time>
      </trkpt>
      <trkpt lat="42.813" lon="1.03011">
        <ele>1510.85</ele>
        <time>2019-03-31T06:53:08Z</time>
      </trkpt>
      <trkpt lat="42.81297" lon="1.03013">
        <ele>1510.85</ele>
        <time>2019-03-31T06:53:22Z</time>
      </trkpt>
      <trkpt lat="42.81298" lon="1.03014">
        <ele>1511.81</ele>
        <time>2019-03-31T06:53:48Z</time>
      </trkpt>
      <trkpt lat="42.81297" lon="1.03013">
        <ele>1513.25</ele>
        <time>2019-03-31T06:54:11Z</time>
      </trkpt>
      <trkpt lat="42.81298" lon="1.03012">
        <ele>1511.81</ele>
        <time>2019-03-31T06:54:14Z</time>
      </trkpt>
      <trkpt lat="42.81297" lon="1.03011">
        <ele>1513.25</ele>
        <time>2019-03-31T06:54:17Z</time>
      </trkpt>
      <trkpt lat="42.81295" lon="1.03013">
        <ele>1513.25</ele>
        <time>2019-03-31T06:54:36Z</time>
      </trkpt>
      <trkpt lat="42.81297" lon="1.03011">
        <ele>1513.25</ele>
        <time>2019-03-31T06:54:52Z</time>
      </trkpt>
      <trkpt lat="42.81296" lon="1.03012">
        <ele>1513.25</ele>
        <time>2019-03-31T06:55:01Z</time>
      </trkpt>
      <trkpt lat="42.81294" lon="1.03009">
        <ele>1513.73</ele>
        <time>2019-03-31T06:55:12Z</time>
      </trkpt>
      <trkpt lat="42.81297" lon="1.03011">
        <ele>1513.73</ele>
        <time>2019-03-31T06:55:28Z</time>
      </trkpt>
      <trkpt lat="42.81294" lon="1.03011">
        <ele>1513.73</ele>
        <time>2019-03-31T06:55:40Z</time>
      </trkpt>
      <trkpt lat="42.81295" lon="1.0301">
        <ele>1513.25</ele>
        <time>2019-03-31T06:55:46Z</time>
      </trkpt>
      <trkpt lat="42.81294" lon="1.03007">
        <ele>1513.25</ele>
        <time>2019-03-31T06:55:51Z</time>
      </trkpt>
      <trkpt lat="42.81293" lon="1.03005">
        <ele>1513.25</ele>
        <time>2019-03-31T06:55:53Z</time>
      </trkpt>
      <trkpt lat="42.81288" lon="1.02997">
        <ele>1513.25</ele>
        <time>2019-03-31T06:56:01Z</time>
      </trkpt>
      <trkpt lat="42.81283" lon="1.02987">
        <ele>1514.69</ele>
        <time>2019-03-31T06:56:09Z</time>
      </trkpt>
      <trkpt lat="42.8128" lon="1.02981">
        <ele>1516.14</ele>
        <time>2019-03-31T06:56:16Z</time>
      </trkpt>
      <trkpt lat="42.81276" lon="1.0298">
        <ele>1517.1</ele>
        <time>2019-03-31T06:56:21Z</time>
      </trkpt>
      <trkpt lat="42.81269" lon="1.02977">
        <ele>1519.02</ele>
        <time>2019-03-31T06:56:29Z</time>
      </trkpt>
      <trkpt lat="42.81262" lon="1.02972">
        <ele>1519.98</ele>
        <time>2019-03-31T06:56:36Z</time>
      </trkpt>
      <trkpt lat="42.8125" lon="1.02969">
        <ele>1520.46</ele>
        <time>2019-03-31T06:56:48Z</time>
      </trkpt>
      <trkpt lat="42.81236" lon="1.02963">
        <ele>1520.94</ele>
        <time>2019-03-31T06:56:59Z</time>
      </trkpt>
      <trkpt lat="42.81227" lon="1.02955">
        <ele>1523.83</ele>
        <time>2019-03-31T06:57:11Z</time>
      </trkpt>
      <trkpt lat="42.81218" lon="1.02948">
        <ele>1526.23</ele>
        <time>2019-03-31T06:57:21Z</time>
      </trkpt>
      <trkpt lat="42.81213" lon="1.02945">
        <ele>1527.19</ele>
        <time>2019-03-31T06:57:27Z</time>
      </trkpt>
      <trkpt lat="42.81205" lon="1.02939">
        <ele>1530.08</ele>
        <time>2019-03-31T06:57:39Z</time>
      </trkpt>
      <trkpt lat="42.81204" lon="1.02939">
        <ele>1530.56</ele>
        <time>2019-03-31T06:57:41Z</time>
      </trkpt>
      <trkpt lat="42.81194" lon="1.02947">
        <ele>1532.48</ele>
        <time>2019-03-31T06:57:53Z</time>
      </trkpt>
      <trkpt lat="42.8119" lon="1.02938">
        <ele>1535.84</ele>
        <time>2019-03-31T06:58:05Z</time>
      </trkpt>
      <trkpt lat="42.81189" lon="1.02934">
        <ele>1536.32</ele>
        <time>2019-03-31T06:58:09Z</time>
      </trkpt>
      <trkpt lat="42.81185" lon="1.0293">
        <ele>1537.77</ele>
        <time>2019-03-31T06:58:15Z</time>
      </trkpt>
      <trkpt lat="42.81183" lon="1.02929">
        <ele>1538.73</ele>
        <time>2019-03-31T06:58:18Z</time>
      </trkpt>
      <trkpt lat="42.81178" lon="1.0292">
        <ele>1541.13</ele>
        <time>2019-03-31T06:58:27Z</time>
      </trkpt>
      <trkpt lat="42.81169" lon="1.02906">
        <ele>1542.57</ele>
        <time>2019-03-31T06:58:40Z</time>
      </trkpt>
      <trkpt lat="42.81167" lon="1.02902">
        <ele>1542.57</ele>
        <time>2019-03-31T06:58:44Z</time>
      </trkpt>
      <trkpt lat="42.81164" lon="1.02897">
        <ele>1543.53</ele>
        <time>2019-03-31T06:58:48Z</time>
      </trkpt>
      <trkpt lat="42.81163" lon="1.02895">
        <ele>1543.53</ele>
        <time>2019-03-31T06:58:50Z</time>
      </trkpt>
      <trkpt lat="42.81159" lon="1.02883">
        <ele>1546.42</ele>
        <time>2019-03-31T06:59:01Z</time>
      </trkpt>
      <trkpt lat="42.8115" lon="1.02876">
        <ele>1549.3</ele>
        <time>2019-03-31T06:59:14Z</time>
      </trkpt>
      <trkpt lat="42.81147" lon="1.02869">
        <ele>1551.22</ele>
        <time>2019-03-31T06:59:22Z</time>
      </trkpt>
      <trkpt lat="42.81145" lon="1.02866">
        <ele>1551.71</ele>
        <time>2019-03-31T06:59:25Z</time>
      </trkpt>
      <trkpt lat="42.81142" lon="1.02864">
        <ele>1552.67</ele>
        <time>2019-03-31T06:59:29Z</time>
      </trkpt>
      <trkpt lat="42.81132" lon="1.02862">
        <ele>1555.55</ele>
        <time>2019-03-31T06:59:43Z</time>
      </trkpt>
      <trkpt lat="42.8113" lon="1.0286">
        <ele>1556.99</ele>
        <time>2019-03-31T06:59:46Z</time>
      </trkpt>
      <trkpt lat="42.81119" lon="1.02855">
        <ele>1559.4</ele>
        <time>2019-03-31T07:00:00Z</time>
      </trkpt>
      <trkpt lat="42.81115" lon="1.02854">
        <ele>1560.84</ele>
        <time>2019-03-31T07:00:06Z</time>
      </trkpt>
      <trkpt lat="42.81106" lon="1.0285">
        <ele>1563.72</ele>
        <time>2019-03-31T07:00:18Z</time>
      </trkpt>
      <trkpt lat="42.81105" lon="1.02859">
        <ele>1565.16</ele>
        <time>2019-03-31T07:00:26Z</time>
      </trkpt>
      <trkpt lat="42.81103" lon="1.02864">
        <ele>1565.64</ele>
        <time>2019-03-31T07:00:30Z</time>
      </trkpt>
      <trkpt lat="42.81103" lon="1.02861">
        <ele>1566.61</ele>
        <time>2019-03-31T07:00:33Z</time>
      </trkpt>
      <trkpt lat="42.81101" lon="1.02856">
        <ele>1567.57</ele>
        <time>2019-03-31T07:00:38Z</time>
      </trkpt>
      <trkpt lat="42.811" lon="1.02854">
        <ele>1567.57</ele>
        <time>2019-03-31T07:00:40Z</time>
      </trkpt>
      <trkpt lat="42.81094" lon="1.02848">
        <ele>1567.57</ele>
        <time>2019-03-31T07:00:48Z</time>
      </trkpt>
      <trkpt lat="42.81091" lon="1.02847">
        <ele>1567.57</ele>
        <time>2019-03-31T07:00:51Z</time>
      </trkpt>
      <trkpt lat="42.81085" lon="1.02836">
        <ele>1569.49</ele>
        <time>2019-03-31T07:01:04Z</time>
      </trkpt>
      <trkpt lat="42.81085" lon="1.02835">
        <ele>1569.49</ele>
        <time>2019-03-31T07:01:05Z</time>
      </trkpt>
      <trkpt lat="42.81081" lon="1.02822">
        <ele>1571.89</ele>
        <time>2019-03-31T07:01:18Z</time>
      </trkpt>
      <trkpt lat="42.81077" lon="1.02808">
        <ele>1572.85</ele>
        <time>2019-03-31T07:01:29Z</time>
      </trkpt>
      <trkpt lat="42.81072" lon="1.02799">
        <ele>1574.78</ele>
        <time>2019-03-31T07:01:40Z</time>
      </trkpt>
      <trkpt lat="42.81067" lon="1.02788">
        <ele>1575.74</ele>
        <time>2019-03-31T07:01:51Z</time>
      </trkpt>
      <trkpt lat="42.81063" lon="1.02774">
        <ele>1577.18</ele>
        <time>2019-03-31T07:02:03Z</time>
      </trkpt>
      <trkpt lat="42.81055" lon="1.02762">
        <ele>1579.58</ele>
        <time>2019-03-31T07:02:15Z</time>
      </trkpt>
      <trkpt lat="42.81054" lon="1.02762">
        <ele>1579.58</ele>
        <time>2019-03-31T07:02:16Z</time>
      </trkpt>
      <trkpt lat="42.8105" lon="1.02755">
        <ele>1580.54</ele>
        <time>2019-03-31T07:02:23Z</time>
      </trkpt>
      <trkpt lat="42.81044" lon="1.02749">
        <ele>1582.47</ele>
        <time>2019-03-31T07:02:33Z</time>
      </trkpt>
      <trkpt lat="42.81035" lon="1.02739">
        <ele>1585.35</ele>
        <time>2019-03-31T07:02:47Z</time>
      </trkpt>
      <trkpt lat="42.81034" lon="1.02737">
        <ele>1585.35</ele>
        <time>2019-03-31T07:02:49Z</time>
      </trkpt>
      <trkpt lat="42.8103" lon="1.02748">
        <ele>1588.24</ele>
        <time>2019-03-31T07:03:01Z</time>
      </trkpt>
      <trkpt lat="42.81027" lon="1.02754">
        <ele>1590.64</ele>
        <time>2019-03-31T07:03:12Z</time>
      </trkpt>
      <trkpt lat="42.81024" lon="1.0275">
        <ele>1591.6</ele>
        <time>2019-03-31T07:03:19Z</time>
      </trkpt>
      <trkpt lat="42.81014" lon="1.02737">
        <ele>1594</ele>
        <time>2019-03-31T07:03:34Z</time>
      </trkpt>
      <trkpt lat="42.81018" lon="1.02736">
        <ele>1594.48</ele>
        <time>2019-03-31T07:03:52Z</time>
      </trkpt>
      <trkpt lat="42.81018" lon="1.02734">
        <ele>1594.48</ele>
        <time>2019-03-31T07:04:02Z</time>
      </trkpt>
      <trkpt lat="42.81007" lon="1.02727">
        <ele>1596.41</ele>
        <time>2019-03-31T07:04:15Z</time>
      </trkpt>
      <trkpt lat="42.81" lon="1.02724">
        <ele>1598.33</ele>
        <time>2019-03-31T07:04:28Z</time>
      </trkpt>
      <trkpt lat="42.80996" lon="1.02724">
        <ele>1598.81</ele>
        <time>2019-03-31T07:04:42Z</time>
      </trkpt>
      <trkpt lat="42.80995" lon="1.02728">
        <ele>1598.81</ele>
        <time>2019-03-31T07:04:59Z</time>
      </trkpt>
      <trkpt lat="42.80996" lon="1.02736">
        <ele>1601.21</ele>
        <time>2019-03-31T07:05:07Z</time>
      </trkpt>
      <trkpt lat="42.80997" lon="1.02743">
        <ele>1602.66</ele>
        <time>2019-03-31T07:05:14Z</time>
      </trkpt>
      <trkpt lat="42.80994" lon="1.02741">
        <ele>1603.62</ele>
        <time>2019-03-31T07:05:20Z</time>
      </trkpt>
      <trkpt lat="42.80985" lon="1.02737">
        <ele>1606.02</ele>
        <time>2019-03-31T07:05:33Z</time>
      </trkpt>
      <trkpt lat="42.80976" lon="1.02733">
        <ele>1608.9</ele>
        <time>2019-03-31T07:05:47Z</time>
      </trkpt>
      <trkpt lat="42.80969" lon="1.02726">
        <ele>1610.35</ele>
        <time>2019-03-31T07:06:03Z</time>
      </trkpt>
      <trkpt lat="42.80966" lon="1.02725">
        <ele>1611.79</ele>
        <time>2019-03-31T07:06:15Z</time>
      </trkpt>
      <trkpt lat="42.80963" lon="1.02724">
        <ele>1613.23</ele>
        <time>2019-03-31T07:06:25Z</time>
      </trkpt>
      <trkpt lat="42.80962" lon="1.02717">
        <ele>1613.71</ele>
        <time>2019-03-31T07:06:37Z</time>
      </trkpt>
      <trkpt lat="42.8096" lon="1.02719">
        <ele>1614.67</ele>
        <time>2019-03-31T07:06:50Z</time>
      </trkpt>
      <trkpt lat="42.8096" lon="1.02721">
        <ele>1614.67</ele>
        <time>2019-03-31T07:07:10Z</time>
      </trkpt>
      <trkpt lat="42.80959" lon="1.0272">
        <ele>1614.19</ele>
        <time>2019-03-31T07:07:21Z</time>
      </trkpt>
      <trkpt lat="42.80956" lon="1.02722">
        <ele>1614.19</ele>
        <time>2019-03-31T07:07:38Z</time>
      </trkpt>
      <trkpt lat="42.80956" lon="1.02718">
        <ele>1615.63</ele>
        <time>2019-03-31T07:07:52Z</time>
      </trkpt>
      <trkpt lat="42.80948" lon="1.02713">
        <ele>1617.56</ele>
        <time>2019-03-31T07:08:05Z</time>
      </trkpt>
      <trkpt lat="42.80948" lon="1.02709">
        <ele>1618.52</ele>
        <time>2019-03-31T07:08:11Z</time>
      </trkpt>
      <trkpt lat="42.80945" lon="1.02708">
        <ele>1617.07</ele>
        <time>2019-03-31T07:08:16Z</time>
      </trkpt>
      <trkpt lat="42.80947" lon="1.02711">
        <ele>1616.59</ele>
        <time>2019-03-31T07:08:34Z</time>
      </trkpt>
      <trkpt lat="42.80948" lon="1.02712">
        <ele>1618.04</ele>
        <time>2019-03-31T07:08:57Z</time>
      </trkpt>
      <trkpt lat="42.80948" lon="1.02711">
        <ele>1618.04</ele>
        <time>2019-03-31T07:08:58Z</time>
      </trkpt>
      <trkpt lat="42.80948" lon="1.0271">
        <ele>1617.07</ele>
        <time>2019-03-31T07:09:02Z</time>
      </trkpt>
      <trkpt lat="42.80944" lon="1.02704">
        <ele>1617.56</ele>
        <time>2019-03-31T07:09:10Z</time>
      </trkpt>
      <trkpt lat="42.80942" lon="1.02703">
        <ele>1619</ele>
        <time>2019-03-31T07:09:12Z</time>
      </trkpt>
      <trkpt lat="42.80935" lon="1.02695">
        <ele>1620.44</ele>
        <time>2019-03-31T07:09:25Z</time>
      </trkpt>
      <trkpt lat="42.8093" lon="1.02688">
        <ele>1622.84</ele>
        <time>2019-03-31T07:09:35Z</time>
      </trkpt>
      <trkpt lat="42.80922" lon="1.02678">
        <ele>1625.25</ele>
        <time>2019-03-31T07:09:50Z</time>
      </trkpt>
      <trkpt lat="42.80914" lon="1.02671">
        <ele>1626.69</ele>
        <time>2019-03-31T07:10:01Z</time>
      </trkpt>
      <trkpt lat="42.80902" lon="1.0266">
        <ele>1627.65</ele>
        <time>2019-03-31T07:10:16Z</time>
      </trkpt>
      <trkpt lat="42.80891" lon="1.02656">
        <ele>1628.61</ele>
        <time>2019-03-31T07:10:29Z</time>
      </trkpt>
      <trkpt lat="42.8088" lon="1.02653">
        <ele>1628.61</ele>
        <time>2019-03-31T07:10:42Z</time>
      </trkpt>
      <trkpt lat="42.80876" lon="1.02652">
        <ele>1629.57</ele>
        <time>2019-03-31T07:10:55Z</time>
      </trkpt>
      <trkpt lat="42.80869" lon="1.02643">
        <ele>1631.49</ele>
        <time>2019-03-31T07:11:08Z</time>
      </trkpt>
      <trkpt lat="42.80866" lon="1.02643">
        <ele>1633.9</ele>
        <time>2019-03-31T07:11:14Z</time>
      </trkpt>
      <trkpt lat="42.80866" lon="1.02642">
        <ele>1633.9</ele>
        <time>2019-03-31T07:11:15Z</time>
      </trkpt>
      <trkpt lat="42.80857" lon="1.02633">
        <ele>1635.82</ele>
        <time>2019-03-31T07:11:29Z</time>
      </trkpt>
      <trkpt lat="42.80848" lon="1.02624">
        <ele>1637.26</ele>
        <time>2019-03-31T07:11:41Z</time>
      </trkpt>
      <trkpt lat="42.80839" lon="1.02615">
        <ele>1639.19</ele>
        <time>2019-03-31T07:11:54Z</time>
      </trkpt>
      <trkpt lat="42.8083" lon="1.02604">
        <ele>1641.59</ele>
        <time>2019-03-31T07:12:08Z</time>
      </trkpt>
      <trkpt lat="42.80829" lon="1.026">
        <ele>1641.59</ele>
        <time>2019-03-31T07:12:11Z</time>
      </trkpt>
      <trkpt lat="42.80823" lon="1.02593">
        <ele>1645.43</ele>
        <time>2019-03-31T07:12:24Z</time>
      </trkpt>
      <trkpt lat="42.80819" lon="1.02592">
        <ele>1646.4</ele>
        <time>2019-03-31T07:12:30Z</time>
      </trkpt>
      <trkpt lat="42.80807" lon="1.02583">
        <ele>1648.8</ele>
        <time>2019-03-31T07:12:44Z</time>
      </trkpt>
      <trkpt lat="42.80797" lon="1.02578">
        <ele>1650.72</ele>
        <time>2019-03-31T07:12:55Z</time>
      </trkpt>
      <trkpt lat="42.80785" lon="1.02571">
        <ele>1653.12</ele>
        <time>2019-03-31T07:13:08Z</time>
      </trkpt>
      <trkpt lat="42.80773" lon="1.02566">
        <ele>1655.53</ele>
        <time>2019-03-31T07:13:22Z</time>
      </trkpt>
      <trkpt lat="42.80762" lon="1.02559">
        <ele>1657.45</ele>
        <time>2019-03-31T07:13:35Z</time>
      </trkpt>
      <trkpt lat="42.80748" lon="1.02552">
        <ele>1658.89</ele>
        <time>2019-03-31T07:13:49Z</time>
      </trkpt>
      <trkpt lat="42.80739" lon="1.02546">
        <ele>1661.78</ele>
        <time>2019-03-31T07:14:01Z</time>
      </trkpt>
      <trkpt lat="42.80729" lon="1.02541">
        <ele>1664.18</ele>
        <time>2019-03-31T07:14:14Z</time>
      </trkpt>
      <trkpt lat="42.80716" lon="1.02535">
        <ele>1665.62</ele>
        <time>2019-03-31T07:14:28Z</time>
      </trkpt>
      <trkpt lat="42.80706" lon="1.02525">
        <ele>1668.51</ele>
        <time>2019-03-31T07:14:43Z</time>
      </trkpt>
      <trkpt lat="42.80698" lon="1.02513">
        <ele>1671.39</ele>
        <time>2019-03-31T07:14:55Z</time>
      </trkpt>
      <trkpt lat="42.8069" lon="1.02503">
        <ele>1673.79</ele>
        <time>2019-03-31T07:15:07Z</time>
      </trkpt>
      <trkpt lat="42.80681" lon="1.02491">
        <ele>1676.2</ele>
        <time>2019-03-31T07:15:20Z</time>
      </trkpt>
      <trkpt lat="42.80671" lon="1.02478">
        <ele>1679.56</ele>
        <time>2019-03-31T07:15:33Z</time>
      </trkpt>
      <trkpt lat="42.80658" lon="1.02469">
        <ele>1681.96</ele>
        <time>2019-03-31T07:15:47Z</time>
      </trkpt>
      <trkpt lat="42.80647" lon="1.02458">
        <ele>1683.41</ele>
        <time>2019-03-31T07:16:00Z</time>
      </trkpt>
      <trkpt lat="42.80645" lon="1.02457">
        <ele>1683.89</ele>
        <time>2019-03-31T07:16:03Z</time>
      </trkpt>
      <trkpt lat="42.80643" lon="1.02455">
        <ele>1684.85</ele>
        <time>2019-03-31T07:16:05Z</time>
      </trkpt>
      <trkpt lat="42.80631" lon="1.02447">
        <ele>1686.77</ele>
        <time>2019-03-31T07:16:19Z</time>
      </trkpt>
      <trkpt lat="42.80629" lon="1.02444">
        <ele>1688.21</ele>
        <time>2019-03-31T07:16:23Z</time>
      </trkpt>
      <trkpt lat="42.80622" lon="1.02431">
        <ele>1691.58</ele>
        <time>2019-03-31T07:16:36Z</time>
      </trkpt>
      <trkpt lat="42.80614" lon="1.02417">
        <ele>1694.46</ele>
        <time>2019-03-31T07:16:50Z</time>
      </trkpt>
      <trkpt lat="42.80608" lon="1.02408">
        <ele>1697.34</ele>
        <time>2019-03-31T07:17:01Z</time>
      </trkpt>
      <trkpt lat="42.80602" lon="1.02396">
        <ele>1700.23</ele>
        <time>2019-03-31T07:17:13Z</time>
      </trkpt>
      <trkpt lat="42.80599" lon="1.02396">
        <ele>1700.71</ele>
        <time>2019-03-31T07:17:16Z</time>
      </trkpt>
      <trkpt lat="42.80589" lon="1.02403">
        <ele>1704.07</ele>
        <time>2019-03-31T07:17:28Z</time>
      </trkpt>
      <trkpt lat="42.80578" lon="1.02413">
        <ele>1706.96</ele>
        <time>2019-03-31T07:17:42Z</time>
      </trkpt>
      <trkpt lat="42.80569" lon="1.02423">
        <ele>1709.84</ele>
        <time>2019-03-31T07:17:55Z</time>
      </trkpt>
      <trkpt lat="42.80565" lon="1.02426">
        <ele>1711.28</ele>
        <time>2019-03-31T07:18:00Z</time>
      </trkpt>
      <trkpt lat="42.80561" lon="1.02429">
        <ele>1712.25</ele>
        <time>2019-03-31T07:18:06Z</time>
      </trkpt>
      <trkpt lat="42.80551" lon="1.02416">
        <ele>1715.61</ele>
        <time>2019-03-31T07:18:21Z</time>
      </trkpt>
      <trkpt lat="42.80546" lon="1.02403">
        <ele>1718.97</ele>
        <time>2019-03-31T07:18:35Z</time>
      </trkpt>
      <trkpt lat="42.80542" lon="1.0239">
        <ele>1721.38</ele>
        <time>2019-03-31T07:18:48Z</time>
      </trkpt>
      <trkpt lat="42.80539" lon="1.02373">
        <ele>1724.74</ele>
        <time>2019-03-31T07:19:02Z</time>
      </trkpt>
      <trkpt lat="42.80533" lon="1.02361">
        <ele>1727.63</ele>
        <time>2019-03-31T07:19:14Z</time>
      </trkpt>
      <trkpt lat="42.80523" lon="1.02351">
        <ele>1729.07</ele>
        <time>2019-03-31T07:19:27Z</time>
      </trkpt>
      <trkpt lat="42.80517" lon="1.02342">
        <ele>1731.95</ele>
        <time>2019-03-31T07:19:38Z</time>
      </trkpt>
      <trkpt lat="42.80508" lon="1.02331">
        <ele>1734.36</ele>
        <time>2019-03-31T07:19:52Z</time>
      </trkpt>
      <trkpt lat="42.80503" lon="1.0232">
        <ele>1737.24</ele>
        <time>2019-03-31T07:20:05Z</time>
      </trkpt>
      <trkpt lat="42.80499" lon="1.02305">
        <ele>1740.6</ele>
        <time>2019-03-31T07:20:19Z</time>
      </trkpt>
      <trkpt lat="42.80494" lon="1.02299">
        <ele>1742.53</ele>
        <time>2019-03-31T07:20:32Z</time>
      </trkpt>
      <trkpt lat="42.80489" lon="1.02304">
        <ele>1744.45</ele>
        <time>2019-03-31T07:20:39Z</time>
      </trkpt>
      <trkpt lat="42.80479" lon="1.02313">
        <ele>1747.81</ele>
        <time>2019-03-31T07:20:53Z</time>
      </trkpt>
      <trkpt lat="42.80475" lon="1.02319">
        <ele>1749.26</ele>
        <time>2019-03-31T07:21:00Z</time>
      </trkpt>
      <trkpt lat="42.80473" lon="1.02315">
        <ele>1751.18</ele>
        <time>2019-03-31T07:21:10Z</time>
      </trkpt>
      <trkpt lat="42.80472" lon="1.02314">
        <ele>1751.66</ele>
        <time>2019-03-31T07:21:12Z</time>
      </trkpt>
      <trkpt lat="42.80469" lon="1.02303">
        <ele>1754.54</ele>
        <time>2019-03-31T07:21:25Z</time>
      </trkpt>
      <trkpt lat="42.80465" lon="1.0229">
        <ele>1756.47</ele>
        <time>2019-03-31T07:21:36Z</time>
      </trkpt>
      <trkpt lat="42.80461" lon="1.02279">
        <ele>1758.39</ele>
        <time>2019-03-31T07:21:48Z</time>
      </trkpt>
      <trkpt lat="42.8046" lon="1.02273">
        <ele>1759.35</ele>
        <time>2019-03-31T07:21:56Z</time>
      </trkpt>
      <trkpt lat="42.80451" lon="1.02283">
        <ele>1763.2</ele>
        <time>2019-03-31T07:22:10Z</time>
      </trkpt>
      <trkpt lat="42.80448" lon="1.02287">
        <ele>1763.68</ele>
        <time>2019-03-31T07:22:14Z</time>
      </trkpt>
      <trkpt lat="42.80442" lon="1.023">
        <ele>1766.56</ele>
        <time>2019-03-31T07:22:28Z</time>
      </trkpt>
      <trkpt lat="42.8044" lon="1.02302">
        <ele>1768.48</ele>
        <time>2019-03-31T07:22:39Z</time>
      </trkpt>
      <trkpt lat="42.80439" lon="1.023">
        <ele>1768.48</ele>
        <time>2019-03-31T07:22:42Z</time>
      </trkpt>
      <trkpt lat="42.80438" lon="1.02288">
        <ele>1770.89</ele>
        <time>2019-03-31T07:22:55Z</time>
      </trkpt>
      <trkpt lat="42.80439" lon="1.02273">
        <ele>1773.29</ele>
        <time>2019-03-31T07:23:09Z</time>
      </trkpt>
      <trkpt lat="42.80434" lon="1.02274">
        <ele>1775.21</ele>
        <time>2019-03-31T07:23:20Z</time>
      </trkpt>
      <trkpt lat="42.80427" lon="1.02283">
        <ele>1778.1</ele>
        <time>2019-03-31T07:23:32Z</time>
      </trkpt>
      <trkpt lat="42.80424" lon="1.02287">
        <ele>1778.58</ele>
        <time>2019-03-31T07:23:52Z</time>
      </trkpt>
      <trkpt lat="42.80424" lon="1.02292">
        <ele>1780.02</ele>
        <time>2019-03-31T07:24:05Z</time>
      </trkpt>
      <trkpt lat="42.80423" lon="1.02279">
        <ele>1783.38</ele>
        <time>2019-03-31T07:24:18Z</time>
      </trkpt>
      <trkpt lat="42.80421" lon="1.02268">
        <ele>1785.31</ele>
        <time>2019-03-31T07:24:30Z</time>
      </trkpt>
      <trkpt lat="42.8042" lon="1.02253">
        <ele>1788.67</ele>
        <time>2019-03-31T07:24:44Z</time>
      </trkpt>
      <trkpt lat="42.8042" lon="1.02252">
        <ele>1788.67</ele>
        <time>2019-03-31T07:24:45Z</time>
      </trkpt>
      <trkpt lat="42.80413" lon="1.02259">
        <ele>1789.63</ele>
        <time>2019-03-31T07:24:55Z</time>
      </trkpt>
      <trkpt lat="42.80406" lon="1.02273">
        <ele>1792.03</ele>
        <time>2019-03-31T07:25:08Z</time>
      </trkpt>
      <trkpt lat="42.80401" lon="1.02286">
        <ele>1795.4</ele>
        <time>2019-03-31T07:25:22Z</time>
      </trkpt>
      <trkpt lat="42.80401" lon="1.02289">
        <ele>1796.36</ele>
        <time>2019-03-31T07:25:26Z</time>
      </trkpt>
      <trkpt lat="42.80399" lon="1.02278">
        <ele>1798.76</ele>
        <time>2019-03-31T07:25:39Z</time>
      </trkpt>
      <trkpt lat="42.80398" lon="1.02276">
        <ele>1798.76</ele>
        <time>2019-03-31T07:25:42Z</time>
      </trkpt>
      <trkpt lat="42.80396" lon="1.02262">
        <ele>1801.17</ele>
        <time>2019-03-31T07:25:56Z</time>
      </trkpt>
      <trkpt lat="42.80393" lon="1.02252">
        <ele>1803.57</ele>
        <time>2019-03-31T07:26:08Z</time>
      </trkpt>
      <trkpt lat="42.8039" lon="1.0224">
        <ele>1805.97</ele>
        <time>2019-03-31T07:26:20Z</time>
      </trkpt>
      <trkpt lat="42.80388" lon="1.02238">
        <ele>1806.45</ele>
        <time>2019-03-31T07:26:26Z</time>
      </trkpt>
      <trkpt lat="42.8038" lon="1.02252">
        <ele>1809.34</ele>
        <time>2019-03-31T07:26:41Z</time>
      </trkpt>
      <trkpt lat="42.80378" lon="1.02263">
        <ele>1811.26</ele>
        <time>2019-03-31T07:26:53Z</time>
      </trkpt>
      <trkpt lat="42.80377" lon="1.02267">
        <ele>1812.22</ele>
        <time>2019-03-31T07:26:56Z</time>
      </trkpt>
      <trkpt lat="42.80371" lon="1.02283">
        <ele>1815.11</ele>
        <time>2019-03-31T07:27:11Z</time>
      </trkpt>
      <trkpt lat="42.80372" lon="1.0228">
        <ele>1815.59</ele>
        <time>2019-03-31T07:27:15Z</time>
      </trkpt>
      <trkpt lat="42.80367" lon="1.02268">
        <ele>1818.47</ele>
        <time>2019-03-31T07:27:29Z</time>
      </trkpt>
      <trkpt lat="42.80365" lon="1.02257">
        <ele>1820.39</ele>
        <time>2019-03-31T07:27:42Z</time>
      </trkpt>
      <trkpt lat="42.80362" lon="1.0225">
        <ele>1822.32</ele>
        <time>2019-03-31T07:27:51Z</time>
      </trkpt>
      <trkpt lat="42.80361" lon="1.02251">
        <ele>1821.84</ele>
        <time>2019-03-31T07:27:53Z</time>
      </trkpt>
      <trkpt lat="42.80355" lon="1.02267">
        <ele>1825.68</ele>
        <time>2019-03-31T07:28:08Z</time>
      </trkpt>
      <trkpt lat="42.8035" lon="1.02284">
        <ele>1828.08</ele>
        <time>2019-03-31T07:28:22Z</time>
      </trkpt>
      <trkpt lat="42.8035" lon="1.0229">
        <ele>1830.49</ele>
        <time>2019-03-31T07:28:36Z</time>
      </trkpt>
      <trkpt lat="42.80348" lon="1.02277">
        <ele>1833.37</ele>
        <time>2019-03-31T07:28:51Z</time>
      </trkpt>
      <trkpt lat="42.80344" lon="1.02269">
        <ele>1835.77</ele>
        <time>2019-03-31T07:29:04Z</time>
      </trkpt>
      <trkpt lat="42.80337" lon="1.0228">
        <ele>1839.14</ele>
        <time>2019-03-31T07:29:17Z</time>
      </trkpt>
      <trkpt lat="42.80335" lon="1.02286">
        <ele>1840.1</ele>
        <time>2019-03-31T07:29:23Z</time>
      </trkpt>
      <trkpt lat="42.8033" lon="1.02299">
        <ele>1842.5</ele>
        <time>2019-03-31T07:29:35Z</time>
      </trkpt>
      <trkpt lat="42.80328" lon="1.02307">
        <ele>1844.43</ele>
        <time>2019-03-31T07:29:42Z</time>
      </trkpt>
      <trkpt lat="42.80328" lon="1.02306">
        <ele>1844.43</ele>
        <time>2019-03-31T07:29:44Z</time>
      </trkpt>
      <trkpt lat="42.80325" lon="1.02292">
        <ele>1846.83</ele>
        <time>2019-03-31T07:29:59Z</time>
      </trkpt>
      <trkpt lat="42.80322" lon="1.02281">
        <ele>1850.19</ele>
        <time>2019-03-31T07:30:12Z</time>
      </trkpt>
      <trkpt lat="42.80321" lon="1.02273">
        <ele>1852.12</ele>
        <time>2019-03-31T07:30:25Z</time>
      </trkpt>
      <trkpt lat="42.80314" lon="1.02284">
        <ele>1854.04</ele>
        <time>2019-03-31T07:30:37Z</time>
      </trkpt>
      <trkpt lat="42.80308" lon="1.02297">
        <ele>1857.4</ele>
        <time>2019-03-31T07:30:51Z</time>
      </trkpt>
      <trkpt lat="42.80305" lon="1.02303">
        <ele>1857.89</ele>
        <time>2019-03-31T07:30:57Z</time>
      </trkpt>
      <trkpt lat="42.80302" lon="1.02315">
        <ele>1861.25</ele>
        <time>2019-03-31T07:31:10Z</time>
      </trkpt>
      <trkpt lat="42.80301" lon="1.02316">
        <ele>1861.73</ele>
        <time>2019-03-31T07:31:16Z</time>
      </trkpt>
      <trkpt lat="42.80296" lon="1.02301">
        <ele>1865.09</ele>
        <time>2019-03-31T07:31:30Z</time>
      </trkpt>
      <trkpt lat="42.80292" lon="1.02291">
        <ele>1867.02</ele>
        <time>2019-03-31T07:31:43Z</time>
      </trkpt>
      <trkpt lat="42.80288" lon="1.02281">
        <ele>1869.9</ele>
        <time>2019-03-31T07:31:56Z</time>
      </trkpt>
      <trkpt lat="42.80286" lon="1.02275">
        <ele>1871.82</ele>
        <time>2019-03-31T07:32:04Z</time>
      </trkpt>
      <trkpt lat="42.80281" lon="1.02265">
        <ele>1874.23</ele>
        <time>2019-03-31T07:32:18Z</time>
      </trkpt>
      <trkpt lat="42.80275" lon="1.02257">
        <ele>1877.11</ele>
        <time>2019-03-31T07:32:31Z</time>
      </trkpt>
      <trkpt lat="42.80272" lon="1.02251">
        <ele>1878.55</ele>
        <time>2019-03-31T07:32:41Z</time>
      </trkpt>
      <trkpt lat="42.8027" lon="1.02254">
        <ele>1879.51</ele>
        <time>2019-03-31T07:32:46Z</time>
      </trkpt>
      <trkpt lat="42.80264" lon="1.02269">
        <ele>1882.4</ele>
        <time>2019-03-31T07:33:02Z</time>
      </trkpt>
      <trkpt lat="42.80263" lon="1.02279">
        <ele>1885.28</ele>
        <time>2019-03-31T07:33:16Z</time>
      </trkpt>
      <trkpt lat="42.80258" lon="1.02291">
        <ele>1888.17</ele>
        <time>2019-03-31T07:33:30Z</time>
      </trkpt>
      <trkpt lat="42.80258" lon="1.02292">
        <ele>1889.61</ele>
        <time>2019-03-31T07:33:40Z</time>
      </trkpt>
      <trkpt lat="42.80255" lon="1.02282">
        <ele>1891.53</ele>
        <time>2019-03-31T07:33:53Z</time>
      </trkpt>
      <trkpt lat="42.80252" lon="1.0227">
        <ele>1894.42</ele>
        <time>2019-03-31T07:34:06Z</time>
      </trkpt>
      <trkpt lat="42.80248" lon="1.02259">
        <ele>1897.3</ele>
        <time>2019-03-31T07:34:20Z</time>
      </trkpt>
      <trkpt lat="42.80245" lon="1.02255">
        <ele>1898.74</ele>
        <time>2019-03-31T07:34:28Z</time>
      </trkpt>
      <trkpt lat="42.80237" lon="1.02249">
        <ele>1901.63</ele>
        <time>2019-03-31T07:34:41Z</time>
      </trkpt>
      <trkpt lat="42.80229" lon="1.02265">
        <ele>1904.51</ele>
        <time>2019-03-31T07:34:56Z</time>
      </trkpt>
      <trkpt lat="42.80228" lon="1.02278">
        <ele>1906.91</ele>
        <time>2019-03-31T07:35:09Z</time>
      </trkpt>
      <trkpt lat="42.80227" lon="1.02283">
        <ele>1909.8</ele>
        <time>2019-03-31T07:35:22Z</time>
      </trkpt>
      <trkpt lat="42.80222" lon="1.02272">
        <ele>1912.68</ele>
        <time>2019-03-31T07:35:35Z</time>
      </trkpt>
      <trkpt lat="42.80215" lon="1.0227">
        <ele>1914.12</ele>
        <time>2019-03-31T07:35:44Z</time>
      </trkpt>
      <trkpt lat="42.80212" lon="1.02272">
        <ele>1915.56</ele>
        <time>2019-03-31T07:35:50Z</time>
      </trkpt>
      <trkpt lat="42.80205" lon="1.02284">
        <ele>1918.93</ele>
        <time>2019-03-31T07:36:04Z</time>
      </trkpt>
      <trkpt lat="42.80201" lon="1.02297">
        <ele>1920.85</ele>
        <time>2019-03-31T07:36:15Z</time>
      </trkpt>
      <trkpt lat="42.802" lon="1.02299">
        <ele>1920.85</ele>
        <time>2019-03-31T07:36:17Z</time>
      </trkpt>
      <trkpt lat="42.80196" lon="1.02303">
        <ele>1922.29</ele>
        <time>2019-03-31T07:36:28Z</time>
      </trkpt>
      <trkpt lat="42.8019" lon="1.0231">
        <ele>1924.22</ele>
        <time>2019-03-31T07:36:40Z</time>
      </trkpt>
      <trkpt lat="42.80183" lon="1.02326">
        <ele>1927.1</ele>
        <time>2019-03-31T07:36:54Z</time>
      </trkpt>
      <trkpt lat="42.8018" lon="1.0234">
        <ele>1929.5</ele>
        <time>2019-03-31T07:37:07Z</time>
      </trkpt>
      <trkpt lat="42.8018" lon="1.02346">
        <ele>1931.91</ele>
        <time>2019-03-31T07:37:19Z</time>
      </trkpt>
      <trkpt lat="42.80172" lon="1.02337">
        <ele>1934.31</ele>
        <time>2019-03-31T07:37:33Z</time>
      </trkpt>
      <trkpt lat="42.80168" lon="1.02334">
        <ele>1936.71</ele>
        <time>2019-03-31T07:37:42Z</time>
      </trkpt>
      <trkpt lat="42.80168" lon="1.02337">
        <ele>1936.71</ele>
        <time>2019-03-31T07:37:44Z</time>
      </trkpt>
      <trkpt lat="42.80165" lon="1.02348">
        <ele>1938.16</ele>
        <time>2019-03-31T07:37:54Z</time>
      </trkpt>
      <trkpt lat="42.80162" lon="1.02361">
        <ele>1941.04</ele>
        <time>2019-03-31T07:38:07Z</time>
      </trkpt>
      <trkpt lat="42.80162" lon="1.02376">
        <ele>1943.92</ele>
        <time>2019-03-31T07:38:20Z</time>
      </trkpt>
      <trkpt lat="42.80162" lon="1.02379">
        <ele>1944.88</ele>
        <time>2019-03-31T07:38:22Z</time>
      </trkpt>
      <trkpt lat="42.80159" lon="1.02396">
        <ele>1947.29</ele>
        <time>2019-03-31T07:38:37Z</time>
      </trkpt>
      <trkpt lat="42.80157" lon="1.02408">
        <ele>1950.65</ele>
        <time>2019-03-31T07:38:49Z</time>
      </trkpt>
      <trkpt lat="42.80156" lon="1.02421">
        <ele>1953.06</ele>
        <time>2019-03-31T07:39:01Z</time>
      </trkpt>
      <trkpt lat="42.80153" lon="1.02432">
        <ele>1955.94</ele>
        <time>2019-03-31T07:39:14Z</time>
      </trkpt>
      <trkpt lat="42.80152" lon="1.02429">
        <ele>1956.9</ele>
        <time>2019-03-31T07:39:20Z</time>
      </trkpt>
      <trkpt lat="42.80145" lon="1.02419">
        <ele>1959.78</ele>
        <time>2019-03-31T07:39:34Z</time>
      </trkpt>
      <trkpt lat="42.8014" lon="1.0241">
        <ele>1962.67</ele>
        <time>2019-03-31T07:39:47Z</time>
      </trkpt>
      <trkpt lat="42.80133" lon="1.024">
        <ele>1965.55</ele>
        <time>2019-03-31T07:40:01Z</time>
      </trkpt>
      <trkpt lat="42.80128" lon="1.02415">
        <ele>1967.48</ele>
        <time>2019-03-31T07:40:13Z</time>
      </trkpt>
      <trkpt lat="42.80123" lon="1.02429">
        <ele>1969.88</ele>
        <time>2019-03-31T07:40:28Z</time>
      </trkpt>
      <trkpt lat="42.80117" lon="1.02441">
        <ele>1973.24</ele>
        <time>2019-03-31T07:40:41Z</time>
      </trkpt>
      <trkpt lat="42.80112" lon="1.02454">
        <ele>1976.13</ele>
        <time>2019-03-31T07:40:56Z</time>
      </trkpt>
      <trkpt lat="42.80108" lon="1.02466">
        <ele>1978.53</ele>
        <time>2019-03-31T07:41:10Z</time>
      </trkpt>
      <trkpt lat="42.80105" lon="1.02467">
        <ele>1980.45</ele>
        <time>2019-03-31T07:41:18Z</time>
      </trkpt>
      <trkpt lat="42.80099" lon="1.02454">
        <ele>1983.34</ele>
        <time>2019-03-31T07:41:33Z</time>
      </trkpt>
      <trkpt lat="42.80095" lon="1.02442">
        <ele>1986.7</ele>
        <time>2019-03-31T07:41:46Z</time>
      </trkpt>
      <trkpt lat="42.80089" lon="1.0243">
        <ele>1989.59</ele>
        <time>2019-03-31T07:42:00Z</time>
      </trkpt>
      <trkpt lat="42.80084" lon="1.02425">
        <ele>1991.99</ele>
        <time>2019-03-31T07:42:12Z</time>
      </trkpt>
      <trkpt lat="42.80075" lon="1.0243">
        <ele>1995.35</ele>
        <time>2019-03-31T07:42:24Z</time>
      </trkpt>
      <trkpt lat="42.80067" lon="1.02435">
        <ele>1998.72</ele>
        <time>2019-03-31T07:42:37Z</time>
      </trkpt>
      <trkpt lat="42.80065" lon="1.0244">
        <ele>1999.68</ele>
        <time>2019-03-31T07:42:42Z</time>
      </trkpt>
      <trkpt lat="42.80059" lon="1.02448">
        <ele>2002.56</ele>
        <time>2019-03-31T07:42:55Z</time>
      </trkpt>
      <trkpt lat="42.80053" lon="1.02461">
        <ele>2004.97</ele>
        <time>2019-03-31T07:43:08Z</time>
      </trkpt>
      <trkpt lat="42.80049" lon="1.02461">
        <ele>2007.37</ele>
        <time>2019-03-31T07:43:18Z</time>
      </trkpt>
      <trkpt lat="42.80041" lon="1.02455">
        <ele>2009.77</ele>
        <time>2019-03-31T07:43:31Z</time>
      </trkpt>
      <trkpt lat="42.80034" lon="1.02449">
        <ele>2012.66</ele>
        <time>2019-03-31T07:43:46Z</time>
      </trkpt>
      <trkpt lat="42.80024" lon="1.02446">
        <ele>2015.06</ele>
        <time>2019-03-31T07:44:00Z</time>
      </trkpt>
      <trkpt lat="42.80016" lon="1.02439">
        <ele>2017.94</ele>
        <time>2019-03-31T07:44:15Z</time>
      </trkpt>
      <trkpt lat="42.80012" lon="1.02443">
        <ele>2019.87</ele>
        <time>2019-03-31T07:44:26Z</time>
      </trkpt>
      <trkpt lat="42.80013" lon="1.02458">
        <ele>2022.75</ele>
        <time>2019-03-31T07:44:40Z</time>
      </trkpt>
      <trkpt lat="42.80013" lon="1.02475">
        <ele>2025.15</ele>
        <time>2019-03-31T07:44:54Z</time>
      </trkpt>
      <trkpt lat="42.80012" lon="1.02477">
        <ele>2026.6</ele>
        <time>2019-03-31T07:45:05Z</time>
      </trkpt>
      <trkpt lat="42.80007" lon="1.02466">
        <ele>2029.96</ele>
        <time>2019-03-31T07:45:20Z</time>
      </trkpt>
      <trkpt lat="42.80006" lon="1.02479">
        <ele>2031.88</ele>
        <time>2019-03-31T07:45:31Z</time>
      </trkpt>
      <trkpt lat="42.80003" lon="1.02491">
        <ele>2035.25</ele>
        <time>2019-03-31T07:45:44Z</time>
      </trkpt>
      <trkpt lat="42.8" lon="1.02494">
        <ele>2037.65</ele>
        <time>2019-03-31T07:45:57Z</time>
      </trkpt>
      <trkpt lat="42.79995" lon="1.02487">
        <ele>2040.54</ele>
        <time>2019-03-31T07:46:10Z</time>
      </trkpt>
      <trkpt lat="42.79992" lon="1.02483">
        <ele>2041.02</ele>
        <time>2019-03-31T07:46:15Z</time>
      </trkpt>
      <trkpt lat="42.79982" lon="1.0248">
        <ele>2044.38</ele>
        <time>2019-03-31T07:46:29Z</time>
      </trkpt>
      <trkpt lat="42.7998" lon="1.02481">
        <ele>2045.82</ele>
        <time>2019-03-31T07:46:33Z</time>
      </trkpt>
      <trkpt lat="42.7997" lon="1.02483">
        <ele>2048.23</ele>
        <time>2019-03-31T07:46:46Z</time>
      </trkpt>
      <trkpt lat="42.7996" lon="1.02482">
        <ele>2051.11</ele>
        <time>2019-03-31T07:47:00Z</time>
      </trkpt>
      <trkpt lat="42.79956" lon="1.02483">
        <ele>2053.03</ele>
        <time>2019-03-31T07:47:06Z</time>
      </trkpt>
      <trkpt lat="42.79955" lon="1.0249">
        <ele>2054.96</ele>
        <time>2019-03-31T07:47:18Z</time>
      </trkpt>
      <trkpt lat="42.79955" lon="1.02503">
        <ele>2057.36</ele>
        <time>2019-03-31T07:47:32Z</time>
      </trkpt>
      <trkpt lat="42.79956" lon="1.02517">
        <ele>2059.76</ele>
        <time>2019-03-31T07:47:45Z</time>
      </trkpt>
      <trkpt lat="42.79955" lon="1.02526">
        <ele>2063.13</ele>
        <time>2019-03-31T07:47:56Z</time>
      </trkpt>
      <trkpt lat="42.79954" lon="1.02538">
        <ele>2065.53</ele>
        <time>2019-03-31T07:48:09Z</time>
      </trkpt>
      <trkpt lat="42.79953" lon="1.02551">
        <ele>2068.89</ele>
        <time>2019-03-31T07:48:22Z</time>
      </trkpt>
      <trkpt lat="42.79951" lon="1.02551">
        <ele>2069.86</ele>
        <time>2019-03-31T07:48:33Z</time>
      </trkpt>
      <trkpt lat="42.79945" lon="1.02543">
        <ele>2072.74</ele>
        <time>2019-03-31T07:48:45Z</time>
      </trkpt>
      <trkpt lat="42.79937" lon="1.02538">
        <ele>2075.14</ele>
        <time>2019-03-31T07:48:58Z</time>
      </trkpt>
      <trkpt lat="42.7993" lon="1.02529">
        <ele>2078.03</ele>
        <time>2019-03-31T07:49:12Z</time>
      </trkpt>
      <trkpt lat="42.7992" lon="1.02527">
        <ele>2081.39</ele>
        <time>2019-03-31T07:49:26Z</time>
      </trkpt>
      <trkpt lat="42.79911" lon="1.0252">
        <ele>2083.79</ele>
        <time>2019-03-31T07:49:39Z</time>
      </trkpt>
      <trkpt lat="42.79901" lon="1.02519">
        <ele>2086.68</ele>
        <time>2019-03-31T07:49:53Z</time>
      </trkpt>
      <trkpt lat="42.79892" lon="1.02516">
        <ele>2089.56</ele>
        <time>2019-03-31T07:50:07Z</time>
      </trkpt>
      <trkpt lat="42.79885" lon="1.02515">
        <ele>2092.93</ele>
        <time>2019-03-31T07:50:20Z</time>
      </trkpt>
      <trkpt lat="42.79877" lon="1.02512">
        <ele>2094.85</ele>
        <time>2019-03-31T07:50:33Z</time>
      </trkpt>
      <trkpt lat="42.79871" lon="1.02507">
        <ele>2098.21</ele>
        <time>2019-03-31T07:50:44Z</time>
      </trkpt>
      <trkpt lat="42.79868" lon="1.02513">
        <ele>2099.66</ele>
        <time>2019-03-31T07:50:55Z</time>
      </trkpt>
      <trkpt lat="42.79864" lon="1.02525">
        <ele>2102.06</ele>
        <time>2019-03-31T07:51:07Z</time>
      </trkpt>
      <trkpt lat="42.7986" lon="1.02526">
        <ele>2103.98</ele>
        <time>2019-03-31T07:51:15Z</time>
      </trkpt>
      <trkpt lat="42.79853" lon="1.02521">
        <ele>2106.87</ele>
        <time>2019-03-31T07:51:27Z</time>
      </trkpt>
      <trkpt lat="42.79847" lon="1.02526">
        <ele>2109.27</ele>
        <time>2019-03-31T07:51:39Z</time>
      </trkpt>
      <trkpt lat="42.79842" lon="1.02539">
        <ele>2112.15</ele>
        <time>2019-03-31T07:51:53Z</time>
      </trkpt>
      <trkpt lat="42.79835" lon="1.02536">
        <ele>2114.56</ele>
        <time>2019-03-31T07:52:05Z</time>
      </trkpt>
      <trkpt lat="42.79828" lon="1.02532">
        <ele>2117.92</ele>
        <time>2019-03-31T07:52:19Z</time>
      </trkpt>
      <trkpt lat="42.7982" lon="1.0254">
        <ele>2119.84</ele>
        <time>2019-03-31T07:52:31Z</time>
      </trkpt>
      <trkpt lat="42.79815" lon="1.02545">
        <ele>2122.73</ele>
        <time>2019-03-31T07:52:43Z</time>
      </trkpt>
      <trkpt lat="42.79805" lon="1.02539">
        <ele>2125.13</ele>
        <time>2019-03-31T07:52:57Z</time>
      </trkpt>
      <trkpt lat="42.79797" lon="1.0254">
        <ele>2127.53</ele>
        <time>2019-03-31T07:53:09Z</time>
      </trkpt>
      <trkpt lat="42.79784" lon="1.02543">
        <ele>2128.98</ele>
        <time>2019-03-31T07:53:22Z</time>
      </trkpt>
      <trkpt lat="42.79769" lon="1.02551">
        <ele>2130.9</ele>
        <time>2019-03-31T07:53:37Z</time>
      </trkpt>
      <trkpt lat="42.79755" lon="1.02559">
        <ele>2131.86</ele>
        <time>2019-03-31T07:53:51Z</time>
      </trkpt>
      <trkpt lat="42.79734" lon="1.02568">
        <ele>2130.9</ele>
        <time>2019-03-31T07:54:06Z</time>
      </trkpt>
      <trkpt lat="42.7973" lon="1.0257">
        <ele>2130.42</ele>
        <time>2019-03-31T07:54:09Z</time>
      </trkpt>
      <trkpt lat="42.79724" lon="1.02571">
        <ele>2131.38</ele>
        <time>2019-03-31T07:54:15Z</time>
      </trkpt>
      <trkpt lat="42.79709" lon="1.02573">
        <ele>2133.78</ele>
        <time>2019-03-31T07:54:30Z</time>
      </trkpt>
      <trkpt lat="42.79696" lon="1.02574">
        <ele>2136.19</ele>
        <time>2019-03-31T07:54:43Z</time>
      </trkpt>
      <trkpt lat="42.79691" lon="1.02575">
        <ele>2136.67</ele>
        <time>2019-03-31T07:54:51Z</time>
      </trkpt>
      <trkpt lat="42.79671" lon="1.02584">
        <ele>2134.26</ele>
        <time>2019-03-31T07:55:05Z</time>
      </trkpt>
      <trkpt lat="42.79659" lon="1.02585">
        <ele>2135.23</ele>
        <time>2019-03-31T07:55:17Z</time>
      </trkpt>
      <trkpt lat="42.79648" lon="1.02581">
        <ele>2136.67</ele>
        <time>2019-03-31T07:55:28Z</time>
      </trkpt>
      <trkpt lat="42.79644" lon="1.0258">
        <ele>2137.15</ele>
        <time>2019-03-31T07:55:30Z</time>
      </trkpt>
      <trkpt lat="42.79642" lon="1.02579">
        <ele>2135.71</ele>
        <time>2019-03-31T07:55:31Z</time>
      </trkpt>
      <trkpt lat="42.79641" lon="1.02579">
        <ele>2135.71</ele>
        <time>2019-03-31T07:55:32Z</time>
      </trkpt>
      <trkpt lat="42.7964" lon="1.02578">
        <ele>2135.71</ele>
        <time>2019-03-31T07:55:33Z</time>
      </trkpt>
      <trkpt lat="42.79633" lon="1.02572">
        <ele>2137.15</ele>
        <time>2019-03-31T07:55:42Z</time>
      </trkpt>
      <trkpt lat="42.79627" lon="1.02558">
        <ele>2139.07</ele>
        <time>2019-03-31T07:55:56Z</time>
      </trkpt>
      <trkpt lat="42.79622" lon="1.0255">
        <ele>2141.47</ele>
        <time>2019-03-31T07:56:07Z</time>
      </trkpt>
      <trkpt lat="42.79615" lon="1.02543">
        <ele>2141.95</ele>
        <time>2019-03-31T07:56:15Z</time>
      </trkpt>
      <trkpt lat="42.79614" lon="1.02542">
        <ele>2141.95</ele>
        <time>2019-03-31T07:56:16Z</time>
      </trkpt>
      <trkpt lat="42.79603" lon="1.02533">
        <ele>2143.4</ele>
        <time>2019-03-31T07:56:30Z</time>
      </trkpt>
      <trkpt lat="42.79599" lon="1.0253">
        <ele>2144.36</ele>
        <time>2019-03-31T07:56:35Z</time>
      </trkpt>
      <trkpt lat="42.79588" lon="1.02526">
        <ele>2145.32</ele>
        <time>2019-03-31T07:56:47Z</time>
      </trkpt>
      <trkpt lat="42.79581" lon="1.02527">
        <ele>2145.8</ele>
        <time>2019-03-31T07:56:59Z</time>
      </trkpt>
      <trkpt lat="42.7958" lon="1.02526">
        <ele>2145.8</ele>
        <time>2019-03-31T07:57:00Z</time>
      </trkpt>
      <trkpt lat="42.79579" lon="1.02526">
        <ele>2145.8</ele>
        <time>2019-03-31T07:57:01Z</time>
      </trkpt>
      <trkpt lat="42.79578" lon="1.02525">
        <ele>2144.36</ele>
        <time>2019-03-31T07:57:02Z</time>
      </trkpt>
      <trkpt lat="42.79577" lon="1.02523">
        <ele>2144.36</ele>
        <time>2019-03-31T07:57:03Z</time>
      </trkpt>
      <trkpt lat="42.79576" lon="1.02521">
        <ele>2143.4</ele>
        <time>2019-03-31T07:57:04Z</time>
      </trkpt>
      <trkpt lat="42.79575" lon="1.0252">
        <ele>2143.4</ele>
        <time>2019-03-31T07:57:05Z</time>
      </trkpt>
      <trkpt lat="42.79574" lon="1.02519">
        <ele>2143.4</ele>
        <time>2019-03-31T07:57:06Z</time>
      </trkpt>
      <trkpt lat="42.79574" lon="1.02517">
        <ele>2143.4</ele>
        <time>2019-03-31T07:57:07Z</time>
      </trkpt>
      <trkpt lat="42.79574" lon="1.02515">
        <ele>2143.4</ele>
        <time>2019-03-31T07:57:09Z</time>
      </trkpt>
      <trkpt lat="42.79575" lon="1.02506">
        <ele>2144.84</ele>
        <time>2019-03-31T07:57:20Z</time>
      </trkpt>
      <trkpt lat="42.79575" lon="1.02505">
        <ele>2144.84</ele>
        <time>2019-03-31T07:57:21Z</time>
      </trkpt>
      <trkpt lat="42.79578" lon="1.02494">
        <ele>2146.28</ele>
        <time>2019-03-31T07:57:32Z</time>
      </trkpt>
      <trkpt lat="42.79578" lon="1.02492">
        <ele>2146.28</ele>
        <time>2019-03-31T07:57:33Z</time>
      </trkpt>
      <trkpt lat="42.79578" lon="1.02478">
        <ele>2146.76</ele>
        <time>2019-03-31T07:57:42Z</time>
      </trkpt>
      <trkpt lat="42.79578" lon="1.02476">
        <ele>2146.76</ele>
        <time>2019-03-31T07:57:43Z</time>
      </trkpt>
      <trkpt lat="42.79578" lon="1.02475">
        <ele>2146.76</ele>
        <time>2019-03-31T07:57:44Z</time>
      </trkpt>
      <trkpt lat="42.79575" lon="1.02469">
        <ele>2147.72</ele>
        <time>2019-03-31T07:57:49Z</time>
      </trkpt>
      <trkpt lat="42.79574" lon="1.02468">
        <ele>2147.72</ele>
        <time>2019-03-31T07:57:50Z</time>
      </trkpt>
      <trkpt lat="42.79573" lon="1.02466">
        <ele>2147.72</ele>
        <time>2019-03-31T07:57:51Z</time>
      </trkpt>
      <trkpt lat="42.7957" lon="1.02458">
        <ele>2148.68</ele>
        <time>2019-03-31T07:58:02Z</time>
      </trkpt>
      <trkpt lat="42.79569" lon="1.02448">
        <ele>2149.65</ele>
        <time>2019-03-31T07:58:12Z</time>
      </trkpt>
      <trkpt lat="42.79566" lon="1.02439">
        <ele>2151.09</ele>
        <time>2019-03-31T07:58:20Z</time>
      </trkpt>
      <trkpt lat="42.79566" lon="1.02438">
        <ele>2151.09</ele>
        <time>2019-03-31T07:58:21Z</time>
      </trkpt>
      <trkpt lat="42.79561" lon="1.02424">
        <ele>2153.97</ele>
        <time>2019-03-31T07:58:35Z</time>
      </trkpt>
      <trkpt lat="42.79559" lon="1.02409">
        <ele>2155.41</ele>
        <time>2019-03-31T07:58:47Z</time>
      </trkpt>
      <trkpt lat="42.79557" lon="1.02394">
        <ele>2157.82</ele>
        <time>2019-03-31T07:59:01Z</time>
      </trkpt>
      <trkpt lat="42.79554" lon="1.02382">
        <ele>2160.7</ele>
        <time>2019-03-31T07:59:15Z</time>
      </trkpt>
      <trkpt lat="42.79553" lon="1.02367">
        <ele>2163.58</ele>
        <time>2019-03-31T07:59:29Z</time>
      </trkpt>
      <trkpt lat="42.79551" lon="1.02359">
        <ele>2165.03</ele>
        <time>2019-03-31T07:59:37Z</time>
      </trkpt>
      <trkpt lat="42.79546" lon="1.02346">
        <ele>2166.95</ele>
        <time>2019-03-31T07:59:51Z</time>
      </trkpt>
      <trkpt lat="42.79543" lon="1.02335">
        <ele>2170.31</ele>
        <time>2019-03-31T08:00:03Z</time>
      </trkpt>
      <trkpt lat="42.79539" lon="1.02319">
        <ele>2172.72</ele>
        <time>2019-03-31T08:00:17Z</time>
      </trkpt>
      <trkpt lat="42.79536" lon="1.02305">
        <ele>2175.12</ele>
        <time>2019-03-31T08:00:32Z</time>
      </trkpt>
      <trkpt lat="42.7953" lon="1.02289">
        <ele>2176.56</ele>
        <time>2019-03-31T08:00:45Z</time>
      </trkpt>
      <trkpt lat="42.79527" lon="1.02282">
        <ele>2178</ele>
        <time>2019-03-31T08:00:54Z</time>
      </trkpt>
      <trkpt lat="42.79524" lon="1.02274">
        <ele>2178.97</ele>
        <time>2019-03-31T08:01:02Z</time>
      </trkpt>
      <trkpt lat="42.79521" lon="1.02261">
        <ele>2180.89</ele>
        <time>2019-03-31T08:01:15Z</time>
      </trkpt>
      <trkpt lat="42.79518" lon="1.02246">
        <ele>2183.77</ele>
        <time>2019-03-31T08:01:29Z</time>
      </trkpt>
      <trkpt lat="42.79515" lon="1.02232">
        <ele>2186.18</ele>
        <time>2019-03-31T08:01:43Z</time>
      </trkpt>
      <trkpt lat="42.7951" lon="1.02219">
        <ele>2188.1</ele>
        <time>2019-03-31T08:01:57Z</time>
      </trkpt>
      <trkpt lat="42.79506" lon="1.0221">
        <ele>2190.5</ele>
        <time>2019-03-31T08:02:10Z</time>
      </trkpt>
      <trkpt lat="42.79503" lon="1.02201">
        <ele>2191.94</ele>
        <time>2019-03-31T08:02:20Z</time>
      </trkpt>
      <trkpt lat="42.79499" lon="1.02191">
        <ele>2193.87</ele>
        <time>2019-03-31T08:02:33Z</time>
      </trkpt>
      <trkpt lat="42.79494" lon="1.02178">
        <ele>2196.27</ele>
        <time>2019-03-31T08:02:47Z</time>
      </trkpt>
      <trkpt lat="42.7949" lon="1.02169">
        <ele>2198.67</ele>
        <time>2019-03-31T08:02:59Z</time>
      </trkpt>
      <trkpt lat="42.79486" lon="1.02156">
        <ele>2201.56</ele>
        <time>2019-03-31T08:03:14Z</time>
      </trkpt>
      <trkpt lat="42.79483" lon="1.02146">
        <ele>2203.96</ele>
        <time>2019-03-31T08:03:28Z</time>
      </trkpt>
      <trkpt lat="42.79481" lon="1.02148">
        <ele>2204.44</ele>
        <time>2019-03-31T08:03:33Z</time>
      </trkpt>
      <trkpt lat="42.79474" lon="1.0216">
        <ele>2206.36</ele>
        <time>2019-03-31T08:03:46Z</time>
      </trkpt>
      <trkpt lat="42.79469" lon="1.02171">
        <ele>2208.77</ele>
        <time>2019-03-31T08:03:58Z</time>
      </trkpt>
      <trkpt lat="42.79464" lon="1.02184">
        <ele>2211.17</ele>
        <time>2019-03-31T08:04:12Z</time>
      </trkpt>
      <trkpt lat="42.79461" lon="1.02187">
        <ele>2212.61</ele>
        <time>2019-03-31T08:04:22Z</time>
      </trkpt>
      <trkpt lat="42.79461" lon="1.02171">
        <ele>2215.01</ele>
        <time>2019-03-31T08:04:36Z</time>
      </trkpt>
      <trkpt lat="42.79458" lon="1.02161">
        <ele>2216.94</ele>
        <time>2019-03-31T08:04:49Z</time>
      </trkpt>
      <trkpt lat="42.79458" lon="1.02162">
        <ele>2216.94</ele>
        <time>2019-03-31T08:04:50Z</time>
      </trkpt>
      <trkpt lat="42.79451" lon="1.02179">
        <ele>2219.82</ele>
        <time>2019-03-31T08:05:05Z</time>
      </trkpt>
      <trkpt lat="42.79449" lon="1.02186">
        <ele>2221.26</ele>
        <time>2019-03-31T08:05:13Z</time>
      </trkpt>
      <trkpt lat="42.79447" lon="1.02185">
        <ele>2222.22</ele>
        <time>2019-03-31T08:05:19Z</time>
      </trkpt>
      <trkpt lat="42.79445" lon="1.02169">
        <ele>2223.67</ele>
        <time>2019-03-31T08:05:33Z</time>
      </trkpt>
      <trkpt lat="42.79443" lon="1.0216">
        <ele>2225.59</ele>
        <time>2019-03-31T08:05:43Z</time>
      </trkpt>
      <trkpt lat="42.79442" lon="1.02161">
        <ele>2226.55</ele>
        <time>2019-03-31T08:05:46Z</time>
      </trkpt>
      <trkpt lat="42.79434" lon="1.02178">
        <ele>2228.95</ele>
        <time>2019-03-31T08:06:03Z</time>
      </trkpt>
      <trkpt lat="42.79431" lon="1.02186">
        <ele>2231.36</ele>
        <time>2019-03-31T08:06:16Z</time>
      </trkpt>
      <trkpt lat="42.79431" lon="1.02185">
        <ele>2231.36</ele>
        <time>2019-03-31T08:06:17Z</time>
      </trkpt>
      <trkpt lat="42.79429" lon="1.02166">
        <ele>2233.76</ele>
        <time>2019-03-31T08:06:32Z</time>
      </trkpt>
      <trkpt lat="42.79428" lon="1.02159">
        <ele>2235.2</ele>
        <time>2019-03-31T08:06:41Z</time>
      </trkpt>
      <trkpt lat="42.79426" lon="1.02161">
        <ele>2236.16</ele>
        <time>2019-03-31T08:06:45Z</time>
      </trkpt>
      <trkpt lat="42.79418" lon="1.02176">
        <ele>2238.09</ele>
        <time>2019-03-31T08:07:00Z</time>
      </trkpt>
      <trkpt lat="42.79413" lon="1.02184">
        <ele>2240.01</ele>
        <time>2019-03-31T08:07:13Z</time>
      </trkpt>
      <trkpt lat="42.79413" lon="1.0218">
        <ele>2240.49</ele>
        <time>2019-03-31T08:07:17Z</time>
      </trkpt>
      <trkpt lat="42.7941" lon="1.02165">
        <ele>2243.37</ele>
        <time>2019-03-31T08:07:31Z</time>
      </trkpt>
      <trkpt lat="42.79409" lon="1.0216">
        <ele>2244.33</ele>
        <time>2019-03-31T08:07:36Z</time>
      </trkpt>
      <trkpt lat="42.79408" lon="1.02161">
        <ele>2244.82</ele>
        <time>2019-03-31T08:07:38Z</time>
      </trkpt>
      <trkpt lat="42.79406" lon="1.02164">
        <ele>2245.3</ele>
        <time>2019-03-31T08:07:41Z</time>
      </trkpt>
      <trkpt lat="42.794" lon="1.02178">
        <ele>2247.7</ele>
        <time>2019-03-31T08:07:55Z</time>
      </trkpt>
      <trkpt lat="42.794" lon="1.02178">
        <ele>2248.18</ele>
        <time>2019-03-31T08:07:57Z</time>
      </trkpt>
      <trkpt lat="42.79398" lon="1.02168">
        <ele>2250.1</ele>
        <time>2019-03-31T08:08:09Z</time>
      </trkpt>
      <trkpt lat="42.79397" lon="1.02167">
        <ele>2250.1</ele>
        <time>2019-03-31T08:08:10Z</time>
      </trkpt>
      <trkpt lat="42.79395" lon="1.02153">
        <ele>2253.47</ele>
        <time>2019-03-31T08:08:24Z</time>
      </trkpt>
      <trkpt lat="42.79395" lon="1.02149">
        <ele>2254.43</ele>
        <time>2019-03-31T08:08:28Z</time>
      </trkpt>
      <trkpt lat="42.79392" lon="1.02135">
        <ele>2256.83</ele>
        <time>2019-03-31T08:08:42Z</time>
      </trkpt>
      <trkpt lat="42.79389" lon="1.02126">
        <ele>2259.24</ele>
        <time>2019-03-31T08:08:56Z</time>
      </trkpt>
      <trkpt lat="42.79385" lon="1.02133">
        <ele>2260.68</ele>
        <time>2019-03-31T08:09:04Z</time>
      </trkpt>
      <trkpt lat="42.79382" lon="1.02134">
        <ele>2263.08</ele>
        <time>2019-03-31T08:09:15Z</time>
      </trkpt>
      <trkpt lat="42.79382" lon="1.02124">
        <ele>2263.56</ele>
        <time>2019-03-31T08:09:24Z</time>
      </trkpt>
      <trkpt lat="42.79383" lon="1.02111">
        <ele>2266.45</ele>
        <time>2019-03-31T08:09:38Z</time>
      </trkpt>
      <trkpt lat="42.79376" lon="1.02117">
        <ele>2267.89</ele>
        <time>2019-03-31T08:09:48Z</time>
      </trkpt>
      <trkpt lat="42.79371" lon="1.02123">
        <ele>2269.33</ele>
        <time>2019-03-31T08:09:56Z</time>
      </trkpt>
      <trkpt lat="42.79366" lon="1.02131">
        <ele>2271.73</ele>
        <time>2019-03-31T08:10:07Z</time>
      </trkpt>
      <trkpt lat="42.79368" lon="1.02117">
        <ele>2273.17</ele>
        <time>2019-03-31T08:10:21Z</time>
      </trkpt>
      <trkpt lat="42.79367" lon="1.02104">
        <ele>2275.58</ele>
        <time>2019-03-31T08:10:36Z</time>
      </trkpt>
      <trkpt lat="42.79361" lon="1.0211">
        <ele>2277.02</ele>
        <time>2019-03-31T08:10:44Z</time>
      </trkpt>
      <trkpt lat="42.79355" lon="1.0212">
        <ele>2279.42</ele>
        <time>2019-03-31T08:10:57Z</time>
      </trkpt>
      <trkpt lat="42.79355" lon="1.02117">
        <ele>2281.35</ele>
        <time>2019-03-31T08:11:08Z</time>
      </trkpt>
      <trkpt lat="42.79355" lon="1.02105">
        <ele>2283.27</ele>
        <time>2019-03-31T08:11:20Z</time>
      </trkpt>
      <trkpt lat="42.79355" lon="1.02086">
        <ele>2285.19</ele>
        <time>2019-03-31T08:11:36Z</time>
      </trkpt>
      <trkpt lat="42.79355" lon="1.02084">
        <ele>2285.67</ele>
        <time>2019-03-31T08:11:38Z</time>
      </trkpt>
      <trkpt lat="42.79355" lon="1.02069">
        <ele>2288.08</ele>
        <time>2019-03-31T08:11:52Z</time>
      </trkpt>
      <trkpt lat="42.79355" lon="1.02068">
        <ele>2289.04</ele>
        <time>2019-03-31T08:11:54Z</time>
      </trkpt>
      <trkpt lat="42.79348" lon="1.02075">
        <ele>2290.96</ele>
        <time>2019-03-31T08:12:04Z</time>
      </trkpt>
      <trkpt lat="42.7934" lon="1.02081">
        <ele>2293.36</ele>
        <time>2019-03-31T08:12:16Z</time>
      </trkpt>
      <trkpt lat="42.79338" lon="1.02083">
        <ele>2294.8</ele>
        <time>2019-03-31T08:12:20Z</time>
      </trkpt>
      <trkpt lat="42.79337" lon="1.02073">
        <ele>2296.25</ele>
        <time>2019-03-31T08:12:32Z</time>
      </trkpt>
      <trkpt lat="42.79335" lon="1.02067">
        <ele>2298.65</ele>
        <time>2019-03-31T08:12:45Z</time>
      </trkpt>
      <trkpt lat="42.79327" lon="1.02075">
        <ele>2301.53</ele>
        <time>2019-03-31T08:12:58Z</time>
      </trkpt>
      <trkpt lat="42.79322" lon="1.02077">
        <ele>2303.94</ele>
        <time>2019-03-31T08:13:12Z</time>
      </trkpt>
      <trkpt lat="42.79322" lon="1.02072">
        <ele>2305.86</ele>
        <time>2019-03-31T08:13:24Z</time>
      </trkpt>
      <trkpt lat="42.79312" lon="1.02082">
        <ele>2308.26</ele>
        <time>2019-03-31T08:13:38Z</time>
      </trkpt>
      <trkpt lat="42.79307" lon="1.02091">
        <ele>2311.63</ele>
        <time>2019-03-31T08:13:51Z</time>
      </trkpt>
      <trkpt lat="42.79306" lon="1.02083">
        <ele>2312.59</ele>
        <time>2019-03-31T08:14:03Z</time>
      </trkpt>
      <trkpt lat="42.79305" lon="1.02074">
        <ele>2315.95</ele>
        <time>2019-03-31T08:14:18Z</time>
      </trkpt>
      <trkpt lat="42.79296" lon="1.02083">
        <ele>2317.4</ele>
        <time>2019-03-31T08:14:31Z</time>
      </trkpt>
      <trkpt lat="42.79294" lon="1.02085">
        <ele>2318.84</ele>
        <time>2019-03-31T08:14:36Z</time>
      </trkpt>
      <trkpt lat="42.79293" lon="1.02085">
        <ele>2319.8</ele>
        <time>2019-03-31T08:14:43Z</time>
      </trkpt>
      <trkpt lat="42.79294" lon="1.02081">
        <ele>2320.28</ele>
        <time>2019-03-31T08:14:47Z</time>
      </trkpt>
      <trkpt lat="42.79297" lon="1.02066">
        <ele>2321.72</ele>
        <time>2019-03-31T08:15:00Z</time>
      </trkpt>
      <trkpt lat="42.79298" lon="1.02051">
        <ele>2324.12</ele>
        <time>2019-03-31T08:15:14Z</time>
      </trkpt>
      <trkpt lat="42.79299" lon="1.02036">
        <ele>2327.01</ele>
        <time>2019-03-31T08:15:28Z</time>
      </trkpt>
      <trkpt lat="42.79298" lon="1.02035">
        <ele>2326.53</ele>
        <time>2019-03-31T08:15:29Z</time>
      </trkpt>
      <trkpt lat="42.79293" lon="1.02036">
        <ele>2328.45</ele>
        <time>2019-03-31T08:15:38Z</time>
      </trkpt>
      <trkpt lat="42.79293" lon="1.02034">
        <ele>2328.45</ele>
        <time>2019-03-31T08:16:05Z</time>
      </trkpt>
      <trkpt lat="42.79293" lon="1.02034">
        <ele>2328.45</ele>
        <time>2019-03-31T08:16:06Z</time>
      </trkpt>
      <trkpt lat="42.7929" lon="1.02037">
        <ele>2328.45</ele>
        <time>2019-03-31T08:16:09Z</time>
      </trkpt>
      <trkpt lat="42.79286" lon="1.02043">
        <ele>2328.93</ele>
        <time>2019-03-31T08:16:15Z</time>
      </trkpt>
      <trkpt lat="42.79278" lon="1.02054">
        <ele>2331.81</ele>
        <time>2019-03-31T08:16:29Z</time>
      </trkpt>
      <trkpt lat="42.79276" lon="1.02053">
        <ele>2333.74</ele>
        <time>2019-03-31T08:16:38Z</time>
      </trkpt>
      <trkpt lat="42.79277" lon="1.02037">
        <ele>2336.62</ele>
        <time>2019-03-31T08:16:53Z</time>
      </trkpt>
      <trkpt lat="42.79277" lon="1.02036">
        <ele>2336.62</ele>
        <time>2019-03-31T08:16:55Z</time>
      </trkpt>
      <trkpt lat="42.79276" lon="1.02023">
        <ele>2339.51</ele>
        <time>2019-03-31T08:17:08Z</time>
      </trkpt>
      <trkpt lat="42.79272" lon="1.0201">
        <ele>2342.39</ele>
        <time>2019-03-31T08:17:22Z</time>
      </trkpt>
      <trkpt lat="42.79266" lon="1.01999">
        <ele>2344.79</ele>
        <time>2019-03-31T08:17:35Z</time>
      </trkpt>
      <trkpt lat="42.79256" lon="1.01996">
        <ele>2347.68</ele>
        <time>2019-03-31T08:17:48Z</time>
      </trkpt>
      <trkpt lat="42.79249" lon="1.01993">
        <ele>2350.56</ele>
        <time>2019-03-31T08:18:01Z</time>
      </trkpt>
      <trkpt lat="42.79248" lon="1.01992">
        <ele>2350.56</ele>
        <time>2019-03-31T08:18:03Z</time>
      </trkpt>
      <trkpt lat="42.79244" lon="1.01978">
        <ele>2352.48</ele>
        <time>2019-03-31T08:18:16Z</time>
      </trkpt>
      <trkpt lat="42.79245" lon="1.01964">
        <ele>2355.37</ele>
        <time>2019-03-31T08:18:29Z</time>
      </trkpt>
      <trkpt lat="42.79242" lon="1.01948">
        <ele>2357.29</ele>
        <time>2019-03-31T08:18:42Z</time>
      </trkpt>
      <trkpt lat="42.79239" lon="1.01931">
        <ele>2358.25</ele>
        <time>2019-03-31T08:18:56Z</time>
      </trkpt>
      <trkpt lat="42.79236" lon="1.01915">
        <ele>2360.17</ele>
        <time>2019-03-31T08:19:09Z</time>
      </trkpt>
      <trkpt lat="42.79235" lon="1.01906">
        <ele>2361.14</ele>
        <time>2019-03-31T08:19:16Z</time>
      </trkpt>
      <trkpt lat="42.79236" lon="1.01892">
        <ele>2363.54</ele>
        <time>2019-03-31T08:19:30Z</time>
      </trkpt>
      <trkpt lat="42.79237" lon="1.01877">
        <ele>2365.94</ele>
        <time>2019-03-31T08:19:44Z</time>
      </trkpt>
      <trkpt lat="42.7924" lon="1.0186">
        <ele>2368.35</ele>
        <time>2019-03-31T08:19:59Z</time>
      </trkpt>
      <trkpt lat="42.79243" lon="1.01851">
        <ele>2370.27</ele>
        <time>2019-03-31T08:20:09Z</time>
      </trkpt>
      <trkpt lat="42.79231" lon="1.01855">
        <ele>2373.15</ele>
        <time>2019-03-31T08:20:23Z</time>
      </trkpt>
      <trkpt lat="42.7923" lon="1.01854">
        <ele>2373.63</ele>
        <time>2019-03-31T08:20:29Z</time>
      </trkpt>
      <trkpt lat="42.79231" lon="1.0185">
        <ele>2374.11</ele>
        <time>2019-03-31T08:20:32Z</time>
      </trkpt>
      <trkpt lat="42.79235" lon="1.01834">
        <ele>2376.04</ele>
        <time>2019-03-31T08:20:46Z</time>
      </trkpt>
      <trkpt lat="42.79232" lon="1.01829">
        <ele>2377.96</ele>
        <time>2019-03-31T08:20:57Z</time>
      </trkpt>
      <trkpt lat="42.79221" lon="1.01833">
        <ele>2381.32</ele>
        <time>2019-03-31T08:21:11Z</time>
      </trkpt>
      <trkpt lat="42.79222" lon="1.0183">
        <ele>2381.32</ele>
        <time>2019-03-31T08:21:14Z</time>
      </trkpt>
      <trkpt lat="42.79227" lon="1.01814">
        <ele>2383.73</ele>
        <time>2019-03-31T08:21:29Z</time>
      </trkpt>
      <trkpt lat="42.79227" lon="1.01807">
        <ele>2385.17</ele>
        <time>2019-03-31T08:21:42Z</time>
      </trkpt>
      <trkpt lat="42.79225" lon="1.01807">
        <ele>2385.65</ele>
        <time>2019-03-31T08:21:45Z</time>
      </trkpt>
      <trkpt lat="42.79216" lon="1.01812">
        <ele>2388.53</ele>
        <time>2019-03-31T08:21:58Z</time>
      </trkpt>
      <trkpt lat="42.79208" lon="1.01817">
        <ele>2391.42</ele>
        <time>2019-03-31T08:22:11Z</time>
      </trkpt>
      <trkpt lat="42.79203" lon="1.01819">
        <ele>2393.34</ele>
        <time>2019-03-31T08:22:24Z</time>
      </trkpt>
      <trkpt lat="42.79206" lon="1.01809">
        <ele>2395.26</ele>
        <time>2019-03-31T08:22:37Z</time>
      </trkpt>
      <trkpt lat="42.79207" lon="1.01795">
        <ele>2398.63</ele>
        <time>2019-03-31T08:22:55Z</time>
      </trkpt>
      <trkpt lat="42.79205" lon="1.01785">
        <ele>2400.07</ele>
        <time>2019-03-31T08:23:08Z</time>
      </trkpt>
      <trkpt lat="42.79197" lon="1.01782">
        <ele>2403.91</ele>
        <time>2019-03-31T08:23:22Z</time>
      </trkpt>
      <trkpt lat="42.7919" lon="1.01785">
        <ele>2405.36</ele>
        <time>2019-03-31T08:23:32Z</time>
      </trkpt>
      <trkpt lat="42.79183" lon="1.0179">
        <ele>2407.28</ele>
        <time>2019-03-31T08:23:45Z</time>
      </trkpt>
      <trkpt lat="42.79181" lon="1.0179">
        <ele>2407.28</ele>
        <time>2019-03-31T08:24:09Z</time>
      </trkpt>
      <trkpt lat="42.79182" lon="1.01781">
        <ele>2409.68</ele>
        <time>2019-03-31T08:24:19Z</time>
      </trkpt>
      <trkpt lat="42.79186" lon="1.01766">
        <ele>2412.09</ele>
        <time>2019-03-31T08:24:33Z</time>
      </trkpt>
      <trkpt lat="42.79191" lon="1.01751">
        <ele>2414.97</ele>
        <time>2019-03-31T08:24:47Z</time>
      </trkpt>
      <trkpt lat="42.79193" lon="1.01743">
        <ele>2416.41</ele>
        <time>2019-03-31T08:24:54Z</time>
      </trkpt>
      <trkpt lat="42.79194" lon="1.01731">
        <ele>2417.85</ele>
        <time>2019-03-31T08:25:07Z</time>
      </trkpt>
      <trkpt lat="42.79192" lon="1.01732">
        <ele>2418.81</ele>
        <time>2019-03-31T08:25:11Z</time>
      </trkpt>
      <trkpt lat="42.79183" lon="1.01739">
        <ele>2420.26</ele>
        <time>2019-03-31T08:25:21Z</time>
      </trkpt>
      <trkpt lat="42.79175" lon="1.01737">
        <ele>2423.14</ele>
        <time>2019-03-31T08:25:34Z</time>
      </trkpt>
      <trkpt lat="42.79177" lon="1.01734">
        <ele>2422.66</ele>
        <time>2019-03-31T08:25:47Z</time>
      </trkpt>
      <trkpt lat="42.79176" lon="1.01734">
        <ele>2422.66</ele>
        <time>2019-03-31T08:25:48Z</time>
      </trkpt>
      <trkpt lat="42.79174" lon="1.01731">
        <ele>2422.18</ele>
        <time>2019-03-31T08:26:19Z</time>
      </trkpt>
      <trkpt lat="42.79173" lon="1.01731">
        <ele>2422.18</ele>
        <time>2019-03-31T08:26:20Z</time>
      </trkpt>
      <trkpt lat="42.79173" lon="1.01735">
        <ele>2423.14</ele>
        <time>2019-03-31T08:26:49Z</time>
      </trkpt>
      <trkpt lat="42.79174" lon="1.01734">
        <ele>2421.7</ele>
        <time>2019-03-31T08:27:03Z</time>
      </trkpt>
      <trkpt lat="42.79174" lon="1.01734">
        <ele>2423.62</ele>
        <time>2019-03-31T08:27:05Z</time>
      </trkpt>
      <trkpt lat="42.79173" lon="1.01734">
        <ele>2423.62</ele>
        <time>2019-03-31T08:27:26Z</time>
      </trkpt>
      <trkpt lat="42.79174" lon="1.01734">
        <ele>2423.62</ele>
        <time>2019-03-31T08:27:50Z</time>
      </trkpt>
      <trkpt lat="42.79175" lon="1.01735">
        <ele>2423.62</ele>
        <time>2019-03-31T08:28:15Z</time>
      </trkpt>
      <trkpt lat="42.79176" lon="1.01736">
        <ele>2423.62</ele>
        <time>2019-03-31T08:28:45Z</time>
      </trkpt>
      <trkpt lat="42.79175" lon="1.01734">
        <ele>2422.66</ele>
        <time>2019-03-31T08:29:15Z</time>
      </trkpt>
      <trkpt lat="42.79175" lon="1.01733">
        <ele>2422.66</ele>
        <time>2019-03-31T08:29:41Z</time>
      </trkpt>
      <trkpt lat="42.79175" lon="1.01733">
        <ele>2423.62</ele>
        <time>2019-03-31T08:30:20Z</time>
      </trkpt>
      <trkpt lat="42.79175" lon="1.01733">
        <ele>2422.18</ele>
        <time>2019-03-31T08:30:22Z</time>
      </trkpt>
      <trkpt lat="42.79175" lon="1.01732">
        <ele>2425.54</ele>
        <time>2019-03-31T08:30:37Z</time>
      </trkpt>
      <trkpt lat="42.79175" lon="1.01734">
        <ele>2422.66</ele>
        <time>2019-03-31T08:30:49Z</time>
      </trkpt>
      <trkpt lat="42.79175" lon="1.01734">
        <ele>2422.66</ele>
        <time>2019-03-31T08:31:10Z</time>
      </trkpt>
      <trkpt lat="42.79175" lon="1.01734">
        <ele>2424.58</ele>
        <time>2019-03-31T08:31:14Z</time>
      </trkpt>
      <trkpt lat="42.79173" lon="1.01734">
        <ele>2424.58</ele>
        <time>2019-03-31T08:31:34Z</time>
      </trkpt>
      <trkpt lat="42.79174" lon="1.01732">
        <ele>2424.58</ele>
        <time>2019-03-31T08:32:02Z</time>
      </trkpt>
      <trkpt lat="42.79174" lon="1.01732">
        <ele>2424.58</ele>
        <time>2019-03-31T08:32:06Z</time>
      </trkpt>
      <trkpt lat="42.79179" lon="1.01721">
        <ele>2425.06</ele>
        <time>2019-03-31T08:32:16Z</time>
      </trkpt>
      <trkpt lat="42.79183" lon="1.01699">
        <ele>2427.47</ele>
        <time>2019-03-31T08:32:33Z</time>
      </trkpt>
      <trkpt lat="42.79182" lon="1.0168">
        <ele>2429.87</ele>
        <time>2019-03-31T08:32:48Z</time>
      </trkpt>
      <trkpt lat="42.79182" lon="1.01662">
        <ele>2432.27</ele>
        <time>2019-03-31T08:33:02Z</time>
      </trkpt>
      <trkpt lat="42.79181" lon="1.01648">
        <ele>2434.68</ele>
        <time>2019-03-31T08:33:16Z</time>
      </trkpt>
      <trkpt lat="42.79182" lon="1.01631">
        <ele>2438.04</ele>
        <time>2019-03-31T08:33:31Z</time>
      </trkpt>
      <trkpt lat="42.79183" lon="1.01615">
        <ele>2439.96</ele>
        <time>2019-03-31T08:33:45Z</time>
      </trkpt>
      <trkpt lat="42.79181" lon="1.016">
        <ele>2441.89</ele>
        <time>2019-03-31T08:33:57Z</time>
      </trkpt>
      <trkpt lat="42.7918" lon="1.01591">
        <ele>2443.81</ele>
        <time>2019-03-31T08:34:07Z</time>
      </trkpt>
      <trkpt lat="42.79173" lon="1.01601">
        <ele>2445.73</ele>
        <time>2019-03-31T08:34:21Z</time>
      </trkpt>
      <trkpt lat="42.79169" lon="1.01606">
        <ele>2447.65</ele>
        <time>2019-03-31T08:34:30Z</time>
      </trkpt>
      <trkpt lat="42.79161" lon="1.01613">
        <ele>2450.06</ele>
        <time>2019-03-31T08:34:44Z</time>
      </trkpt>
      <trkpt lat="42.79156" lon="1.01614">
        <ele>2452.46</ele>
        <time>2019-03-31T08:34:56Z</time>
      </trkpt>
      <trkpt lat="42.79153" lon="1.016">
        <ele>2455.82</ele>
        <time>2019-03-31T08:35:10Z</time>
      </trkpt>
      <trkpt lat="42.79151" lon="1.01589">
        <ele>2458.71</ele>
        <time>2019-03-31T08:35:24Z</time>
      </trkpt>
      <trkpt lat="42.7915" lon="1.01578">
        <ele>2461.11</ele>
        <time>2019-03-31T08:35:36Z</time>
      </trkpt>
      <trkpt lat="42.79147" lon="1.01564">
        <ele>2464.48</ele>
        <time>2019-03-31T08:35:51Z</time>
      </trkpt>
      <trkpt lat="42.79146" lon="1.01553">
        <ele>2466.88</ele>
        <time>2019-03-31T08:36:03Z</time>
      </trkpt>
      <trkpt lat="42.79142" lon="1.01541">
        <ele>2469.76</ele>
        <time>2019-03-31T08:36:17Z</time>
      </trkpt>
      <trkpt lat="42.79139" lon="1.01543">
        <ele>2471.21</ele>
        <time>2019-03-31T08:36:23Z</time>
      </trkpt>
      <trkpt lat="42.79129" lon="1.01544">
        <ele>2474.09</ele>
        <time>2019-03-31T08:36:37Z</time>
      </trkpt>
      <trkpt lat="42.7912" lon="1.01548">
        <ele>2476.97</ele>
        <time>2019-03-31T08:36:50Z</time>
      </trkpt>
      <trkpt lat="42.79112" lon="1.01555">
        <ele>2479.38</ele>
        <time>2019-03-31T08:37:03Z</time>
      </trkpt>
      <trkpt lat="42.79108" lon="1.01558">
        <ele>2480.82</ele>
        <time>2019-03-31T08:37:09Z</time>
      </trkpt>
      <trkpt lat="42.79105" lon="1.01561">
        <ele>2481.78</ele>
        <time>2019-03-31T08:37:13Z</time>
      </trkpt>
      <trkpt lat="42.79094" lon="1.01561">
        <ele>2484.18</ele>
        <time>2019-03-31T08:37:27Z</time>
      </trkpt>
      <trkpt lat="42.79087" lon="1.01561">
        <ele>2487.07</ele>
        <time>2019-03-31T08:37:40Z</time>
      </trkpt>
      <trkpt lat="42.79077" lon="1.01564">
        <ele>2489.95</ele>
        <time>2019-03-31T08:37:53Z</time>
      </trkpt>
      <trkpt lat="42.79072" lon="1.01561">
        <ele>2492.36</ele>
        <time>2019-03-31T08:38:06Z</time>
      </trkpt>
      <trkpt lat="42.79075" lon="1.01547">
        <ele>2495.24</ele>
        <time>2019-03-31T08:38:22Z</time>
      </trkpt>
      <trkpt lat="42.79077" lon="1.01532">
        <ele>2497.64</ele>
        <time>2019-03-31T08:38:37Z</time>
      </trkpt>
      <trkpt lat="42.79079" lon="1.01519">
        <ele>2501.01</ele>
        <time>2019-03-31T08:38:51Z</time>
      </trkpt>
      <trkpt lat="42.7908" lon="1.01506">
        <ele>2503.41</ele>
        <time>2019-03-31T08:39:07Z</time>
      </trkpt>
      <trkpt lat="42.79081" lon="1.01492">
        <ele>2506.77</ele>
        <time>2019-03-31T08:39:22Z</time>
      </trkpt>
      <trkpt lat="42.79082" lon="1.0149">
        <ele>2506.77</ele>
        <time>2019-03-31T08:39:25Z</time>
      </trkpt>
      <trkpt lat="42.7908" lon="1.01491">
        <ele>2507.74</ele>
        <time>2019-03-31T08:39:28Z</time>
      </trkpt>
      <trkpt lat="42.79072" lon="1.01497">
        <ele>2510.14</ele>
        <time>2019-03-31T08:39:42Z</time>
      </trkpt>
      <trkpt lat="42.79067" lon="1.01496">
        <ele>2512.54</ele>
        <time>2019-03-31T08:39:54Z</time>
      </trkpt>
      <trkpt lat="42.79069" lon="1.01482">
        <ele>2514.95</ele>
        <time>2019-03-31T08:40:08Z</time>
      </trkpt>
      <trkpt lat="42.79068" lon="1.01474">
        <ele>2516.87</ele>
        <time>2019-03-31T08:40:17Z</time>
      </trkpt>
      <trkpt lat="42.79069" lon="1.01459">
        <ele>2519.75</ele>
        <time>2019-03-31T08:40:31Z</time>
      </trkpt>
      <trkpt lat="42.79069" lon="1.01445">
        <ele>2522.16</ele>
        <time>2019-03-31T08:40:44Z</time>
      </trkpt>
      <trkpt lat="42.79073" lon="1.01431">
        <ele>2524.56</ele>
        <time>2019-03-31T08:40:59Z</time>
      </trkpt>
      <trkpt lat="42.79068" lon="1.01422">
        <ele>2527.92</ele>
        <time>2019-03-31T08:41:11Z</time>
      </trkpt>
      <trkpt lat="42.79063" lon="1.01411">
        <ele>2530.81</ele>
        <time>2019-03-31T08:41:24Z</time>
      </trkpt>
      <trkpt lat="42.79064" lon="1.01401">
        <ele>2533.69</ele>
        <time>2019-03-31T08:41:37Z</time>
      </trkpt>
      <trkpt lat="42.79056" lon="1.01395">
        <ele>2536.1</ele>
        <time>2019-03-31T08:41:50Z</time>
      </trkpt>
      <trkpt lat="42.79058" lon="1.01387">
        <ele>2538.5</ele>
        <time>2019-03-31T08:42:02Z</time>
      </trkpt>
      <trkpt lat="42.79066" lon="1.01376">
        <ele>2540.9</ele>
        <time>2019-03-31T08:42:16Z</time>
      </trkpt>
      <trkpt lat="42.79074" lon="1.01373">
        <ele>2543.31</ele>
        <time>2019-03-31T08:42:29Z</time>
      </trkpt>
      <trkpt lat="42.79076" lon="1.01372">
        <ele>2543.79</ele>
        <time>2019-03-31T08:42:32Z</time>
      </trkpt>
      <trkpt lat="42.79073" lon="1.01362">
        <ele>2546.19</ele>
        <time>2019-03-31T08:42:44Z</time>
      </trkpt>
      <trkpt lat="42.79064" lon="1.01353">
        <ele>2548.59</ele>
        <time>2019-03-31T08:42:58Z</time>
      </trkpt>
      <trkpt lat="42.79058" lon="1.0135">
        <ele>2551</ele>
        <time>2019-03-31T08:43:12Z</time>
      </trkpt>
      <trkpt lat="42.79053" lon="1.0135">
        <ele>2553.4</ele>
        <time>2019-03-31T08:43:24Z</time>
      </trkpt>
      <trkpt lat="42.79058" lon="1.01338">
        <ele>2555.32</ele>
        <time>2019-03-31T08:43:37Z</time>
      </trkpt>
      <trkpt lat="42.79065" lon="1.01329">
        <ele>2557.73</ele>
        <time>2019-03-31T08:43:50Z</time>
      </trkpt>
      <trkpt lat="42.79062" lon="1.01324">
        <ele>2560.13</ele>
        <time>2019-03-31T08:44:02Z</time>
      </trkpt>
      <trkpt lat="42.79054" lon="1.01322">
        <ele>2562.53</ele>
        <time>2019-03-31T08:44:15Z</time>
      </trkpt>
      <trkpt lat="42.79045" lon="1.01323">
        <ele>2564.93</ele>
        <time>2019-03-31T08:44:28Z</time>
      </trkpt>
      <trkpt lat="42.79038" lon="1.01325">
        <ele>2567.34</ele>
        <time>2019-03-31T08:44:38Z</time>
      </trkpt>
      <trkpt lat="42.79039" lon="1.01315">
        <ele>2569.26</ele>
        <time>2019-03-31T08:44:49Z</time>
      </trkpt>
      <trkpt lat="42.79046" lon="1.01303">
        <ele>2571.18</ele>
        <time>2019-03-31T08:45:02Z</time>
      </trkpt>
      <trkpt lat="42.79048" lon="1.01296">
        <ele>2573.59</ele>
        <time>2019-03-31T08:45:15Z</time>
      </trkpt>
      <trkpt lat="42.79039" lon="1.01293">
        <ele>2576.47</ele>
        <time>2019-03-31T08:45:28Z</time>
      </trkpt>
      <trkpt lat="42.79036" lon="1.0129">
        <ele>2577.91</ele>
        <time>2019-03-31T08:45:38Z</time>
      </trkpt>
      <trkpt lat="42.79038" lon="1.01285">
        <ele>2578.87</ele>
        <time>2019-03-31T08:45:43Z</time>
      </trkpt>
      <trkpt lat="42.79037" lon="1.01271">
        <ele>2581.28</ele>
        <time>2019-03-31T08:45:57Z</time>
      </trkpt>
      <trkpt lat="42.79032" lon="1.01265">
        <ele>2582.72</ele>
        <time>2019-03-31T08:46:06Z</time>
      </trkpt>
      <trkpt lat="42.79029" lon="1.01269">
        <ele>2585.6</ele>
        <time>2019-03-31T08:46:19Z</time>
      </trkpt>
      <trkpt lat="42.79026" lon="1.01275">
        <ele>2587.04</ele>
        <time>2019-03-31T08:46:32Z</time>
      </trkpt>
      <trkpt lat="42.79024" lon="1.01271">
        <ele>2587.53</ele>
        <time>2019-03-31T08:46:58Z</time>
      </trkpt>
      <trkpt lat="42.7902" lon="1.01269">
        <ele>2588.97</ele>
        <time>2019-03-31T08:47:04Z</time>
      </trkpt>
      <trkpt lat="42.79013" lon="1.01262">
        <ele>2592.33</ele>
        <time>2019-03-31T08:47:17Z</time>
      </trkpt>
      <trkpt lat="42.79005" lon="1.01255">
        <ele>2595.22</ele>
        <time>2019-03-31T08:47:31Z</time>
      </trkpt>
      <trkpt lat="42.79004" lon="1.01254">
        <ele>2595.22</ele>
        <time>2019-03-31T08:47:33Z</time>
      </trkpt>
      <trkpt lat="42.78997" lon="1.01246">
        <ele>2598.1</ele>
        <time>2019-03-31T08:47:46Z</time>
      </trkpt>
      <trkpt lat="42.78993" lon="1.01248">
        <ele>2600.02</ele>
        <time>2019-03-31T08:47:56Z</time>
      </trkpt>
      <trkpt lat="42.78992" lon="1.01256">
        <ele>2603.39</ele>
        <time>2019-03-31T08:48:07Z</time>
      </trkpt>
      <trkpt lat="42.78989" lon="1.01267">
        <ele>2605.79</ele>
        <time>2019-03-31T08:48:20Z</time>
      </trkpt>
      <trkpt lat="42.78985" lon="1.01267">
        <ele>2607.71</ele>
        <time>2019-03-31T08:48:31Z</time>
      </trkpt>
      <trkpt lat="42.78978" lon="1.01258">
        <ele>2609.64</ele>
        <time>2019-03-31T08:48:44Z</time>
      </trkpt>
      <trkpt lat="42.78977" lon="1.01257">
        <ele>2610.6</ele>
        <time>2019-03-31T08:48:47Z</time>
      </trkpt>
      <trkpt lat="42.78972" lon="1.01254">
        <ele>2611.56</ele>
        <time>2019-03-31T08:48:53Z</time>
      </trkpt>
      <trkpt lat="42.78964" lon="1.01249">
        <ele>2613.48</ele>
        <time>2019-03-31T08:49:06Z</time>
      </trkpt>
      <trkpt lat="42.78959" lon="1.01247">
        <ele>2615.88</ele>
        <time>2019-03-31T08:49:17Z</time>
      </trkpt>
      <trkpt lat="42.78951" lon="1.01243">
        <ele>2618.77</ele>
        <time>2019-03-31T08:49:30Z</time>
      </trkpt>
      <trkpt lat="42.78943" lon="1.01239">
        <ele>2621.17</ele>
        <time>2019-03-31T08:49:43Z</time>
      </trkpt>
      <trkpt lat="42.78934" lon="1.01233">
        <ele>2624.06</ele>
        <time>2019-03-31T08:49:57Z</time>
      </trkpt>
      <trkpt lat="42.78927" lon="1.01224">
        <ele>2627.42</ele>
        <time>2019-03-31T08:50:11Z</time>
      </trkpt>
      <trkpt lat="42.7892" lon="1.01214">
        <ele>2629.82</ele>
        <time>2019-03-31T08:50:26Z</time>
      </trkpt>
      <trkpt lat="42.7892" lon="1.01219">
        <ele>2631.27</ele>
        <time>2019-03-31T08:50:36Z</time>
      </trkpt>
      <trkpt lat="42.78918" lon="1.01232">
        <ele>2633.19</ele>
        <time>2019-03-31T08:50:49Z</time>
      </trkpt>
      <trkpt lat="42.78919" lon="1.01242">
        <ele>2635.59</ele>
        <time>2019-03-31T08:51:01Z</time>
      </trkpt>
      <trkpt lat="42.78921" lon="1.01251">
        <ele>2637.99</ele>
        <time>2019-03-31T08:51:12Z</time>
      </trkpt>
      <trkpt lat="42.78925" lon="1.01264">
        <ele>2640.4</ele>
        <time>2019-03-31T08:51:27Z</time>
      </trkpt>
      <trkpt lat="42.78927" lon="1.01276">
        <ele>2643.76</ele>
        <time>2019-03-31T08:51:40Z</time>
      </trkpt>
      <trkpt lat="42.78928" lon="1.0129">
        <ele>2646.17</ele>
        <time>2019-03-31T08:51:55Z</time>
      </trkpt>
      <trkpt lat="42.78926" lon="1.01303">
        <ele>2649.05</ele>
        <time>2019-03-31T08:52:09Z</time>
      </trkpt>
      <trkpt lat="42.78924" lon="1.01306">
        <ele>2650.49</ele>
        <time>2019-03-31T08:52:19Z</time>
      </trkpt>
      <trkpt lat="42.78923" lon="1.01305">
        <ele>2650.97</ele>
        <time>2019-03-31T08:52:21Z</time>
      </trkpt>
      <trkpt lat="42.78913" lon="1.01297">
        <ele>2653.86</ele>
        <time>2019-03-31T08:52:36Z</time>
      </trkpt>
      <trkpt lat="42.78906" lon="1.01287">
        <ele>2656.26</ele>
        <time>2019-03-31T08:52:49Z</time>
      </trkpt>
      <trkpt lat="42.78904" lon="1.0129">
        <ele>2657.7</ele>
        <time>2019-03-31T08:52:59Z</time>
      </trkpt>
      <trkpt lat="42.78904" lon="1.01301">
        <ele>2659.62</ele>
        <time>2019-03-31T08:53:13Z</time>
      </trkpt>
      <trkpt lat="42.78903" lon="1.01313">
        <ele>2662.51</ele>
        <time>2019-03-31T08:53:26Z</time>
      </trkpt>
      <trkpt lat="42.78906" lon="1.01326">
        <ele>2665.39</ele>
        <time>2019-03-31T08:53:41Z</time>
      </trkpt>
      <trkpt lat="42.78905" lon="1.01339">
        <ele>2667.8</ele>
        <time>2019-03-31T08:53:55Z</time>
      </trkpt>
      <trkpt lat="42.78902" lon="1.01347">
        <ele>2671.16</ele>
        <time>2019-03-31T08:54:07Z</time>
      </trkpt>
      <trkpt lat="42.78892" lon="1.01341">
        <ele>2674.04</ele>
        <time>2019-03-31T08:54:21Z</time>
      </trkpt>
      <trkpt lat="42.78883" lon="1.01336">
        <ele>2675.97</ele>
        <time>2019-03-31T08:54:35Z</time>
      </trkpt>
      <trkpt lat="42.78874" lon="1.01331">
        <ele>2678.37</ele>
        <time>2019-03-31T08:54:49Z</time>
      </trkpt>
      <trkpt lat="42.78866" lon="1.01327">
        <ele>2681.73</ele>
        <time>2019-03-31T08:55:03Z</time>
      </trkpt>
      <trkpt lat="42.78859" lon="1.01321">
        <ele>2684.14</ele>
        <time>2019-03-31T08:55:17Z</time>
      </trkpt>
      <trkpt lat="42.78858" lon="1.01325">
        <ele>2685.1</ele>
        <time>2019-03-31T08:55:24Z</time>
      </trkpt>
      <trkpt lat="42.78858" lon="1.01326">
        <ele>2684.14</ele>
        <time>2019-03-31T08:55:39Z</time>
      </trkpt>
      <trkpt lat="42.78858" lon="1.01326">
        <ele>2685.58</ele>
        <time>2019-03-31T08:55:42Z</time>
      </trkpt>
      <trkpt lat="42.78858" lon="1.01326">
        <ele>2683.66</ele>
        <time>2019-03-31T08:55:44Z</time>
      </trkpt>
      <trkpt lat="42.78858" lon="1.01326">
        <ele>2686.06</ele>
        <time>2019-03-31T08:55:49Z</time>
      </trkpt>
      <trkpt lat="42.78851" lon="1.01327">
        <ele>2684.62</ele>
        <time>2019-03-31T08:56:00Z</time>
      </trkpt>
      <trkpt lat="42.78846" lon="1.01333">
        <ele>2684.62</ele>
        <time>2019-03-31T08:56:14Z</time>
      </trkpt>
      <trkpt lat="42.78845" lon="1.01333">
        <ele>2684.62</ele>
        <time>2019-03-31T08:56:31Z</time>
      </trkpt>
      <trkpt lat="42.78846" lon="1.01334">
        <ele>2683.66</ele>
        <time>2019-03-31T08:56:57Z</time>
      </trkpt>
      <trkpt lat="42.78848" lon="1.0133">
        <ele>2683.66</ele>
        <time>2019-03-31T08:57:14Z</time>
      </trkpt>
      <trkpt lat="42.78852" lon="1.01319">
        <ele>2687.02</ele>
        <time>2019-03-31T08:57:28Z</time>
      </trkpt>
      <trkpt lat="42.78849" lon="1.01314">
        <ele>2687.5</ele>
        <time>2019-03-31T08:57:38Z</time>
      </trkpt>
      <trkpt lat="42.78847" lon="1.0131">
        <ele>2689.91</ele>
        <time>2019-03-31T08:57:50Z</time>
      </trkpt>
      <trkpt lat="42.78846" lon="1.0131">
        <ele>2690.39</ele>
        <time>2019-03-31T08:58:01Z</time>
      </trkpt>
      <trkpt lat="42.78846" lon="1.01311">
        <ele>2689.91</ele>
        <time>2019-03-31T08:58:16Z</time>
      </trkpt>
      <trkpt lat="42.78846" lon="1.0131">
        <ele>2688.94</ele>
        <time>2019-03-31T08:58:33Z</time>
      </trkpt>
      <trkpt lat="42.78847" lon="1.01312">
        <ele>2689.43</ele>
        <time>2019-03-31T08:58:57Z</time>
      </trkpt>
      <trkpt lat="42.78846" lon="1.01309">
        <ele>2689.43</ele>
        <time>2019-03-31T08:59:18Z</time>
      </trkpt>
      <trkpt lat="42.78847" lon="1.0131">
        <ele>2689.43</ele>
        <time>2019-03-31T08:59:58Z</time>
      </trkpt>
      <trkpt lat="42.78846" lon="1.01312">
        <ele>2685.58</ele>
        <time>2019-03-31T09:00:23Z</time>
      </trkpt>
      <trkpt lat="42.78846" lon="1.01311">
        <ele>2691.35</ele>
        <time>2019-03-31T09:00:26Z</time>
      </trkpt>
      <trkpt lat="42.78846" lon="1.01311">
        <ele>2688.94</ele>
        <time>2019-03-31T09:00:53Z</time>
      </trkpt>
      <trkpt lat="42.78845" lon="1.01311">
        <ele>2688.94</ele>
        <time>2019-03-31T09:01:26Z</time>
      </trkpt>
      <trkpt lat="42.78846" lon="1.01309">
        <ele>2689.91</ele>
        <time>2019-03-31T09:02:01Z</time>
      </trkpt>
      <trkpt lat="42.78844" lon="1.0131">
        <ele>2688.94</ele>
        <time>2019-03-31T09:02:40Z</time>
      </trkpt>
      <trkpt lat="42.78846" lon="1.01309">
        <ele>2689.43</ele>
        <time>2019-03-31T09:03:19Z</time>
      </trkpt>
      <trkpt lat="42.78845" lon="1.01309">
        <ele>2689.43</ele>
        <time>2019-03-31T09:04:05Z</time>
      </trkpt>
      <trkpt lat="42.78845" lon="1.0131">
        <ele>2682.7</ele>
        <time>2019-03-31T09:04:26Z</time>
      </trkpt>
      <trkpt lat="42.78845" lon="1.0131">
        <ele>2688.94</ele>
        <time>2019-03-31T09:04:27Z</time>
      </trkpt>
      <trkpt lat="42.78845" lon="1.0131">
        <ele>2692.31</ele>
        <time>2019-03-31T09:04:28Z</time>
      </trkpt>
      <trkpt lat="42.78845" lon="1.0131">
        <ele>2688.46</ele>
        <time>2019-03-31T09:04:48Z</time>
      </trkpt>
      <trkpt lat="42.78845" lon="1.0131">
        <ele>2689.91</ele>
        <time>2019-03-31T09:04:52Z</time>
      </trkpt>
      <trkpt lat="42.78844" lon="1.0131">
        <ele>2689.91</ele>
        <time>2019-03-31T09:05:33Z</time>
      </trkpt>
      <trkpt lat="42.78843" lon="1.0131">
        <ele>2689.91</ele>
        <time>2019-03-31T09:06:14Z</time>
      </trkpt>
      <trkpt lat="42.78842" lon="1.0131">
        <ele>2689.91</ele>
        <time>2019-03-31T09:06:56Z</time>
      </trkpt>
      <trkpt lat="42.78843" lon="1.0131">
        <ele>2682.7</ele>
        <time>2019-03-31T09:07:22Z</time>
      </trkpt>
      <trkpt lat="42.78843" lon="1.0131">
        <ele>2689.91</ele>
        <time>2019-03-31T09:07:23Z</time>
      </trkpt>
      <trkpt lat="42.78844" lon="1.01311">
        <ele>2687.98</ele>
        <time>2019-03-31T09:07:34Z</time>
      </trkpt>
      <trkpt lat="42.78844" lon="1.01311">
        <ele>2689.91</ele>
        <time>2019-03-31T09:07:36Z</time>
      </trkpt>
      <trkpt lat="42.78847" lon="1.01311">
        <ele>2690.39</ele>
        <time>2019-03-31T09:08:26Z</time>
      </trkpt>
      <trkpt lat="42.78846" lon="1.01311">
        <ele>2691.83</ele>
        <time>2019-03-31T09:08:35Z</time>
      </trkpt>
      <trkpt lat="42.78847" lon="1.01311">
        <ele>2684.62</ele>
        <time>2019-03-31T09:08:38Z</time>
      </trkpt>
      <trkpt lat="42.78847" lon="1.01311">
        <ele>2693.75</ele>
        <time>2019-03-31T09:08:39Z</time>
      </trkpt>
      <trkpt lat="42.78847" lon="1.01311">
        <ele>2691.83</ele>
        <time>2019-03-31T09:08:40Z</time>
      </trkpt>
      <trkpt lat="42.78847" lon="1.01311">
        <ele>2690.87</ele>
        <time>2019-03-31T09:08:42Z</time>
      </trkpt>
      <trkpt lat="42.78847" lon="1.01314">
        <ele>2689.91</ele>
        <time>2019-03-31T09:08:52Z</time>
      </trkpt>
      <trkpt lat="42.78847" lon="1.01315">
        <ele>2689.91</ele>
        <time>2019-03-31T09:08:53Z</time>
      </trkpt>
      <trkpt lat="42.78847" lon="1.01316">
        <ele>2688.46</ele>
        <time>2019-03-31T09:09:05Z</time>
      </trkpt>
      <trkpt lat="42.78847" lon="1.01314">
        <ele>2689.91</ele>
        <time>2019-03-31T09:09:08Z</time>
      </trkpt>
      <trkpt lat="42.78845" lon="1.01311">
        <ele>2691.83</ele>
        <time>2019-03-31T09:09:21Z</time>
      </trkpt>
      <trkpt lat="42.78843" lon="1.01306">
        <ele>2694.23</ele>
        <time>2019-03-31T09:09:33Z</time>
      </trkpt>
      <trkpt lat="42.78839" lon="1.01301">
        <ele>2696.15</ele>
        <time>2019-03-31T09:09:47Z</time>
      </trkpt>
      <trkpt lat="42.78838" lon="1.01295">
        <ele>2698.56</ele>
        <time>2019-03-31T09:10:00Z</time>
      </trkpt>
      <trkpt lat="42.78837" lon="1.01286">
        <ele>2700.96</ele>
        <time>2019-03-31T09:10:16Z</time>
      </trkpt>
      <trkpt lat="42.78835" lon="1.01278">
        <ele>2703.36</ele>
        <time>2019-03-31T09:10:30Z</time>
      </trkpt>
      <trkpt lat="42.78835" lon="1.01271">
        <ele>2705.29</ele>
        <time>2019-03-31T09:10:41Z</time>
      </trkpt>
      <trkpt lat="42.78834" lon="1.01266">
        <ele>2707.69</ele>
        <time>2019-03-31T09:10:56Z</time>
      </trkpt>
      <trkpt lat="42.78834" lon="1.01259">
        <ele>2711.06</ele>
        <time>2019-03-31T09:11:11Z</time>
      </trkpt>
      <trkpt lat="42.78833" lon="1.01256">
        <ele>2712.98</ele>
        <time>2019-03-31T09:11:23Z</time>
      </trkpt>
      <trkpt lat="42.7883" lon="1.01261">
        <ele>2714.42</ele>
        <time>2019-03-31T09:11:34Z</time>
      </trkpt>
      <trkpt lat="42.78824" lon="1.01265">
        <ele>2716.34</ele>
        <time>2019-03-31T09:11:48Z</time>
      </trkpt>
      <trkpt lat="42.78821" lon="1.01264">
        <ele>2719.71</ele>
        <time>2019-03-31T09:11:57Z</time>
      </trkpt>
      <trkpt lat="42.7882" lon="1.01256">
        <ele>2721.15</ele>
        <time>2019-03-31T09:12:13Z</time>
      </trkpt>
      <trkpt lat="42.78819" lon="1.01248">
        <ele>2724.03</ele>
        <time>2019-03-31T09:12:31Z</time>
      </trkpt>
      <trkpt lat="42.78819" lon="1.01243">
        <ele>2725.96</ele>
        <time>2019-03-31T09:12:44Z</time>
      </trkpt>
      <trkpt lat="42.78821" lon="1.01235">
        <ele>2728.36</ele>
        <time>2019-03-31T09:12:59Z</time>
      </trkpt>
      <trkpt lat="42.78822" lon="1.01229">
        <ele>2728.84</ele>
        <time>2019-03-31T09:13:13Z</time>
      </trkpt>
      <trkpt lat="42.78825" lon="1.01226">
        <ele>2729.32</ele>
        <time>2019-03-31T09:13:28Z</time>
      </trkpt>
      <trkpt lat="42.78824" lon="1.01223">
        <ele>2731.24</ele>
        <time>2019-03-31T09:13:44Z</time>
      </trkpt>
      <trkpt lat="42.78825" lon="1.01216">
        <ele>2730.76</ele>
        <time>2019-03-31T09:13:54Z</time>
      </trkpt>
      <trkpt lat="42.78824" lon="1.01206">
        <ele>2733.17</ele>
        <time>2019-03-31T09:14:10Z</time>
      </trkpt>
      <trkpt lat="42.78823" lon="1.012">
        <ele>2735.57</ele>
        <time>2019-03-31T09:14:22Z</time>
      </trkpt>
      <trkpt lat="42.78822" lon="1.01198">
        <ele>2737.01</ele>
        <time>2019-03-31T09:14:33Z</time>
      </trkpt>
      <trkpt lat="42.78821" lon="1.01196">
        <ele>2738.93</ele>
        <time>2019-03-31T09:14:43Z</time>
      </trkpt>
      <trkpt lat="42.7882" lon="1.01191">
        <ele>2741.82</ele>
        <time>2019-03-31T09:14:57Z</time>
      </trkpt>
      <trkpt lat="42.78816" lon="1.01192">
        <ele>2744.7</ele>
        <time>2019-03-31T09:15:09Z</time>
      </trkpt>
      <trkpt lat="42.78815" lon="1.0119">
        <ele>2745.66</ele>
        <time>2019-03-31T09:15:16Z</time>
      </trkpt>
      <trkpt lat="42.78814" lon="1.01191">
        <ele>2747.1</ele>
        <time>2019-03-31T09:15:20Z</time>
      </trkpt>
      <trkpt lat="42.7881" lon="1.01189">
        <ele>2749.51</ele>
        <time>2019-03-31T09:15:33Z</time>
      </trkpt>
      <trkpt lat="42.78808" lon="1.01187">
        <ele>2751.91</ele>
        <time>2019-03-31T09:15:45Z</time>
      </trkpt>
      <trkpt lat="42.78808" lon="1.01187">
        <ele>2751.91</ele>
        <time>2019-03-31T09:15:46Z</time>
      </trkpt>
      <trkpt lat="42.78806" lon="1.01183">
        <ele>2753.83</ele>
        <time>2019-03-31T09:15:58Z</time>
      </trkpt>
      <trkpt lat="42.78805" lon="1.01177">
        <ele>2755.76</ele>
        <time>2019-03-31T09:16:12Z</time>
      </trkpt>
      <trkpt lat="42.78805" lon="1.01173">
        <ele>2758.16</ele>
        <time>2019-03-31T09:16:24Z</time>
      </trkpt>
      <trkpt lat="42.78805" lon="1.01169">
        <ele>2760.08</ele>
        <time>2019-03-31T09:16:39Z</time>
      </trkpt>
      <trkpt lat="42.78805" lon="1.01164">
        <ele>2762.49</ele>
        <time>2019-03-31T09:16:52Z</time>
      </trkpt>
      <trkpt lat="42.78805" lon="1.01157">
        <ele>2764.41</ele>
        <time>2019-03-31T09:17:06Z</time>
      </trkpt>
      <trkpt lat="42.78804" lon="1.01153">
        <ele>2766.33</ele>
        <time>2019-03-31T09:17:18Z</time>
      </trkpt>
      <trkpt lat="42.78803" lon="1.01151">
        <ele>2767.29</ele>
        <time>2019-03-31T09:17:35Z</time>
      </trkpt>
      <trkpt lat="42.78804" lon="1.01147">
        <ele>2771.14</ele>
        <time>2019-03-31T09:17:47Z</time>
      </trkpt>
      <trkpt lat="42.78804" lon="1.01146">
        <ele>2771.14</ele>
        <time>2019-03-31T09:17:48Z</time>
      </trkpt>
      <trkpt lat="42.78805" lon="1.01141">
        <ele>2773.54</ele>
        <time>2019-03-31T09:18:00Z</time>
      </trkpt>
      <trkpt lat="42.78806" lon="1.01137">
        <ele>2774.02</ele>
        <time>2019-03-31T09:18:11Z</time>
      </trkpt>
      <trkpt lat="42.78806" lon="1.01129">
        <ele>2776.42</ele>
        <time>2019-03-31T09:18:27Z</time>
      </trkpt>
      <trkpt lat="42.78805" lon="1.01122">
        <ele>2779.79</ele>
        <time>2019-03-31T09:18:41Z</time>
      </trkpt>
      <trkpt lat="42.78805" lon="1.01117">
        <ele>2782.67</ele>
        <time>2019-03-31T09:18:57Z</time>
      </trkpt>
      <trkpt lat="42.78804" lon="1.01112">
        <ele>2784.6</ele>
        <time>2019-03-31T09:19:08Z</time>
      </trkpt>
      <trkpt lat="42.78804" lon="1.01107">
        <ele>2786.52</ele>
        <time>2019-03-31T09:19:22Z</time>
      </trkpt>
      <trkpt lat="42.78803" lon="1.01105">
        <ele>2788.44</ele>
        <time>2019-03-31T09:19:33Z</time>
      </trkpt>
      <trkpt lat="42.78803" lon="1.01106">
        <ele>2789.4</ele>
        <time>2019-03-31T09:19:49Z</time>
      </trkpt>
      <trkpt lat="42.78804" lon="1.01103">
        <ele>2790.36</ele>
        <time>2019-03-31T09:20:02Z</time>
      </trkpt>
      <trkpt lat="42.78804" lon="1.01101">
        <ele>2791.81</ele>
        <time>2019-03-31T09:20:16Z</time>
      </trkpt>
      <trkpt lat="42.78803" lon="1.011">
        <ele>2792.29</ele>
        <time>2019-03-31T09:20:32Z</time>
      </trkpt>
      <trkpt lat="42.78804" lon="1.01097">
        <ele>2793.73</ele>
        <time>2019-03-31T09:20:57Z</time>
      </trkpt>
      <trkpt lat="42.78805" lon="1.01092">
        <ele>2794.21</ele>
        <time>2019-03-31T09:21:10Z</time>
      </trkpt>
      <trkpt lat="42.78807" lon="1.01084">
        <ele>2795.65</ele>
        <time>2019-03-31T09:21:25Z</time>
      </trkpt>
      <trkpt lat="42.7881" lon="1.01078">
        <ele>2796.13</ele>
        <time>2019-03-31T09:21:37Z</time>
      </trkpt>
      <trkpt lat="42.78814" lon="1.01068">
        <ele>2796.61</ele>
        <time>2019-03-31T09:21:52Z</time>
      </trkpt>
      <trkpt lat="42.78815" lon="1.01067">
        <ele>2797.09</ele>
        <time>2019-03-31T09:21:54Z</time>
      </trkpt>
      <trkpt lat="42.78819" lon="1.01063">
        <ele>2797.57</ele>
        <time>2019-03-31T09:22:06Z</time>
      </trkpt>
      <trkpt lat="42.78824" lon="1.01054">
        <ele>2798.05</ele>
        <time>2019-03-31T09:22:20Z</time>
      </trkpt>
      <trkpt lat="42.78827" lon="1.01049">
        <ele>2798.05</ele>
        <time>2019-03-31T09:22:36Z</time>
      </trkpt>
      <trkpt lat="42.78831" lon="1.01046">
        <ele>2799.02</ele>
        <time>2019-03-31T09:22:51Z</time>
      </trkpt>
      <trkpt lat="42.7883" lon="1.01046">
        <ele>2799.02</ele>
        <time>2019-03-31T09:23:06Z</time>
      </trkpt>
      <trkpt lat="42.78836" lon="1.01027">
        <ele>2797.57</ele>
        <time>2019-03-31T09:23:22Z</time>
      </trkpt>
      <trkpt lat="42.78837" lon="1.01025">
        <ele>2799.02</ele>
        <time>2019-03-31T09:23:24Z</time>
      </trkpt>
      <trkpt lat="42.78846" lon="1.01011">
        <ele>2797.09</ele>
        <time>2019-03-31T09:23:38Z</time>
      </trkpt>
      <trkpt lat="42.78851" lon="1.00996">
        <ele>2798.54</ele>
        <time>2019-03-31T09:23:53Z</time>
      </trkpt>
      <trkpt lat="42.78851" lon="1.00996">
        <ele>2798.54</ele>
        <time>2019-03-31T09:23:54Z</time>
      </trkpt>
      <trkpt lat="42.78854" lon="1.00989">
        <ele>2799.98</ele>
        <time>2019-03-31T09:24:09Z</time>
      </trkpt>
      <trkpt lat="42.78855" lon="1.00985">
        <ele>2799.98</ele>
        <time>2019-03-31T09:24:24Z</time>
      </trkpt>
      <trkpt lat="42.78855" lon="1.00986">
        <ele>2799.98</ele>
        <time>2019-03-31T09:24:38Z</time>
      </trkpt>
      <trkpt lat="42.78855" lon="1.00986">
        <ele>2800.94</ele>
        <time>2019-03-31T09:25:08Z</time>
      </trkpt>
      <trkpt lat="42.78854" lon="1.00985">
        <ele>2799.5</ele>
        <time>2019-03-31T09:25:29Z</time>
      </trkpt>
      <trkpt lat="42.78855" lon="1.00985">
        <ele>2799.5</ele>
        <time>2019-03-31T09:25:55Z</time>
      </trkpt>
      <trkpt lat="42.78857" lon="1.00987">
        <ele>2799.5</ele>
        <time>2019-03-31T09:26:25Z</time>
      </trkpt>
      <trkpt lat="42.78856" lon="1.00987">
        <ele>2800.46</ele>
        <time>2019-03-31T09:26:45Z</time>
      </trkpt>
      <trkpt lat="42.78855" lon="1.00989">
        <ele>2800.46</ele>
        <time>2019-03-31T09:27:17Z</time>
      </trkpt>
      <trkpt lat="42.78856" lon="1.00987">
        <ele>2800.46</ele>
        <time>2019-03-31T09:27:45Z</time>
      </trkpt>
      <trkpt lat="42.78856" lon="1.00988">
        <ele>2800.46</ele>
        <time>2019-03-31T09:28:05Z</time>
      </trkpt>
      <trkpt lat="42.78854" lon="1.0099">
        <ele>2799.02</ele>
        <time>2019-03-31T09:28:15Z</time>
      </trkpt>
      <trkpt lat="42.78855" lon="1.00989">
        <ele>2799.02</ele>
        <time>2019-03-31T09:28:33Z</time>
      </trkpt>
      <trkpt lat="42.78855" lon="1.0099">
        <ele>2795.65</ele>
        <time>2019-03-31T09:28:37Z</time>
      </trkpt>
      <trkpt lat="42.78855" lon="1.00989">
        <ele>2799.02</ele>
        <time>2019-03-31T09:28:39Z</time>
      </trkpt>
      <trkpt lat="42.78855" lon="1.00989">
        <ele>2799.02</ele>
        <time>2019-03-31T09:28:40Z</time>
      </trkpt>
      <trkpt lat="42.78854" lon="1.00989">
        <ele>2798.05</ele>
        <time>2019-03-31T09:28:47Z</time>
      </trkpt>
      <trkpt lat="42.78854" lon="1.00989">
        <ele>2799.5</ele>
        <time>2019-03-31T09:29:14Z</time>
      </trkpt>
      <trkpt lat="42.78854" lon="1.00989">
        <ele>2797.57</ele>
        <time>2019-03-31T09:29:29Z</time>
      </trkpt>
      <trkpt lat="42.78854" lon="1.00989">
        <ele>2795.17</ele>
        <time>2019-03-31T09:29:52Z</time>
      </trkpt>
      <trkpt lat="42.78854" lon="1.00988">
        <ele>2798.54</ele>
        <time>2019-03-31T09:29:53Z</time>
      </trkpt>
      <trkpt lat="42.78854" lon="1.00988">
        <ele>2794.21</ele>
        <time>2019-03-31T09:29:58Z</time>
      </trkpt>
      <trkpt lat="42.78854" lon="1.00988">
        <ele>2797.57</ele>
        <time>2019-03-31T09:29:59Z</time>
      </trkpt>
      <trkpt lat="42.78854" lon="1.00989">
        <ele>2799.02</ele>
        <time>2019-03-31T09:30:26Z</time>
      </trkpt>
      <trkpt lat="42.78855" lon="1.0099">
        <ele>2798.05</ele>
        <time>2019-03-31T09:31:00Z</time>
      </trkpt>
      <trkpt lat="42.78855" lon="1.0099">
        <ele>2798.05</ele>
        <time>2019-03-31T09:31:25Z</time>
      </trkpt>
      <trkpt lat="42.78855" lon="1.00989">
        <ele>2798.05</ele>
        <time>2019-03-31T09:31:48Z</time>
      </trkpt>
      <trkpt lat="42.78854" lon="1.0099">
        <ele>2798.05</ele>
        <time>2019-03-31T09:32:23Z</time>
      </trkpt>
      <trkpt lat="42.78855" lon="1.0099">
        <ele>2798.05</ele>
        <time>2019-03-31T09:32:57Z</time>
      </trkpt>
      <trkpt lat="42.78855" lon="1.00989">
        <ele>2798.54</ele>
        <time>2019-03-31T09:33:08Z</time>
      </trkpt>
      <trkpt lat="42.78855" lon="1.00988">
        <ele>2798.54</ele>
        <time>2019-03-31T09:33:48Z</time>
      </trkpt>
      <trkpt lat="42.78855" lon="1.00987">
        <ele>2798.54</ele>
        <time>2019-03-31T09:34:32Z</time>
      </trkpt>
      <trkpt lat="42.78855" lon="1.00987">
        <ele>2798.54</ele>
        <time>2019-03-31T09:35:23Z</time>
      </trkpt>
      <trkpt lat="42.78855" lon="1.00988">
        <ele>2798.05</ele>
        <time>2019-03-31T09:36:15Z</time>
      </trkpt>
      <trkpt lat="42.78855" lon="1.00987">
        <ele>2798.05</ele>
        <time>2019-03-31T09:37:07Z</time>
      </trkpt>
      <trkpt lat="42.78855" lon="1.00988">
        <ele>2798.05</ele>
        <time>2019-03-31T09:37:53Z</time>
      </trkpt>
      <trkpt lat="42.78855" lon="1.00988">
        <ele>2798.05</ele>
        <time>2019-03-31T09:38:46Z</time>
      </trkpt>
      <trkpt lat="42.78855" lon="1.00989">
        <ele>2798.05</ele>
        <time>2019-03-31T09:39:31Z</time>
      </trkpt>
      <trkpt lat="42.78854" lon="1.00989">
        <ele>2798.05</ele>
        <time>2019-03-31T09:40:09Z</time>
      </trkpt>
      <trkpt lat="42.78854" lon="1.00989">
        <ele>2798.05</ele>
        <time>2019-03-31T09:40:56Z</time>
      </trkpt>
      <trkpt lat="42.78854" lon="1.00989">
        <ele>2798.05</ele>
        <time>2019-03-31T09:41:40Z</time>
      </trkpt>
      <trkpt lat="42.78855" lon="1.00989">
        <ele>2798.54</ele>
        <time>2019-03-31T09:42:26Z</time>
      </trkpt>
      <trkpt lat="42.78854" lon="1.00988">
        <ele>2798.54</ele>
        <time>2019-03-31T09:43:12Z</time>
      </trkpt>
      <trkpt lat="42.78855" lon="1.00989">
        <ele>2798.05</ele>
        <time>2019-03-31T09:43:54Z</time>
      </trkpt>
      <trkpt lat="42.78854" lon="1.00989">
        <ele>2798.05</ele>
        <time>2019-03-31T09:44:32Z</time>
      </trkpt>
      <trkpt lat="42.78855" lon="1.00989">
        <ele>2798.05</ele>
        <time>2019-03-31T09:45:16Z</time>
      </trkpt>
      <trkpt lat="42.78854" lon="1.00989">
        <ele>2798.05</ele>
        <time>2019-03-31T09:45:53Z</time>
      </trkpt>
      <trkpt lat="42.78853" lon="1.00989">
        <ele>2798.05</ele>
        <time>2019-03-31T09:46:35Z</time>
      </trkpt>
      <trkpt lat="42.78854" lon="1.00989">
        <ele>2798.05</ele>
        <time>2019-03-31T09:47:14Z</time>
      </trkpt>
      <trkpt lat="42.78855" lon="1.00988">
        <ele>2799.5</ele>
        <time>2019-03-31T09:47:59Z</time>
      </trkpt>
      <trkpt lat="42.78855" lon="1.00988">
        <ele>2799.5</ele>
        <time>2019-03-31T09:48:50Z</time>
      </trkpt>
      <trkpt lat="42.78855" lon="1.00988">
        <ele>2799.5</ele>
        <time>2019-03-31T09:49:30Z</time>
      </trkpt>
      <trkpt lat="42.78855" lon="1.00988">
        <ele>2799.5</ele>
        <time>2019-03-31T09:50:08Z</time>
      </trkpt>
      <trkpt lat="42.78855" lon="1.00989">
        <ele>2799.5</ele>
        <time>2019-03-31T09:50:38Z</time>
      </trkpt>
      <trkpt lat="42.78854" lon="1.00989">
        <ele>2799.02</ele>
        <time>2019-03-31T09:51:25Z</time>
      </trkpt>
      <trkpt lat="42.78855" lon="1.00989">
        <ele>2799.02</ele>
        <time>2019-03-31T09:51:26Z</time>
      </trkpt>
      <trkpt lat="42.78853" lon="1.00988">
        <ele>2800.94</ele>
        <time>2019-03-31T09:52:02Z</time>
      </trkpt>
      <trkpt lat="42.78854" lon="1.00989">
        <ele>2799.5</ele>
        <time>2019-03-31T09:52:43Z</time>
      </trkpt>
      <trkpt lat="42.78854" lon="1.00989">
        <ele>2799.5</ele>
        <time>2019-03-31T09:53:29Z</time>
      </trkpt>
      <trkpt lat="42.78854" lon="1.00989">
        <ele>2799.02</ele>
        <time>2019-03-31T09:53:54Z</time>
      </trkpt>
      <trkpt lat="42.78853" lon="1.00988">
        <ele>2799.02</ele>
        <time>2019-03-31T09:54:42Z</time>
      </trkpt>
      <trkpt lat="42.78853" lon="1.00989">
        <ele>2800.46</ele>
        <time>2019-03-31T09:54:58Z</time>
      </trkpt>
      <trkpt lat="42.78855" lon="1.0099">
        <ele>2801.42</ele>
        <time>2019-03-31T09:55:20Z</time>
      </trkpt>
      <trkpt lat="42.78856" lon="1.00991">
        <ele>2801.42</ele>
        <time>2019-03-31T09:55:39Z</time>
      </trkpt>
      <trkpt lat="42.78855" lon="1.0099">
        <ele>2801.42</ele>
        <time>2019-03-31T09:56:02Z</time>
      </trkpt>
      <trkpt lat="42.78855" lon="1.00988">
        <ele>2801.9</ele>
        <time>2019-03-31T09:56:17Z</time>
      </trkpt>
      <trkpt lat="42.78855" lon="1.0099">
        <ele>2801.9</ele>
        <time>2019-03-31T09:56:34Z</time>
      </trkpt>
      <trkpt lat="42.78857" lon="1.00986">
        <ele>2801.9</ele>
        <time>2019-03-31T09:56:45Z</time>
      </trkpt>
      <trkpt lat="42.78861" lon="1.00985">
        <ele>2799.02</ele>
        <time>2019-03-31T09:57:01Z</time>
      </trkpt>
      <trkpt lat="42.78863" lon="1.00984">
        <ele>2798.54</ele>
        <time>2019-03-31T09:57:19Z</time>
      </trkpt>
      <trkpt lat="42.78864" lon="1.00984">
        <ele>2798.05</ele>
        <time>2019-03-31T09:57:38Z</time>
      </trkpt>
      <trkpt lat="42.78864" lon="1.00984">
        <ele>2798.05</ele>
        <time>2019-03-31T09:58:06Z</time>
      </trkpt>
      <trkpt lat="42.78865" lon="1.00985">
        <ele>2797.57</ele>
        <time>2019-03-31T09:58:36Z</time>
      </trkpt>
      <trkpt lat="42.78864" lon="1.00985">
        <ele>2797.57</ele>
        <time>2019-03-31T09:59:01Z</time>
      </trkpt>
      <trkpt lat="42.78864" lon="1.00985">
        <ele>2797.57</ele>
        <time>2019-03-31T09:59:31Z</time>
      </trkpt>
      <trkpt lat="42.78864" lon="1.00985">
        <ele>2797.57</ele>
        <time>2019-03-31T09:59:52Z</time>
      </trkpt>
      <trkpt lat="42.78865" lon="1.00984">
        <ele>2799.5</ele>
        <time>2019-03-31T10:00:15Z</time>
      </trkpt>
      <trkpt lat="42.78865" lon="1.00984">
        <ele>2799.5</ele>
        <time>2019-03-31T10:00:40Z</time>
      </trkpt>
      <trkpt lat="42.78864" lon="1.00984">
        <ele>2799.5</ele>
        <time>2019-03-31T10:01:03Z</time>
      </trkpt>
      <trkpt lat="42.78865" lon="1.00984">
        <ele>2798.54</ele>
        <time>2019-03-31T10:01:27Z</time>
      </trkpt>
      <trkpt lat="42.78864" lon="1.00985">
        <ele>2798.54</ele>
        <time>2019-03-31T10:01:52Z</time>
      </trkpt>
      <trkpt lat="42.78866" lon="1.00983">
        <ele>2796.61</ele>
        <time>2019-03-31T10:02:03Z</time>
      </trkpt>
      <trkpt lat="42.78868" lon="1.00979">
        <ele>2794.21</ele>
        <time>2019-03-31T10:02:14Z</time>
      </trkpt>
      <trkpt lat="42.78868" lon="1.00977">
        <ele>2793.25</ele>
        <time>2019-03-31T10:02:26Z</time>
      </trkpt>
      <trkpt lat="42.7887" lon="1.00973">
        <ele>2789.88</ele>
        <time>2019-03-31T10:02:39Z</time>
      </trkpt>
      <trkpt lat="42.7887" lon="1.00968">
        <ele>2786.52</ele>
        <time>2019-03-31T10:02:51Z</time>
      </trkpt>
      <trkpt lat="42.78869" lon="1.00963">
        <ele>2784.12</ele>
        <time>2019-03-31T10:03:04Z</time>
      </trkpt>
      <trkpt lat="42.7887" lon="1.00959">
        <ele>2780.75</ele>
        <time>2019-03-31T10:03:17Z</time>
      </trkpt>
      <trkpt lat="42.78874" lon="1.00955">
        <ele>2778.35</ele>
        <time>2019-03-31T10:03:30Z</time>
      </trkpt>
      <trkpt lat="42.78877" lon="1.00951">
        <ele>2776.91</ele>
        <time>2019-03-31T10:03:42Z</time>
      </trkpt>
      <trkpt lat="42.78883" lon="1.00947">
        <ele>2775.94</ele>
        <time>2019-03-31T10:03:57Z</time>
      </trkpt>
      <trkpt lat="42.78885" lon="1.00947">
        <ele>2777.39</ele>
        <time>2019-03-31T10:04:00Z</time>
      </trkpt>
      <trkpt lat="42.78888" lon="1.00947">
        <ele>2777.87</ele>
        <time>2019-03-31T10:04:05Z</time>
      </trkpt>
      <trkpt lat="42.78892" lon="1.00942">
        <ele>2779.79</ele>
        <time>2019-03-31T10:04:19Z</time>
      </trkpt>
      <trkpt lat="42.78894" lon="1.0094">
        <ele>2780.27</ele>
        <time>2019-03-31T10:04:31Z</time>
      </trkpt>
      <trkpt lat="42.78894" lon="1.0094">
        <ele>2778.35</ele>
        <time>2019-03-31T10:04:33Z</time>
      </trkpt>
      <trkpt lat="42.78894" lon="1.00939">
        <ele>2778.35</ele>
        <time>2019-03-31T10:04:48Z</time>
      </trkpt>
      <trkpt lat="42.78893" lon="1.00939">
        <ele>2776.91</ele>
        <time>2019-03-31T10:05:00Z</time>
      </trkpt>
      <trkpt lat="42.78894" lon="1.00937">
        <ele>2775.94</ele>
        <time>2019-03-31T10:05:17Z</time>
      </trkpt>
      <trkpt lat="42.78894" lon="1.00936">
        <ele>2775.46</ele>
        <time>2019-03-31T10:05:32Z</time>
      </trkpt>
      <trkpt lat="42.78898" lon="1.00932">
        <ele>2774.5</ele>
        <time>2019-03-31T10:05:46Z</time>
      </trkpt>
      <trkpt lat="42.78901" lon="1.00929">
        <ele>2772.58</ele>
        <time>2019-03-31T10:05:51Z</time>
      </trkpt>
      <trkpt lat="42.78902" lon="1.00928">
        <ele>2771.14</ele>
        <time>2019-03-31T10:05:53Z</time>
      </trkpt>
      <trkpt lat="42.78904" lon="1.00923">
        <ele>2770.18</ele>
        <time>2019-03-31T10:06:05Z</time>
      </trkpt>
      <trkpt lat="42.78904" lon="1.00922">
        <ele>2769.7</ele>
        <time>2019-03-31T10:06:06Z</time>
      </trkpt>
      <trkpt lat="42.78907" lon="1.00921">
        <ele>2769.21</ele>
        <time>2019-03-31T10:06:21Z</time>
      </trkpt>
      <trkpt lat="42.78908" lon="1.00919">
        <ele>2767.77</ele>
        <time>2019-03-31T10:06:38Z</time>
      </trkpt>
      <trkpt lat="42.7891" lon="1.00914">
        <ele>2765.37</ele>
        <time>2019-03-31T10:06:49Z</time>
      </trkpt>
      <trkpt lat="42.78911" lon="1.00913">
        <ele>2765.37</ele>
        <time>2019-03-31T10:06:50Z</time>
      </trkpt>
      <trkpt lat="42.78912" lon="1.00911">
        <ele>2764.41</ele>
        <time>2019-03-31T10:06:53Z</time>
      </trkpt>
      <trkpt lat="42.7892" lon="1.00899">
        <ele>2761.52</ele>
        <time>2019-03-31T10:07:07Z</time>
      </trkpt>
      <trkpt lat="42.78932" lon="1.00885">
        <ele>2760.08</ele>
        <time>2019-03-31T10:07:23Z</time>
      </trkpt>
      <trkpt lat="42.7894" lon="1.00873">
        <ele>2757.2</ele>
        <time>2019-03-31T10:07:33Z</time>
      </trkpt>
      <trkpt lat="42.78948" lon="1.00857">
        <ele>2754.31</ele>
        <time>2019-03-31T10:07:47Z</time>
      </trkpt>
      <trkpt lat="42.78953" lon="1.0085">
        <ele>2753.35</ele>
        <time>2019-03-31T10:07:55Z</time>
      </trkpt>
      <trkpt lat="42.78954" lon="1.00848">
        <ele>2753.35</ele>
        <time>2019-03-31T10:07:57Z</time>
      </trkpt>
      <trkpt lat="42.78961" lon="1.00838">
        <ele>2751.91</ele>
        <time>2019-03-31T10:08:07Z</time>
      </trkpt>
      <trkpt lat="42.78963" lon="1.00836">
        <ele>2750.47</ele>
        <time>2019-03-31T10:08:10Z</time>
      </trkpt>
      <trkpt lat="42.78964" lon="1.00835">
        <ele>2751.91</ele>
        <time>2019-03-31T10:08:13Z</time>
      </trkpt>
      <trkpt lat="42.78964" lon="1.00834">
        <ele>2751.91</ele>
        <time>2019-03-31T10:08:14Z</time>
      </trkpt>
      <trkpt lat="42.78969" lon="1.00826">
        <ele>2753.83</ele>
        <time>2019-03-31T10:08:24Z</time>
      </trkpt>
      <trkpt lat="42.78974" lon="1.00818">
        <ele>2756.72</ele>
        <time>2019-03-31T10:08:39Z</time>
      </trkpt>
      <trkpt lat="42.78976" lon="1.00815">
        <ele>2756.72</ele>
        <time>2019-03-31T10:08:45Z</time>
      </trkpt>
      <trkpt lat="42.78981" lon="1.00806">
        <ele>2758.16</ele>
        <time>2019-03-31T10:08:56Z</time>
      </trkpt>
      <trkpt lat="42.78991" lon="1.00792">
        <ele>2758.16</ele>
        <time>2019-03-31T10:09:12Z</time>
      </trkpt>
      <trkpt lat="42.78997" lon="1.00785">
        <ele>2756.72</ele>
        <time>2019-03-31T10:09:25Z</time>
      </trkpt>
      <trkpt lat="42.79004" lon="1.00777">
        <ele>2756.72</ele>
        <time>2019-03-31T10:09:40Z</time>
      </trkpt>
      <trkpt lat="42.79006" lon="1.00775">
        <ele>2758.64</ele>
        <time>2019-03-31T10:09:45Z</time>
      </trkpt>
      <trkpt lat="42.79005" lon="1.00774">
        <ele>2758.64</ele>
        <time>2019-03-31T10:10:01Z</time>
      </trkpt>
      <trkpt lat="42.79003" lon="1.00779">
        <ele>2757.2</ele>
        <time>2019-03-31T10:10:06Z</time>
      </trkpt>
      <trkpt lat="42.79003" lon="1.00779">
        <ele>2758.16</ele>
        <time>2019-03-31T10:10:23Z</time>
      </trkpt>
      <trkpt lat="42.79004" lon="1.00779">
        <ele>2752.87</ele>
        <time>2019-03-31T10:10:28Z</time>
      </trkpt>
      <trkpt lat="42.79004" lon="1.00779">
        <ele>2756.24</ele>
        <time>2019-03-31T10:10:29Z</time>
      </trkpt>
      <trkpt lat="42.79004" lon="1.00779">
        <ele>2756.24</ele>
        <time>2019-03-31T10:10:56Z</time>
      </trkpt>
      <trkpt lat="42.79004" lon="1.00779">
        <ele>2752.87</ele>
        <time>2019-03-31T10:11:02Z</time>
      </trkpt>
      <trkpt lat="42.79003" lon="1.00779">
        <ele>2756.24</ele>
        <time>2019-03-31T10:11:03Z</time>
      </trkpt>
      <trkpt lat="42.79006" lon="1.00781">
        <ele>2755.76</ele>
        <time>2019-03-31T10:11:32Z</time>
      </trkpt>
      <trkpt lat="42.79007" lon="1.0078">
        <ele>2755.28</ele>
        <time>2019-03-31T10:12:03Z</time>
      </trkpt>
      <trkpt lat="42.79006" lon="1.00781">
        <ele>2755.76</ele>
        <time>2019-03-31T10:12:36Z</time>
      </trkpt>
      <trkpt lat="42.79007" lon="1.00781">
        <ele>2754.8</ele>
        <time>2019-03-31T10:13:04Z</time>
      </trkpt>
      <trkpt lat="42.79006" lon="1.00781">
        <ele>2756.24</ele>
        <time>2019-03-31T10:13:46Z</time>
      </trkpt>
      <trkpt lat="42.79005" lon="1.00781">
        <ele>2756.24</ele>
        <time>2019-03-31T10:14:27Z</time>
      </trkpt>
      <trkpt lat="42.79005" lon="1.00782">
        <ele>2756.24</ele>
        <time>2019-03-31T10:15:07Z</time>
      </trkpt>
      <trkpt lat="42.79005" lon="1.00782">
        <ele>2756.24</ele>
        <time>2019-03-31T10:15:43Z</time>
      </trkpt>
      <trkpt lat="42.79005" lon="1.00782">
        <ele>2755.76</ele>
        <time>2019-03-31T10:15:59Z</time>
      </trkpt>
      <trkpt lat="42.79005" lon="1.00782">
        <ele>2761.04</ele>
        <time>2019-03-31T10:16:05Z</time>
      </trkpt>
      <trkpt lat="42.79005" lon="1.00782">
        <ele>2754.8</ele>
        <time>2019-03-31T10:16:06Z</time>
      </trkpt>
      <trkpt lat="42.79005" lon="1.00782">
        <ele>2754.8</ele>
        <time>2019-03-31T10:16:07Z</time>
      </trkpt>
      <trkpt lat="42.79005" lon="1.00782">
        <ele>2756.24</ele>
        <time>2019-03-31T10:16:09Z</time>
      </trkpt>
      <trkpt lat="42.79006" lon="1.00782">
        <ele>2760.08</ele>
        <time>2019-03-31T10:16:30Z</time>
      </trkpt>
      <trkpt lat="42.79005" lon="1.00782">
        <ele>2758.64</ele>
        <time>2019-03-31T10:16:31Z</time>
      </trkpt>
      <trkpt lat="42.79005" lon="1.00781">
        <ele>2754.31</ele>
        <time>2019-03-31T10:16:33Z</time>
      </trkpt>
      <trkpt lat="42.79004" lon="1.0078">
        <ele>2755.76</ele>
        <time>2019-03-31T10:16:34Z</time>
      </trkpt>
      <trkpt lat="42.79002" lon="1.00779">
        <ele>2756.72</ele>
        <time>2019-03-31T10:17:15Z</time>
      </trkpt>
      <trkpt lat="42.79002" lon="1.00778">
        <ele>2756.72</ele>
        <time>2019-03-31T10:17:53Z</time>
      </trkpt>
      <trkpt lat="42.79002" lon="1.00778">
        <ele>2756.72</ele>
        <time>2019-03-31T10:18:27Z</time>
      </trkpt>
      <trkpt lat="42.79002" lon="1.00778">
        <ele>2756.24</ele>
        <time>2019-03-31T10:19:05Z</time>
      </trkpt>
      <trkpt lat="42.79002" lon="1.00778">
        <ele>2756.24</ele>
        <time>2019-03-31T10:19:44Z</time>
      </trkpt>
      <trkpt lat="42.79002" lon="1.00779">
        <ele>2756.24</ele>
        <time>2019-03-31T10:20:21Z</time>
      </trkpt>
      <trkpt lat="42.79002" lon="1.00778">
        <ele>2755.28</ele>
        <time>2019-03-31T10:20:58Z</time>
      </trkpt>
      <trkpt lat="42.79002" lon="1.00779">
        <ele>2755.28</ele>
        <time>2019-03-31T10:21:37Z</time>
      </trkpt>
      <trkpt lat="42.79002" lon="1.00779">
        <ele>2754.8</ele>
        <time>2019-03-31T10:22:09Z</time>
      </trkpt>
      <trkpt lat="42.79001" lon="1.00779">
        <ele>2754.8</ele>
        <time>2019-03-31T10:22:43Z</time>
      </trkpt>
      <trkpt lat="42.79002" lon="1.00779">
        <ele>2754.8</ele>
        <time>2019-03-31T10:23:27Z</time>
      </trkpt>
      <trkpt lat="42.79002" lon="1.00779">
        <ele>2755.76</ele>
        <time>2019-03-31T10:24:09Z</time>
      </trkpt>
      <trkpt lat="42.79002" lon="1.00779">
        <ele>2761.52</ele>
        <time>2019-03-31T10:24:27Z</time>
      </trkpt>
      <trkpt lat="42.79002" lon="1.0078">
        <ele>2756.24</ele>
        <time>2019-03-31T10:24:28Z</time>
      </trkpt>
      <trkpt lat="42.79002" lon="1.0078">
        <ele>2756.24</ele>
        <time>2019-03-31T10:24:37Z</time>
      </trkpt>
      <trkpt lat="42.79002" lon="1.0078">
        <ele>2756.24</ele>
        <time>2019-03-31T10:24:50Z</time>
      </trkpt>
      <trkpt lat="42.79003" lon="1.0078">
        <ele>2756.24</ele>
        <time>2019-03-31T10:25:14Z</time>
      </trkpt>
      <trkpt lat="42.79002" lon="1.00779">
        <ele>2756.24</ele>
        <time>2019-03-31T10:25:35Z</time>
      </trkpt>
      <trkpt lat="42.79002" lon="1.00783">
        <ele>2755.76</ele>
        <time>2019-03-31T10:25:48Z</time>
      </trkpt>
      <trkpt lat="42.78999" lon="1.00794">
        <ele>2752.39</ele>
        <time>2019-03-31T10:25:58Z</time>
      </trkpt>
      <trkpt lat="42.79003" lon="1.00794">
        <ele>2750.47</ele>
        <time>2019-03-31T10:26:01Z</time>
      </trkpt>
      <trkpt lat="42.79009" lon="1.00792">
        <ele>2748.07</ele>
        <time>2019-03-31T10:26:03Z</time>
      </trkpt>
      <trkpt lat="42.79011" lon="1.00797">
        <ele>2743.74</ele>
        <time>2019-03-31T10:26:08Z</time>
      </trkpt>
      <trkpt lat="42.79012" lon="1.00799">
        <ele>2743.74</ele>
        <time>2019-03-31T10:26:09Z</time>
      </trkpt>
      <trkpt lat="42.79018" lon="1.00798">
        <ele>2741.34</ele>
        <time>2019-03-31T10:26:11Z</time>
      </trkpt>
      <trkpt lat="42.79026" lon="1.00795">
        <ele>2739.41</ele>
        <time>2019-03-31T10:26:14Z</time>
      </trkpt>
      <trkpt lat="42.79038" lon="1.00792">
        <ele>2736.53</ele>
        <time>2019-03-31T10:26:18Z</time>
      </trkpt>
      <trkpt lat="42.79039" lon="1.00801">
        <ele>2731.72</ele>
        <time>2019-03-31T10:26:21Z</time>
      </trkpt>
      <trkpt lat="42.79039" lon="1.00805">
        <ele>2731.72</ele>
        <time>2019-03-31T10:26:22Z</time>
      </trkpt>
      <trkpt lat="42.79042" lon="1.00807">
        <ele>2727.88</ele>
        <time>2019-03-31T10:26:23Z</time>
      </trkpt>
      <trkpt lat="42.7905" lon="1.00806">
        <ele>2725.96</ele>
        <time>2019-03-31T10:26:25Z</time>
      </trkpt>
      <trkpt lat="42.79061" lon="1.00809">
        <ele>2723.55</ele>
        <time>2019-03-31T10:26:28Z</time>
      </trkpt>
      <trkpt lat="42.79059" lon="1.00813">
        <ele>2720.19</ele>
        <time>2019-03-31T10:26:29Z</time>
      </trkpt>
      <trkpt lat="42.79059" lon="1.00818">
        <ele>2720.19</ele>
        <time>2019-03-31T10:26:30Z</time>
      </trkpt>
      <trkpt lat="42.79062" lon="1.00821">
        <ele>2715.86</ele>
        <time>2019-03-31T10:26:31Z</time>
      </trkpt>
      <trkpt lat="42.79068" lon="1.00824">
        <ele>2714.9</ele>
        <time>2019-03-31T10:26:33Z</time>
      </trkpt>
      <trkpt lat="42.79067" lon="1.00827">
        <ele>2711.06</ele>
        <time>2019-03-31T10:26:34Z</time>
      </trkpt>
      <trkpt lat="42.79064" lon="1.00832">
        <ele>2709.13</ele>
        <time>2019-03-31T10:26:36Z</time>
      </trkpt>
      <trkpt lat="42.79067" lon="1.00834">
        <ele>2704.81</ele>
        <time>2019-03-31T10:26:37Z</time>
      </trkpt>
      <trkpt lat="42.79074" lon="1.00837">
        <ele>2701.44</ele>
        <time>2019-03-31T10:26:39Z</time>
      </trkpt>
      <trkpt lat="42.79075" lon="1.0084">
        <ele>2701.92</ele>
        <time>2019-03-31T10:26:40Z</time>
      </trkpt>
      <trkpt lat="42.79072" lon="1.00843">
        <ele>2697.12</ele>
        <time>2019-03-31T10:26:41Z</time>
      </trkpt>
      <trkpt lat="42.7907" lon="1.00851">
        <ele>2692.79</ele>
        <time>2019-03-31T10:26:43Z</time>
      </trkpt>
      <trkpt lat="42.79074" lon="1.00854">
        <ele>2689.43</ele>
        <time>2019-03-31T10:26:44Z</time>
      </trkpt>
      <trkpt lat="42.7908" lon="1.00856">
        <ele>2687.5</ele>
        <time>2019-03-31T10:26:45Z</time>
      </trkpt>
      <trkpt lat="42.79096" lon="1.00858">
        <ele>2684.14</ele>
        <time>2019-03-31T10:26:49Z</time>
      </trkpt>
      <trkpt lat="42.79097" lon="1.00865">
        <ele>2679.81</ele>
        <time>2019-03-31T10:26:51Z</time>
      </trkpt>
      <trkpt lat="42.79093" lon="1.00874">
        <ele>2675.49</ele>
        <time>2019-03-31T10:26:53Z</time>
      </trkpt>
      <trkpt lat="42.79096" lon="1.00878">
        <ele>2672.12</ele>
        <time>2019-03-31T10:26:54Z</time>
      </trkpt>
      <trkpt lat="42.79102" lon="1.00884">
        <ele>2668.76</ele>
        <time>2019-03-31T10:26:56Z</time>
      </trkpt>
      <trkpt lat="42.79104" lon="1.00893">
        <ele>2662.51</ele>
        <time>2019-03-31T10:26:58Z</time>
      </trkpt>
      <trkpt lat="42.79106" lon="1.00894">
        <ele>2662.03</ele>
        <time>2019-03-31T10:26:59Z</time>
      </trkpt>
      <trkpt lat="42.79108" lon="1.00896">
        <ele>2660.59</ele>
        <time>2019-03-31T10:27:02Z</time>
      </trkpt>
      <trkpt lat="42.79119" lon="1.00919">
        <ele>2657.22</ele>
        <time>2019-03-31T10:27:06Z</time>
      </trkpt>
      <trkpt lat="42.79135" lon="1.00949">
        <ele>2654.34</ele>
        <time>2019-03-31T10:27:10Z</time>
      </trkpt>
      <trkpt lat="42.79143" lon="1.00959">
        <ele>2652.9</ele>
        <time>2019-03-31T10:27:13Z</time>
      </trkpt>
      <trkpt lat="42.79146" lon="1.00959">
        <ele>2651.45</ele>
        <time>2019-03-31T10:27:25Z</time>
      </trkpt>
      <trkpt lat="42.79146" lon="1.00959">
        <ele>2654.34</ele>
        <time>2019-03-31T10:27:42Z</time>
      </trkpt>
      <trkpt lat="42.79146" lon="1.00959">
        <ele>2652.42</ele>
        <time>2019-03-31T10:27:43Z</time>
      </trkpt>
      <trkpt lat="42.79146" lon="1.00959">
        <ele>2651.93</ele>
        <time>2019-03-31T10:28:00Z</time>
      </trkpt>
      <trkpt lat="42.79146" lon="1.00959">
        <ele>2651.93</ele>
        <time>2019-03-31T10:28:01Z</time>
      </trkpt>
      <trkpt lat="42.79142" lon="1.0098">
        <ele>2647.13</ele>
        <time>2019-03-31T10:28:06Z</time>
      </trkpt>
      <trkpt lat="42.7915" lon="1.00988">
        <ele>2642.32</ele>
        <time>2019-03-31T10:28:09Z</time>
      </trkpt>
      <trkpt lat="42.7915" lon="1.00993">
        <ele>2642.32</ele>
        <time>2019-03-31T10:28:10Z</time>
      </trkpt>
      <trkpt lat="42.79155" lon="1.00993">
        <ele>2638.48</ele>
        <time>2019-03-31T10:28:12Z</time>
      </trkpt>
      <trkpt lat="42.79158" lon="1.00991">
        <ele>2636.55</ele>
        <time>2019-03-31T10:28:15Z</time>
      </trkpt>
      <trkpt lat="42.79166" lon="1.00989">
        <ele>2636.07</ele>
        <time>2019-03-31T10:28:19Z</time>
      </trkpt>
      <trkpt lat="42.79171" lon="1.00996">
        <ele>2631.27</ele>
        <time>2019-03-31T10:28:24Z</time>
      </trkpt>
      <trkpt lat="42.79171" lon="1.01009">
        <ele>2626.46</ele>
        <time>2019-03-31T10:28:28Z</time>
      </trkpt>
      <trkpt lat="42.7917" lon="1.01013">
        <ele>2623.09</ele>
        <time>2019-03-31T10:28:29Z</time>
      </trkpt>
      <trkpt lat="42.79165" lon="1.01022">
        <ele>2621.17</ele>
        <time>2019-03-31T10:28:31Z</time>
      </trkpt>
      <trkpt lat="42.79167" lon="1.01026">
        <ele>2617.81</ele>
        <time>2019-03-31T10:28:32Z</time>
      </trkpt>
      <trkpt lat="42.79171" lon="1.01032">
        <ele>2612.04</ele>
        <time>2019-03-31T10:28:34Z</time>
      </trkpt>
      <trkpt lat="42.79171" lon="1.01045">
        <ele>2605.31</ele>
        <time>2019-03-31T10:28:37Z</time>
      </trkpt>
      <trkpt lat="42.79175" lon="1.01045">
        <ele>2601.46</ele>
        <time>2019-03-31T10:28:38Z</time>
      </trkpt>
      <trkpt lat="42.79176" lon="1.01053">
        <ele>2596.18</ele>
        <time>2019-03-31T10:28:40Z</time>
      </trkpt>
      <trkpt lat="42.79182" lon="1.0106">
        <ele>2590.41</ele>
        <time>2019-03-31T10:28:42Z</time>
      </trkpt>
      <trkpt lat="42.79186" lon="1.01059">
        <ele>2587.04</ele>
        <time>2019-03-31T10:28:43Z</time>
      </trkpt>
      <trkpt lat="42.79192" lon="1.01054">
        <ele>2585.12</ele>
        <time>2019-03-31T10:28:45Z</time>
      </trkpt>
      <trkpt lat="42.79193" lon="1.01051">
        <ele>2584.64</ele>
        <time>2019-03-31T10:28:51Z</time>
      </trkpt>
      <trkpt lat="42.79193" lon="1.0106">
        <ele>2581.76</ele>
        <time>2019-03-31T10:28:54Z</time>
      </trkpt>
      <trkpt lat="42.79187" lon="1.01068">
        <ele>2579.35</ele>
        <time>2019-03-31T10:28:56Z</time>
      </trkpt>
      <trkpt lat="42.79184" lon="1.01079">
        <ele>2577.43</ele>
        <time>2019-03-31T10:28:59Z</time>
      </trkpt>
      <trkpt lat="42.79185" lon="1.01091">
        <ele>2571.66</ele>
        <time>2019-03-31T10:29:01Z</time>
      </trkpt>
      <trkpt lat="42.79181" lon="1.01102">
        <ele>2567.82</ele>
        <time>2019-03-31T10:29:03Z</time>
      </trkpt>
      <trkpt lat="42.79187" lon="1.01112">
        <ele>2560.61</ele>
        <time>2019-03-31T10:29:06Z</time>
      </trkpt>
      <trkpt lat="42.79189" lon="1.01116">
        <ele>2559.65</ele>
        <time>2019-03-31T10:29:07Z</time>
      </trkpt>
      <trkpt lat="42.79197" lon="1.01132">
        <ele>2550.03</ele>
        <time>2019-03-31T10:29:10Z</time>
      </trkpt>
      <trkpt lat="42.792" lon="1.01138">
        <ele>2546.19</ele>
        <time>2019-03-31T10:29:11Z</time>
      </trkpt>
      <trkpt lat="42.79205" lon="1.01136">
        <ele>2541.86</ele>
        <time>2019-03-31T10:29:13Z</time>
      </trkpt>
      <trkpt lat="42.79205" lon="1.01134">
        <ele>2541.86</ele>
        <time>2019-03-31T10:29:14Z</time>
      </trkpt>
      <trkpt lat="42.79204" lon="1.01133">
        <ele>2541.38</ele>
        <time>2019-03-31T10:29:22Z</time>
      </trkpt>
      <trkpt lat="42.79209" lon="1.01127">
        <ele>2541.38</ele>
        <time>2019-03-31T10:29:25Z</time>
      </trkpt>
      <trkpt lat="42.79221" lon="1.01117">
        <ele>2538.98</ele>
        <time>2019-03-31T10:29:27Z</time>
      </trkpt>
      <trkpt lat="42.79239" lon="1.01098">
        <ele>2533.69</ele>
        <time>2019-03-31T10:29:30Z</time>
      </trkpt>
      <trkpt lat="42.79249" lon="1.01109">
        <ele>2530.33</ele>
        <time>2019-03-31T10:29:32Z</time>
      </trkpt>
      <trkpt lat="42.79255" lon="1.01113">
        <ele>2526.48</ele>
        <time>2019-03-31T10:29:33Z</time>
      </trkpt>
      <trkpt lat="42.79266" lon="1.01123">
        <ele>2521.68</ele>
        <time>2019-03-31T10:29:35Z</time>
      </trkpt>
      <trkpt lat="42.79272" lon="1.01127">
        <ele>2515.91</ele>
        <time>2019-03-31T10:29:36Z</time>
      </trkpt>
      <trkpt lat="42.79274" lon="1.01136">
        <ele>2513.02</ele>
        <time>2019-03-31T10:29:37Z</time>
      </trkpt>
      <trkpt lat="42.79277" lon="1.01144">
        <ele>2508.7</ele>
        <time>2019-03-31T10:29:38Z</time>
      </trkpt>
      <trkpt lat="42.79284" lon="1.01158">
        <ele>2502.93</ele>
        <time>2019-03-31T10:29:40Z</time>
      </trkpt>
      <trkpt lat="42.79285" lon="1.01175">
        <ele>2498.6</ele>
        <time>2019-03-31T10:29:42Z</time>
      </trkpt>
      <trkpt lat="42.7929" lon="1.01191">
        <ele>2494.28</ele>
        <time>2019-03-31T10:29:44Z</time>
      </trkpt>
      <trkpt lat="42.79293" lon="1.012">
        <ele>2490.91</ele>
        <time>2019-03-31T10:29:45Z</time>
      </trkpt>
      <trkpt lat="42.793" lon="1.01218">
        <ele>2484.18</ele>
        <time>2019-03-31T10:29:47Z</time>
      </trkpt>
      <trkpt lat="42.79304" lon="1.01234">
        <ele>2479.86</ele>
        <time>2019-03-31T10:29:49Z</time>
      </trkpt>
      <trkpt lat="42.79307" lon="1.01236">
        <ele>2475.05</ele>
        <time>2019-03-31T10:29:50Z</time>
      </trkpt>
      <trkpt lat="42.79308" lon="1.01234">
        <ele>2475.05</ele>
        <time>2019-03-31T10:29:51Z</time>
      </trkpt>
      <trkpt lat="42.79307" lon="1.01231">
        <ele>2475.53</ele>
        <time>2019-03-31T10:29:58Z</time>
      </trkpt>
      <trkpt lat="42.79307" lon="1.01232">
        <ele>2475.53</ele>
        <time>2019-03-31T10:30:21Z</time>
      </trkpt>
      <trkpt lat="42.79308" lon="1.01232">
        <ele>2475.53</ele>
        <time>2019-03-31T10:30:28Z</time>
      </trkpt>
      <trkpt lat="42.79312" lon="1.0123">
        <ele>2474.57</ele>
        <time>2019-03-31T10:30:30Z</time>
      </trkpt>
      <trkpt lat="42.79317" lon="1.01239">
        <ele>2471.21</ele>
        <time>2019-03-31T10:30:33Z</time>
      </trkpt>
      <trkpt lat="42.7932" lon="1.0124">
        <ele>2468.8</ele>
        <time>2019-03-31T10:30:36Z</time>
      </trkpt>
      <trkpt lat="42.7932" lon="1.0124">
        <ele>2468.32</ele>
        <time>2019-03-31T10:30:39Z</time>
      </trkpt>
      <trkpt lat="42.79326" lon="1.01235">
        <ele>2467.84</ele>
        <time>2019-03-31T10:30:42Z</time>
      </trkpt>
      <trkpt lat="42.79336" lon="1.01241">
        <ele>2462.55</ele>
        <time>2019-03-31T10:30:45Z</time>
      </trkpt>
      <trkpt lat="42.79334" lon="1.01255">
        <ele>2458.71</ele>
        <time>2019-03-31T10:30:47Z</time>
      </trkpt>
      <trkpt lat="42.79341" lon="1.01266">
        <ele>2452.94</ele>
        <time>2019-03-31T10:30:49Z</time>
      </trkpt>
      <trkpt lat="42.79346" lon="1.01271">
        <ele>2449.1</ele>
        <time>2019-03-31T10:30:50Z</time>
      </trkpt>
      <trkpt lat="42.79344" lon="1.01289">
        <ele>2444.29</ele>
        <time>2019-03-31T10:30:52Z</time>
      </trkpt>
      <trkpt lat="42.79341" lon="1.01312">
        <ele>2439.96</ele>
        <time>2019-03-31T10:30:55Z</time>
      </trkpt>
      <trkpt lat="42.79344" lon="1.01319">
        <ele>2436.6</ele>
        <time>2019-03-31T10:30:56Z</time>
      </trkpt>
      <trkpt lat="42.7935" lon="1.01335">
        <ele>2431.31</ele>
        <time>2019-03-31T10:30:58Z</time>
      </trkpt>
      <trkpt lat="42.79353" lon="1.01345">
        <ele>2427.95</ele>
        <time>2019-03-31T10:30:59Z</time>
      </trkpt>
      <trkpt lat="42.79358" lon="1.01353">
        <ele>2423.14</ele>
        <time>2019-03-31T10:31:00Z</time>
      </trkpt>
      <trkpt lat="42.79361" lon="1.01361">
        <ele>2418.81</ele>
        <time>2019-03-31T10:31:01Z</time>
      </trkpt>
      <trkpt lat="42.79363" lon="1.01379">
        <ele>2411.6</ele>
        <time>2019-03-31T10:31:03Z</time>
      </trkpt>
      <trkpt lat="42.79367" lon="1.01394">
        <ele>2406.32</ele>
        <time>2019-03-31T10:31:05Z</time>
      </trkpt>
      <trkpt lat="42.79371" lon="1.014">
        <ele>2403.43</ele>
        <time>2019-03-31T10:31:06Z</time>
      </trkpt>
      <trkpt lat="42.79373" lon="1.01408">
        <ele>2400.55</ele>
        <time>2019-03-31T10:31:07Z</time>
      </trkpt>
      <trkpt lat="42.79379" lon="1.01436">
        <ele>2390.94</ele>
        <time>2019-03-31T10:31:11Z</time>
      </trkpt>
      <trkpt lat="42.79391" lon="1.01443">
        <ele>2385.17</ele>
        <time>2019-03-31T10:31:13Z</time>
      </trkpt>
      <trkpt lat="42.79423" lon="1.01439">
        <ele>2383.73</ele>
        <time>2019-03-31T10:31:18Z</time>
      </trkpt>
      <trkpt lat="42.79426" lon="1.01438">
        <ele>2383.73</ele>
        <time>2019-03-31T10:31:26Z</time>
      </trkpt>
      <trkpt lat="42.79426" lon="1.01436">
        <ele>2384.21</ele>
        <time>2019-03-31T10:31:44Z</time>
      </trkpt>
      <trkpt lat="42.79422" lon="1.01455">
        <ele>2378.92</ele>
        <time>2019-03-31T10:31:48Z</time>
      </trkpt>
      <trkpt lat="42.79432" lon="1.01465">
        <ele>2373.63</ele>
        <time>2019-03-31T10:31:51Z</time>
      </trkpt>
      <trkpt lat="42.79442" lon="1.01471">
        <ele>2368.83</ele>
        <time>2019-03-31T10:31:53Z</time>
      </trkpt>
      <trkpt lat="42.79449" lon="1.01467">
        <ele>2365.94</ele>
        <time>2019-03-31T10:31:54Z</time>
      </trkpt>
      <trkpt lat="42.79475" lon="1.01451">
        <ele>2360.65</ele>
        <time>2019-03-31T10:31:58Z</time>
      </trkpt>
      <trkpt lat="42.79487" lon="1.01443">
        <ele>2358.73</ele>
        <time>2019-03-31T10:32:00Z</time>
      </trkpt>
      <trkpt lat="42.79521" lon="1.01423">
        <ele>2354.41</ele>
        <time>2019-03-31T10:32:07Z</time>
      </trkpt>
      <trkpt lat="42.7953" lon="1.01416">
        <ele>2353.44</ele>
        <time>2019-03-31T10:32:09Z</time>
      </trkpt>
      <trkpt lat="42.79539" lon="1.0141">
        <ele>2352</ele>
        <time>2019-03-31T10:32:11Z</time>
      </trkpt>
      <trkpt lat="42.7956" lon="1.01395">
        <ele>2349.12</ele>
        <time>2019-03-31T10:32:15Z</time>
      </trkpt>
      <trkpt lat="42.79577" lon="1.0138">
        <ele>2344.79</ele>
        <time>2019-03-31T10:32:18Z</time>
      </trkpt>
      <trkpt lat="42.79601" lon="1.01357">
        <ele>2340.95</ele>
        <time>2019-03-31T10:32:22Z</time>
      </trkpt>
      <trkpt lat="42.79608" lon="1.01351">
        <ele>2339.51</ele>
        <time>2019-03-31T10:32:23Z</time>
      </trkpt>
      <trkpt lat="42.79643" lon="1.0134">
        <ele>2334.7</ele>
        <time>2019-03-31T10:32:28Z</time>
      </trkpt>
      <trkpt lat="42.79656" lon="1.01359">
        <ele>2330.85</ele>
        <time>2019-03-31T10:32:31Z</time>
      </trkpt>
      <trkpt lat="42.79671" lon="1.01367">
        <ele>2327.49</ele>
        <time>2019-03-31T10:32:34Z</time>
      </trkpt>
      <trkpt lat="42.7968" lon="1.01378">
        <ele>2324.12</ele>
        <time>2019-03-31T10:32:36Z</time>
      </trkpt>
      <trkpt lat="42.79684" lon="1.01385">
        <ele>2320.76</ele>
        <time>2019-03-31T10:32:37Z</time>
      </trkpt>
      <trkpt lat="42.79697" lon="1.01391">
        <ele>2315.95</ele>
        <time>2019-03-31T10:32:39Z</time>
      </trkpt>
      <trkpt lat="42.79697" lon="1.01398">
        <ele>2312.11</ele>
        <time>2019-03-31T10:32:40Z</time>
      </trkpt>
      <trkpt lat="42.797" lon="1.01409">
        <ele>2308.74</ele>
        <time>2019-03-31T10:32:42Z</time>
      </trkpt>
      <trkpt lat="42.79709" lon="1.0141">
        <ele>2306.82</ele>
        <time>2019-03-31T10:32:44Z</time>
      </trkpt>
      <trkpt lat="42.79718" lon="1.01408">
        <ele>2305.86</ele>
        <time>2019-03-31T10:32:46Z</time>
      </trkpt>
      <trkpt lat="42.79737" lon="1.01403">
        <ele>2302.98</ele>
        <time>2019-03-31T10:32:49Z</time>
      </trkpt>
      <trkpt lat="42.79753" lon="1.01409">
        <ele>2297.69</ele>
        <time>2019-03-31T10:32:52Z</time>
      </trkpt>
      <trkpt lat="42.79751" lon="1.01423">
        <ele>2293.84</ele>
        <time>2019-03-31T10:32:54Z</time>
      </trkpt>
      <trkpt lat="42.7975" lon="1.01437">
        <ele>2288.56</ele>
        <time>2019-03-31T10:32:56Z</time>
      </trkpt>
      <trkpt lat="42.79751" lon="1.0145">
        <ele>2285.19</ele>
        <time>2019-03-31T10:32:58Z</time>
      </trkpt>
      <trkpt lat="42.79755" lon="1.01461">
        <ele>2280.38</ele>
        <time>2019-03-31T10:33:00Z</time>
      </trkpt>
      <trkpt lat="42.79756" lon="1.01466">
        <ele>2277.5</ele>
        <time>2019-03-31T10:33:01Z</time>
      </trkpt>
      <trkpt lat="42.79754" lon="1.01472">
        <ele>2277.5</ele>
        <time>2019-03-31T10:33:02Z</time>
      </trkpt>
      <trkpt lat="42.79755" lon="1.01478">
        <ele>2273.66</ele>
        <time>2019-03-31T10:33:03Z</time>
      </trkpt>
      <trkpt lat="42.7976" lon="1.01485">
        <ele>2268.37</ele>
        <time>2019-03-31T10:33:05Z</time>
      </trkpt>
      <trkpt lat="42.79758" lon="1.01494">
        <ele>2264.52</ele>
        <time>2019-03-31T10:33:07Z</time>
      </trkpt>
      <trkpt lat="42.79759" lon="1.01502">
        <ele>2259.24</ele>
        <time>2019-03-31T10:33:09Z</time>
      </trkpt>
      <trkpt lat="42.79757" lon="1.01509">
        <ele>2257.31</ele>
        <time>2019-03-31T10:33:11Z</time>
      </trkpt>
      <trkpt lat="42.7976" lon="1.0151">
        <ele>2254.43</ele>
        <time>2019-03-31T10:33:12Z</time>
      </trkpt>
      <trkpt lat="42.79763" lon="1.01518">
        <ele>2247.7</ele>
        <time>2019-03-31T10:33:15Z</time>
      </trkpt>
      <trkpt lat="42.79767" lon="1.01523">
        <ele>2242.41</ele>
        <time>2019-03-31T10:33:17Z</time>
      </trkpt>
      <trkpt lat="42.79776" lon="1.01524">
        <ele>2239.05</ele>
        <time>2019-03-31T10:33:19Z</time>
      </trkpt>
      <trkpt lat="42.79776" lon="1.01528">
        <ele>2233.76</ele>
        <time>2019-03-31T10:33:20Z</time>
      </trkpt>
      <trkpt lat="42.79778" lon="1.01542">
        <ele>2228.47</ele>
        <time>2019-03-31T10:33:22Z</time>
      </trkpt>
      <trkpt lat="42.79784" lon="1.01559">
        <ele>2219.34</ele>
        <time>2019-03-31T10:33:25Z</time>
      </trkpt>
      <trkpt lat="42.79779" lon="1.01564">
        <ele>2218.86</ele>
        <time>2019-03-31T10:33:26Z</time>
      </trkpt>
      <trkpt lat="42.79777" lon="1.01572">
        <ele>2214.53</ele>
        <time>2019-03-31T10:33:27Z</time>
      </trkpt>
      <trkpt lat="42.7977" lon="1.01582">
        <ele>2209.73</ele>
        <time>2019-03-31T10:33:29Z</time>
      </trkpt>
      <trkpt lat="42.79765" lon="1.01593">
        <ele>2206.36</ele>
        <time>2019-03-31T10:33:31Z</time>
      </trkpt>
      <trkpt lat="42.79754" lon="1.01622">
        <ele>2197.23</ele>
        <time>2019-03-31T10:33:35Z</time>
      </trkpt>
      <trkpt lat="42.79749" lon="1.01634">
        <ele>2194.83</ele>
        <time>2019-03-31T10:33:37Z</time>
      </trkpt>
      <trkpt lat="42.79743" lon="1.0164">
        <ele>2190.98</ele>
        <time>2019-03-31T10:33:39Z</time>
      </trkpt>
      <trkpt lat="42.79738" lon="1.01649">
        <ele>2186.18</ele>
        <time>2019-03-31T10:33:41Z</time>
      </trkpt>
      <trkpt lat="42.79732" lon="1.01661">
        <ele>2180.41</ele>
        <time>2019-03-31T10:33:43Z</time>
      </trkpt>
      <trkpt lat="42.79726" lon="1.01675">
        <ele>2175.12</ele>
        <time>2019-03-31T10:33:45Z</time>
      </trkpt>
      <trkpt lat="42.79725" lon="1.01689">
        <ele>2172.24</ele>
        <time>2019-03-31T10:33:47Z</time>
      </trkpt>
      <trkpt lat="42.79724" lon="1.01703">
        <ele>2169.83</ele>
        <time>2019-03-31T10:33:49Z</time>
      </trkpt>
      <trkpt lat="42.79725" lon="1.01711">
        <ele>2168.87</ele>
        <time>2019-03-31T10:33:51Z</time>
      </trkpt>
      <trkpt lat="42.79727" lon="1.01719">
        <ele>2168.87</ele>
        <time>2019-03-31T10:34:02Z</time>
      </trkpt>
      <trkpt lat="42.79725" lon="1.01738">
        <ele>2165.51</ele>
        <time>2019-03-31T10:34:06Z</time>
      </trkpt>
      <trkpt lat="42.79729" lon="1.01744">
        <ele>2162.62</ele>
        <time>2019-03-31T10:34:08Z</time>
      </trkpt>
      <trkpt lat="42.79728" lon="1.01748">
        <ele>2162.62</ele>
        <time>2019-03-31T10:34:09Z</time>
      </trkpt>
      <trkpt lat="42.79728" lon="1.01752">
        <ele>2159.74</ele>
        <time>2019-03-31T10:34:10Z</time>
      </trkpt>
      <trkpt lat="42.79727" lon="1.01763">
        <ele>2156.86</ele>
        <time>2019-03-31T10:34:13Z</time>
      </trkpt>
      <trkpt lat="42.79728" lon="1.01771">
        <ele>2153.97</ele>
        <time>2019-03-31T10:34:15Z</time>
      </trkpt>
      <trkpt lat="42.79727" lon="1.01781">
        <ele>2148.68</ele>
        <time>2019-03-31T10:34:17Z</time>
      </trkpt>
      <trkpt lat="42.79736" lon="1.01782">
        <ele>2145.32</ele>
        <time>2019-03-31T10:34:19Z</time>
      </trkpt>
      <trkpt lat="42.79765" lon="1.01794">
        <ele>2141.47</ele>
        <time>2019-03-31T10:34:25Z</time>
      </trkpt>
      <trkpt lat="42.79768" lon="1.01814">
        <ele>2136.67</ele>
        <time>2019-03-31T10:34:30Z</time>
      </trkpt>
      <trkpt lat="42.79767" lon="1.01818">
        <ele>2136.67</ele>
        <time>2019-03-31T10:34:31Z</time>
      </trkpt>
      <trkpt lat="42.79766" lon="1.01822">
        <ele>2133.3</ele>
        <time>2019-03-31T10:34:32Z</time>
      </trkpt>
      <trkpt lat="42.79761" lon="1.01829">
        <ele>2127.53</ele>
        <time>2019-03-31T10:34:34Z</time>
      </trkpt>
      <trkpt lat="42.79762" lon="1.01834">
        <ele>2127.05</ele>
        <time>2019-03-31T10:34:35Z</time>
      </trkpt>
      <trkpt lat="42.79761" lon="1.01837">
        <ele>2123.69</ele>
        <time>2019-03-31T10:34:36Z</time>
      </trkpt>
      <trkpt lat="42.79758" lon="1.01846">
        <ele>2119.84</ele>
        <time>2019-03-31T10:34:38Z</time>
      </trkpt>
      <trkpt lat="42.79757" lon="1.01849">
        <ele>2116</ele>
        <time>2019-03-31T10:34:39Z</time>
      </trkpt>
      <trkpt lat="42.79753" lon="1.01852">
        <ele>2116</ele>
        <time>2019-03-31T10:34:40Z</time>
      </trkpt>
      <trkpt lat="42.79753" lon="1.01857">
        <ele>2112.15</ele>
        <time>2019-03-31T10:34:41Z</time>
      </trkpt>
      <trkpt lat="42.79749" lon="1.01864">
        <ele>2108.79</ele>
        <time>2019-03-31T10:34:43Z</time>
      </trkpt>
      <trkpt lat="42.79749" lon="1.01869">
        <ele>2104.94</ele>
        <time>2019-03-31T10:34:44Z</time>
      </trkpt>
      <trkpt lat="42.79746" lon="1.01877">
        <ele>2101.1</ele>
        <time>2019-03-31T10:34:46Z</time>
      </trkpt>
      <trkpt lat="42.79746" lon="1.01881">
        <ele>2098.7</ele>
        <time>2019-03-31T10:34:47Z</time>
      </trkpt>
      <trkpt lat="42.79746" lon="1.01895">
        <ele>2093.41</ele>
        <time>2019-03-31T10:34:50Z</time>
      </trkpt>
      <trkpt lat="42.79748" lon="1.01901">
        <ele>2089.08</ele>
        <time>2019-03-31T10:34:51Z</time>
      </trkpt>
      <trkpt lat="42.79746" lon="1.01912">
        <ele>2085.24</ele>
        <time>2019-03-31T10:34:53Z</time>
      </trkpt>
      <trkpt lat="42.79748" lon="1.01918">
        <ele>2081.39</ele>
        <time>2019-03-31T10:34:54Z</time>
      </trkpt>
      <trkpt lat="42.79744" lon="1.01928">
        <ele>2078.03</ele>
        <time>2019-03-31T10:34:56Z</time>
      </trkpt>
      <trkpt lat="42.79745" lon="1.01935">
        <ele>2074.18</ele>
        <time>2019-03-31T10:34:57Z</time>
      </trkpt>
      <trkpt lat="42.79748" lon="1.01938">
        <ele>2073.7</ele>
        <time>2019-03-31T10:34:58Z</time>
      </trkpt>
      <trkpt lat="42.79749" lon="1.01937">
        <ele>2072.74</ele>
        <time>2019-03-31T10:35:12Z</time>
      </trkpt>
      <trkpt lat="42.79748" lon="1.01937">
        <ele>2072.74</ele>
        <time>2019-03-31T10:35:16Z</time>
      </trkpt>
      <trkpt lat="42.79739" lon="1.01951">
        <ele>2067.93</ele>
        <time>2019-03-31T10:35:22Z</time>
      </trkpt>
      <trkpt lat="42.79734" lon="1.01964">
        <ele>2064.09</ele>
        <time>2019-03-31T10:35:25Z</time>
      </trkpt>
      <trkpt lat="42.79732" lon="1.01968">
        <ele>2061.68</ele>
        <time>2019-03-31T10:35:26Z</time>
      </trkpt>
      <trkpt lat="42.79726" lon="1.0197">
        <ele>2061.2</ele>
        <time>2019-03-31T10:35:28Z</time>
      </trkpt>
      <trkpt lat="42.79723" lon="1.0197">
        <ele>2060.24</ele>
        <time>2019-03-31T10:35:35Z</time>
      </trkpt>
      <trkpt lat="42.79728" lon="1.01978">
        <ele>2058.8</ele>
        <time>2019-03-31T10:35:39Z</time>
      </trkpt>
      <trkpt lat="42.79734" lon="1.01988">
        <ele>2055.44</ele>
        <time>2019-03-31T10:35:41Z</time>
      </trkpt>
      <trkpt lat="42.79741" lon="1.01998">
        <ele>2051.11</ele>
        <time>2019-03-31T10:35:43Z</time>
      </trkpt>
      <trkpt lat="42.79746" lon="1.02001">
        <ele>2047.75</ele>
        <time>2019-03-31T10:35:45Z</time>
      </trkpt>
      <trkpt lat="42.79755" lon="1.02014">
        <ele>2044.86</ele>
        <time>2019-03-31T10:35:50Z</time>
      </trkpt>
      <trkpt lat="42.79756" lon="1.02014">
        <ele>2044.86</ele>
        <time>2019-03-31T10:35:51Z</time>
      </trkpt>
      <trkpt lat="42.79761" lon="1.02015">
        <ele>2044.38</ele>
        <time>2019-03-31T10:35:56Z</time>
      </trkpt>
      <trkpt lat="42.79768" lon="1.0203">
        <ele>2039.09</ele>
        <time>2019-03-31T10:35:59Z</time>
      </trkpt>
      <trkpt lat="42.79776" lon="1.02039">
        <ele>2035.25</ele>
        <time>2019-03-31T10:36:01Z</time>
      </trkpt>
      <trkpt lat="42.79788" lon="1.02051">
        <ele>2029.48</ele>
        <time>2019-03-31T10:36:04Z</time>
      </trkpt>
      <trkpt lat="42.79795" lon="1.02059">
        <ele>2023.71</ele>
        <time>2019-03-31T10:36:06Z</time>
      </trkpt>
      <trkpt lat="42.79798" lon="1.02077">
        <ele>2017.46</ele>
        <time>2019-03-31T10:36:08Z</time>
      </trkpt>
      <trkpt lat="42.79795" lon="1.02085">
        <ele>2013.62</ele>
        <time>2019-03-31T10:36:09Z</time>
      </trkpt>
      <trkpt lat="42.79791" lon="1.02097">
        <ele>2009.29</ele>
        <time>2019-03-31T10:36:11Z</time>
      </trkpt>
      <trkpt lat="42.79793" lon="1.02105">
        <ele>2006.89</ele>
        <time>2019-03-31T10:36:14Z</time>
      </trkpt>
      <trkpt lat="42.79794" lon="1.02103">
        <ele>2006.89</ele>
        <time>2019-03-31T10:36:29Z</time>
      </trkpt>
      <trkpt lat="42.79794" lon="1.02104">
        <ele>2007.85</ele>
        <time>2019-03-31T10:36:41Z</time>
      </trkpt>
      <trkpt lat="42.79793" lon="1.02104">
        <ele>2004.97</ele>
        <time>2019-03-31T10:36:57Z</time>
      </trkpt>
      <trkpt lat="42.79793" lon="1.02104">
        <ele>2008.33</ele>
        <time>2019-03-31T10:37:03Z</time>
      </trkpt>
      <trkpt lat="42.79793" lon="1.02105">
        <ele>2004.49</ele>
        <time>2019-03-31T10:37:11Z</time>
      </trkpt>
      <trkpt lat="42.79793" lon="1.02105">
        <ele>2006.41</ele>
        <time>2019-03-31T10:37:13Z</time>
      </trkpt>
      <trkpt lat="42.79793" lon="1.02107">
        <ele>2005.45</ele>
        <time>2019-03-31T10:37:48Z</time>
      </trkpt>
      <trkpt lat="42.79793" lon="1.02107">
        <ele>2004.97</ele>
        <time>2019-03-31T10:38:23Z</time>
      </trkpt>
      <trkpt lat="42.79793" lon="1.02107">
        <ele>2004.97</ele>
        <time>2019-03-31T10:38:59Z</time>
      </trkpt>
      <trkpt lat="42.79792" lon="1.02106">
        <ele>2004.97</ele>
        <time>2019-03-31T10:39:33Z</time>
      </trkpt>
      <trkpt lat="42.79793" lon="1.02105">
        <ele>2004.49</ele>
        <time>2019-03-31T10:40:05Z</time>
      </trkpt>
      <trkpt lat="42.79792" lon="1.02106">
        <ele>2004.49</ele>
        <time>2019-03-31T10:40:43Z</time>
      </trkpt>
      <trkpt lat="42.79792" lon="1.02106">
        <ele>2005.45</ele>
        <time>2019-03-31T10:41:12Z</time>
      </trkpt>
      <trkpt lat="42.79793" lon="1.02104">
        <ele>2005.45</ele>
        <time>2019-03-31T10:41:35Z</time>
      </trkpt>
      <trkpt lat="42.79793" lon="1.02105">
        <ele>2006.89</ele>
        <time>2019-03-31T10:41:39Z</time>
      </trkpt>
      <trkpt lat="42.79793" lon="1.02103">
        <ele>2006.41</ele>
        <time>2019-03-31T10:41:58Z</time>
      </trkpt>
      <trkpt lat="42.79792" lon="1.02104">
        <ele>2006.89</ele>
        <time>2019-03-31T10:42:08Z</time>
      </trkpt>
      <trkpt lat="42.79792" lon="1.02104">
        <ele>2005.45</ele>
        <time>2019-03-31T10:42:14Z</time>
      </trkpt>
      <trkpt lat="42.79794" lon="1.02103">
        <ele>2006.89</ele>
        <time>2019-03-31T10:42:24Z</time>
      </trkpt>
      <trkpt lat="42.79795" lon="1.02099">
        <ele>2006.89</ele>
        <time>2019-03-31T10:42:27Z</time>
      </trkpt>
      <trkpt lat="42.79791" lon="1.02094">
        <ele>2008.33</ele>
        <time>2019-03-31T10:42:33Z</time>
      </trkpt>
      <trkpt lat="42.79787" lon="1.02085">
        <ele>2009.77</ele>
        <time>2019-03-31T10:42:44Z</time>
      </trkpt>
      <trkpt lat="42.79791" lon="1.02076">
        <ele>2011.7</ele>
        <time>2019-03-31T10:42:54Z</time>
      </trkpt>
      <trkpt lat="42.798" lon="1.02065">
        <ele>2014.1</ele>
        <time>2019-03-31T10:43:08Z</time>
      </trkpt>
      <trkpt lat="42.79811" lon="1.02057">
        <ele>2016.98</ele>
        <time>2019-03-31T10:43:23Z</time>
      </trkpt>
      <trkpt lat="42.79818" lon="1.02047">
        <ele>2019.87</ele>
        <time>2019-03-31T10:43:37Z</time>
      </trkpt>
      <trkpt lat="42.79813" lon="1.0204">
        <ele>2021.79</ele>
        <time>2019-03-31T10:43:48Z</time>
      </trkpt>
      <trkpt lat="42.79811" lon="1.0204">
        <ele>2022.27</ele>
        <time>2019-03-31T10:43:50Z</time>
      </trkpt>
      <trkpt lat="42.79803" lon="1.02037">
        <ele>2025.64</ele>
        <time>2019-03-31T10:44:04Z</time>
      </trkpt>
      <trkpt lat="42.79796" lon="1.02039">
        <ele>2027.56</ele>
        <time>2019-03-31T10:44:17Z</time>
      </trkpt>
      <trkpt lat="42.79786" lon="1.02041">
        <ele>2029.48</ele>
        <time>2019-03-31T10:44:29Z</time>
      </trkpt>
      <trkpt lat="42.79777" lon="1.02039">
        <ele>2032.36</ele>
        <time>2019-03-31T10:44:42Z</time>
      </trkpt>
      <trkpt lat="42.79767" lon="1.02033">
        <ele>2034.77</ele>
        <time>2019-03-31T10:44:56Z</time>
      </trkpt>
      <trkpt lat="42.79768" lon="1.02029">
        <ele>2036.21</ele>
        <time>2019-03-31T10:45:03Z</time>
      </trkpt>
      <trkpt lat="42.79773" lon="1.0202">
        <ele>2038.13</ele>
        <time>2019-03-31T10:45:14Z</time>
      </trkpt>
      <trkpt lat="42.79779" lon="1.02008">
        <ele>2040.54</ele>
        <time>2019-03-31T10:45:28Z</time>
      </trkpt>
      <trkpt lat="42.79786" lon="1.01997">
        <ele>2043.42</ele>
        <time>2019-03-31T10:45:42Z</time>
      </trkpt>
      <trkpt lat="42.79796" lon="1.01988">
        <ele>2046.3</ele>
        <time>2019-03-31T10:45:56Z</time>
      </trkpt>
      <trkpt lat="42.79792" lon="1.01987">
        <ele>2046.78</ele>
        <time>2019-03-31T10:46:02Z</time>
      </trkpt>
      <trkpt lat="42.79788" lon="1.01985">
        <ele>2048.23</ele>
        <time>2019-03-31T10:46:07Z</time>
      </trkpt>
      <trkpt lat="42.79778" lon="1.01981">
        <ele>2050.63</ele>
        <time>2019-03-31T10:46:20Z</time>
      </trkpt>
      <trkpt lat="42.79767" lon="1.01976">
        <ele>2053.03</ele>
        <time>2019-03-31T10:46:35Z</time>
      </trkpt>
      <trkpt lat="42.7977" lon="1.01974">
        <ele>2053.99</ele>
        <time>2019-03-31T10:46:45Z</time>
      </trkpt>
      <trkpt lat="42.79774" lon="1.01971">
        <ele>2055.92</ele>
        <time>2019-03-31T10:46:51Z</time>
      </trkpt>
      <trkpt lat="42.79766" lon="1.01964">
        <ele>2057.84</ele>
        <time>2019-03-31T10:47:04Z</time>
      </trkpt>
      <trkpt lat="42.79758" lon="1.0196">
        <ele>2060.24</ele>
        <time>2019-03-31T10:47:17Z</time>
      </trkpt>
      <trkpt lat="42.79756" lon="1.01956">
        <ele>2061.68</ele>
        <time>2019-03-31T10:47:33Z</time>
      </trkpt>
      <trkpt lat="42.79766" lon="1.01956">
        <ele>2063.13</ele>
        <time>2019-03-31T10:47:47Z</time>
      </trkpt>
      <trkpt lat="42.79775" lon="1.01951">
        <ele>2064.57</ele>
        <time>2019-03-31T10:48:02Z</time>
      </trkpt>
      <trkpt lat="42.79779" lon="1.01952">
        <ele>2066.49</ele>
        <time>2019-03-31T10:48:14Z</time>
      </trkpt>
      <trkpt lat="42.79776" lon="1.01947">
        <ele>2068.41</ele>
        <time>2019-03-31T10:48:25Z</time>
      </trkpt>
      <trkpt lat="42.79772" lon="1.01943">
        <ele>2070.34</ele>
        <time>2019-03-31T10:48:36Z</time>
      </trkpt>
      <trkpt lat="42.79765" lon="1.01939">
        <ele>2071.78</ele>
        <time>2019-03-31T10:48:47Z</time>
      </trkpt>
      <trkpt lat="42.79761" lon="1.01935">
        <ele>2074.66</ele>
        <time>2019-03-31T10:49:01Z</time>
      </trkpt>
      <trkpt lat="42.79766" lon="1.01931">
        <ele>2075.14</ele>
        <time>2019-03-31T10:49:14Z</time>
      </trkpt>
      <trkpt lat="42.79777" lon="1.01928">
        <ele>2077.55</ele>
        <time>2019-03-31T10:49:29Z</time>
      </trkpt>
      <trkpt lat="42.79783" lon="1.01926">
        <ele>2078.99</ele>
        <time>2019-03-31T10:49:44Z</time>
      </trkpt>
      <trkpt lat="42.79783" lon="1.01921">
        <ele>2080.91</ele>
        <time>2019-03-31T10:49:55Z</time>
      </trkpt>
      <trkpt lat="42.79774" lon="1.01918">
        <ele>2082.35</ele>
        <time>2019-03-31T10:50:04Z</time>
      </trkpt>
      <trkpt lat="42.79764" lon="1.01914">
        <ele>2083.79</ele>
        <time>2019-03-31T10:50:16Z</time>
      </trkpt>
      <trkpt lat="42.79759" lon="1.01915">
        <ele>2085.24</ele>
        <time>2019-03-31T10:50:25Z</time>
      </trkpt>
      <trkpt lat="42.79754" lon="1.0191">
        <ele>2086.2</ele>
        <time>2019-03-31T10:50:32Z</time>
      </trkpt>
      <trkpt lat="42.79747" lon="1.01902">
        <ele>2088.12</ele>
        <time>2019-03-31T10:50:46Z</time>
      </trkpt>
      <trkpt lat="42.79742" lon="1.01895">
        <ele>2089.56</ele>
        <time>2019-03-31T10:50:58Z</time>
      </trkpt>
      <trkpt lat="42.79736" lon="1.01886">
        <ele>2091</ele>
        <time>2019-03-31T10:51:13Z</time>
      </trkpt>
      <trkpt lat="42.79729" lon="1.01881">
        <ele>2092.93</ele>
        <time>2019-03-31T10:51:26Z</time>
      </trkpt>
      <trkpt lat="42.79728" lon="1.0188">
        <ele>2092.93</ele>
        <time>2019-03-31T10:51:27Z</time>
      </trkpt>
      <trkpt lat="42.79718" lon="1.01876">
        <ele>2095.81</ele>
        <time>2019-03-31T10:51:42Z</time>
      </trkpt>
      <trkpt lat="42.7971" lon="1.01876">
        <ele>2098.7</ele>
        <time>2019-03-31T10:51:56Z</time>
      </trkpt>
      <trkpt lat="42.79705" lon="1.01876">
        <ele>2100.14</ele>
        <time>2019-03-31T10:52:03Z</time>
      </trkpt>
      <trkpt lat="42.79697" lon="1.01878">
        <ele>2102.06</ele>
        <time>2019-03-31T10:52:14Z</time>
      </trkpt>
      <trkpt lat="42.79694" lon="1.01875">
        <ele>2103.5</ele>
        <time>2019-03-31T10:52:28Z</time>
      </trkpt>
      <trkpt lat="42.79701" lon="1.01866">
        <ele>2104.94</ele>
        <time>2019-03-31T10:52:43Z</time>
      </trkpt>
      <trkpt lat="42.79708" lon="1.01857">
        <ele>2106.87</ele>
        <time>2019-03-31T10:52:57Z</time>
      </trkpt>
      <trkpt lat="42.79714" lon="1.0185">
        <ele>2109.27</ele>
        <time>2019-03-31T10:53:10Z</time>
      </trkpt>
      <trkpt lat="42.79715" lon="1.01846">
        <ele>2111.19</ele>
        <time>2019-03-31T10:53:22Z</time>
      </trkpt>
      <trkpt lat="42.79708" lon="1.01846">
        <ele>2113.12</ele>
        <time>2019-03-31T10:53:34Z</time>
      </trkpt>
      <trkpt lat="42.797" lon="1.01845">
        <ele>2114.08</ele>
        <time>2019-03-31T10:53:50Z</time>
      </trkpt>
      <trkpt lat="42.79699" lon="1.01847">
        <ele>2115.04</ele>
        <time>2019-03-31T10:53:58Z</time>
      </trkpt>
      <trkpt lat="42.79693" lon="1.01846">
        <ele>2116</ele>
        <time>2019-03-31T10:54:07Z</time>
      </trkpt>
      <trkpt lat="42.79683" lon="1.01845">
        <ele>2118.4</ele>
        <time>2019-03-31T10:54:20Z</time>
      </trkpt>
      <trkpt lat="42.7968" lon="1.01844">
        <ele>2119.36</ele>
        <time>2019-03-31T10:54:24Z</time>
      </trkpt>
      <trkpt lat="42.79677" lon="1.01844">
        <ele>2119.84</ele>
        <time>2019-03-31T10:54:29Z</time>
      </trkpt>
      <trkpt lat="42.79684" lon="1.01837">
        <ele>2121.29</ele>
        <time>2019-03-31T10:54:41Z</time>
      </trkpt>
      <trkpt lat="42.79692" lon="1.0183">
        <ele>2124.17</ele>
        <time>2019-03-31T10:54:56Z</time>
      </trkpt>
      <trkpt lat="42.79698" lon="1.01825">
        <ele>2125.13</ele>
        <time>2019-03-31T10:55:08Z</time>
      </trkpt>
      <trkpt lat="42.79704" lon="1.01819">
        <ele>2128.5</ele>
        <time>2019-03-31T10:55:24Z</time>
      </trkpt>
      <trkpt lat="42.79705" lon="1.01813">
        <ele>2130.9</ele>
        <time>2019-03-31T10:55:41Z</time>
      </trkpt>
      <trkpt lat="42.79701" lon="1.01812">
        <ele>2133.3</ele>
        <time>2019-03-31T10:55:55Z</time>
      </trkpt>
      <trkpt lat="42.79709" lon="1.01806">
        <ele>2134.26</ele>
        <time>2019-03-31T10:56:08Z</time>
      </trkpt>
      <trkpt lat="42.79714" lon="1.01806">
        <ele>2137.15</ele>
        <time>2019-03-31T10:56:21Z</time>
      </trkpt>
      <trkpt lat="42.79719" lon="1.01801">
        <ele>2138.59</ele>
        <time>2019-03-31T10:56:33Z</time>
      </trkpt>
      <trkpt lat="42.79725" lon="1.01795">
        <ele>2140.99</ele>
        <time>2019-03-31T10:56:47Z</time>
      </trkpt>
      <trkpt lat="42.79726" lon="1.01793">
        <ele>2141.47</ele>
        <time>2019-03-31T10:56:52Z</time>
      </trkpt>
      <trkpt lat="42.7972" lon="1.0179">
        <ele>2143.4</ele>
        <time>2019-03-31T10:57:02Z</time>
      </trkpt>
      <trkpt lat="42.79715" lon="1.01786">
        <ele>2144.84</ele>
        <time>2019-03-31T10:57:09Z</time>
      </trkpt>
      <trkpt lat="42.79707" lon="1.01782">
        <ele>2146.76</ele>
        <time>2019-03-31T10:57:22Z</time>
      </trkpt>
      <trkpt lat="42.79711" lon="1.01775">
        <ele>2149.16</ele>
        <time>2019-03-31T10:57:33Z</time>
      </trkpt>
      <trkpt lat="42.79717" lon="1.01768">
        <ele>2151.57</ele>
        <time>2019-03-31T10:57:46Z</time>
      </trkpt>
      <trkpt lat="42.79726" lon="1.01761">
        <ele>2153.97</ele>
        <time>2019-03-31T10:58:00Z</time>
      </trkpt>
      <trkpt lat="42.7973" lon="1.01759">
        <ele>2155.41</ele>
        <time>2019-03-31T10:58:13Z</time>
      </trkpt>
      <trkpt lat="42.79735" lon="1.01755">
        <ele>2157.82</ele>
        <time>2019-03-31T10:58:31Z</time>
      </trkpt>
      <trkpt lat="42.79737" lon="1.01753">
        <ele>2158.3</ele>
        <time>2019-03-31T10:58:33Z</time>
      </trkpt>
      <trkpt lat="42.79733" lon="1.01748">
        <ele>2160.22</ele>
        <time>2019-03-31T10:58:43Z</time>
      </trkpt>
      <trkpt lat="42.79725" lon="1.01739">
        <ele>2162.62</ele>
        <time>2019-03-31T10:58:58Z</time>
      </trkpt>
      <trkpt lat="42.79724" lon="1.01728">
        <ele>2165.03</ele>
        <time>2019-03-31T10:59:10Z</time>
      </trkpt>
      <trkpt lat="42.79724" lon="1.01717">
        <ele>2168.39</ele>
        <time>2019-03-31T10:59:23Z</time>
      </trkpt>
      <trkpt lat="42.79727" lon="1.01714">
        <ele>2168.87</ele>
        <time>2019-03-31T10:59:28Z</time>
      </trkpt>
      <trkpt lat="42.79736" lon="1.01703">
        <ele>2171.27</ele>
        <time>2019-03-31T10:59:42Z</time>
      </trkpt>
      <trkpt lat="42.79739" lon="1.01694">
        <ele>2173.68</ele>
        <time>2019-03-31T10:59:54Z</time>
      </trkpt>
      <trkpt lat="42.79741" lon="1.01686">
        <ele>2175.6</ele>
        <time>2019-03-31T11:00:05Z</time>
      </trkpt>
      <trkpt lat="42.79741" lon="1.01681">
        <ele>2176.08</ele>
        <time>2019-03-31T11:00:10Z</time>
      </trkpt>
      <trkpt lat="42.7974" lon="1.01677">
        <ele>2177.52</ele>
        <time>2019-03-31T11:00:21Z</time>
      </trkpt>
      <trkpt lat="42.79739" lon="1.0167">
        <ele>2179.93</ele>
        <time>2019-03-31T11:00:32Z</time>
      </trkpt>
      <trkpt lat="42.79741" lon="1.01663">
        <ele>2182.33</ele>
        <time>2019-03-31T11:00:43Z</time>
      </trkpt>
      <trkpt lat="42.79747" lon="1.01659">
        <ele>2184.73</ele>
        <time>2019-03-31T11:00:56Z</time>
      </trkpt>
      <trkpt lat="42.79746" lon="1.01653">
        <ele>2186.18</ele>
        <time>2019-03-31T11:01:04Z</time>
      </trkpt>
      <trkpt lat="42.79744" lon="1.01652">
        <ele>2187.14</ele>
        <time>2019-03-31T11:01:06Z</time>
      </trkpt>
      <trkpt lat="42.79744" lon="1.01646">
        <ele>2188.58</ele>
        <time>2019-03-31T11:01:14Z</time>
      </trkpt>
      <trkpt lat="42.79743" lon="1.01638">
        <ele>2190.5</ele>
        <time>2019-03-31T11:01:23Z</time>
      </trkpt>
      <trkpt lat="42.79743" lon="1.01633">
        <ele>2192.42</ele>
        <time>2019-03-31T11:01:35Z</time>
      </trkpt>
      <trkpt lat="42.7975" lon="1.01629">
        <ele>2193.87</ele>
        <time>2019-03-31T11:01:43Z</time>
      </trkpt>
      <trkpt lat="42.79758" lon="1.01619">
        <ele>2196.75</ele>
        <time>2019-03-31T11:01:56Z</time>
      </trkpt>
      <trkpt lat="42.79759" lon="1.01617">
        <ele>2196.75</ele>
        <time>2019-03-31T11:01:58Z</time>
      </trkpt>
      <trkpt lat="42.79761" lon="1.01607">
        <ele>2200.11</ele>
        <time>2019-03-31T11:02:12Z</time>
      </trkpt>
      <trkpt lat="42.79755" lon="1.016">
        <ele>2202.52</ele>
        <time>2019-03-31T11:02:25Z</time>
      </trkpt>
      <trkpt lat="42.79756" lon="1.01599">
        <ele>2201.56</ele>
        <time>2019-03-31T11:02:27Z</time>
      </trkpt>
      <trkpt lat="42.79764" lon="1.0159">
        <ele>2205.4</ele>
        <time>2019-03-31T11:02:41Z</time>
      </trkpt>
      <trkpt lat="42.79774" lon="1.01588">
        <ele>2208.29</ele>
        <time>2019-03-31T11:02:56Z</time>
      </trkpt>
      <trkpt lat="42.79776" lon="1.01583">
        <ele>2210.21</ele>
        <time>2019-03-31T11:03:06Z</time>
      </trkpt>
      <trkpt lat="42.79772" lon="1.01573">
        <ele>2213.09</ele>
        <time>2019-03-31T11:03:19Z</time>
      </trkpt>
      <trkpt lat="42.79776" lon="1.01568">
        <ele>2214.05</ele>
        <time>2019-03-31T11:03:28Z</time>
      </trkpt>
      <trkpt lat="42.79784" lon="1.01563">
        <ele>2216.46</ele>
        <time>2019-03-31T11:03:42Z</time>
      </trkpt>
      <trkpt lat="42.79795" lon="1.0156">
        <ele>2219.34</ele>
        <time>2019-03-31T11:03:56Z</time>
      </trkpt>
      <trkpt lat="42.79799" lon="1.01554">
        <ele>2221.74</ele>
        <time>2019-03-31T11:04:08Z</time>
      </trkpt>
      <trkpt lat="42.79798" lon="1.01551">
        <ele>2223.19</ele>
        <time>2019-03-31T11:04:12Z</time>
      </trkpt>
      <trkpt lat="42.79794" lon="1.01543">
        <ele>2225.59</ele>
        <time>2019-03-31T11:04:26Z</time>
      </trkpt>
      <trkpt lat="42.79804" lon="1.01537">
        <ele>2227.51</ele>
        <time>2019-03-31T11:04:40Z</time>
      </trkpt>
      <trkpt lat="42.79808" lon="1.01537">
        <ele>2228.95</ele>
        <time>2019-03-31T11:04:48Z</time>
      </trkpt>
      <trkpt lat="42.79805" lon="1.01528">
        <ele>2231.36</ele>
        <time>2019-03-31T11:05:01Z</time>
      </trkpt>
      <trkpt lat="42.79812" lon="1.01523">
        <ele>2233.28</ele>
        <time>2019-03-31T11:05:12Z</time>
      </trkpt>
      <trkpt lat="42.79817" lon="1.01517">
        <ele>2236.16</ele>
        <time>2019-03-31T11:05:24Z</time>
      </trkpt>
      <trkpt lat="42.79815" lon="1.01512">
        <ele>2237.61</ele>
        <time>2019-03-31T11:05:32Z</time>
      </trkpt>
      <trkpt lat="42.79821" lon="1.01506">
        <ele>2239.53</ele>
        <time>2019-03-31T11:05:43Z</time>
      </trkpt>
      <trkpt lat="42.79827" lon="1.01504">
        <ele>2242.41</ele>
        <time>2019-03-31T11:05:55Z</time>
      </trkpt>
      <trkpt lat="42.79827" lon="1.01495">
        <ele>2244.82</ele>
        <time>2019-03-31T11:06:08Z</time>
      </trkpt>
      <trkpt lat="42.79823" lon="1.01489">
        <ele>2246.26</ele>
        <time>2019-03-31T11:06:17Z</time>
      </trkpt>
      <trkpt lat="42.79829" lon="1.01483">
        <ele>2248.66</ele>
        <time>2019-03-31T11:06:29Z</time>
      </trkpt>
      <trkpt lat="42.79838" lon="1.01483">
        <ele>2251.06</ele>
        <time>2019-03-31T11:06:43Z</time>
      </trkpt>
      <trkpt lat="42.79845" lon="1.01487">
        <ele>2253.95</ele>
        <time>2019-03-31T11:06:57Z</time>
      </trkpt>
      <trkpt lat="42.79846" lon="1.01477">
        <ele>2256.83</ele>
        <time>2019-03-31T11:07:11Z</time>
      </trkpt>
      <trkpt lat="42.79844" lon="1.01466">
        <ele>2259.24</ele>
        <time>2019-03-31T11:07:25Z</time>
      </trkpt>
      <trkpt lat="42.79842" lon="1.0146">
        <ele>2261.16</ele>
        <time>2019-03-31T11:07:33Z</time>
      </trkpt>
      <trkpt lat="42.79849" lon="1.01459">
        <ele>2263.08</ele>
        <time>2019-03-31T11:07:45Z</time>
      </trkpt>
      <trkpt lat="42.7985" lon="1.01458">
        <ele>2263.08</ele>
        <time>2019-03-31T11:07:47Z</time>
      </trkpt>
      <trkpt lat="42.79855" lon="1.01454">
        <ele>2265</ele>
        <time>2019-03-31T11:08:02Z</time>
      </trkpt>
      <trkpt lat="42.79853" lon="1.01447">
        <ele>2265.48</ele>
        <time>2019-03-31T11:08:11Z</time>
      </trkpt>
      <trkpt lat="42.7985" lon="1.01432">
        <ele>2266.93</ele>
        <time>2019-03-31T11:08:25Z</time>
      </trkpt>
      <trkpt lat="42.79849" lon="1.01417">
        <ele>2268.85</ele>
        <time>2019-03-31T11:08:38Z</time>
      </trkpt>
      <trkpt lat="42.79851" lon="1.01403">
        <ele>2270.77</ele>
        <time>2019-03-31T11:08:52Z</time>
      </trkpt>
      <trkpt lat="42.79851" lon="1.01393">
        <ele>2272.69</ele>
        <time>2019-03-31T11:09:05Z</time>
      </trkpt>
      <trkpt lat="42.79851" lon="1.01378">
        <ele>2275.1</ele>
        <time>2019-03-31T11:09:20Z</time>
      </trkpt>
      <trkpt lat="42.79851" lon="1.01363">
        <ele>2277.02</ele>
        <time>2019-03-31T11:09:35Z</time>
      </trkpt>
      <trkpt lat="42.7985" lon="1.01351">
        <ele>2279.42</ele>
        <time>2019-03-31T11:09:50Z</time>
      </trkpt>
      <trkpt lat="42.7985" lon="1.01341">
        <ele>2281.83</ele>
        <time>2019-03-31T11:10:04Z</time>
      </trkpt>
      <trkpt lat="42.79849" lon="1.0133">
        <ele>2284.23</ele>
        <time>2019-03-31T11:10:17Z</time>
      </trkpt>
      <trkpt lat="42.79847" lon="1.0132">
        <ele>2286.15</ele>
        <time>2019-03-31T11:10:31Z</time>
      </trkpt>
      <trkpt lat="42.79845" lon="1.0131">
        <ele>2287.59</ele>
        <time>2019-03-31T11:10:42Z</time>
      </trkpt>
      <trkpt lat="42.79841" lon="1.01296">
        <ele>2290</ele>
        <time>2019-03-31T11:10:57Z</time>
      </trkpt>
      <trkpt lat="42.79838" lon="1.01283">
        <ele>2292.4</ele>
        <time>2019-03-31T11:11:11Z</time>
      </trkpt>
      <trkpt lat="42.79834" lon="1.01267">
        <ele>2293.84</ele>
        <time>2019-03-31T11:11:26Z</time>
      </trkpt>
      <trkpt lat="42.7983" lon="1.01253">
        <ele>2296.25</ele>
        <time>2019-03-31T11:11:41Z</time>
      </trkpt>
      <trkpt lat="42.79827" lon="1.01237">
        <ele>2299.13</ele>
        <time>2019-03-31T11:11:56Z</time>
      </trkpt>
      <trkpt lat="42.79823" lon="1.01223">
        <ele>2300.57</ele>
        <time>2019-03-31T11:12:10Z</time>
      </trkpt>
      <trkpt lat="42.7982" lon="1.0121">
        <ele>2302.01</ele>
        <time>2019-03-31T11:12:22Z</time>
      </trkpt>
      <trkpt lat="42.79819" lon="1.01205">
        <ele>2302.49</ele>
        <time>2019-03-31T11:12:26Z</time>
      </trkpt>
      <trkpt lat="42.79813" lon="1.01188">
        <ele>2304.9</ele>
        <time>2019-03-31T11:12:41Z</time>
      </trkpt>
      <trkpt lat="42.79811" lon="1.01184">
        <ele>2305.38</ele>
        <time>2019-03-31T11:12:46Z</time>
      </trkpt>
      <trkpt lat="42.79807" lon="1.01171">
        <ele>2307.3</ele>
        <time>2019-03-31T11:12:59Z</time>
      </trkpt>
      <trkpt lat="42.79798" lon="1.01159">
        <ele>2309.7</ele>
        <time>2019-03-31T11:13:13Z</time>
      </trkpt>
      <trkpt lat="42.79793" lon="1.01148">
        <ele>2311.63</ele>
        <time>2019-03-31T11:13:26Z</time>
      </trkpt>
      <trkpt lat="42.7979" lon="1.01133">
        <ele>2314.03</ele>
        <time>2019-03-31T11:13:41Z</time>
      </trkpt>
      <trkpt lat="42.79788" lon="1.01116">
        <ele>2316.43</ele>
        <time>2019-03-31T11:13:58Z</time>
      </trkpt>
      <trkpt lat="42.79787" lon="1.01101">
        <ele>2319.32</ele>
        <time>2019-03-31T11:14:13Z</time>
      </trkpt>
      <trkpt lat="42.79786" lon="1.01089">
        <ele>2321.24</ele>
        <time>2019-03-31T11:14:25Z</time>
      </trkpt>
      <trkpt lat="42.79786" lon="1.01081">
        <ele>2322.68</ele>
        <time>2019-03-31T11:14:40Z</time>
      </trkpt>
      <trkpt lat="42.79786" lon="1.01078">
        <ele>2322.68</ele>
        <time>2019-03-31T11:14:58Z</time>
      </trkpt>
      <trkpt lat="42.79787" lon="1.01061">
        <ele>2326.05</ele>
        <time>2019-03-31T11:15:14Z</time>
      </trkpt>
      <trkpt lat="42.79788" lon="1.01045">
        <ele>2327.49</ele>
        <time>2019-03-31T11:15:29Z</time>
      </trkpt>
      <trkpt lat="42.79789" lon="1.01031">
        <ele>2329.89</ele>
        <time>2019-03-31T11:15:44Z</time>
      </trkpt>
      <trkpt lat="42.79791" lon="1.01011">
        <ele>2332.78</ele>
        <time>2019-03-31T11:16:03Z</time>
      </trkpt>
      <trkpt lat="42.79793" lon="1.01001">
        <ele>2334.7</ele>
        <time>2019-03-31T11:16:16Z</time>
      </trkpt>
      <trkpt lat="42.79796" lon="1.00985">
        <ele>2338.06</ele>
        <time>2019-03-31T11:16:35Z</time>
      </trkpt>
      <trkpt lat="42.79797" lon="1.00983">
        <ele>2337.58</ele>
        <time>2019-03-31T11:16:55Z</time>
      </trkpt>
      <trkpt lat="42.79798" lon="1.00975">
        <ele>2338.54</ele>
        <time>2019-03-31T11:17:02Z</time>
      </trkpt>
      <trkpt lat="42.798" lon="1.00963">
        <ele>2340.95</ele>
        <time>2019-03-31T11:17:17Z</time>
      </trkpt>
      <trkpt lat="42.79799" lon="1.00957">
        <ele>2343.35</ele>
        <time>2019-03-31T11:17:29Z</time>
      </trkpt>
      <trkpt lat="42.79795" lon="1.00958">
        <ele>2344.79</ele>
        <time>2019-03-31T11:17:33Z</time>
      </trkpt>
      <trkpt lat="42.79788" lon="1.00961">
        <ele>2346.23</ele>
        <time>2019-03-31T11:17:45Z</time>
      </trkpt>
      <trkpt lat="42.79782" lon="1.00965">
        <ele>2349.12</ele>
        <time>2019-03-31T11:17:58Z</time>
      </trkpt>
      <trkpt lat="42.79775" lon="1.00968">
        <ele>2350.56</ele>
        <time>2019-03-31T11:18:11Z</time>
      </trkpt>
      <trkpt lat="42.79769" lon="1.00972">
        <ele>2352.48</ele>
        <time>2019-03-31T11:18:20Z</time>
      </trkpt>
      <trkpt lat="42.79771" lon="1.00958">
        <ele>2355.37</ele>
        <time>2019-03-31T11:18:38Z</time>
      </trkpt>
      <trkpt lat="42.79775" lon="1.00947">
        <ele>2357.77</ele>
        <time>2019-03-31T11:18:54Z</time>
      </trkpt>
      <trkpt lat="42.79777" lon="1.00934">
        <ele>2359.69</ele>
        <time>2019-03-31T11:19:08Z</time>
      </trkpt>
      <trkpt lat="42.79779" lon="1.00922">
        <ele>2362.1</ele>
        <time>2019-03-31T11:19:21Z</time>
      </trkpt>
      <trkpt lat="42.79781" lon="1.00909">
        <ele>2364.98</ele>
        <time>2019-03-31T11:19:39Z</time>
      </trkpt>
      <trkpt lat="42.79777" lon="1.00904">
        <ele>2367.38</ele>
        <time>2019-03-31T11:19:55Z</time>
      </trkpt>
      <trkpt lat="42.7977" lon="1.00907">
        <ele>2369.31</ele>
        <time>2019-03-31T11:20:07Z</time>
      </trkpt>
      <trkpt lat="42.79769" lon="1.00907">
        <ele>2370.27</ele>
        <time>2019-03-31T11:20:10Z</time>
      </trkpt>
      <trkpt lat="42.79762" lon="1.0091">
        <ele>2372.67</ele>
        <time>2019-03-31T11:20:23Z</time>
      </trkpt>
      <trkpt lat="42.79759" lon="1.00912">
        <ele>2374.59</ele>
        <time>2019-03-31T11:20:40Z</time>
      </trkpt>
      <trkpt lat="42.79759" lon="1.00901">
        <ele>2377</ele>
        <time>2019-03-31T11:20:53Z</time>
      </trkpt>
      <trkpt lat="42.79758" lon="1.00888">
        <ele>2379.4</ele>
        <time>2019-03-31T11:21:11Z</time>
      </trkpt>
      <trkpt lat="42.79753" lon="1.00878">
        <ele>2381.32</ele>
        <time>2019-03-31T11:21:25Z</time>
      </trkpt>
      <trkpt lat="42.79752" lon="1.00878">
        <ele>2381.8</ele>
        <time>2019-03-31T11:21:26Z</time>
      </trkpt>
      <trkpt lat="42.7974" lon="1.00874">
        <ele>2383.73</ele>
        <time>2019-03-31T11:21:40Z</time>
      </trkpt>
      <trkpt lat="42.79731" lon="1.00868">
        <ele>2385.65</ele>
        <time>2019-03-31T11:21:54Z</time>
      </trkpt>
      <trkpt lat="42.79721" lon="1.00867">
        <ele>2388.05</ele>
        <time>2019-03-31T11:22:08Z</time>
      </trkpt>
      <trkpt lat="42.79711" lon="1.00868">
        <ele>2390.46</ele>
        <time>2019-03-31T11:22:23Z</time>
      </trkpt>
      <trkpt lat="42.79703" lon="1.00868">
        <ele>2392.38</ele>
        <time>2019-03-31T11:22:35Z</time>
      </trkpt>
      <trkpt lat="42.79696" lon="1.00869">
        <ele>2394.3</ele>
        <time>2019-03-31T11:22:45Z</time>
      </trkpt>
      <trkpt lat="42.79689" lon="1.0087">
        <ele>2396.7</ele>
        <time>2019-03-31T11:22:59Z</time>
      </trkpt>
      <trkpt lat="42.79681" lon="1.0087">
        <ele>2399.59</ele>
        <time>2019-03-31T11:23:13Z</time>
      </trkpt>
      <trkpt lat="42.79674" lon="1.00871">
        <ele>2401.99</ele>
        <time>2019-03-31T11:23:25Z</time>
      </trkpt>
      <trkpt lat="42.79666" lon="1.00873">
        <ele>2404.88</ele>
        <time>2019-03-31T11:23:40Z</time>
      </trkpt>
      <trkpt lat="42.79658" lon="1.00873">
        <ele>2407.28</ele>
        <time>2019-03-31T11:23:54Z</time>
      </trkpt>
      <trkpt lat="42.7965" lon="1.00872">
        <ele>2411.12</ele>
        <time>2019-03-31T11:24:09Z</time>
      </trkpt>
      <trkpt lat="42.79649" lon="1.00872">
        <ele>2411.12</ele>
        <time>2019-03-31T11:24:10Z</time>
      </trkpt>
      <trkpt lat="42.79648" lon="1.00865">
        <ele>2412.57</ele>
        <time>2019-03-31T11:24:23Z</time>
      </trkpt>
      <trkpt lat="42.79645" lon="1.00855">
        <ele>2415.45</ele>
        <time>2019-03-31T11:24:38Z</time>
      </trkpt>
      <trkpt lat="42.79639" lon="1.00846">
        <ele>2417.85</ele>
        <time>2019-03-31T11:24:51Z</time>
      </trkpt>
      <trkpt lat="42.79635" lon="1.0084">
        <ele>2419.78</ele>
        <time>2019-03-31T11:25:04Z</time>
      </trkpt>
      <trkpt lat="42.79624" lon="1.0083">
        <ele>2422.66</ele>
        <time>2019-03-31T11:25:21Z</time>
      </trkpt>
      <trkpt lat="42.79619" lon="1.00822">
        <ele>2425.54</ele>
        <time>2019-03-31T11:25:35Z</time>
      </trkpt>
      <trkpt lat="42.79614" lon="1.00814">
        <ele>2428.43</ele>
        <time>2019-03-31T11:25:50Z</time>
      </trkpt>
      <trkpt lat="42.7961" lon="1.00806">
        <ele>2430.83</ele>
        <time>2019-03-31T11:26:04Z</time>
      </trkpt>
      <trkpt lat="42.79609" lon="1.00806">
        <ele>2431.31</ele>
        <time>2019-03-31T11:26:24Z</time>
      </trkpt>
      <trkpt lat="42.79604" lon="1.00803">
        <ele>2432.75</ele>
        <time>2019-03-31T11:26:35Z</time>
      </trkpt>
      <trkpt lat="42.79602" lon="1.00802">
        <ele>2433.23</ele>
        <time>2019-03-31T11:26:38Z</time>
      </trkpt>
      <trkpt lat="42.79591" lon="1.00796">
        <ele>2435.64</ele>
        <time>2019-03-31T11:26:52Z</time>
      </trkpt>
      <trkpt lat="42.79582" lon="1.00789">
        <ele>2438.04</ele>
        <time>2019-03-31T11:27:06Z</time>
      </trkpt>
      <trkpt lat="42.79576" lon="1.00785">
        <ele>2440.44</ele>
        <time>2019-03-31T11:27:18Z</time>
      </trkpt>
      <trkpt lat="42.7957" lon="1.00783">
        <ele>2443.33</ele>
        <time>2019-03-31T11:27:30Z</time>
      </trkpt>
      <trkpt lat="42.79562" lon="1.00778">
        <ele>2446.21</ele>
        <time>2019-03-31T11:27:47Z</time>
      </trkpt>
      <trkpt lat="42.79558" lon="1.00767">
        <ele>2447.17</ele>
        <time>2019-03-31T11:28:00Z</time>
      </trkpt>
      <trkpt lat="42.79555" lon="1.00755">
        <ele>2448.62</ele>
        <time>2019-03-31T11:28:14Z</time>
      </trkpt>
      <trkpt lat="42.79554" lon="1.00751">
        <ele>2449.1</ele>
        <time>2019-03-31T11:28:18Z</time>
      </trkpt>
      <trkpt lat="42.7955" lon="1.00736">
        <ele>2450.06</ele>
        <time>2019-03-31T11:28:32Z</time>
      </trkpt>
      <trkpt lat="42.79544" lon="1.0072">
        <ele>2451.5</ele>
        <time>2019-03-31T11:28:47Z</time>
      </trkpt>
      <trkpt lat="42.79538" lon="1.00704">
        <ele>2452.94</ele>
        <time>2019-03-31T11:29:02Z</time>
      </trkpt>
      <trkpt lat="42.79528" lon="1.00688">
        <ele>2452.94</ele>
        <time>2019-03-31T11:29:17Z</time>
      </trkpt>
      <trkpt lat="42.79523" lon="1.00674">
        <ele>2454.38</ele>
        <time>2019-03-31T11:29:31Z</time>
      </trkpt>
      <trkpt lat="42.79515" lon="1.00666">
        <ele>2457.27</ele>
        <time>2019-03-31T11:29:44Z</time>
      </trkpt>
      <trkpt lat="42.79513" lon="1.00664">
        <ele>2457.75</ele>
        <time>2019-03-31T11:29:47Z</time>
      </trkpt>
      <trkpt lat="42.79512" lon="1.00658">
        <ele>2460.15</ele>
        <time>2019-03-31T11:30:00Z</time>
      </trkpt>
      <trkpt lat="42.7951" lon="1.00654">
        <ele>2460.15</ele>
        <time>2019-03-31T11:30:10Z</time>
      </trkpt>
      <trkpt lat="42.79511" lon="1.00654">
        <ele>2459.67</ele>
        <time>2019-03-31T11:30:19Z</time>
      </trkpt>
      <trkpt lat="42.7951" lon="1.00654">
        <ele>2459.67</ele>
        <time>2019-03-31T11:30:43Z</time>
      </trkpt>
      <trkpt lat="42.7951" lon="1.00654">
        <ele>2459.67</ele>
        <time>2019-03-31T11:31:05Z</time>
      </trkpt>
      <trkpt lat="42.7951" lon="1.00654">
        <ele>2456.31</ele>
        <time>2019-03-31T11:31:12Z</time>
      </trkpt>
      <trkpt lat="42.7951" lon="1.00655">
        <ele>2459.19</ele>
        <time>2019-03-31T11:31:15Z</time>
      </trkpt>
      <trkpt lat="42.7951" lon="1.00655">
        <ele>2451.5</ele>
        <time>2019-03-31T11:31:18Z</time>
      </trkpt>
      <trkpt lat="42.7951" lon="1.00655">
        <ele>2458.23</ele>
        <time>2019-03-31T11:31:19Z</time>
      </trkpt>
      <trkpt lat="42.79509" lon="1.00654">
        <ele>2458.71</ele>
        <time>2019-03-31T11:31:51Z</time>
      </trkpt>
      <trkpt lat="42.7951" lon="1.00654">
        <ele>2458.71</ele>
        <time>2019-03-31T11:32:37Z</time>
      </trkpt>
      <trkpt lat="42.7951" lon="1.00653">
        <ele>2458.71</ele>
        <time>2019-03-31T11:33:12Z</time>
      </trkpt>
      <trkpt lat="42.7951" lon="1.00655">
        <ele>2458.71</ele>
        <time>2019-03-31T11:33:43Z</time>
      </trkpt>
      <trkpt lat="42.79508" lon="1.00655">
        <ele>2458.71</ele>
        <time>2019-03-31T11:34:22Z</time>
      </trkpt>
      <trkpt lat="42.7951" lon="1.00656">
        <ele>2458.23</ele>
        <time>2019-03-31T11:35:02Z</time>
      </trkpt>
      <trkpt lat="42.7951" lon="1.00657">
        <ele>2458.71</ele>
        <time>2019-03-31T11:35:41Z</time>
      </trkpt>
      <trkpt lat="42.7951" lon="1.00658">
        <ele>2458.71</ele>
        <time>2019-03-31T11:36:01Z</time>
      </trkpt>
      <trkpt lat="42.7951" lon="1.00657">
        <ele>2458.23</ele>
        <time>2019-03-31T11:36:40Z</time>
      </trkpt>
      <trkpt lat="42.79509" lon="1.00656">
        <ele>2458.23</ele>
        <time>2019-03-31T11:37:01Z</time>
      </trkpt>
      <trkpt lat="42.79508" lon="1.00655">
        <ele>2458.23</ele>
        <time>2019-03-31T11:37:34Z</time>
      </trkpt>
      <trkpt lat="42.79508" lon="1.00655">
        <ele>2458.23</ele>
        <time>2019-03-31T11:38:15Z</time>
      </trkpt>
      <trkpt lat="42.79508" lon="1.00655">
        <ele>2458.23</ele>
        <time>2019-03-31T11:38:54Z</time>
      </trkpt>
      <trkpt lat="42.79509" lon="1.00655">
        <ele>2458.23</ele>
        <time>2019-03-31T11:39:34Z</time>
      </trkpt>
      <trkpt lat="42.79509" lon="1.00655">
        <ele>2458.23</ele>
        <time>2019-03-31T11:40:06Z</time>
      </trkpt>
      <trkpt lat="42.79508" lon="1.00656">
        <ele>2458.23</ele>
        <time>2019-03-31T11:40:44Z</time>
      </trkpt>
      <trkpt lat="42.79508" lon="1.00655">
        <ele>2458.23</ele>
        <time>2019-03-31T11:41:35Z</time>
      </trkpt>
      <trkpt lat="42.79509" lon="1.00658">
        <ele>2459.19</ele>
        <time>2019-03-31T11:42:11Z</time>
      </trkpt>
      <trkpt lat="42.79509" lon="1.00657">
        <ele>2457.75</ele>
        <time>2019-03-31T11:42:31Z</time>
      </trkpt>
      <trkpt lat="42.79509" lon="1.00657">
        <ele>2459.19</ele>
        <time>2019-03-31T11:42:33Z</time>
      </trkpt>
      <trkpt lat="42.79509" lon="1.00657">
        <ele>2454.38</ele>
        <time>2019-03-31T11:42:51Z</time>
      </trkpt>
      <trkpt lat="42.79509" lon="1.00657">
        <ele>2460.63</ele>
        <time>2019-03-31T11:42:52Z</time>
      </trkpt>
      <trkpt lat="42.79508" lon="1.00656">
        <ele>2458.71</ele>
        <time>2019-03-31T11:43:16Z</time>
      </trkpt>
      <trkpt lat="42.79508" lon="1.00656">
        <ele>2458.71</ele>
        <time>2019-03-31T11:43:59Z</time>
      </trkpt>
      <trkpt lat="42.79508" lon="1.00657">
        <ele>2458.71</ele>
        <time>2019-03-31T11:44:45Z</time>
      </trkpt>
      <trkpt lat="42.79508" lon="1.00657">
        <ele>2460.63</ele>
        <time>2019-03-31T11:44:48Z</time>
      </trkpt>
      <trkpt lat="42.79509" lon="1.00657">
        <ele>2456.79</ele>
        <time>2019-03-31T11:44:52Z</time>
      </trkpt>
      <trkpt lat="42.79509" lon="1.00657">
        <ele>2456.79</ele>
        <time>2019-03-31T11:44:53Z</time>
      </trkpt>
      <trkpt lat="42.79509" lon="1.00657">
        <ele>2460.63</ele>
        <time>2019-03-31T11:44:54Z</time>
      </trkpt>
      <trkpt lat="42.79509" lon="1.00657">
        <ele>2453.9</ele>
        <time>2019-03-31T11:44:55Z</time>
      </trkpt>
      <trkpt lat="42.79509" lon="1.00657">
        <ele>2460.63</ele>
        <time>2019-03-31T11:44:56Z</time>
      </trkpt>
      <trkpt lat="42.79509" lon="1.00657">
        <ele>2457.27</ele>
        <time>2019-03-31T11:44:58Z</time>
      </trkpt>
      <trkpt lat="42.79509" lon="1.00657">
        <ele>2457.27</ele>
        <time>2019-03-31T11:44:59Z</time>
      </trkpt>
      <trkpt lat="42.79509" lon="1.00657">
        <ele>2458.71</ele>
        <time>2019-03-31T11:45:02Z</time>
      </trkpt>
      <trkpt lat="42.79509" lon="1.00657">
        <ele>2458.71</ele>
        <time>2019-03-31T11:45:34Z</time>
      </trkpt>
      <trkpt lat="42.7951" lon="1.00659">
        <ele>2458.71</ele>
        <time>2019-03-31T11:46:07Z</time>
      </trkpt>
      <trkpt lat="42.79508" lon="1.00657">
        <ele>2458.71</ele>
        <time>2019-03-31T11:46:41Z</time>
      </trkpt>
      <trkpt lat="42.79509" lon="1.00657">
        <ele>2460.15</ele>
        <time>2019-03-31T11:47:16Z</time>
      </trkpt>
      <trkpt lat="42.7951" lon="1.00658">
        <ele>2460.63</ele>
        <time>2019-03-31T11:47:31Z</time>
      </trkpt>
      <trkpt lat="42.7951" lon="1.00657">
        <ele>2459.67</ele>
        <time>2019-03-31T11:47:43Z</time>
      </trkpt>
      <trkpt lat="42.7951" lon="1.00658">
        <ele>2459.67</ele>
        <time>2019-03-31T11:48:03Z</time>
      </trkpt>
      <trkpt lat="42.79511" lon="1.00654">
        <ele>2459.19</ele>
        <time>2019-03-31T11:48:11Z</time>
      </trkpt>
      <trkpt lat="42.79519" lon="1.0065">
        <ele>2458.71</ele>
        <time>2019-03-31T11:48:15Z</time>
      </trkpt>
      <trkpt lat="42.7954" lon="1.00667">
        <ele>2454.38</ele>
        <time>2019-03-31T11:48:20Z</time>
      </trkpt>
      <trkpt lat="42.79551" lon="1.00678">
        <ele>2451.02</ele>
        <time>2019-03-31T11:48:22Z</time>
      </trkpt>
      <trkpt lat="42.79563" lon="1.00668">
        <ele>2447.17</ele>
        <time>2019-03-31T11:48:24Z</time>
      </trkpt>
      <trkpt lat="42.7958" lon="1.00637">
        <ele>2443.81</ele>
        <time>2019-03-31T11:48:28Z</time>
      </trkpt>
      <trkpt lat="42.796" lon="1.00624">
        <ele>2439</ele>
        <time>2019-03-31T11:48:31Z</time>
      </trkpt>
      <trkpt lat="42.79617" lon="1.00618">
        <ele>2434.2</ele>
        <time>2019-03-31T11:48:33Z</time>
      </trkpt>
      <trkpt lat="42.79624" lon="1.00612">
        <ele>2430.83</ele>
        <time>2019-03-31T11:48:34Z</time>
      </trkpt>
      <trkpt lat="42.79648" lon="1.00615">
        <ele>2426.5</ele>
        <time>2019-03-31T11:48:37Z</time>
      </trkpt>
      <trkpt lat="42.79665" lon="1.00632">
        <ele>2424.1</ele>
        <time>2019-03-31T11:48:39Z</time>
      </trkpt>
      <trkpt lat="42.79685" lon="1.00656">
        <ele>2422.66</ele>
        <time>2019-03-31T11:48:42Z</time>
      </trkpt>
      <trkpt lat="42.797" lon="1.00682">
        <ele>2421.7</ele>
        <time>2019-03-31T11:48:46Z</time>
      </trkpt>
      <trkpt lat="42.79725" lon="1.00717">
        <ele>2420.26</ele>
        <time>2019-03-31T11:48:59Z</time>
      </trkpt>
      <trkpt lat="42.79732" lon="1.00724">
        <ele>2419.78</ele>
        <time>2019-03-31T11:49:01Z</time>
      </trkpt>
      <trkpt lat="42.7974" lon="1.00729">
        <ele>2418.81</ele>
        <time>2019-03-31T11:49:03Z</time>
      </trkpt>
      <trkpt lat="42.7975" lon="1.00734">
        <ele>2417.85</ele>
        <time>2019-03-31T11:49:07Z</time>
      </trkpt>
      <trkpt lat="42.79751" lon="1.00748">
        <ele>2412.09</ele>
        <time>2019-03-31T11:49:10Z</time>
      </trkpt>
      <trkpt lat="42.79764" lon="1.00747">
        <ele>2409.2</ele>
        <time>2019-03-31T11:49:13Z</time>
      </trkpt>
      <trkpt lat="42.79772" lon="1.00738">
        <ele>2406.8</ele>
        <time>2019-03-31T11:49:16Z</time>
      </trkpt>
      <trkpt lat="42.79778" lon="1.00728">
        <ele>2405.36</ele>
        <time>2019-03-31T11:49:19Z</time>
      </trkpt>
      <trkpt lat="42.79788" lon="1.00706">
        <ele>2401.03</ele>
        <time>2019-03-31T11:49:23Z</time>
      </trkpt>
      <trkpt lat="42.79791" lon="1.00701">
        <ele>2400.55</ele>
        <time>2019-03-31T11:49:24Z</time>
      </trkpt>
      <trkpt lat="42.79799" lon="1.00692">
        <ele>2400.07</ele>
        <time>2019-03-31T11:49:27Z</time>
      </trkpt>
      <trkpt lat="42.7982" lon="1.00676">
        <ele>2397.67</ele>
        <time>2019-03-31T11:49:34Z</time>
      </trkpt>
      <trkpt lat="42.79851" lon="1.00661">
        <ele>2395.26</ele>
        <time>2019-03-31T11:49:44Z</time>
      </trkpt>
      <trkpt lat="42.79873" lon="1.0066">
        <ele>2389.49</ele>
        <time>2019-03-31T11:49:48Z</time>
      </trkpt>
      <trkpt lat="42.79882" lon="1.00659">
        <ele>2388.53</ele>
        <time>2019-03-31T11:49:50Z</time>
      </trkpt>
      <trkpt lat="42.79911" lon="1.00668">
        <ele>2386.13</ele>
        <time>2019-03-31T11:49:58Z</time>
      </trkpt>
      <trkpt lat="42.79914" lon="1.00675">
        <ele>2381.8</ele>
        <time>2019-03-31T11:50:00Z</time>
      </trkpt>
      <trkpt lat="42.79912" lon="1.00679">
        <ele>2381.8</ele>
        <time>2019-03-31T11:50:01Z</time>
      </trkpt>
      <trkpt lat="42.79913" lon="1.00685">
        <ele>2377.48</ele>
        <time>2019-03-31T11:50:02Z</time>
      </trkpt>
      <trkpt lat="42.79914" lon="1.00697">
        <ele>2370.75</ele>
        <time>2019-03-31T11:50:04Z</time>
      </trkpt>
      <trkpt lat="42.79914" lon="1.00711">
        <ele>2366.42</ele>
        <time>2019-03-31T11:50:06Z</time>
      </trkpt>
      <trkpt lat="42.79916" lon="1.00726">
        <ele>2361.14</ele>
        <time>2019-03-31T11:50:08Z</time>
      </trkpt>
      <trkpt lat="42.79918" lon="1.00733">
        <ele>2361.14</ele>
        <time>2019-03-31T11:50:09Z</time>
      </trkpt>
      <trkpt lat="42.79926" lon="1.00743">
        <ele>2358.73</ele>
        <time>2019-03-31T11:50:11Z</time>
      </trkpt>
      <trkpt lat="42.79932" lon="1.00756">
        <ele>2353.93</ele>
        <time>2019-03-31T11:50:13Z</time>
      </trkpt>
      <trkpt lat="42.7994" lon="1.00766">
        <ele>2348.64</ele>
        <time>2019-03-31T11:50:15Z</time>
      </trkpt>
      <trkpt lat="42.79941" lon="1.00774">
        <ele>2348.64</ele>
        <time>2019-03-31T11:50:16Z</time>
      </trkpt>
      <trkpt lat="42.79945" lon="1.0078">
        <ele>2344.79</ele>
        <time>2019-03-31T11:50:17Z</time>
      </trkpt>
      <trkpt lat="42.79949" lon="1.00793">
        <ele>2340.47</ele>
        <time>2019-03-31T11:50:19Z</time>
      </trkpt>
      <trkpt lat="42.7995" lon="1.008">
        <ele>2337.1</ele>
        <time>2019-03-31T11:50:20Z</time>
      </trkpt>
      <trkpt lat="42.79954" lon="1.00816">
        <ele>2331.81</ele>
        <time>2019-03-31T11:50:22Z</time>
      </trkpt>
      <trkpt lat="42.79957" lon="1.00833">
        <ele>2327.97</ele>
        <time>2019-03-31T11:50:24Z</time>
      </trkpt>
      <trkpt lat="42.79961" lon="1.00848">
        <ele>2325.57</ele>
        <time>2019-03-31T11:50:26Z</time>
      </trkpt>
      <trkpt lat="42.79966" lon="1.00861">
        <ele>2320.28</ele>
        <time>2019-03-31T11:50:28Z</time>
      </trkpt>
      <trkpt lat="42.79969" lon="1.00868">
        <ele>2320.28</ele>
        <time>2019-03-31T11:50:29Z</time>
      </trkpt>
      <trkpt lat="42.79974" lon="1.00873">
        <ele>2316.91</ele>
        <time>2019-03-31T11:50:30Z</time>
      </trkpt>
      <trkpt lat="42.79978" lon="1.00887">
        <ele>2312.59</ele>
        <time>2019-03-31T11:50:32Z</time>
      </trkpt>
      <trkpt lat="42.79982" lon="1.00901">
        <ele>2308.26</ele>
        <time>2019-03-31T11:50:34Z</time>
      </trkpt>
      <trkpt lat="42.79982" lon="1.00909">
        <ele>2304.9</ele>
        <time>2019-03-31T11:50:35Z</time>
      </trkpt>
      <trkpt lat="42.79984" lon="1.00924">
        <ele>2299.61</ele>
        <time>2019-03-31T11:50:37Z</time>
      </trkpt>
      <trkpt lat="42.79983" lon="1.00932">
        <ele>2299.61</ele>
        <time>2019-03-31T11:50:38Z</time>
      </trkpt>
      <trkpt lat="42.79987" lon="1.00947">
        <ele>2295.28</ele>
        <time>2019-03-31T11:50:40Z</time>
      </trkpt>
      <trkpt lat="42.79995" lon="1.00958">
        <ele>2290.96</ele>
        <time>2019-03-31T11:50:42Z</time>
      </trkpt>
      <trkpt lat="42.8" lon="1.00964">
        <ele>2287.11</ele>
        <time>2019-03-31T11:50:43Z</time>
      </trkpt>
      <trkpt lat="42.80011" lon="1.00979">
        <ele>2279.9</ele>
        <time>2019-03-31T11:50:45Z</time>
      </trkpt>
      <trkpt lat="42.80026" lon="1.00987">
        <ele>2276.06</ele>
        <time>2019-03-31T11:50:47Z</time>
      </trkpt>
      <trkpt lat="42.80042" lon="1.00994">
        <ele>2271.25</ele>
        <time>2019-03-31T11:50:49Z</time>
      </trkpt>
      <trkpt lat="42.80055" lon="1.01004">
        <ele>2269.33</ele>
        <time>2019-03-31T11:50:51Z</time>
      </trkpt>
      <trkpt lat="42.80065" lon="1.01021">
        <ele>2266.93</ele>
        <time>2019-03-31T11:50:53Z</time>
      </trkpt>
      <trkpt lat="42.80061" lon="1.01037">
        <ele>2263.56</ele>
        <time>2019-03-31T11:50:56Z</time>
      </trkpt>
      <trkpt lat="42.80058" lon="1.01038">
        <ele>2263.56</ele>
        <time>2019-03-31T11:50:57Z</time>
      </trkpt>
      <trkpt lat="42.80056" lon="1.01039">
        <ele>2264.52</ele>
        <time>2019-03-31T11:51:02Z</time>
      </trkpt>
      <trkpt lat="42.80057" lon="1.01048">
        <ele>2264.04</ele>
        <time>2019-03-31T11:51:04Z</time>
      </trkpt>
      <trkpt lat="42.80056" lon="1.01073">
        <ele>2258.27</ele>
        <time>2019-03-31T11:51:07Z</time>
      </trkpt>
      <trkpt lat="42.80053" lon="1.01083">
        <ele>2254.91</ele>
        <time>2019-03-31T11:51:08Z</time>
      </trkpt>
      <trkpt lat="42.8005" lon="1.01105">
        <ele>2250.58</ele>
        <time>2019-03-31T11:51:10Z</time>
      </trkpt>
      <trkpt lat="42.80046" lon="1.0114">
        <ele>2244.82</ele>
        <time>2019-03-31T11:51:13Z</time>
      </trkpt>
      <trkpt lat="42.80046" lon="1.01164">
        <ele>2241.93</ele>
        <time>2019-03-31T11:51:15Z</time>
      </trkpt>
      <trkpt lat="42.80045" lon="1.01175">
        <ele>2241.45</ele>
        <time>2019-03-31T11:51:16Z</time>
      </trkpt>
      <trkpt lat="42.80044" lon="1.01185">
        <ele>2240.01</ele>
        <time>2019-03-31T11:51:17Z</time>
      </trkpt>
      <trkpt lat="42.80041" lon="1.01245">
        <ele>2235.68</ele>
        <time>2019-03-31T11:51:24Z</time>
      </trkpt>
      <trkpt lat="42.80039" lon="1.01262">
        <ele>2233.28</ele>
        <time>2019-03-31T11:51:26Z</time>
      </trkpt>
      <trkpt lat="42.80037" lon="1.01269">
        <ele>2229.92</ele>
        <time>2019-03-31T11:51:27Z</time>
      </trkpt>
      <trkpt lat="42.80035" lon="1.01284">
        <ele>2223.67</ele>
        <time>2019-03-31T11:51:29Z</time>
      </trkpt>
      <trkpt lat="42.80033" lon="1.01303">
        <ele>2219.34</ele>
        <time>2019-03-31T11:51:31Z</time>
      </trkpt>
      <trkpt lat="42.80031" lon="1.01311">
        <ele>2215.5</ele>
        <time>2019-03-31T11:51:32Z</time>
      </trkpt>
      <trkpt lat="42.80028" lon="1.01319">
        <ele>2215.5</ele>
        <time>2019-03-31T11:51:33Z</time>
      </trkpt>
      <trkpt lat="42.80027" lon="1.01329">
        <ele>2211.65</ele>
        <time>2019-03-31T11:51:34Z</time>
      </trkpt>
      <trkpt lat="42.80027" lon="1.01339">
        <ele>2207.32</ele>
        <time>2019-03-31T11:51:35Z</time>
      </trkpt>
      <trkpt lat="42.80015" lon="1.01368">
        <ele>2201.56</ele>
        <time>2019-03-31T11:51:39Z</time>
      </trkpt>
      <trkpt lat="42.80012" lon="1.01374">
        <ele>2198.19</ele>
        <time>2019-03-31T11:51:40Z</time>
      </trkpt>
      <trkpt lat="42.80007" lon="1.01389">
        <ele>2194.35</ele>
        <time>2019-03-31T11:51:42Z</time>
      </trkpt>
      <trkpt lat="42.80005" lon="1.01398">
        <ele>2190.5</ele>
        <time>2019-03-31T11:51:43Z</time>
      </trkpt>
      <trkpt lat="42.80001" lon="1.01421">
        <ele>2185.69</ele>
        <time>2019-03-31T11:51:45Z</time>
      </trkpt>
      <trkpt lat="42.8" lon="1.01447">
        <ele>2182.33</ele>
        <time>2019-03-31T11:51:47Z</time>
      </trkpt>
      <trkpt lat="42.79996" lon="1.01471">
        <ele>2178.97</ele>
        <time>2019-03-31T11:51:49Z</time>
      </trkpt>
      <trkpt lat="42.79994" lon="1.01493">
        <ele>2178</ele>
        <time>2019-03-31T11:51:51Z</time>
      </trkpt>
      <trkpt lat="42.79986" lon="1.01535">
        <ele>2174.16</ele>
        <time>2019-03-31T11:51:55Z</time>
      </trkpt>
      <trkpt lat="42.79985" lon="1.01548">
        <ele>2171.27</ele>
        <time>2019-03-31T11:51:58Z</time>
      </trkpt>
      <trkpt lat="42.79983" lon="1.01545">
        <ele>2171.76</ele>
        <time>2019-03-31T11:52:17Z</time>
      </trkpt>
      <trkpt lat="42.79979" lon="1.01578">
        <ele>2171.27</ele>
        <time>2019-03-31T11:52:27Z</time>
      </trkpt>
      <trkpt lat="42.79968" lon="1.0161">
        <ele>2168.87</ele>
        <time>2019-03-31T11:52:35Z</time>
      </trkpt>
      <trkpt lat="42.79964" lon="1.01624">
        <ele>2168.39</ele>
        <time>2019-03-31T11:52:39Z</time>
      </trkpt>
      <trkpt lat="42.79956" lon="1.01623">
        <ele>2163.1</ele>
        <time>2019-03-31T11:52:42Z</time>
      </trkpt>
      <trkpt lat="42.79954" lon="1.01627">
        <ele>2161.66</ele>
        <time>2019-03-31T11:52:43Z</time>
      </trkpt>
      <trkpt lat="42.79948" lon="1.01637">
        <ele>2158.78</ele>
        <time>2019-03-31T11:52:46Z</time>
      </trkpt>
      <trkpt lat="42.79942" lon="1.01645">
        <ele>2157.34</ele>
        <time>2019-03-31T11:52:48Z</time>
      </trkpt>
      <trkpt lat="42.79945" lon="1.01668">
        <ele>2149.16</ele>
        <time>2019-03-31T11:52:52Z</time>
      </trkpt>
      <trkpt lat="42.79942" lon="1.01676">
        <ele>2149.16</ele>
        <time>2019-03-31T11:52:53Z</time>
      </trkpt>
      <trkpt lat="42.79937" lon="1.01693">
        <ele>2144.36</ele>
        <time>2019-03-31T11:52:55Z</time>
      </trkpt>
      <trkpt lat="42.79934" lon="1.01702">
        <ele>2138.59</ele>
        <time>2019-03-31T11:52:56Z</time>
      </trkpt>
      <trkpt lat="42.79931" lon="1.01709">
        <ele>2139.07</ele>
        <time>2019-03-31T11:52:57Z</time>
      </trkpt>
      <trkpt lat="42.7993" lon="1.01718">
        <ele>2135.71</ele>
        <time>2019-03-31T11:52:58Z</time>
      </trkpt>
      <trkpt lat="42.79928" lon="1.01726">
        <ele>2131.86</ele>
        <time>2019-03-31T11:52:59Z</time>
      </trkpt>
      <trkpt lat="42.79927" lon="1.0174">
        <ele>2128.02</ele>
        <time>2019-03-31T11:53:01Z</time>
      </trkpt>
      <trkpt lat="42.79925" lon="1.01747">
        <ele>2124.65</ele>
        <time>2019-03-31T11:53:02Z</time>
      </trkpt>
      <trkpt lat="42.79924" lon="1.01761">
        <ele>2120.32</ele>
        <time>2019-03-31T11:53:04Z</time>
      </trkpt>
      <trkpt lat="42.79921" lon="1.01773">
        <ele>2115.04</ele>
        <time>2019-03-31T11:53:06Z</time>
      </trkpt>
      <trkpt lat="42.79917" lon="1.01777">
        <ele>2114.08</ele>
        <time>2019-03-31T11:53:08Z</time>
      </trkpt>
      <trkpt lat="42.79911" lon="1.01778">
        <ele>2113.6</ele>
        <time>2019-03-31T11:53:27Z</time>
      </trkpt>
      <trkpt lat="42.79911" lon="1.01777">
        <ele>2113.12</ele>
        <time>2019-03-31T11:53:33Z</time>
      </trkpt>
      <trkpt lat="42.79906" lon="1.01793">
        <ele>2109.27</ele>
        <time>2019-03-31T11:53:40Z</time>
      </trkpt>
      <trkpt lat="42.79908" lon="1.01801">
        <ele>2104.46</ele>
        <time>2019-03-31T11:53:42Z</time>
      </trkpt>
      <trkpt lat="42.79902" lon="1.0181">
        <ele>2101.58</ele>
        <time>2019-03-31T11:53:45Z</time>
      </trkpt>
      <trkpt lat="42.79902" lon="1.01818">
        <ele>2095.81</ele>
        <time>2019-03-31T11:53:47Z</time>
      </trkpt>
      <trkpt lat="42.79897" lon="1.01825">
        <ele>2093.89</ele>
        <time>2019-03-31T11:53:49Z</time>
      </trkpt>
      <trkpt lat="42.79893" lon="1.01836">
        <ele>2087.16</ele>
        <time>2019-03-31T11:53:51Z</time>
      </trkpt>
      <trkpt lat="42.7989" lon="1.01842">
        <ele>2086.68</ele>
        <time>2019-03-31T11:53:52Z</time>
      </trkpt>
      <trkpt lat="42.79891" lon="1.01857">
        <ele>2082.35</ele>
        <time>2019-03-31T11:53:54Z</time>
      </trkpt>
      <trkpt lat="42.7989" lon="1.01864">
        <ele>2078.03</ele>
        <time>2019-03-31T11:53:55Z</time>
      </trkpt>
      <trkpt lat="42.79886" lon="1.01868">
        <ele>2078.03</ele>
        <time>2019-03-31T11:53:56Z</time>
      </trkpt>
      <trkpt lat="42.79882" lon="1.01882">
        <ele>2073.22</ele>
        <time>2019-03-31T11:53:58Z</time>
      </trkpt>
      <trkpt lat="42.79875" lon="1.0189">
        <ele>2071.78</ele>
        <time>2019-03-31T11:54:00Z</time>
      </trkpt>
      <trkpt lat="42.7987" lon="1.01895">
        <ele>2070.82</ele>
        <time>2019-03-31T11:54:02Z</time>
      </trkpt>
      <trkpt lat="42.79869" lon="1.01908">
        <ele>2065.05</ele>
        <time>2019-03-31T11:54:05Z</time>
      </trkpt>
      <trkpt lat="42.79865" lon="1.01917">
        <ele>2063.13</ele>
        <time>2019-03-31T11:54:07Z</time>
      </trkpt>
      <trkpt lat="42.79864" lon="1.01921">
        <ele>2059.76</ele>
        <time>2019-03-31T11:54:08Z</time>
      </trkpt>
      <trkpt lat="42.79861" lon="1.01929">
        <ele>2056.88</ele>
        <time>2019-03-31T11:54:15Z</time>
      </trkpt>
      <trkpt lat="42.79859" lon="1.01937">
        <ele>2053.99</ele>
        <time>2019-03-31T11:54:18Z</time>
      </trkpt>
      <trkpt lat="42.79856" lon="1.01944">
        <ele>2051.11</ele>
        <time>2019-03-31T11:54:20Z</time>
      </trkpt>
      <trkpt lat="42.79856" lon="1.01953">
        <ele>2047.26</ele>
        <time>2019-03-31T11:54:22Z</time>
      </trkpt>
      <trkpt lat="42.79854" lon="1.01957">
        <ele>2047.26</ele>
        <time>2019-03-31T11:54:23Z</time>
      </trkpt>
      <trkpt lat="42.79851" lon="1.01968">
        <ele>2043.9</ele>
        <time>2019-03-31T11:54:25Z</time>
      </trkpt>
      <trkpt lat="42.79851" lon="1.01971">
        <ele>2040.05</ele>
        <time>2019-03-31T11:54:26Z</time>
      </trkpt>
      <trkpt lat="42.7985" lon="1.01984">
        <ele>2035.73</ele>
        <time>2019-03-31T11:54:30Z</time>
      </trkpt>
      <trkpt lat="42.79848" lon="1.01985">
        <ele>2035.73</ele>
        <time>2019-03-31T11:54:31Z</time>
      </trkpt>
      <trkpt lat="42.79846" lon="1.01994">
        <ele>2034.77</ele>
        <time>2019-03-31T11:54:34Z</time>
      </trkpt>
      <trkpt lat="42.79851" lon="1.0202">
        <ele>2031.4</ele>
        <time>2019-03-31T11:54:42Z</time>
      </trkpt>
      <trkpt lat="42.79847" lon="1.02021">
        <ele>2030.44</ele>
        <time>2019-03-31T11:54:44Z</time>
      </trkpt>
      <trkpt lat="42.79831" lon="1.0202">
        <ele>2027.56</ele>
        <time>2019-03-31T11:54:47Z</time>
      </trkpt>
      <trkpt lat="42.79817" lon="1.02044">
        <ele>2022.27</ele>
        <time>2019-03-31T11:54:53Z</time>
      </trkpt>
      <trkpt lat="42.79811" lon="1.02063">
        <ele>2016.98</ele>
        <time>2019-03-31T11:54:56Z</time>
      </trkpt>
      <trkpt lat="42.79809" lon="1.02076">
        <ele>2014.58</ele>
        <time>2019-03-31T11:54:58Z</time>
      </trkpt>
      <trkpt lat="42.79816" lon="1.02099">
        <ele>2010.73</ele>
        <time>2019-03-31T11:55:02Z</time>
      </trkpt>
      <trkpt lat="42.79816" lon="1.02105">
        <ele>2010.25</ele>
        <time>2019-03-31T11:55:03Z</time>
      </trkpt>
      <trkpt lat="42.79816" lon="1.02119">
        <ele>2005.45</ele>
        <time>2019-03-31T11:55:05Z</time>
      </trkpt>
      <trkpt lat="42.79819" lon="1.02133">
        <ele>2002.08</ele>
        <time>2019-03-31T11:55:07Z</time>
      </trkpt>
      <trkpt lat="42.7982" lon="1.02146">
        <ele>1998.24</ele>
        <time>2019-03-31T11:55:09Z</time>
      </trkpt>
      <trkpt lat="42.79829" lon="1.02164">
        <ele>1993.43</ele>
        <time>2019-03-31T11:55:12Z</time>
      </trkpt>
      <trkpt lat="42.79839" lon="1.02175">
        <ele>1990.55</ele>
        <time>2019-03-31T11:55:14Z</time>
      </trkpt>
      <trkpt lat="42.79854" lon="1.02194">
        <ele>1989.1</ele>
        <time>2019-03-31T11:55:17Z</time>
      </trkpt>
      <trkpt lat="42.79873" lon="1.02204">
        <ele>1986.22</ele>
        <time>2019-03-31T11:55:20Z</time>
      </trkpt>
      <trkpt lat="42.79884" lon="1.02203">
        <ele>1983.34</ele>
        <time>2019-03-31T11:55:22Z</time>
      </trkpt>
      <trkpt lat="42.79902" lon="1.02202">
        <ele>1980.45</ele>
        <time>2019-03-31T11:55:25Z</time>
      </trkpt>
      <trkpt lat="42.79913" lon="1.02206">
        <ele>1978.53</ele>
        <time>2019-03-31T11:55:27Z</time>
      </trkpt>
      <trkpt lat="42.79928" lon="1.02215">
        <ele>1977.09</ele>
        <time>2019-03-31T11:55:30Z</time>
      </trkpt>
      <trkpt lat="42.79933" lon="1.02219">
        <ele>1977.09</ele>
        <time>2019-03-31T11:55:31Z</time>
      </trkpt>
      <trkpt lat="42.79953" lon="1.0223">
        <ele>1973.72</ele>
        <time>2019-03-31T11:55:34Z</time>
      </trkpt>
      <trkpt lat="42.79963" lon="1.02234">
        <ele>1970.84</ele>
        <time>2019-03-31T11:55:36Z</time>
      </trkpt>
      <trkpt lat="42.79978" lon="1.02238">
        <ele>1969.4</ele>
        <time>2019-03-31T11:55:41Z</time>
      </trkpt>
      <trkpt lat="42.7999" lon="1.02239">
        <ele>1967.96</ele>
        <time>2019-03-31T11:55:44Z</time>
      </trkpt>
      <trkpt lat="42.79994" lon="1.02234">
        <ele>1964.59</ele>
        <time>2019-03-31T11:55:45Z</time>
      </trkpt>
      <trkpt lat="42.80013" lon="1.02236">
        <ele>1960.27</ele>
        <time>2019-03-31T11:55:48Z</time>
      </trkpt>
      <trkpt lat="42.80019" lon="1.02236">
        <ele>1956.9</ele>
        <time>2019-03-31T11:55:49Z</time>
      </trkpt>
      <trkpt lat="42.80032" lon="1.02231">
        <ele>1953.54</ele>
        <time>2019-03-31T11:55:51Z</time>
      </trkpt>
      <trkpt lat="42.80054" lon="1.02235">
        <ele>1950.17</ele>
        <time>2019-03-31T11:55:54Z</time>
      </trkpt>
      <trkpt lat="42.80083" lon="1.02245">
        <ele>1946.81</ele>
        <time>2019-03-31T11:55:58Z</time>
      </trkpt>
      <trkpt lat="42.8011" lon="1.0225">
        <ele>1943.44</ele>
        <time>2019-03-31T11:56:02Z</time>
      </trkpt>
      <trkpt lat="42.80116" lon="1.02254">
        <ele>1943.44</ele>
        <time>2019-03-31T11:56:03Z</time>
      </trkpt>
      <trkpt lat="42.80131" lon="1.02259">
        <ele>1942.48</ele>
        <time>2019-03-31T11:56:06Z</time>
      </trkpt>
      <trkpt lat="42.80158" lon="1.0227">
        <ele>1942</ele>
        <time>2019-03-31T11:56:17Z</time>
      </trkpt>
      <trkpt lat="42.80163" lon="1.02273">
        <ele>1942</ele>
        <time>2019-03-31T11:56:19Z</time>
      </trkpt>
      <trkpt lat="42.80174" lon="1.02279">
        <ele>1939.6</ele>
        <time>2019-03-31T11:56:22Z</time>
      </trkpt>
      <trkpt lat="42.80178" lon="1.02274">
        <ele>1935.75</ele>
        <time>2019-03-31T11:56:23Z</time>
      </trkpt>
      <trkpt lat="42.80181" lon="1.02271">
        <ele>1932.87</ele>
        <time>2019-03-31T11:56:24Z</time>
      </trkpt>
      <trkpt lat="42.80197" lon="1.02265">
        <ele>1926.14</ele>
        <time>2019-03-31T11:56:28Z</time>
      </trkpt>
      <trkpt lat="42.80201" lon="1.02263">
        <ele>1926.14</ele>
        <time>2019-03-31T11:56:29Z</time>
      </trkpt>
      <trkpt lat="42.8021" lon="1.02258">
        <ele>1921.33</ele>
        <time>2019-03-31T11:56:31Z</time>
      </trkpt>
      <trkpt lat="42.80214" lon="1.02258">
        <ele>1921.33</ele>
        <time>2019-03-31T11:56:32Z</time>
      </trkpt>
      <trkpt lat="42.80221" lon="1.02252">
        <ele>1918.93</ele>
        <time>2019-03-31T11:56:34Z</time>
      </trkpt>
      <trkpt lat="42.80235" lon="1.02241">
        <ele>1908.83</ele>
        <time>2019-03-31T11:56:38Z</time>
      </trkpt>
      <trkpt lat="42.80243" lon="1.02238">
        <ele>1905.95</ele>
        <time>2019-03-31T11:56:40Z</time>
      </trkpt>
      <trkpt lat="42.80248" lon="1.02232">
        <ele>1901.14</ele>
        <time>2019-03-31T11:56:44Z</time>
      </trkpt>
      <trkpt lat="42.80248" lon="1.02232">
        <ele>1901.63</ele>
        <time>2019-03-31T11:56:58Z</time>
      </trkpt>
      <trkpt lat="42.80248" lon="1.0223">
        <ele>1901.63</ele>
        <time>2019-03-31T11:57:19Z</time>
      </trkpt>
      <trkpt lat="42.80256" lon="1.02229">
        <ele>1898.74</ele>
        <time>2019-03-31T11:57:23Z</time>
      </trkpt>
      <trkpt lat="42.80262" lon="1.02218">
        <ele>1893.45</ele>
        <time>2019-03-31T11:57:26Z</time>
      </trkpt>
      <trkpt lat="42.80272" lon="1.02212">
        <ele>1888.17</ele>
        <time>2019-03-31T11:57:28Z</time>
      </trkpt>
      <trkpt lat="42.80275" lon="1.02204">
        <ele>1884.8</ele>
        <time>2019-03-31T11:57:29Z</time>
      </trkpt>
      <trkpt lat="42.80282" lon="1.02202">
        <ele>1879.51</ele>
        <time>2019-03-31T11:57:31Z</time>
      </trkpt>
      <trkpt lat="42.80293" lon="1.02197">
        <ele>1874.71</ele>
        <time>2019-03-31T11:57:33Z</time>
      </trkpt>
      <trkpt lat="42.80303" lon="1.02199">
        <ele>1869.42</ele>
        <time>2019-03-31T11:57:35Z</time>
      </trkpt>
      <trkpt lat="42.80319" lon="1.02208">
        <ele>1862.69</ele>
        <time>2019-03-31T11:57:39Z</time>
      </trkpt>
      <trkpt lat="42.80321" lon="1.02216">
        <ele>1862.21</ele>
        <time>2019-03-31T11:57:41Z</time>
      </trkpt>
      <trkpt lat="42.80321" lon="1.02219">
        <ele>1861.25</ele>
        <time>2019-03-31T11:57:44Z</time>
      </trkpt>
      <trkpt lat="42.80325" lon="1.0221">
        <ele>1859.33</ele>
        <time>2019-03-31T11:57:48Z</time>
      </trkpt>
      <trkpt lat="42.80326" lon="1.02192">
        <ele>1857.89</ele>
        <time>2019-03-31T11:57:52Z</time>
      </trkpt>
      <trkpt lat="42.80329" lon="1.02173">
        <ele>1855</ele>
        <time>2019-03-31T11:57:56Z</time>
      </trkpt>
      <trkpt lat="42.80333" lon="1.02172">
        <ele>1850.68</ele>
        <time>2019-03-31T11:57:57Z</time>
      </trkpt>
      <trkpt lat="42.80339" lon="1.02186">
        <ele>1846.83</ele>
        <time>2019-03-31T11:58:00Z</time>
      </trkpt>
      <trkpt lat="42.80343" lon="1.02208">
        <ele>1843.95</ele>
        <time>2019-03-31T11:58:04Z</time>
      </trkpt>
      <trkpt lat="42.80344" lon="1.02212">
        <ele>1844.91</ele>
        <time>2019-03-31T11:58:05Z</time>
      </trkpt>
      <trkpt lat="42.80356" lon="1.02204">
        <ele>1836.74</ele>
        <time>2019-03-31T11:58:08Z</time>
      </trkpt>
      <trkpt lat="42.80361" lon="1.02207">
        <ele>1832.89</ele>
        <time>2019-03-31T11:58:09Z</time>
      </trkpt>
      <trkpt lat="42.80366" lon="1.02228">
        <ele>1830.01</ele>
        <time>2019-03-31T11:58:11Z</time>
      </trkpt>
      <trkpt lat="42.80381" lon="1.02242">
        <ele>1822.32</ele>
        <time>2019-03-31T11:58:15Z</time>
      </trkpt>
      <trkpt lat="42.80391" lon="1.02235">
        <ele>1815.11</ele>
        <time>2019-03-31T11:58:17Z</time>
      </trkpt>
      <trkpt lat="42.80398" lon="1.02251">
        <ele>1812.22</ele>
        <time>2019-03-31T11:58:19Z</time>
      </trkpt>
      <trkpt lat="42.80399" lon="1.0226">
        <ele>1810.78</ele>
        <time>2019-03-31T11:58:20Z</time>
      </trkpt>
      <trkpt lat="42.80399" lon="1.02276">
        <ele>1808.86</ele>
        <time>2019-03-31T11:58:22Z</time>
      </trkpt>
      <trkpt lat="42.80402" lon="1.02301">
        <ele>1806.94</ele>
        <time>2019-03-31T11:58:26Z</time>
      </trkpt>
      <trkpt lat="42.80409" lon="1.02316">
        <ele>1804.05</ele>
        <time>2019-03-31T11:58:29Z</time>
      </trkpt>
      <trkpt lat="42.80416" lon="1.02312">
        <ele>1798.76</ele>
        <time>2019-03-31T11:58:31Z</time>
      </trkpt>
      <trkpt lat="42.80419" lon="1.02315">
        <ele>1800.21</ele>
        <time>2019-03-31T11:58:32Z</time>
      </trkpt>
      <trkpt lat="42.80423" lon="1.02315">
        <ele>1796.36</ele>
        <time>2019-03-31T11:58:33Z</time>
      </trkpt>
      <trkpt lat="42.80428" lon="1.02307">
        <ele>1792.52</ele>
        <time>2019-03-31T11:58:35Z</time>
      </trkpt>
      <trkpt lat="42.80436" lon="1.0231">
        <ele>1788.19</ele>
        <time>2019-03-31T11:58:37Z</time>
      </trkpt>
      <trkpt lat="42.80441" lon="1.02305">
        <ele>1784.82</ele>
        <time>2019-03-31T11:58:38Z</time>
      </trkpt>
      <trkpt lat="42.80455" lon="1.02299">
        <ele>1778.58</ele>
        <time>2019-03-31T11:58:40Z</time>
      </trkpt>
      <trkpt lat="42.80464" lon="1.02316">
        <ele>1772.81</ele>
        <time>2019-03-31T11:58:42Z</time>
      </trkpt>
      <trkpt lat="42.8047" lon="1.02326">
        <ele>1772.33</ele>
        <time>2019-03-31T11:58:44Z</time>
      </trkpt>
      <trkpt lat="42.80463" lon="1.02327">
        <ele>1770.89</ele>
        <time>2019-03-31T11:58:53Z</time>
      </trkpt>
      <trkpt lat="42.80458" lon="1.02331">
        <ele>1770.89</ele>
        <time>2019-03-31T11:59:01Z</time>
      </trkpt>
      <trkpt lat="42.80464" lon="1.02322">
        <ele>1770.41</ele>
        <time>2019-03-31T11:59:04Z</time>
      </trkpt>
      <trkpt lat="42.80474" lon="1.02289">
        <ele>1765.12</ele>
        <time>2019-03-31T11:59:08Z</time>
      </trkpt>
      <trkpt lat="42.80485" lon="1.02287">
        <ele>1762.23</ele>
        <time>2019-03-31T11:59:10Z</time>
      </trkpt>
      <trkpt lat="42.80496" lon="1.02287">
        <ele>1756.47</ele>
        <time>2019-03-31T11:59:12Z</time>
      </trkpt>
      <trkpt lat="42.80506" lon="1.02296">
        <ele>1753.58</ele>
        <time>2019-03-31T11:59:14Z</time>
      </trkpt>
      <trkpt lat="42.80513" lon="1.02296">
        <ele>1749.26</ele>
        <time>2019-03-31T11:59:15Z</time>
      </trkpt>
      <trkpt lat="42.80519" lon="1.023">
        <ele>1744.93</ele>
        <time>2019-03-31T11:59:16Z</time>
      </trkpt>
      <trkpt lat="42.80523" lon="1.02308">
        <ele>1744.93</ele>
        <time>2019-03-31T11:59:17Z</time>
      </trkpt>
      <trkpt lat="42.80528" lon="1.02313">
        <ele>1741.08</ele>
        <time>2019-03-31T11:59:18Z</time>
      </trkpt>
      <trkpt lat="42.80537" lon="1.02323">
        <ele>1737.24</ele>
        <time>2019-03-31T11:59:20Z</time>
      </trkpt>
      <trkpt lat="42.80544" lon="1.02336">
        <ele>1733.39</ele>
        <time>2019-03-31T11:59:22Z</time>
      </trkpt>
      <trkpt lat="42.80548" lon="1.02341">
        <ele>1733.39</ele>
        <time>2019-03-31T11:59:23Z</time>
      </trkpt>
      <trkpt lat="42.80559" lon="1.02348">
        <ele>1730.03</ele>
        <time>2019-03-31T11:59:25Z</time>
      </trkpt>
      <trkpt lat="42.80569" lon="1.02353">
        <ele>1725.22</ele>
        <time>2019-03-31T11:59:27Z</time>
      </trkpt>
      <trkpt lat="42.80574" lon="1.02356">
        <ele>1726.67</ele>
        <time>2019-03-31T11:59:28Z</time>
      </trkpt>
      <trkpt lat="42.80588" lon="1.02369">
        <ele>1720.9</ele>
        <time>2019-03-31T11:59:31Z</time>
      </trkpt>
      <trkpt lat="42.80598" lon="1.02381">
        <ele>1714.17</ele>
        <time>2019-03-31T11:59:33Z</time>
      </trkpt>
      <trkpt lat="42.80603" lon="1.02387">
        <ele>1715.13</ele>
        <time>2019-03-31T11:59:34Z</time>
      </trkpt>
      <trkpt lat="42.80609" lon="1.02394">
        <ele>1711.76</ele>
        <time>2019-03-31T11:59:35Z</time>
      </trkpt>
      <trkpt lat="42.80613" lon="1.02402">
        <ele>1707.92</ele>
        <time>2019-03-31T11:59:36Z</time>
      </trkpt>
      <trkpt lat="42.80618" lon="1.02411">
        <ele>1707.92</ele>
        <time>2019-03-31T11:59:37Z</time>
      </trkpt>
      <trkpt lat="42.80621" lon="1.0242">
        <ele>1704.55</ele>
        <time>2019-03-31T11:59:38Z</time>
      </trkpt>
      <trkpt lat="42.80625" lon="1.02428">
        <ele>1704.55</ele>
        <time>2019-03-31T11:59:39Z</time>
      </trkpt>
      <trkpt lat="42.80636" lon="1.02441">
        <ele>1700.71</ele>
        <time>2019-03-31T11:59:41Z</time>
      </trkpt>
      <trkpt lat="42.80646" lon="1.02455">
        <ele>1695.42</ele>
        <time>2019-03-31T11:59:43Z</time>
      </trkpt>
      <trkpt lat="42.80655" lon="1.02472">
        <ele>1693.5</ele>
        <time>2019-03-31T11:59:45Z</time>
      </trkpt>
      <trkpt lat="42.80671" lon="1.02495">
        <ele>1689.65</ele>
        <time>2019-03-31T11:59:48Z</time>
      </trkpt>
      <trkpt lat="42.80676" lon="1.02502">
        <ele>1690.62</ele>
        <time>2019-03-31T11:59:49Z</time>
      </trkpt>
      <trkpt lat="42.8068" lon="1.0251">
        <ele>1690.62</ele>
        <time>2019-03-31T11:59:50Z</time>
      </trkpt>
      <trkpt lat="42.80689" lon="1.02527">
        <ele>1688.21</ele>
        <time>2019-03-31T11:59:53Z</time>
      </trkpt>
      <trkpt lat="42.80697" lon="1.02538">
        <ele>1688.21</ele>
        <time>2019-03-31T11:59:56Z</time>
      </trkpt>
      <trkpt lat="42.80701" lon="1.02546">
        <ele>1688.21</ele>
        <time>2019-03-31T12:00:03Z</time>
      </trkpt>
      <trkpt lat="42.80699" lon="1.02545">
        <ele>1687.73</ele>
        <time>2019-03-31T12:00:24Z</time>
      </trkpt>
      <trkpt lat="42.80718" lon="1.0256">
        <ele>1685.81</ele>
        <time>2019-03-31T12:00:32Z</time>
      </trkpt>
      <trkpt lat="42.8073" lon="1.02578">
        <ele>1683.89</ele>
        <time>2019-03-31T12:00:35Z</time>
      </trkpt>
      <trkpt lat="42.80743" lon="1.02589">
        <ele>1680.52</ele>
        <time>2019-03-31T12:00:38Z</time>
      </trkpt>
      <trkpt lat="42.80754" lon="1.0259">
        <ele>1677.16</ele>
        <time>2019-03-31T12:00:40Z</time>
      </trkpt>
      <trkpt lat="42.80766" lon="1.02599">
        <ele>1675.23</ele>
        <time>2019-03-31T12:00:42Z</time>
      </trkpt>
      <trkpt lat="42.80792" lon="1.02614">
        <ele>1673.31</ele>
        <time>2019-03-31T12:00:48Z</time>
      </trkpt>
      <trkpt lat="42.80808" lon="1.02634">
        <ele>1672.35</ele>
        <time>2019-03-31T12:00:56Z</time>
      </trkpt>
      <trkpt lat="42.80808" lon="1.02635">
        <ele>1672.35</ele>
        <time>2019-03-31T12:00:57Z</time>
      </trkpt>
      <trkpt lat="42.80819" lon="1.02651">
        <ele>1670.43</ele>
        <time>2019-03-31T12:01:02Z</time>
      </trkpt>
      <trkpt lat="42.80826" lon="1.02659">
        <ele>1669.47</ele>
        <time>2019-03-31T12:01:04Z</time>
      </trkpt>
      <trkpt lat="42.80832" lon="1.02658">
        <ele>1665.62</ele>
        <time>2019-03-31T12:01:08Z</time>
      </trkpt>
      <trkpt lat="42.80834" lon="1.02653">
        <ele>1661.3</ele>
        <time>2019-03-31T12:01:10Z</time>
      </trkpt>
      <trkpt lat="42.80835" lon="1.0265">
        <ele>1662.74</ele>
        <time>2019-03-31T12:01:11Z</time>
      </trkpt>
      <trkpt lat="42.80837" lon="1.02642">
        <ele>1656.01</ele>
        <time>2019-03-31T12:01:13Z</time>
      </trkpt>
      <trkpt lat="42.80847" lon="1.02646">
        <ele>1652.64</ele>
        <time>2019-03-31T12:01:16Z</time>
      </trkpt>
      <trkpt lat="42.80849" lon="1.02642">
        <ele>1652.64</ele>
        <time>2019-03-31T12:01:17Z</time>
      </trkpt>
      <trkpt lat="42.80847" lon="1.02631">
        <ele>1649.28</ele>
        <time>2019-03-31T12:01:19Z</time>
      </trkpt>
      <trkpt lat="42.80852" lon="1.02631">
        <ele>1647.36</ele>
        <time>2019-03-31T12:01:21Z</time>
      </trkpt>
      <trkpt lat="42.80864" lon="1.02645">
        <ele>1644.95</ele>
        <time>2019-03-31T12:01:25Z</time>
      </trkpt>
      <trkpt lat="42.80881" lon="1.02652">
        <ele>1639.67</ele>
        <time>2019-03-31T12:01:28Z</time>
      </trkpt>
      <trkpt lat="42.80886" lon="1.02654">
        <ele>1638.22</ele>
        <time>2019-03-31T12:01:29Z</time>
      </trkpt>
      <trkpt lat="42.80908" lon="1.02667">
        <ele>1635.82</ele>
        <time>2019-03-31T12:01:35Z</time>
      </trkpt>
      <trkpt lat="42.80926" lon="1.02689">
        <ele>1635.34</ele>
        <time>2019-03-31T12:01:45Z</time>
      </trkpt>
      <trkpt lat="42.80937" lon="1.02704">
        <ele>1631.98</ele>
        <time>2019-03-31T12:01:50Z</time>
      </trkpt>
      <trkpt lat="42.80947" lon="1.02714">
        <ele>1628.61</ele>
        <time>2019-03-31T12:01:54Z</time>
      </trkpt>
      <trkpt lat="42.80949" lon="1.02716">
        <ele>1628.13</ele>
        <time>2019-03-31T12:01:55Z</time>
      </trkpt>
      <trkpt lat="42.80956" lon="1.02721">
        <ele>1625.25</ele>
        <time>2019-03-31T12:02:00Z</time>
      </trkpt>
      <trkpt lat="42.80957" lon="1.02722">
        <ele>1625.25</ele>
        <time>2019-03-31T12:02:01Z</time>
      </trkpt>
      <trkpt lat="42.80965" lon="1.02727">
        <ele>1621.88</ele>
        <time>2019-03-31T12:02:04Z</time>
      </trkpt>
      <trkpt lat="42.80969" lon="1.02731">
        <ele>1621.88</ele>
        <time>2019-03-31T12:02:05Z</time>
      </trkpt>
      <trkpt lat="42.80976" lon="1.02737">
        <ele>1619.48</ele>
        <time>2019-03-31T12:02:07Z</time>
      </trkpt>
      <trkpt lat="42.80984" lon="1.02743">
        <ele>1618.04</ele>
        <time>2019-03-31T12:02:09Z</time>
      </trkpt>
      <trkpt lat="42.80988" lon="1.02748">
        <ele>1617.56</ele>
        <time>2019-03-31T12:02:10Z</time>
      </trkpt>
      <trkpt lat="42.81005" lon="1.02774">
        <ele>1616.11</ele>
        <time>2019-03-31T12:02:17Z</time>
      </trkpt>
      <trkpt lat="42.81018" lon="1.02786">
        <ele>1612.27</ele>
        <time>2019-03-31T12:02:22Z</time>
      </trkpt>
      <trkpt lat="42.81032" lon="1.02796">
        <ele>1607.94</ele>
        <time>2019-03-31T12:02:26Z</time>
      </trkpt>
      <trkpt lat="42.81036" lon="1.02801">
        <ele>1606.02</ele>
        <time>2019-03-31T12:02:27Z</time>
      </trkpt>
      <trkpt lat="42.81039" lon="1.02805">
        <ele>1605.54</ele>
        <time>2019-03-31T12:02:29Z</time>
      </trkpt>
      <trkpt lat="42.8104" lon="1.02807">
        <ele>1604.58</ele>
        <time>2019-03-31T12:02:33Z</time>
      </trkpt>
      <trkpt lat="42.81044" lon="1.02802">
        <ele>1602.66</ele>
        <time>2019-03-31T12:02:37Z</time>
      </trkpt>
      <trkpt lat="42.81047" lon="1.028">
        <ele>1600.73</ele>
        <time>2019-03-31T12:02:39Z</time>
      </trkpt>
      <trkpt lat="42.81048" lon="1.02793">
        <ele>1597.37</ele>
        <time>2019-03-31T12:02:41Z</time>
      </trkpt>
      <trkpt lat="42.81049" lon="1.02782">
        <ele>1592.56</ele>
        <time>2019-03-31T12:02:45Z</time>
      </trkpt>
      <trkpt lat="42.81052" lon="1.0278">
        <ele>1592.56</ele>
        <time>2019-03-31T12:02:46Z</time>
      </trkpt>
      <trkpt lat="42.81061" lon="1.02776">
        <ele>1587.75</ele>
        <time>2019-03-31T12:02:49Z</time>
      </trkpt>
      <trkpt lat="42.8107" lon="1.02795">
        <ele>1585.35</ele>
        <time>2019-03-31T12:02:53Z</time>
      </trkpt>
      <trkpt lat="42.81077" lon="1.0281">
        <ele>1584.39</ele>
        <time>2019-03-31T12:02:56Z</time>
      </trkpt>
      <trkpt lat="42.81085" lon="1.02826">
        <ele>1581.03</ele>
        <time>2019-03-31T12:03:00Z</time>
      </trkpt>
      <trkpt lat="42.81088" lon="1.02837">
        <ele>1581.03</ele>
        <time>2019-03-31T12:03:02Z</time>
      </trkpt>
      <trkpt lat="42.81101" lon="1.02854">
        <ele>1577.18</ele>
        <time>2019-03-31T12:03:05Z</time>
      </trkpt>
      <trkpt lat="42.81113" lon="1.02876">
        <ele>1574.78</ele>
        <time>2019-03-31T12:03:10Z</time>
      </trkpt>
      <trkpt lat="42.81116" lon="1.0288">
        <ele>1572.85</ele>
        <time>2019-03-31T12:03:17Z</time>
      </trkpt>
      <trkpt lat="42.81118" lon="1.0287">
        <ele>1571.89</ele>
        <time>2019-03-31T12:03:21Z</time>
      </trkpt>
      <trkpt lat="42.81127" lon="1.02866">
        <ele>1567.57</ele>
        <time>2019-03-31T12:03:26Z</time>
      </trkpt>
      <trkpt lat="42.8113" lon="1.02871">
        <ele>1566.12</ele>
        <time>2019-03-31T12:03:28Z</time>
      </trkpt>
      <trkpt lat="42.81133" lon="1.02875">
        <ele>1566.12</ele>
        <time>2019-03-31T12:03:30Z</time>
      </trkpt>
      <trkpt lat="42.81137" lon="1.02887">
        <ele>1563.72</ele>
        <time>2019-03-31T12:03:32Z</time>
      </trkpt>
      <trkpt lat="42.81145" lon="1.02915">
        <ele>1560.84</ele>
        <time>2019-03-31T12:03:36Z</time>
      </trkpt>
      <trkpt lat="42.81148" lon="1.02924">
        <ele>1559.88</ele>
        <time>2019-03-31T12:03:38Z</time>
      </trkpt>
      <trkpt lat="42.81165" lon="1.02943">
        <ele>1555.07</ele>
        <time>2019-03-31T12:03:44Z</time>
      </trkpt>
      <trkpt lat="42.81182" lon="1.02969">
        <ele>1550.74</ele>
        <time>2019-03-31T12:03:49Z</time>
      </trkpt>
      <trkpt lat="42.81193" lon="1.02984">
        <ele>1549.3</ele>
        <time>2019-03-31T12:03:52Z</time>
      </trkpt>
      <trkpt lat="42.81205" lon="1.0299">
        <ele>1545.94</ele>
        <time>2019-03-31T12:03:55Z</time>
      </trkpt>
      <trkpt lat="42.81206" lon="1.02991">
        <ele>1545.94</ele>
        <time>2019-03-31T12:03:56Z</time>
      </trkpt>
      <trkpt lat="42.81209" lon="1.02992">
        <ele>1545.94</ele>
        <time>2019-03-31T12:04:02Z</time>
      </trkpt>
      <trkpt lat="42.81213" lon="1.02989">
        <ele>1544.01</ele>
        <time>2019-03-31T12:04:06Z</time>
      </trkpt>
      <trkpt lat="42.81212" lon="1.02989">
        <ele>1544.01</ele>
        <time>2019-03-31T12:04:08Z</time>
      </trkpt>
      <trkpt lat="42.81215" lon="1.0299">
        <ele>1543.05</ele>
        <time>2019-03-31T12:04:12Z</time>
      </trkpt>
      <trkpt lat="42.81219" lon="1.02989">
        <ele>1541.13</ele>
        <time>2019-03-31T12:04:19Z</time>
      </trkpt>
      <trkpt lat="42.81224" lon="1.03">
        <ele>1540.17</ele>
        <time>2019-03-31T12:04:24Z</time>
      </trkpt>
      <trkpt lat="42.81242" lon="1.03008">
        <ele>1538.73</ele>
        <time>2019-03-31T12:04:31Z</time>
      </trkpt>
      <trkpt lat="42.81253" lon="1.03014">
        <ele>1536.8</ele>
        <time>2019-03-31T12:04:34Z</time>
      </trkpt>
      <trkpt lat="42.81261" lon="1.03007">
        <ele>1532.96</ele>
        <time>2019-03-31T12:04:38Z</time>
      </trkpt>
      <trkpt lat="42.81264" lon="1.03006">
        <ele>1532.48</ele>
        <time>2019-03-31T12:04:42Z</time>
      </trkpt>
      <trkpt lat="42.8127" lon="1.03004">
        <ele>1529.59</ele>
        <time>2019-03-31T12:04:45Z</time>
      </trkpt>
      <trkpt lat="42.8127" lon="1.03004">
        <ele>1530.08</ele>
        <time>2019-03-31T12:04:46Z</time>
      </trkpt>
      <trkpt lat="42.81274" lon="1.03">
        <ele>1528.63</ele>
        <time>2019-03-31T12:04:49Z</time>
      </trkpt>
      <trkpt lat="42.8129" lon="1.03006">
        <ele>1524.79</ele>
        <time>2019-03-31T12:04:53Z</time>
      </trkpt>
      <trkpt lat="42.81296" lon="1.03011">
        <ele>1522.87</ele>
        <time>2019-03-31T12:04:59Z</time>
      </trkpt>
      <trkpt lat="42.81296" lon="1.0301">
        <ele>1522.87</ele>
        <time>2019-03-31T12:05:01Z</time>
      </trkpt>
      <trkpt lat="42.81299" lon="1.0301">
        <ele>1521.42</ele>
        <time>2019-03-31T12:05:04Z</time>
      </trkpt>
      <trkpt lat="42.81299" lon="1.03014">
        <ele>1521.42</ele>
        <time>2019-03-31T12:05:20Z</time>
      </trkpt>
      <trkpt lat="42.81299" lon="1.03014">
        <ele>1521.42</ele>
        <time>2019-03-31T12:05:35Z</time>
      </trkpt>
      <trkpt lat="42.81297" lon="1.03014">
        <ele>1521.42</ele>
        <time>2019-03-31T12:05:56Z</time>
      </trkpt>
      <trkpt lat="42.81297" lon="1.03013">
        <ele>1521.42</ele>
        <time>2019-03-31T12:06:06Z</time>
      </trkpt>
      <trkpt lat="42.81299" lon="1.03016">
        <ele>1520.94</ele>
        <time>2019-03-31T12:06:12Z</time>
      </trkpt>
      <trkpt lat="42.81297" lon="1.03018">
        <ele>1521.9</ele>
        <time>2019-03-31T12:06:26Z</time>
      </trkpt>
      <trkpt lat="42.81298" lon="1.03018">
        <ele>1520.46</ele>
        <time>2019-03-31T12:06:41Z</time>
      </trkpt>
      <trkpt lat="42.81297" lon="1.0302">
        <ele>1520.46</ele>
        <time>2019-03-31T12:07:05Z</time>
      </trkpt>
      <trkpt lat="42.81292" lon="1.03027">
        <ele>1519.98</ele>
        <time>2019-03-31T12:07:35Z</time>
      </trkpt>
      <trkpt lat="42.81291" lon="1.03026">
        <ele>1519.98</ele>
        <time>2019-03-31T12:08:07Z</time>
      </trkpt>
      <trkpt lat="42.8129" lon="1.03028">
        <ele>1519.5</ele>
        <time>2019-03-31T12:08:41Z</time>
      </trkpt>
      <trkpt lat="42.81291" lon="1.03027">
        <ele>1519.02</ele>
        <time>2019-03-31T12:09:13Z</time>
      </trkpt>
      <trkpt lat="42.81294" lon="1.03023">
        <ele>1519.02</ele>
        <time>2019-03-31T12:09:36Z</time>
      </trkpt>
      <trkpt lat="42.81293" lon="1.03026">
        <ele>1518.54</ele>
        <time>2019-03-31T12:10:07Z</time>
      </trkpt>
      <trkpt lat="42.81288" lon="1.03027">
        <ele>1513.73</ele>
        <time>2019-03-31T12:10:28Z</time>
      </trkpt>
      <trkpt lat="42.81288" lon="1.03027">
        <ele>1519.02</ele>
        <time>2019-03-31T12:10:29Z</time>
      </trkpt>
      <trkpt lat="42.81288" lon="1.03027">
        <ele>1519.02</ele>
        <time>2019-03-31T12:10:30Z</time>
      </trkpt>
      <trkpt lat="42.81294" lon="1.03022">
        <ele>1518.06</ele>
        <time>2019-03-31T12:10:52Z</time>
      </trkpt>
      <trkpt lat="42.81298" lon="1.03019">
        <ele>1518.54</ele>
        <time>2019-03-31T12:11:06Z</time>
      </trkpt>
      <trkpt lat="42.81292" lon="1.03022">
        <ele>1518.54</ele>
        <time>2019-03-31T12:11:30Z</time>
      </trkpt>
      <trkpt lat="42.81294" lon="1.0302">
        <ele>1515.66</ele>
        <time>2019-03-31T12:11:40Z</time>
      </trkpt>
      <trkpt lat="42.81294" lon="1.0302">
        <ele>1519.5</ele>
        <time>2019-03-31T12:11:41Z</time>
      </trkpt>
      <trkpt lat="42.81294" lon="1.0302">
        <ele>1517.1</ele>
        <time>2019-03-31T12:11:42Z</time>
      </trkpt>
      <trkpt lat="42.81294" lon="1.03021">
        <ele>1519.5</ele>
        <time>2019-03-31T12:11:52Z</time>
      </trkpt>
      <trkpt lat="42.81295" lon="1.03021">
        <ele>1517.58</ele>
        <time>2019-03-31T12:11:54Z</time>
      </trkpt>
      <trkpt lat="42.81296" lon="1.03019">
        <ele>1518.54</ele>
        <time>2019-03-31T12:11:58Z</time>
      </trkpt>
      <trkpt lat="42.81297" lon="1.0302">
        <ele>1517.58</ele>
        <time>2019-03-31T12:12:25Z</time>
      </trkpt>
      <trkpt lat="42.81301" lon="1.03021">
        <ele>1517.1</ele>
        <time>2019-03-31T12:12:54Z</time>
      </trkpt>
      <trkpt lat="42.8131" lon="1.03021">
        <ele>1516.62</ele>
        <time>2019-03-31T12:13:22Z</time>
      </trkpt>
      <trkpt lat="42.81302" lon="1.03024">
        <ele>1517.58</ele>
        <time>2019-03-31T12:13:48Z</time>
      </trkpt>
      <trkpt lat="42.81303" lon="1.03025">
        <ele>1515.18</ele>
        <time>2019-03-31T12:13:52Z</time>
      </trkpt>
      <trkpt lat="42.81301" lon="1.03023">
        <ele>1517.58</ele>
        <time>2019-03-31T12:14:05Z</time>
      </trkpt>
      <trkpt lat="42.813" lon="1.03025">
        <ele>1515.66</ele>
        <time>2019-03-31T12:14:23Z</time>
      </trkpt>
      <trkpt lat="42.81299" lon="1.03025">
        <ele>1517.1</ele>
        <time>2019-03-31T12:14:25Z</time>
      </trkpt>
      <trkpt lat="42.81292" lon="1.03024">
        <ele>1517.1</ele>
        <time>2019-03-31T12:14:51Z</time>
      </trkpt>
      <trkpt lat="42.81292" lon="1.03024">
        <ele>1518.54</ele>
        <time>2019-03-31T12:15:13Z</time>
      </trkpt>
      <trkpt lat="42.81293" lon="1.03019">
        <ele>1516.62</ele>
        <time>2019-03-31T12:15:27Z</time>
      </trkpt>
      <trkpt lat="42.81293" lon="1.03019">
        <ele>1516.62</ele>
        <time>2019-03-31T12:15:28Z</time>
      </trkpt>
      <trkpt lat="42.81296" lon="1.03019">
        <ele>1516.62</ele>
        <time>2019-03-31T12:15:44Z</time>
      </trkpt>
      <trkpt lat="42.81297" lon="1.03016">
        <ele>1516.62</ele>
        <time>2019-03-31T12:16:04Z</time>
      </trkpt>
      <trkpt lat="42.813" lon="1.03013">
        <ele>1516.62</ele>
        <time>2019-03-31T12:16:17Z</time>
      </trkpt>
      <trkpt lat="42.81304" lon="1.03012">
        <ele>1514.21</ele>
        <time>2019-03-31T12:16:26Z</time>
      </trkpt>
      <trkpt lat="42.8131" lon="1.03004">
        <ele>1511.33</ele>
        <time>2019-03-31T12:16:35Z</time>
      </trkpt>
      <trkpt lat="42.81313" lon="1.03005">
        <ele>1511.33</ele>
        <time>2019-03-31T12:16:44Z</time>
      </trkpt>
      <trkpt lat="42.81313" lon="1.03011">
        <ele>1509.89</ele>
        <time>2019-03-31T12:16:48Z</time>
      </trkpt>
      <trkpt lat="42.81317" lon="1.03016">
        <ele>1508.93</ele>
        <time>2019-03-31T12:16:56Z</time>
      </trkpt>
      <trkpt lat="42.81318" lon="1.03016">
        <ele>1509.41</ele>
        <time>2019-03-31T12:16:57Z</time>
      </trkpt>
      <trkpt lat="42.81322" lon="1.03016">
        <ele>1507</ele>
        <time>2019-03-31T12:17:01Z</time>
      </trkpt>
      <trkpt lat="42.81323" lon="1.03019">
        <ele>1506.04</ele>
        <time>2019-03-31T12:17:08Z</time>
      </trkpt>
      <trkpt lat="42.81327" lon="1.03024">
        <ele>1505.08</ele>
        <time>2019-03-31T12:17:22Z</time>
      </trkpt>
      <trkpt lat="42.81331" lon="1.0302">
        <ele>1504.12</ele>
        <time>2019-03-31T12:17:33Z</time>
      </trkpt>
      <trkpt lat="42.81333" lon="1.03017">
        <ele>1504.12</ele>
        <time>2019-03-31T12:17:43Z</time>
      </trkpt>
      <trkpt lat="42.81335" lon="1.03015">
        <ele>1505.08</ele>
        <time>2019-03-31T12:17:45Z</time>
      </trkpt>
      <trkpt lat="42.81338" lon="1.03019">
        <ele>1506.52</ele>
        <time>2019-03-31T12:17:49Z</time>
      </trkpt>
      <trkpt lat="42.81342" lon="1.03029">
        <ele>1504.12</ele>
        <time>2019-03-31T12:17:57Z</time>
      </trkpt>
      <trkpt lat="42.81343" lon="1.03031">
        <ele>1504.12</ele>
        <time>2019-03-31T12:18:00Z</time>
      </trkpt>
      <trkpt lat="42.81344" lon="1.03032">
        <ele>1504.12</ele>
        <time>2019-03-31T12:18:02Z</time>
      </trkpt>
      <trkpt lat="42.81349" lon="1.03035">
        <ele>1503.64</ele>
        <time>2019-03-31T12:18:06Z</time>
      </trkpt>
      <trkpt lat="42.81351" lon="1.03037">
        <ele>1502.68</ele>
        <time>2019-03-31T12:18:08Z</time>
      </trkpt>
      <trkpt lat="42.81355" lon="1.03043">
        <ele>1502.2</ele>
        <time>2019-03-31T12:18:12Z</time>
      </trkpt>
      <trkpt lat="42.81356" lon="1.03045">
        <ele>1502.2</ele>
        <time>2019-03-31T12:18:14Z</time>
      </trkpt>
      <trkpt lat="42.8136" lon="1.03046">
        <ele>1501.72</ele>
        <time>2019-03-31T12:18:18Z</time>
      </trkpt>
      <trkpt lat="42.81362" lon="1.03052">
        <ele>1501.24</ele>
        <time>2019-03-31T12:18:25Z</time>
      </trkpt>
      <trkpt lat="42.81364" lon="1.03053">
        <ele>1500.76</ele>
        <time>2019-03-31T12:18:28Z</time>
      </trkpt>
      <trkpt lat="42.81365" lon="1.03058">
        <ele>1500.27</ele>
        <time>2019-03-31T12:18:32Z</time>
      </trkpt>
      <trkpt lat="42.81372" lon="1.03063">
        <ele>1498.83</ele>
        <time>2019-03-31T12:18:41Z</time>
      </trkpt>
      <trkpt lat="42.81374" lon="1.03064">
        <ele>1500.27</ele>
        <time>2019-03-31T12:18:44Z</time>
      </trkpt>
      <trkpt lat="42.81379" lon="1.03069">
        <ele>1499.31</ele>
        <time>2019-03-31T12:18:50Z</time>
      </trkpt>
      <trkpt lat="42.81387" lon="1.03087">
        <ele>1499.79</ele>
        <time>2019-03-31T12:19:03Z</time>
      </trkpt>
      <trkpt lat="42.8139" lon="1.0309">
        <ele>1498.35</ele>
        <time>2019-03-31T12:19:06Z</time>
      </trkpt>
      <trkpt lat="42.8141" lon="1.03091">
        <ele>1496.43</ele>
        <time>2019-03-31T12:19:21Z</time>
      </trkpt>
      <trkpt lat="42.81418" lon="1.03093">
        <ele>1494.51</ele>
        <time>2019-03-31T12:19:29Z</time>
      </trkpt>
      <trkpt lat="42.81425" lon="1.03096">
        <ele>1493.55</ele>
        <time>2019-03-31T12:19:36Z</time>
      </trkpt>
      <trkpt lat="42.81426" lon="1.03095">
        <ele>1494.99</ele>
        <time>2019-03-31T12:19:38Z</time>
      </trkpt>
      <trkpt lat="42.81429" lon="1.03096">
        <ele>1494.99</ele>
        <time>2019-03-31T12:19:42Z</time>
      </trkpt>
      <trkpt lat="42.81437" lon="1.03098">
        <ele>1496.43</ele>
        <time>2019-03-31T12:19:54Z</time>
      </trkpt>
      <trkpt lat="42.81438" lon="1.03098">
        <ele>1496.43</ele>
        <time>2019-03-31T12:19:55Z</time>
      </trkpt>
      <trkpt lat="42.81444" lon="1.03098">
        <ele>1496.43</ele>
        <time>2019-03-31T12:20:02Z</time>
      </trkpt>
      <trkpt lat="42.81445" lon="1.031">
        <ele>1495.47</ele>
        <time>2019-03-31T12:20:05Z</time>
      </trkpt>
      <trkpt lat="42.81447" lon="1.03103">
        <ele>1495.47</ele>
        <time>2019-03-31T12:20:08Z</time>
      </trkpt>
      <trkpt lat="42.81448" lon="1.03115">
        <ele>1492.1</ele>
        <time>2019-03-31T12:20:17Z</time>
      </trkpt>
      <trkpt lat="42.81448" lon="1.03116">
        <ele>1492.1</ele>
        <time>2019-03-31T12:20:18Z</time>
      </trkpt>
      <trkpt lat="42.81453" lon="1.03121">
        <ele>1492.1</ele>
        <time>2019-03-31T12:20:22Z</time>
      </trkpt>
      <trkpt lat="42.81456" lon="1.03127">
        <ele>1491.14</ele>
        <time>2019-03-31T12:20:27Z</time>
      </trkpt>
      <trkpt lat="42.8146" lon="1.03129">
        <ele>1492.58</ele>
        <time>2019-03-31T12:20:30Z</time>
      </trkpt>
      <trkpt lat="42.81464" lon="1.03129">
        <ele>1491.14</ele>
        <time>2019-03-31T12:20:33Z</time>
      </trkpt>
      <trkpt lat="42.81474" lon="1.03129">
        <ele>1490.66</ele>
        <time>2019-03-31T12:20:44Z</time>
      </trkpt>
      <trkpt lat="42.81478" lon="1.03129">
        <ele>1490.66</ele>
        <time>2019-03-31T12:20:48Z</time>
      </trkpt>
      <trkpt lat="42.81487" lon="1.03136">
        <ele>1487.78</ele>
        <time>2019-03-31T12:21:01Z</time>
      </trkpt>
      <trkpt lat="42.81491" lon="1.03142">
        <ele>1485.85</ele>
        <time>2019-03-31T12:21:14Z</time>
      </trkpt>
      <trkpt lat="42.81491" lon="1.03149">
        <ele>1482.49</ele>
        <time>2019-03-31T12:21:25Z</time>
      </trkpt>
      <trkpt lat="42.81493" lon="1.03156">
        <ele>1479.13</ele>
        <time>2019-03-31T12:21:36Z</time>
      </trkpt>
      <trkpt lat="42.81495" lon="1.03162">
        <ele>1476.72</ele>
        <time>2019-03-31T12:21:47Z</time>
      </trkpt>
      <trkpt lat="42.81496" lon="1.03164">
        <ele>1474.8</ele>
        <time>2019-03-31T12:21:50Z</time>
      </trkpt>
      <trkpt lat="42.81501" lon="1.03171">
        <ele>1471.92</ele>
        <time>2019-03-31T12:22:01Z</time>
      </trkpt>
      <trkpt lat="42.81499" lon="1.03174">
        <ele>1469.99</ele>
        <time>2019-03-31T12:22:05Z</time>
      </trkpt>
      <trkpt lat="42.81495" lon="1.03177">
        <ele>1467.59</ele>
        <time>2019-03-31T12:22:13Z</time>
      </trkpt>
      <trkpt lat="42.81497" lon="1.03182">
        <ele>1465.19</ele>
        <time>2019-03-31T12:22:19Z</time>
      </trkpt>
      <trkpt lat="42.81504" lon="1.03193">
        <ele>1461.34</ele>
        <time>2019-03-31T12:22:32Z</time>
      </trkpt>
      <trkpt lat="42.81503" lon="1.03195">
        <ele>1459.42</ele>
        <time>2019-03-31T12:22:36Z</time>
      </trkpt>
      <trkpt lat="42.81501" lon="1.032">
        <ele>1457.5</ele>
        <time>2019-03-31T12:22:41Z</time>
      </trkpt>
      <trkpt lat="42.81499" lon="1.03204">
        <ele>1455.57</ele>
        <time>2019-03-31T12:22:44Z</time>
      </trkpt>
      <trkpt lat="42.81501" lon="1.03207">
        <ele>1454.13</ele>
        <time>2019-03-31T12:22:49Z</time>
      </trkpt>
      <trkpt lat="42.81505" lon="1.03216">
        <ele>1451.25</ele>
        <time>2019-03-31T12:23:00Z</time>
      </trkpt>
      <trkpt lat="42.81505" lon="1.03217">
        <ele>1449.81</ele>
        <time>2019-03-31T12:23:02Z</time>
      </trkpt>
      <trkpt lat="42.81506" lon="1.03224">
        <ele>1447.4</ele>
        <time>2019-03-31T12:23:11Z</time>
      </trkpt>
      <trkpt lat="42.81506" lon="1.03229">
        <ele>1445</ele>
        <time>2019-03-31T12:23:16Z</time>
      </trkpt>
      <trkpt lat="42.81511" lon="1.0324">
        <ele>1441.63</ele>
        <time>2019-03-31T12:23:28Z</time>
      </trkpt>
      <trkpt lat="42.81515" lon="1.03247">
        <ele>1438.75</ele>
        <time>2019-03-31T12:23:37Z</time>
      </trkpt>
      <trkpt lat="42.81515" lon="1.03252">
        <ele>1436.35</ele>
        <time>2019-03-31T12:23:44Z</time>
      </trkpt>
      <trkpt lat="42.81525" lon="1.03259">
        <ele>1432.5</ele>
        <time>2019-03-31T12:23:55Z</time>
      </trkpt>
      <trkpt lat="42.81526" lon="1.03259">
        <ele>1432.5</ele>
        <time>2019-03-31T12:23:56Z</time>
      </trkpt>
      <trkpt lat="42.81533" lon="1.03269">
        <ele>1428.66</ele>
        <time>2019-03-31T12:24:06Z</time>
      </trkpt>
      <trkpt lat="42.81533" lon="1.0327">
        <ele>1428.66</ele>
        <time>2019-03-31T12:24:07Z</time>
      </trkpt>
      <trkpt lat="42.81538" lon="1.0328">
        <ele>1426.73</ele>
        <time>2019-03-31T12:24:15Z</time>
      </trkpt>
      <trkpt lat="42.81545" lon="1.03291">
        <ele>1424.81</ele>
        <time>2019-03-31T12:24:26Z</time>
      </trkpt>
      <trkpt lat="42.81547" lon="1.03292">
        <ele>1426.25</ele>
        <time>2019-03-31T12:24:28Z</time>
      </trkpt>
      <trkpt lat="42.81556" lon="1.03302">
        <ele>1424.81</ele>
        <time>2019-03-31T12:24:39Z</time>
      </trkpt>
      <trkpt lat="42.8156" lon="1.03315">
        <ele>1421.93</ele>
        <time>2019-03-31T12:24:48Z</time>
      </trkpt>
      <trkpt lat="42.81567" lon="1.03324">
        <ele>1419.04</ele>
        <time>2019-03-31T12:24:58Z</time>
      </trkpt>
      <trkpt lat="42.81567" lon="1.03326">
        <ele>1417.12</ele>
        <time>2019-03-31T12:25:01Z</time>
      </trkpt>
      <trkpt lat="42.81565" lon="1.0333">
        <ele>1413.28</ele>
        <time>2019-03-31T12:25:13Z</time>
      </trkpt>
      <trkpt lat="42.81563" lon="1.03337">
        <ele>1409.91</ele>
        <time>2019-03-31T12:25:24Z</time>
      </trkpt>
      <trkpt lat="42.81563" lon="1.03342">
        <ele>1407.51</ele>
        <time>2019-03-31T12:25:35Z</time>
      </trkpt>
      <trkpt lat="42.81569" lon="1.03345">
        <ele>1406.55</ele>
        <time>2019-03-31T12:25:51Z</time>
      </trkpt>
      <trkpt lat="42.8157" lon="1.03345">
        <ele>1406.07</ele>
        <time>2019-03-31T12:25:58Z</time>
      </trkpt>
      <trkpt lat="42.8157" lon="1.03345">
        <ele>1404.62</ele>
        <time>2019-03-31T12:26:01Z</time>
      </trkpt>
      <trkpt lat="42.8157" lon="1.03346">
        <ele>1408.95</ele>
        <time>2019-03-31T12:26:06Z</time>
      </trkpt>
      <trkpt lat="42.81569" lon="1.03347">
        <ele>1406.55</ele>
        <time>2019-03-31T12:26:09Z</time>
      </trkpt>
      <trkpt lat="42.8157" lon="1.03345">
        <ele>1406.55</ele>
        <time>2019-03-31T12:26:37Z</time>
      </trkpt>
      <trkpt lat="42.81564" lon="1.03347">
        <ele>1406.55</ele>
        <time>2019-03-31T12:27:12Z</time>
      </trkpt>
      <trkpt lat="42.81565" lon="1.03347">
        <ele>1410.39</ele>
        <time>2019-03-31T12:27:22Z</time>
      </trkpt>
      <trkpt lat="42.81565" lon="1.03345">
        <ele>1406.07</ele>
        <time>2019-03-31T12:27:24Z</time>
      </trkpt>
      <trkpt lat="42.81564" lon="1.03345">
        <ele>1407.99</ele>
        <time>2019-03-31T12:27:25Z</time>
      </trkpt>
      <trkpt lat="42.81568" lon="1.03342">
        <ele>1407.51</ele>
        <time>2019-03-31T12:27:32Z</time>
      </trkpt>
      <trkpt lat="42.81568" lon="1.03342">
        <ele>1409.43</ele>
        <time>2019-03-31T12:27:36Z</time>
      </trkpt>
      <trkpt lat="42.81567" lon="1.03343">
        <ele>1407.99</ele>
        <time>2019-03-31T12:27:40Z</time>
      </trkpt>
      <trkpt lat="42.81569" lon="1.03343">
        <ele>1409.43</ele>
        <time>2019-03-31T12:27:47Z</time>
      </trkpt>
      <trkpt lat="42.81568" lon="1.03345">
        <ele>1407.99</ele>
        <time>2019-03-31T12:27:51Z</time>
      </trkpt>
      <trkpt lat="42.81568" lon="1.03347">
        <ele>1408.95</ele>
        <time>2019-03-31T12:28:00Z</time>
      </trkpt>
      <trkpt lat="42.8157" lon="1.0335">
        <ele>1406.55</ele>
        <time>2019-03-31T12:28:25Z</time>
      </trkpt>
      <trkpt lat="42.81577" lon="1.03355">
        <ele>1404.62</ele>
        <time>2019-03-31T12:28:36Z</time>
      </trkpt>
      <trkpt lat="42.81591" lon="1.03356">
        <ele>1404.62</ele>
        <time>2019-03-31T12:28:49Z</time>
      </trkpt>
      <trkpt lat="42.81598" lon="1.03356">
        <ele>1404.14</ele>
        <time>2019-03-31T12:28:57Z</time>
      </trkpt>
      <trkpt lat="42.81603" lon="1.03355">
        <ele>1404.14</ele>
        <time>2019-03-31T12:29:02Z</time>
      </trkpt>
      <trkpt lat="42.81609" lon="1.03355">
        <ele>1404.14</ele>
        <time>2019-03-31T12:29:06Z</time>
      </trkpt>
      <trkpt lat="42.81625" lon="1.03348">
        <ele>1403.18</ele>
        <time>2019-03-31T12:29:16Z</time>
      </trkpt>
      <trkpt lat="42.81626" lon="1.03348">
        <ele>1403.18</ele>
        <time>2019-03-31T12:29:17Z</time>
      </trkpt>
      <trkpt lat="42.81638" lon="1.03337">
        <ele>1401.74</ele>
        <time>2019-03-31T12:29:29Z</time>
      </trkpt>
      <trkpt lat="42.8164" lon="1.03336">
        <ele>1401.26</ele>
        <time>2019-03-31T12:29:34Z</time>
      </trkpt>
      <trkpt lat="42.81643" lon="1.03335">
        <ele>1398.37</ele>
        <time>2019-03-31T12:29:39Z</time>
      </trkpt>
      <trkpt lat="42.81653" lon="1.03339">
        <ele>1396.93</ele>
        <time>2019-03-31T12:29:51Z</time>
      </trkpt>
      <trkpt lat="42.81655" lon="1.0334">
        <ele>1395.49</ele>
        <time>2019-03-31T12:29:53Z</time>
      </trkpt>
      <trkpt lat="42.81657" lon="1.03342">
        <ele>1394.05</ele>
        <time>2019-03-31T12:29:57Z</time>
      </trkpt>
      <trkpt lat="42.8166" lon="1.03347">
        <ele>1392.13</ele>
        <time>2019-03-31T12:30:04Z</time>
      </trkpt>
      <trkpt lat="42.81667" lon="1.03351">
        <ele>1389.72</ele>
        <time>2019-03-31T12:30:09Z</time>
      </trkpt>
      <trkpt lat="42.81672" lon="1.03352">
        <ele>1387.32</ele>
        <time>2019-03-31T12:30:15Z</time>
      </trkpt>
      <trkpt lat="42.81676" lon="1.03353">
        <ele>1384.92</ele>
        <time>2019-03-31T12:30:21Z</time>
      </trkpt>
      <trkpt lat="42.81686" lon="1.03355">
        <ele>1382.03</ele>
        <time>2019-03-31T12:30:32Z</time>
      </trkpt>
      <trkpt lat="42.81687" lon="1.03358">
        <ele>1381.07</ele>
        <time>2019-03-31T12:30:37Z</time>
      </trkpt>
      <trkpt lat="42.8169" lon="1.03363">
        <ele>1377.71</ele>
        <time>2019-03-31T12:30:44Z</time>
      </trkpt>
      <trkpt lat="42.8169" lon="1.03363">
        <ele>1377.71</ele>
        <time>2019-03-31T12:30:45Z</time>
      </trkpt>
      <trkpt lat="42.81695" lon="1.03369">
        <ele>1374.34</ele>
        <time>2019-03-31T12:30:58Z</time>
      </trkpt>
      <trkpt lat="42.81696" lon="1.0337">
        <ele>1374.34</ele>
        <time>2019-03-31T12:30:59Z</time>
      </trkpt>
      <trkpt lat="42.81696" lon="1.03373">
        <ele>1372.9</ele>
        <time>2019-03-31T12:31:03Z</time>
      </trkpt>
      <trkpt lat="42.81697" lon="1.03376">
        <ele>1370.5</ele>
        <time>2019-03-31T12:31:09Z</time>
      </trkpt>
      <trkpt lat="42.81706" lon="1.03388">
        <ele>1366.65</ele>
        <time>2019-03-31T12:31:19Z</time>
      </trkpt>
      <trkpt lat="42.81723" lon="1.03405">
        <ele>1363.77</ele>
        <time>2019-03-31T12:31:33Z</time>
      </trkpt>
      <trkpt lat="42.81729" lon="1.0341">
        <ele>1361.36</ele>
        <time>2019-03-31T12:31:40Z</time>
      </trkpt>
      <trkpt lat="42.81737" lon="1.03418">
        <ele>1359.44</ele>
        <time>2019-03-31T12:31:53Z</time>
      </trkpt>
      <trkpt lat="42.81743" lon="1.03422">
        <ele>1357.52</ele>
        <time>2019-03-31T12:31:59Z</time>
      </trkpt>
      <trkpt lat="42.81748" lon="1.0343">
        <ele>1354.63</ele>
        <time>2019-03-31T12:32:11Z</time>
      </trkpt>
      <trkpt lat="42.81752" lon="1.03437">
        <ele>1351.27</ele>
        <time>2019-03-31T12:32:20Z</time>
      </trkpt>
      <trkpt lat="42.81755" lon="1.03443">
        <ele>1350.31</ele>
        <time>2019-03-31T12:32:26Z</time>
      </trkpt>
      <trkpt lat="42.81759" lon="1.03449">
        <ele>1347.91</ele>
        <time>2019-03-31T12:32:32Z</time>
      </trkpt>
      <trkpt lat="42.81762" lon="1.03454">
        <ele>1346.46</ele>
        <time>2019-03-31T12:32:37Z</time>
      </trkpt>
      <trkpt lat="42.81769" lon="1.03463">
        <ele>1343.1</ele>
        <time>2019-03-31T12:32:44Z</time>
      </trkpt>
      <trkpt lat="42.81774" lon="1.03473">
        <ele>1339.25</ele>
        <time>2019-03-31T12:32:53Z</time>
      </trkpt>
      <trkpt lat="42.81778" lon="1.03481">
        <ele>1335.89</ele>
        <time>2019-03-31T12:33:01Z</time>
      </trkpt>
      <trkpt lat="42.8178" lon="1.03485">
        <ele>1335.89</ele>
        <time>2019-03-31T12:33:05Z</time>
      </trkpt>
      <trkpt lat="42.81781" lon="1.03486">
        <ele>1336.85</ele>
        <time>2019-03-31T12:33:06Z</time>
      </trkpt>
      <trkpt lat="42.81784" lon="1.03492">
        <ele>1333.97</ele>
        <time>2019-03-31T12:33:10Z</time>
      </trkpt>
      <trkpt lat="42.81788" lon="1.03499">
        <ele>1333.49</ele>
        <time>2019-03-31T12:33:13Z</time>
      </trkpt>
      <trkpt lat="42.81793" lon="1.03505">
        <ele>1331.56</ele>
        <time>2019-03-31T12:33:18Z</time>
      </trkpt>
      <trkpt lat="42.81795" lon="1.03507">
        <ele>1333.01</ele>
        <time>2019-03-31T12:33:20Z</time>
      </trkpt>
      <trkpt lat="42.81797" lon="1.03514">
        <ele>1330.12</ele>
        <time>2019-03-31T12:33:29Z</time>
      </trkpt>
      <trkpt lat="42.81796" lon="1.03513">
        <ele>1328.2</ele>
        <time>2019-03-31T12:33:32Z</time>
      </trkpt>
      <trkpt lat="42.81794" lon="1.03513">
        <ele>1326.76</ele>
        <time>2019-03-31T12:33:37Z</time>
      </trkpt>
      <trkpt lat="42.81795" lon="1.03511">
        <ele>1326.76</ele>
        <time>2019-03-31T12:33:50Z</time>
      </trkpt>
      <trkpt lat="42.81794" lon="1.03509">
        <ele>1325.31</ele>
        <time>2019-03-31T12:33:53Z</time>
      </trkpt>
      <trkpt lat="42.81788" lon="1.03508">
        <ele>1323.39</ele>
        <time>2019-03-31T12:33:59Z</time>
      </trkpt>
      <trkpt lat="42.81784" lon="1.03507">
        <ele>1322.91</ele>
        <time>2019-03-31T12:34:04Z</time>
      </trkpt>
      <trkpt lat="42.81778" lon="1.03507">
        <ele>1321.47</ele>
        <time>2019-03-31T12:34:08Z</time>
      </trkpt>
      <trkpt lat="42.81775" lon="1.03507">
        <ele>1320.51</ele>
        <time>2019-03-31T12:34:12Z</time>
      </trkpt>
      <trkpt lat="42.8177" lon="1.03516">
        <ele>1317.62</ele>
        <time>2019-03-31T12:34:20Z</time>
      </trkpt>
      <trkpt lat="42.81772" lon="1.03527">
        <ele>1314.26</ele>
        <time>2019-03-31T12:34:30Z</time>
      </trkpt>
      <trkpt lat="42.81773" lon="1.03528">
        <ele>1314.26</ele>
        <time>2019-03-31T12:34:31Z</time>
      </trkpt>
      <trkpt lat="42.81776" lon="1.03533">
        <ele>1312.82</ele>
        <time>2019-03-31T12:34:36Z</time>
      </trkpt>
      <trkpt lat="42.8178" lon="1.03547">
        <ele>1308.97</ele>
        <time>2019-03-31T12:34:46Z</time>
      </trkpt>
      <trkpt lat="42.81786" lon="1.03555">
        <ele>1306.09</ele>
        <time>2019-03-31T12:34:57Z</time>
      </trkpt>
      <trkpt lat="42.81787" lon="1.03562">
        <ele>1302.24</ele>
        <time>2019-03-31T12:35:05Z</time>
      </trkpt>
      <trkpt lat="42.81787" lon="1.03563">
        <ele>1302.24</ele>
        <time>2019-03-31T12:35:06Z</time>
      </trkpt>
      <trkpt lat="42.81788" lon="1.03571">
        <ele>1300.8</ele>
        <time>2019-03-31T12:35:23Z</time>
      </trkpt>
      <trkpt lat="42.81791" lon="1.03578">
        <ele>1298.88</ele>
        <time>2019-03-31T12:35:36Z</time>
      </trkpt>
      <trkpt lat="42.81797" lon="1.03583">
        <ele>1296.96</ele>
        <time>2019-03-31T12:35:40Z</time>
      </trkpt>
      <trkpt lat="42.818" lon="1.03592">
        <ele>1292.63</ele>
        <time>2019-03-31T12:35:52Z</time>
      </trkpt>
      <trkpt lat="42.818" lon="1.03591">
        <ele>1292.63</ele>
        <time>2019-03-31T12:35:53Z</time>
      </trkpt>
      <trkpt lat="42.81798" lon="1.0359">
        <ele>1289.75</ele>
        <time>2019-03-31T12:36:03Z</time>
      </trkpt>
      <trkpt lat="42.818" lon="1.0359">
        <ele>1288.3</ele>
        <time>2019-03-31T12:36:05Z</time>
      </trkpt>
      <trkpt lat="42.81803" lon="1.03598">
        <ele>1286.86</ele>
        <time>2019-03-31T12:36:11Z</time>
      </trkpt>
      <trkpt lat="42.818" lon="1.03601">
        <ele>1283.5</ele>
        <time>2019-03-31T12:36:18Z</time>
      </trkpt>
      <trkpt lat="42.81799" lon="1.03602">
        <ele>1283.5</ele>
        <time>2019-03-31T12:36:19Z</time>
      </trkpt>
      <trkpt lat="42.81799" lon="1.03603">
        <ele>1281.57</ele>
        <time>2019-03-31T12:36:25Z</time>
      </trkpt>
      <trkpt lat="42.81807" lon="1.03605">
        <ele>1278.21</ele>
        <time>2019-03-31T12:36:35Z</time>
      </trkpt>
      <trkpt lat="42.81811" lon="1.03606">
        <ele>1276.77</ele>
        <time>2019-03-31T12:36:40Z</time>
      </trkpt>
      <trkpt lat="42.81816" lon="1.03613">
        <ele>1272.92</ele>
        <time>2019-03-31T12:36:49Z</time>
      </trkpt>
      <trkpt lat="42.81816" lon="1.03613">
        <ele>1272.92</ele>
        <time>2019-03-31T12:36:50Z</time>
      </trkpt>
      <trkpt lat="42.81819" lon="1.03614">
        <ele>1269.08</ele>
        <time>2019-03-31T12:37:00Z</time>
      </trkpt>
      <trkpt lat="42.81823" lon="1.03613">
        <ele>1269.56</ele>
        <time>2019-03-31T12:37:05Z</time>
      </trkpt>
      <trkpt lat="42.81826" lon="1.03611">
        <ele>1270.04</ele>
        <time>2019-03-31T12:37:09Z</time>
      </trkpt>
      <trkpt lat="42.81829" lon="1.03612">
        <ele>1268.6</ele>
        <time>2019-03-31T12:37:11Z</time>
      </trkpt>
      <trkpt lat="42.81854" lon="1.0362">
        <ele>1268.12</ele>
        <time>2019-03-31T12:37:24Z</time>
      </trkpt>
      <trkpt lat="42.81861" lon="1.03626">
        <ele>1265.23</ele>
        <time>2019-03-31T12:37:31Z</time>
      </trkpt>
      <trkpt lat="42.81863" lon="1.03625">
        <ele>1261.87</ele>
        <time>2019-03-31T12:37:39Z</time>
      </trkpt>
      <trkpt lat="42.81864" lon="1.03625">
        <ele>1261.87</ele>
        <time>2019-03-31T12:37:40Z</time>
      </trkpt>
      <trkpt lat="42.81866" lon="1.0363">
        <ele>1258.98</ele>
        <time>2019-03-31T12:37:48Z</time>
      </trkpt>
      <trkpt lat="42.81871" lon="1.03634">
        <ele>1258.02</ele>
        <time>2019-03-31T12:37:54Z</time>
      </trkpt>
      <trkpt lat="42.81883" lon="1.03637">
        <ele>1254.66</ele>
        <time>2019-03-31T12:38:03Z</time>
      </trkpt>
      <trkpt lat="42.81889" lon="1.03639">
        <ele>1253.22</ele>
        <time>2019-03-31T12:38:06Z</time>
      </trkpt>
      <trkpt lat="42.81891" lon="1.03641">
        <ele>1252.25</ele>
        <time>2019-03-31T12:38:09Z</time>
      </trkpt>
      <trkpt lat="42.81886" lon="1.03642">
        <ele>1249.85</ele>
        <time>2019-03-31T12:38:15Z</time>
      </trkpt>
      <trkpt lat="42.81888" lon="1.03641">
        <ele>1248.89</ele>
        <time>2019-03-31T12:38:19Z</time>
      </trkpt>
      <trkpt lat="42.8189" lon="1.03644">
        <ele>1244.56</ele>
        <time>2019-03-31T12:38:28Z</time>
      </trkpt>
      <trkpt lat="42.8189" lon="1.03645">
        <ele>1244.56</ele>
        <time>2019-03-31T12:38:29Z</time>
      </trkpt>
      <trkpt lat="42.81884" lon="1.03645">
        <ele>1242.64</ele>
        <time>2019-03-31T12:38:35Z</time>
      </trkpt>
      <trkpt lat="42.8188" lon="1.03645">
        <ele>1241.2</ele>
        <time>2019-03-31T12:38:39Z</time>
      </trkpt>
      <trkpt lat="42.81873" lon="1.03649">
        <ele>1238.32</ele>
        <time>2019-03-31T12:38:50Z</time>
      </trkpt>
      <trkpt lat="42.81872" lon="1.0365">
        <ele>1237.35</ele>
        <time>2019-03-31T12:38:52Z</time>
      </trkpt>
      <trkpt lat="42.81868" lon="1.03652">
        <ele>1235.91</ele>
        <time>2019-03-31T12:38:56Z</time>
      </trkpt>
      <trkpt lat="42.81865" lon="1.03655">
        <ele>1234.47</ele>
        <time>2019-03-31T12:38:59Z</time>
      </trkpt>
      <trkpt lat="42.81862" lon="1.03657">
        <ele>1233.03</ele>
        <time>2019-03-31T12:39:03Z</time>
      </trkpt>
      <trkpt lat="42.81859" lon="1.03659">
        <ele>1232.07</ele>
        <time>2019-03-31T12:39:07Z</time>
      </trkpt>
      <trkpt lat="42.81852" lon="1.03665">
        <ele>1228.7</ele>
        <time>2019-03-31T12:39:17Z</time>
      </trkpt>
      <trkpt lat="42.81847" lon="1.03666">
        <ele>1226.3</ele>
        <time>2019-03-31T12:39:24Z</time>
      </trkpt>
      <trkpt lat="42.81843" lon="1.03667">
        <ele>1224.38</ele>
        <time>2019-03-31T12:39:29Z</time>
      </trkpt>
      <trkpt lat="42.81842" lon="1.03668">
        <ele>1221.01</ele>
        <time>2019-03-31T12:39:38Z</time>
      </trkpt>
      <trkpt lat="42.8184" lon="1.0367">
        <ele>1219.57</ele>
        <time>2019-03-31T12:39:46Z</time>
      </trkpt>
      <trkpt lat="42.81832" lon="1.03677">
        <ele>1217.17</ele>
        <time>2019-03-31T12:39:58Z</time>
      </trkpt>
      <trkpt lat="42.81831" lon="1.03678">
        <ele>1215.24</ele>
        <time>2019-03-31T12:40:00Z</time>
      </trkpt>
      <trkpt lat="42.81822" lon="1.03682">
        <ele>1211.88</ele>
        <time>2019-03-31T12:40:12Z</time>
      </trkpt>
      <trkpt lat="42.81821" lon="1.03681">
        <ele>1211.4</ele>
        <time>2019-03-31T12:40:14Z</time>
      </trkpt>
      <trkpt lat="42.81818" lon="1.03683">
        <ele>1209.96</ele>
        <time>2019-03-31T12:40:20Z</time>
      </trkpt>
      <trkpt lat="42.81823" lon="1.03686">
        <ele>1206.59</ele>
        <time>2019-03-31T12:40:30Z</time>
      </trkpt>
      <trkpt lat="42.81828" lon="1.03692">
        <ele>1204.67</ele>
        <time>2019-03-31T12:40:37Z</time>
      </trkpt>
      <trkpt lat="42.81833" lon="1.03696">
        <ele>1201.3</ele>
        <time>2019-03-31T12:40:47Z</time>
      </trkpt>
      <trkpt lat="42.81835" lon="1.03697">
        <ele>1200.34</ele>
        <time>2019-03-31T12:40:52Z</time>
      </trkpt>
      <trkpt lat="42.81842" lon="1.03699">
        <ele>1197.46</ele>
        <time>2019-03-31T12:41:01Z</time>
      </trkpt>
      <trkpt lat="42.81845" lon="1.03701">
        <ele>1196.02</ele>
        <time>2019-03-31T12:41:07Z</time>
      </trkpt>
      <trkpt lat="42.81846" lon="1.03708">
        <ele>1192.17</ele>
        <time>2019-03-31T12:41:16Z</time>
      </trkpt>
      <trkpt lat="42.81845" lon="1.03708">
        <ele>1192.17</ele>
        <time>2019-03-31T12:41:17Z</time>
      </trkpt>
      <trkpt lat="42.81848" lon="1.03717">
        <ele>1188.33</ele>
        <time>2019-03-31T12:41:26Z</time>
      </trkpt>
      <trkpt lat="42.81851" lon="1.0372">
        <ele>1186.4</ele>
        <time>2019-03-31T12:41:32Z</time>
      </trkpt>
      <trkpt lat="42.8186" lon="1.03728">
        <ele>1184</ele>
        <time>2019-03-31T12:41:41Z</time>
      </trkpt>
      <trkpt lat="42.81863" lon="1.03737">
        <ele>1181.12</ele>
        <time>2019-03-31T12:41:50Z</time>
      </trkpt>
      <trkpt lat="42.81862" lon="1.03737">
        <ele>1181.12</ele>
        <time>2019-03-31T12:41:51Z</time>
      </trkpt>
      <trkpt lat="42.81855" lon="1.03741">
        <ele>1177.27</ele>
        <time>2019-03-31T12:42:01Z</time>
      </trkpt>
      <trkpt lat="42.81854" lon="1.03741">
        <ele>1177.27</ele>
        <time>2019-03-31T12:42:02Z</time>
      </trkpt>
      <trkpt lat="42.81848" lon="1.03742">
        <ele>1175.35</ele>
        <time>2019-03-31T12:42:08Z</time>
      </trkpt>
      <trkpt lat="42.81847" lon="1.03747">
        <ele>1172.95</ele>
        <time>2019-03-31T12:42:14Z</time>
      </trkpt>
      <trkpt lat="42.81851" lon="1.03748">
        <ele>1169.58</ele>
        <time>2019-03-31T12:42:26Z</time>
      </trkpt>
      <trkpt lat="42.81852" lon="1.03749">
        <ele>1168.62</ele>
        <time>2019-03-31T12:42:28Z</time>
      </trkpt>
      <trkpt lat="42.81852" lon="1.03751">
        <ele>1168.62</ele>
        <time>2019-03-31T12:42:33Z</time>
      </trkpt>
      <trkpt lat="42.8185" lon="1.03753">
        <ele>1165.74</ele>
        <time>2019-03-31T12:42:36Z</time>
      </trkpt>
      <trkpt lat="42.81845" lon="1.03762">
        <ele>1162.85</ele>
        <time>2019-03-31T12:42:47Z</time>
      </trkpt>
      <trkpt lat="42.81845" lon="1.03764">
        <ele>1161.41</ele>
        <time>2019-03-31T12:42:49Z</time>
      </trkpt>
      <trkpt lat="42.81851" lon="1.03772">
        <ele>1158.53</ele>
        <time>2019-03-31T12:43:00Z</time>
      </trkpt>
      <trkpt lat="42.81852" lon="1.03772">
        <ele>1158.53</ele>
        <time>2019-03-31T12:43:01Z</time>
      </trkpt>
      <trkpt lat="42.81858" lon="1.03771">
        <ele>1156.12</ele>
        <time>2019-03-31T12:43:09Z</time>
      </trkpt>
      <trkpt lat="42.8186" lon="1.03769">
        <ele>1155.16</ele>
        <time>2019-03-31T12:43:14Z</time>
      </trkpt>
      <trkpt lat="42.81866" lon="1.03769">
        <ele>1151.32</ele>
        <time>2019-03-31T12:43:22Z</time>
      </trkpt>
      <trkpt lat="42.81866" lon="1.03769">
        <ele>1151.32</ele>
        <time>2019-03-31T12:43:23Z</time>
      </trkpt>
      <trkpt lat="42.81861" lon="1.03774">
        <ele>1148.91</ele>
        <time>2019-03-31T12:43:32Z</time>
      </trkpt>
      <trkpt lat="42.81858" lon="1.03777">
        <ele>1147.47</ele>
        <time>2019-03-31T12:43:37Z</time>
      </trkpt>
      <trkpt lat="42.81856" lon="1.03781">
        <ele>1145.55</ele>
        <time>2019-03-31T12:43:41Z</time>
      </trkpt>
      <trkpt lat="42.81857" lon="1.03791">
        <ele>1141.7</ele>
        <time>2019-03-31T12:43:54Z</time>
      </trkpt>
      <trkpt lat="42.81864" lon="1.03791">
        <ele>1138.82</ele>
        <time>2019-03-31T12:44:06Z</time>
      </trkpt>
      <trkpt lat="42.81872" lon="1.0379">
        <ele>1135.45</ele>
        <time>2019-03-31T12:44:17Z</time>
      </trkpt>
      <trkpt lat="42.8188" lon="1.03792">
        <ele>1133.05</ele>
        <time>2019-03-31T12:44:28Z</time>
      </trkpt>
      <trkpt lat="42.81885" lon="1.0379">
        <ele>1129.21</ele>
        <time>2019-03-31T12:44:37Z</time>
      </trkpt>
      <trkpt lat="42.81885" lon="1.0379">
        <ele>1129.21</ele>
        <time>2019-03-31T12:44:38Z</time>
      </trkpt>
      <trkpt lat="42.81892" lon="1.03788">
        <ele>1125.84</ele>
        <time>2019-03-31T12:44:47Z</time>
      </trkpt>
      <trkpt lat="42.81893" lon="1.03788">
        <ele>1125.84</ele>
        <time>2019-03-31T12:44:48Z</time>
      </trkpt>
      <trkpt lat="42.81898" lon="1.03788">
        <ele>1122.48</ele>
        <time>2019-03-31T12:44:56Z</time>
      </trkpt>
      <trkpt lat="42.81905" lon="1.03784">
        <ele>1119.11</ele>
        <time>2019-03-31T12:45:06Z</time>
      </trkpt>
      <trkpt lat="42.8191" lon="1.03786">
        <ele>1116.71</ele>
        <time>2019-03-31T12:45:18Z</time>
      </trkpt>
      <trkpt lat="42.8191" lon="1.03787">
        <ele>1116.71</ele>
        <time>2019-03-31T12:45:20Z</time>
      </trkpt>
      <trkpt lat="42.81907" lon="1.03797">
        <ele>1111.9</ele>
        <time>2019-03-31T12:45:31Z</time>
      </trkpt>
      <trkpt lat="42.81907" lon="1.03797">
        <ele>1111.9</ele>
        <time>2019-03-31T12:45:32Z</time>
      </trkpt>
      <trkpt lat="42.81904" lon="1.03811">
        <ele>1108.54</ele>
        <time>2019-03-31T12:45:42Z</time>
      </trkpt>
      <trkpt lat="42.81902" lon="1.03814">
        <ele>1107.1</ele>
        <time>2019-03-31T12:45:45Z</time>
      </trkpt>
      <trkpt lat="42.81899" lon="1.03822">
        <ele>1103.73</ele>
        <time>2019-03-31T12:45:52Z</time>
      </trkpt>
      <trkpt lat="42.81894" lon="1.0383">
        <ele>1100.85</ele>
        <time>2019-03-31T12:46:04Z</time>
      </trkpt>
      <trkpt lat="42.81891" lon="1.03838">
        <ele>1097.48</ele>
        <time>2019-03-31T12:46:13Z</time>
      </trkpt>
      <trkpt lat="42.81889" lon="1.03842">
        <ele>1096.04</ele>
        <time>2019-03-31T12:46:17Z</time>
      </trkpt>
      <trkpt lat="42.81888" lon="1.03849">
        <ele>1092.2</ele>
        <time>2019-03-31T12:46:25Z</time>
      </trkpt>
      <trkpt lat="42.81891" lon="1.03851">
        <ele>1091.71</ele>
        <time>2019-03-31T12:46:30Z</time>
      </trkpt>
      <trkpt lat="42.81894" lon="1.03853">
        <ele>1090.27</ele>
        <time>2019-03-31T12:46:37Z</time>
      </trkpt>
      <trkpt lat="42.81893" lon="1.03858">
        <ele>1087.87</ele>
        <time>2019-03-31T12:46:44Z</time>
      </trkpt>
      <trkpt lat="42.81888" lon="1.03867">
        <ele>1085.47</ele>
        <time>2019-03-31T12:46:52Z</time>
      </trkpt>
      <trkpt lat="42.81888" lon="1.03871">
        <ele>1084.5</ele>
        <time>2019-03-31T12:46:55Z</time>
      </trkpt>
      <trkpt lat="42.81889" lon="1.03874">
        <ele>1083.54</ele>
        <time>2019-03-31T12:46:57Z</time>
      </trkpt>
      <trkpt lat="42.81892" lon="1.03877">
        <ele>1081.62</ele>
        <time>2019-03-31T12:47:03Z</time>
      </trkpt>
      <trkpt lat="42.81894" lon="1.03878">
        <ele>1080.66</ele>
        <time>2019-03-31T12:47:05Z</time>
      </trkpt>
      <trkpt lat="42.819" lon="1.0388">
        <ele>1079.22</ele>
        <time>2019-03-31T12:47:10Z</time>
      </trkpt>
      <trkpt lat="42.81906" lon="1.03881">
        <ele>1075.85</ele>
        <time>2019-03-31T12:47:19Z</time>
      </trkpt>
      <trkpt lat="42.81908" lon="1.03887">
        <ele>1073.93</ele>
        <time>2019-03-31T12:47:25Z</time>
      </trkpt>
      <trkpt lat="42.81917" lon="1.03893">
        <ele>1071.05</ele>
        <time>2019-03-31T12:47:36Z</time>
      </trkpt>
      <trkpt lat="42.81925" lon="1.03902">
        <ele>1067.68</ele>
        <time>2019-03-31T12:47:47Z</time>
      </trkpt>
      <trkpt lat="42.81932" lon="1.03905">
        <ele>1065.28</ele>
        <time>2019-03-31T12:47:54Z</time>
      </trkpt>
      <trkpt lat="42.81935" lon="1.03911">
        <ele>1063.36</ele>
        <time>2019-03-31T12:48:00Z</time>
      </trkpt>
      <trkpt lat="42.81938" lon="1.03913">
        <ele>1065.28</ele>
        <time>2019-03-31T12:48:02Z</time>
      </trkpt>
      <trkpt lat="42.81942" lon="1.03917">
        <ele>1064.32</ele>
        <time>2019-03-31T12:48:07Z</time>
      </trkpt>
      <trkpt lat="42.81945" lon="1.0392">
        <ele>1062.87</ele>
        <time>2019-03-31T12:48:13Z</time>
      </trkpt>
      <trkpt lat="42.81946" lon="1.03922">
        <ele>1065.28</ele>
        <time>2019-03-31T12:48:16Z</time>
      </trkpt>
      <trkpt lat="42.81945" lon="1.03921">
        <ele>1061.91</ele>
        <time>2019-03-31T12:48:27Z</time>
      </trkpt>
      <trkpt lat="42.81946" lon="1.03921">
        <ele>1064.8</ele>
        <time>2019-03-31T12:48:30Z</time>
      </trkpt>
      <trkpt lat="42.81946" lon="1.03919">
        <ele>1063.36</ele>
        <time>2019-03-31T12:48:32Z</time>
      </trkpt>
      <trkpt lat="42.81947" lon="1.03921">
        <ele>1064.32</ele>
        <time>2019-03-31T12:48:40Z</time>
      </trkpt>
      <trkpt lat="42.81946" lon="1.03922">
        <ele>1062.87</ele>
        <time>2019-03-31T12:48:43Z</time>
      </trkpt>
      <trkpt lat="42.81946" lon="1.03923">
        <ele>1062.39</ele>
        <time>2019-03-31T12:48:51Z</time>
      </trkpt>
      <trkpt lat="42.81946" lon="1.03923">
        <ele>1063.84</ele>
        <time>2019-03-31T12:48:54Z</time>
      </trkpt>
      <trkpt lat="42.81946" lon="1.03921">
        <ele>1065.76</ele>
        <time>2019-03-31T12:49:02Z</time>
      </trkpt>
      <trkpt lat="42.81946" lon="1.03923">
        <ele>1063.36</ele>
        <time>2019-03-31T12:49:04Z</time>
      </trkpt>
      <trkpt lat="42.81947" lon="1.03925">
        <ele>1064.8</ele>
        <time>2019-03-31T12:49:06Z</time>
      </trkpt>
      <trkpt lat="42.81944" lon="1.03919">
        <ele>1063.84</ele>
        <time>2019-03-31T12:49:28Z</time>
      </trkpt>
      <trkpt lat="42.81947" lon="1.03922">
        <ele>1062.87</ele>
        <time>2019-03-31T12:49:41Z</time>
      </trkpt>
      <trkpt lat="42.8195" lon="1.03924">
        <ele>1062.87</ele>
        <time>2019-03-31T12:49:44Z</time>
      </trkpt>
      <trkpt lat="42.81958" lon="1.03935">
        <ele>1061.91</ele>
        <time>2019-03-31T12:49:52Z</time>
      </trkpt>
      <trkpt lat="42.81973" lon="1.03944">
        <ele>1059.51</ele>
        <time>2019-03-31T12:50:06Z</time>
      </trkpt>
      <trkpt lat="42.81974" lon="1.03945">
        <ele>1059.51</ele>
        <time>2019-03-31T12:50:07Z</time>
      </trkpt>
      <trkpt lat="42.81984" lon="1.03945">
        <ele>1056.63</ele>
        <time>2019-03-31T12:50:18Z</time>
      </trkpt>
      <trkpt lat="42.81987" lon="1.03945">
        <ele>1057.11</ele>
        <time>2019-03-31T12:50:20Z</time>
      </trkpt>
      <trkpt lat="42.8199" lon="1.03945">
        <ele>1056.15</ele>
        <time>2019-03-31T12:50:23Z</time>
      </trkpt>
      <trkpt lat="42.81993" lon="1.03945">
        <ele>1055.67</ele>
        <time>2019-03-31T12:50:26Z</time>
      </trkpt>
      <trkpt lat="42.81996" lon="1.03945">
        <ele>1054.7</ele>
        <time>2019-03-31T12:50:28Z</time>
      </trkpt>
      <trkpt lat="42.81998" lon="1.03945">
        <ele>1054.22</ele>
        <time>2019-03-31T12:50:30Z</time>
      </trkpt>
      <trkpt lat="42.82004" lon="1.03944">
        <ele>1052.78</ele>
        <time>2019-03-31T12:50:35Z</time>
      </trkpt>
      <trkpt lat="42.82018" lon="1.03947">
        <ele>1049.42</ele>
        <time>2019-03-31T12:50:47Z</time>
      </trkpt>
      <trkpt lat="42.82026" lon="1.03951">
        <ele>1048.45</ele>
        <time>2019-03-31T12:50:59Z</time>
      </trkpt>
      <trkpt lat="42.8203" lon="1.0395">
        <ele>1046.05</ele>
        <time>2019-03-31T12:51:06Z</time>
      </trkpt>
      <trkpt lat="42.82035" lon="1.03951">
        <ele>1044.61</ele>
        <time>2019-03-31T12:51:10Z</time>
      </trkpt>
      <trkpt lat="42.8204" lon="1.03944">
        <ele>1044.13</ele>
        <time>2019-03-31T12:51:22Z</time>
      </trkpt>
      <trkpt lat="42.8204" lon="1.03933">
        <ele>1041.73</ele>
        <time>2019-03-31T12:51:32Z</time>
      </trkpt>
      <trkpt lat="42.82039" lon="1.03933">
        <ele>1041.73</ele>
        <time>2019-03-31T12:51:34Z</time>
      </trkpt>
      <trkpt lat="42.82054" lon="1.03934">
        <ele>1041.73</ele>
        <time>2019-03-31T12:51:48Z</time>
      </trkpt>
      <trkpt lat="42.82066" lon="1.03935">
        <ele>1038.84</ele>
        <time>2019-03-31T12:51:58Z</time>
      </trkpt>
      <trkpt lat="42.82076" lon="1.03937">
        <ele>1039.8</ele>
        <time>2019-03-31T12:52:04Z</time>
      </trkpt>
      <trkpt lat="42.82089" lon="1.03936">
        <ele>1039.8</ele>
        <time>2019-03-31T12:52:15Z</time>
      </trkpt>
      <trkpt lat="42.82091" lon="1.03936">
        <ele>1039.8</ele>
        <time>2019-03-31T12:52:17Z</time>
      </trkpt>
      <trkpt lat="42.82101" lon="1.03933">
        <ele>1038.36</ele>
        <time>2019-03-31T12:52:24Z</time>
      </trkpt>
      <trkpt lat="42.8211" lon="1.03931">
        <ele>1036.44</ele>
        <time>2019-03-31T12:52:30Z</time>
      </trkpt>
      <trkpt lat="42.82113" lon="1.03931">
        <ele>1035.48</ele>
        <time>2019-03-31T12:52:32Z</time>
      </trkpt>
      <trkpt lat="42.82117" lon="1.0393">
        <ele>1035.48</ele>
        <time>2019-03-31T12:52:36Z</time>
      </trkpt>
      <trkpt lat="42.8212" lon="1.03931">
        <ele>1035.48</ele>
        <time>2019-03-31T12:52:38Z</time>
      </trkpt>
      <trkpt lat="42.82129" lon="1.03927">
        <ele>1035.48</ele>
        <time>2019-03-31T12:52:58Z</time>
      </trkpt>
      <trkpt lat="42.82129" lon="1.03929">
        <ele>1034.52</ele>
        <time>2019-03-31T12:53:13Z</time>
      </trkpt>
      <trkpt lat="42.82123" lon="1.03917">
        <ele>1035</ele>
        <time>2019-03-31T12:53:45Z</time>
      </trkpt>
      <trkpt lat="42.82124" lon="1.03918">
        <ele>1034.52</ele>
        <time>2019-03-31T12:53:58Z</time>
      </trkpt>
      <trkpt lat="42.82135" lon="1.03922">
        <ele>1034.52</ele>
        <time>2019-03-31T12:54:11Z</time>
      </trkpt>
      <trkpt lat="42.82137" lon="1.03922">
        <ele>1034.04</ele>
        <time>2019-03-31T12:54:13Z</time>
      </trkpt>
      <trkpt lat="42.82153" lon="1.03928">
        <ele>1033.07</ele>
        <time>2019-03-31T12:54:26Z</time>
      </trkpt>
      <trkpt lat="42.82167" lon="1.03934">
        <ele>1030.19</ele>
        <time>2019-03-31T12:54:40Z</time>
      </trkpt>
      <trkpt lat="42.82168" lon="1.03934">
        <ele>1030.19</ele>
        <time>2019-03-31T12:54:41Z</time>
      </trkpt>
      <trkpt lat="42.82173" lon="1.03933">
        <ele>1029.23</ele>
        <time>2019-03-31T12:54:45Z</time>
      </trkpt>
      <trkpt lat="42.82181" lon="1.03932">
        <ele>1027.31</ele>
        <time>2019-03-31T12:54:51Z</time>
      </trkpt>
      <trkpt lat="42.82182" lon="1.03932">
        <ele>1027.31</ele>
        <time>2019-03-31T12:54:52Z</time>
      </trkpt>
      <trkpt lat="42.8219" lon="1.03933">
        <ele>1028.75</ele>
        <time>2019-03-31T12:54:57Z</time>
      </trkpt>
      <trkpt lat="42.82197" lon="1.03935">
        <ele>1027.31</ele>
        <time>2019-03-31T12:55:02Z</time>
      </trkpt>
      <trkpt lat="42.82218" lon="1.03937">
        <ele>1026.83</ele>
        <time>2019-03-31T12:55:17Z</time>
      </trkpt>
      <trkpt lat="42.82223" lon="1.03938">
        <ele>1025.86</ele>
        <time>2019-03-31T12:55:21Z</time>
      </trkpt>
      <trkpt lat="42.82236" lon="1.03931">
        <ele>1025.86</ele>
        <time>2019-03-31T12:55:30Z</time>
      </trkpt>
      <trkpt lat="42.82246" lon="1.03937">
        <ele>1025.38</ele>
        <time>2019-03-31T12:55:38Z</time>
      </trkpt>
      <trkpt lat="42.82249" lon="1.03937">
        <ele>1025.38</ele>
        <time>2019-03-31T12:55:41Z</time>
      </trkpt>
      <trkpt lat="42.82254" lon="1.03937">
        <ele>1026.83</ele>
        <time>2019-03-31T12:55:45Z</time>
      </trkpt>
      <trkpt lat="42.82257" lon="1.03936">
        <ele>1026.83</ele>
        <time>2019-03-31T12:55:47Z</time>
      </trkpt>
      <trkpt lat="42.82275" lon="1.03939">
        <ele>1027.79</ele>
        <time>2019-03-31T12:56:02Z</time>
      </trkpt>
      <trkpt lat="42.82278" lon="1.03941">
        <ele>1026.83</ele>
        <time>2019-03-31T12:56:07Z</time>
      </trkpt>
      <trkpt lat="42.82281" lon="1.03943">
        <ele>1025.86</ele>
        <time>2019-03-31T12:56:10Z</time>
      </trkpt>
      <trkpt lat="42.82286" lon="1.03943">
        <ele>1024.9</ele>
        <time>2019-03-31T12:56:15Z</time>
      </trkpt>
      <trkpt lat="42.823" lon="1.03935">
        <ele>1022.98</ele>
        <time>2019-03-31T12:56:29Z</time>
      </trkpt>
      <trkpt lat="42.82305" lon="1.03931">
        <ele>1024.42</ele>
        <time>2019-03-31T12:56:36Z</time>
      </trkpt>
      <trkpt lat="42.82308" lon="1.03933">
        <ele>1022.98</ele>
        <time>2019-03-31T12:56:40Z</time>
      </trkpt>
      <trkpt lat="42.8231" lon="1.03933">
        <ele>1021.54</ele>
        <time>2019-03-31T12:56:42Z</time>
      </trkpt>
      <trkpt lat="42.82311" lon="1.03933">
        <ele>1021.54</ele>
        <time>2019-03-31T12:56:43Z</time>
      </trkpt>
      <trkpt lat="42.82316" lon="1.03935">
        <ele>1019.62</ele>
        <time>2019-03-31T12:56:47Z</time>
      </trkpt>
      <trkpt lat="42.82323" lon="1.03936">
        <ele>1019.13</ele>
        <time>2019-03-31T12:56:51Z</time>
      </trkpt>
      <trkpt lat="42.82346" lon="1.03925">
        <ele>1019.13</ele>
        <time>2019-03-31T12:57:09Z</time>
      </trkpt>
      <trkpt lat="42.82357" lon="1.03925">
        <ele>1018.17</ele>
        <time>2019-03-31T12:57:20Z</time>
      </trkpt>
      <trkpt lat="42.82363" lon="1.03928">
        <ele>1019.13</ele>
        <time>2019-03-31T12:57:30Z</time>
      </trkpt>
      <trkpt lat="42.82364" lon="1.0393">
        <ele>1019.13</ele>
        <time>2019-03-31T12:57:56Z</time>
      </trkpt>
      <trkpt lat="42.8236" lon="1.03925">
        <ele>1017.69</ele>
        <time>2019-03-31T12:58:23Z</time>
      </trkpt>
      <trkpt lat="42.82364" lon="1.03924">
        <ele>1017.69</ele>
        <time>2019-03-31T12:58:31Z</time>
      </trkpt>
      <trkpt lat="42.82371" lon="1.03927">
        <ele>1017.21</ele>
        <time>2019-03-31T12:58:37Z</time>
      </trkpt>
      <trkpt lat="42.82374" lon="1.03926">
        <ele>1017.21</ele>
        <time>2019-03-31T12:58:40Z</time>
      </trkpt>
      <trkpt lat="42.82379" lon="1.03925">
        <ele>1015.77</ele>
        <time>2019-03-31T12:58:45Z</time>
      </trkpt>
      <trkpt lat="42.82388" lon="1.03924">
        <ele>1015.77</ele>
        <time>2019-03-31T12:58:51Z</time>
      </trkpt>
      <trkpt lat="42.82408" lon="1.03925">
        <ele>1014.33</ele>
        <time>2019-03-31T12:59:05Z</time>
      </trkpt>
      <trkpt lat="42.82413" lon="1.03923">
        <ele>1014.81</ele>
        <time>2019-03-31T12:59:09Z</time>
      </trkpt>
      <trkpt lat="42.82432" lon="1.03921">
        <ele>1014.81</ele>
        <time>2019-03-31T12:59:23Z</time>
      </trkpt>
      <trkpt lat="42.82436" lon="1.0392">
        <ele>1014.81</ele>
        <time>2019-03-31T12:59:40Z</time>
      </trkpt>
      <trkpt lat="42.82444" lon="1.03918">
        <ele>1014.33</ele>
        <time>2019-03-31T12:59:55Z</time>
      </trkpt>
      <trkpt lat="42.82445" lon="1.03918">
        <ele>1014.33</ele>
        <time>2019-03-31T13:00:03Z</time>
      </trkpt>
      <trkpt lat="42.82455" lon="1.0392">
        <ele>1013.37</ele>
        <time>2019-03-31T13:00:12Z</time>
      </trkpt>
      <trkpt lat="42.82471" lon="1.03919">
        <ele>1012.41</ele>
        <time>2019-03-31T13:00:23Z</time>
      </trkpt>
      <trkpt lat="42.82486" lon="1.03919">
        <ele>1012.89</ele>
        <time>2019-03-31T13:00:33Z</time>
      </trkpt>
      <trkpt lat="42.82491" lon="1.03918">
        <ele>1011.44</ele>
        <time>2019-03-31T13:00:36Z</time>
      </trkpt>
      <trkpt lat="42.82494" lon="1.03917">
        <ele>1011.44</ele>
        <time>2019-03-31T13:00:38Z</time>
      </trkpt>
      <trkpt lat="42.82508" lon="1.03918">
        <ele>1010</ele>
        <time>2019-03-31T13:00:48Z</time>
      </trkpt>
      <trkpt lat="42.82516" lon="1.03922">
        <ele>1010</ele>
        <time>2019-03-31T13:00:53Z</time>
      </trkpt>
      <trkpt lat="42.82523" lon="1.03923">
        <ele>1009.04</ele>
        <time>2019-03-31T13:00:58Z</time>
      </trkpt>
      <trkpt lat="42.82543" lon="1.03931">
        <ele>1008.08</ele>
        <time>2019-03-31T13:01:11Z</time>
      </trkpt>
      <trkpt lat="42.82567" lon="1.03934">
        <ele>1006.16</ele>
        <time>2019-03-31T13:01:28Z</time>
      </trkpt>
      <trkpt lat="42.82583" lon="1.03933">
        <ele>1005.2</ele>
        <time>2019-03-31T13:01:41Z</time>
      </trkpt>
      <trkpt lat="42.82595" lon="1.0393">
        <ele>1003.27</ele>
        <time>2019-03-31T13:01:50Z</time>
      </trkpt>
      <trkpt lat="42.82607" lon="1.03925">
        <ele>1003.75</ele>
        <time>2019-03-31T13:02:00Z</time>
      </trkpt>
      <trkpt lat="42.82609" lon="1.03924">
        <ele>1001.83</ele>
        <time>2019-03-31T13:02:02Z</time>
      </trkpt>
      <trkpt lat="42.82618" lon="1.03919">
        <ele>1001.35</ele>
        <time>2019-03-31T13:02:09Z</time>
      </trkpt>
      <trkpt lat="42.82622" lon="1.03915">
        <ele>1000.87</ele>
        <time>2019-03-31T13:02:12Z</time>
      </trkpt>
      <trkpt lat="42.82623" lon="1.03915">
        <ele>1002.79</ele>
        <time>2019-03-31T13:02:13Z</time>
      </trkpt>
      <trkpt lat="42.82625" lon="1.03915">
        <ele>1001.35</ele>
        <time>2019-03-31T13:02:14Z</time>
      </trkpt>
      <trkpt lat="42.8263" lon="1.03915">
        <ele>1002.79</ele>
        <time>2019-03-31T13:02:20Z</time>
      </trkpt>
      <trkpt lat="42.82632" lon="1.03913">
        <ele>1002.79</ele>
        <time>2019-03-31T13:02:22Z</time>
      </trkpt>
      <trkpt lat="42.82633" lon="1.03912">
        <ele>1001.35</ele>
        <time>2019-03-31T13:02:23Z</time>
      </trkpt>
      <trkpt lat="42.82634" lon="1.03911">
        <ele>1001.35</ele>
        <time>2019-03-31T13:02:24Z</time>
      </trkpt>
      <trkpt lat="42.82638" lon="1.03906">
        <ele>1000.39</ele>
        <time>2019-03-31T13:02:30Z</time>
      </trkpt>
      <trkpt lat="42.8264" lon="1.03904">
        <ele>999.91</ele>
        <time>2019-03-31T13:02:32Z</time>
      </trkpt>
      <trkpt lat="42.82647" lon="1.03894">
        <ele>997.02</ele>
        <time>2019-03-31T13:02:42Z</time>
      </trkpt>
      <trkpt lat="42.82648" lon="1.03893">
        <ele>997.02</ele>
        <time>2019-03-31T13:02:43Z</time>
      </trkpt>
      <trkpt lat="42.82649" lon="1.03893">
        <ele>995.1</ele>
        <time>2019-03-31T13:02:44Z</time>
      </trkpt>
      <trkpt lat="42.82651" lon="1.03893">
        <ele>995.1</ele>
        <time>2019-03-31T13:02:45Z</time>
      </trkpt>
      <trkpt lat="42.82656" lon="1.0389">
        <ele>994.62</ele>
        <time>2019-03-31T13:02:50Z</time>
      </trkpt>
      <trkpt lat="42.82658" lon="1.03887">
        <ele>993.18</ele>
        <time>2019-03-31T13:02:53Z</time>
      </trkpt>
      <trkpt lat="42.82661" lon="1.03865">
        <ele>992.7</ele>
        <time>2019-03-31T13:03:04Z</time>
      </trkpt>
      <trkpt lat="42.82661" lon="1.03863">
        <ele>992.7</ele>
        <time>2019-03-31T13:03:05Z</time>
      </trkpt>
      <trkpt lat="42.82661" lon="1.03861">
        <ele>991.74</ele>
        <time>2019-03-31T13:03:06Z</time>
      </trkpt>
      <trkpt lat="42.82661" lon="1.03853">
        <ele>991.74</ele>
        <time>2019-03-31T13:03:11Z</time>
      </trkpt>
      <trkpt lat="42.82665" lon="1.03837">
        <ele>990.3</ele>
        <time>2019-03-31T13:03:19Z</time>
      </trkpt>
      <trkpt lat="42.82665" lon="1.03835">
        <ele>990.3</ele>
        <time>2019-03-31T13:03:20Z</time>
      </trkpt>
      <trkpt lat="42.82665" lon="1.03833">
        <ele>989.81</ele>
        <time>2019-03-31T13:03:21Z</time>
      </trkpt>
      <trkpt lat="42.82665" lon="1.03825">
        <ele>989.81</ele>
        <time>2019-03-31T13:03:25Z</time>
      </trkpt>
      <trkpt lat="42.82664" lon="1.03823">
        <ele>989.81</ele>
        <time>2019-03-31T13:03:26Z</time>
      </trkpt>
      <trkpt lat="42.8266" lon="1.03817">
        <ele>989.33</ele>
        <time>2019-03-31T13:03:30Z</time>
      </trkpt>
      <trkpt lat="42.8266" lon="1.03815">
        <ele>989.33</ele>
        <time>2019-03-31T13:03:31Z</time>
      </trkpt>
      <trkpt lat="42.82667" lon="1.03776">
        <ele>988.37</ele>
        <time>2019-03-31T13:03:48Z</time>
      </trkpt>
      <trkpt lat="42.82663" lon="1.03756">
        <ele>987.89</ele>
        <time>2019-03-31T13:04:01Z</time>
      </trkpt>
      <trkpt lat="42.82663" lon="1.03752">
        <ele>988.85</ele>
        <time>2019-03-31T13:04:03Z</time>
      </trkpt>
      <trkpt lat="42.82662" lon="1.0374">
        <ele>989.33</ele>
        <time>2019-03-31T13:04:11Z</time>
      </trkpt>
      <trkpt lat="42.82661" lon="1.03735">
        <ele>989.33</ele>
        <time>2019-03-31T13:04:14Z</time>
      </trkpt>
      <trkpt lat="42.82662" lon="1.03733">
        <ele>989.33</ele>
        <time>2019-03-31T13:04:15Z</time>
      </trkpt>
      <trkpt lat="42.82662" lon="1.03731">
        <ele>989.33</ele>
        <time>2019-03-31T13:04:16Z</time>
      </trkpt>
      <trkpt lat="42.82662" lon="1.03729">
        <ele>989.33</ele>
        <time>2019-03-31T13:04:17Z</time>
      </trkpt>
      <trkpt lat="42.82662" lon="1.03728">
        <ele>989.33</ele>
        <time>2019-03-31T13:04:18Z</time>
      </trkpt>
      <trkpt lat="42.82663" lon="1.03716">
        <ele>988.37</ele>
        <time>2019-03-31T13:04:24Z</time>
      </trkpt>
      <trkpt lat="42.82664" lon="1.03713">
        <ele>988.37</ele>
        <time>2019-03-31T13:04:26Z</time>
      </trkpt>
      <trkpt lat="42.82664" lon="1.03711">
        <ele>988.37</ele>
        <time>2019-03-31T13:04:27Z</time>
      </trkpt>
      <trkpt lat="42.82665" lon="1.0371">
        <ele>987.89</ele>
        <time>2019-03-31T13:04:28Z</time>
      </trkpt>
      <trkpt lat="42.82666" lon="1.03708">
        <ele>987.89</ele>
        <time>2019-03-31T13:04:29Z</time>
      </trkpt>
      <trkpt lat="42.82666" lon="1.03706">
        <ele>987.89</ele>
        <time>2019-03-31T13:04:30Z</time>
      </trkpt>
      <trkpt lat="42.82667" lon="1.03704">
        <ele>987.89</ele>
        <time>2019-03-31T13:04:31Z</time>
      </trkpt>
      <trkpt lat="42.82668" lon="1.03702">
        <ele>988.37</ele>
        <time>2019-03-31T13:04:32Z</time>
      </trkpt>
      <trkpt lat="42.82669" lon="1.037">
        <ele>987.89</ele>
        <time>2019-03-31T13:04:33Z</time>
      </trkpt>
      <trkpt lat="42.82669" lon="1.03699">
        <ele>987.89</ele>
        <time>2019-03-31T13:04:34Z</time>
      </trkpt>
      <trkpt lat="42.8267" lon="1.03697">
        <ele>987.89</ele>
        <time>2019-03-31T13:04:35Z</time>
      </trkpt>
      <trkpt lat="42.82679" lon="1.03666">
        <ele>987.41</ele>
        <time>2019-03-31T13:04:51Z</time>
      </trkpt>
      <trkpt lat="42.82679" lon="1.03664">
        <ele>987.41</ele>
        <time>2019-03-31T13:04:52Z</time>
      </trkpt>
      <trkpt lat="42.82679" lon="1.03662">
        <ele>987.41</ele>
        <time>2019-03-31T13:04:53Z</time>
      </trkpt>
      <trkpt lat="42.8268" lon="1.0366">
        <ele>987.89</ele>
        <time>2019-03-31T13:04:54Z</time>
      </trkpt>
      <trkpt lat="42.82692" lon="1.03636">
        <ele>987.89</ele>
        <time>2019-03-31T13:05:09Z</time>
      </trkpt>
      <trkpt lat="42.82697" lon="1.03625">
        <ele>988.85</ele>
        <time>2019-03-31T13:05:15Z</time>
      </trkpt>
      <trkpt lat="42.82699" lon="1.03622">
        <ele>987.89</ele>
        <time>2019-03-31T13:05:17Z</time>
      </trkpt>
      <trkpt lat="42.82709" lon="1.036">
        <ele>987.89</ele>
        <time>2019-03-31T13:05:29Z</time>
      </trkpt>
      <trkpt lat="42.8271" lon="1.03599">
        <ele>987.89</ele>
        <time>2019-03-31T13:05:30Z</time>
      </trkpt>
      <trkpt lat="42.82711" lon="1.03597">
        <ele>987.89</ele>
        <time>2019-03-31T13:05:31Z</time>
      </trkpt>
      <trkpt lat="42.82717" lon="1.03584">
        <ele>988.85</ele>
        <time>2019-03-31T13:05:39Z</time>
      </trkpt>
      <trkpt lat="42.82719" lon="1.03579">
        <ele>986.93</ele>
        <time>2019-03-31T13:05:43Z</time>
      </trkpt>
      <trkpt lat="42.8272" lon="1.03578">
        <ele>986.93</ele>
        <time>2019-03-31T13:05:44Z</time>
      </trkpt>
      <trkpt lat="42.82721" lon="1.03578">
        <ele>986.93</ele>
        <time>2019-03-31T13:05:45Z</time>
      </trkpt>
      <trkpt lat="42.82723" lon="1.03577">
        <ele>986.93</ele>
        <time>2019-03-31T13:05:46Z</time>
      </trkpt>
      <trkpt lat="42.82724" lon="1.03576">
        <ele>986.93</ele>
        <time>2019-03-31T13:05:47Z</time>
      </trkpt>
      <trkpt lat="42.82726" lon="1.03574">
        <ele>986.93</ele>
        <time>2019-03-31T13:05:49Z</time>
      </trkpt>
      <trkpt lat="42.82727" lon="1.03572">
        <ele>986.93</ele>
        <time>2019-03-31T13:05:50Z</time>
      </trkpt>
      <trkpt lat="42.82738" lon="1.03559">
        <ele>986.45</ele>
        <time>2019-03-31T13:06:01Z</time>
      </trkpt>
      <trkpt lat="42.82739" lon="1.03559">
        <ele>986.45</ele>
        <time>2019-03-31T13:06:02Z</time>
      </trkpt>
      <trkpt lat="42.82741" lon="1.03558">
        <ele>986.45</ele>
        <time>2019-03-31T13:06:03Z</time>
      </trkpt>
      <trkpt lat="42.82742" lon="1.03558">
        <ele>985.97</ele>
        <time>2019-03-31T13:06:04Z</time>
      </trkpt>
      <trkpt lat="42.82744" lon="1.03556">
        <ele>985.97</ele>
        <time>2019-03-31T13:06:05Z</time>
      </trkpt>
      <trkpt lat="42.82748" lon="1.03551">
        <ele>985.97</ele>
        <time>2019-03-31T13:06:09Z</time>
      </trkpt>
      <trkpt lat="42.82749" lon="1.0355">
        <ele>985.97</ele>
        <time>2019-03-31T13:06:10Z</time>
      </trkpt>
      <trkpt lat="42.8275" lon="1.03548">
        <ele>984.53</ele>
        <time>2019-03-31T13:06:11Z</time>
      </trkpt>
      <trkpt lat="42.82751" lon="1.03547">
        <ele>985.01</ele>
        <time>2019-03-31T13:06:12Z</time>
      </trkpt>
      <trkpt lat="42.82753" lon="1.03545">
        <ele>985.01</ele>
        <time>2019-03-31T13:06:13Z</time>
      </trkpt>
      <trkpt lat="42.82754" lon="1.03544">
        <ele>985.01</ele>
        <time>2019-03-31T13:06:14Z</time>
      </trkpt>
      <trkpt lat="42.8276" lon="1.03539">
        <ele>984.53</ele>
        <time>2019-03-31T13:06:19Z</time>
      </trkpt>
      <trkpt lat="42.82762" lon="1.03537">
        <ele>985.97</ele>
        <time>2019-03-31T13:06:20Z</time>
      </trkpt>
      <trkpt lat="42.82763" lon="1.03537">
        <ele>985.97</ele>
        <time>2019-03-31T13:06:21Z</time>
      </trkpt>
      <trkpt lat="42.82767" lon="1.03532">
        <ele>984.05</ele>
        <time>2019-03-31T13:06:25Z</time>
      </trkpt>
      <trkpt lat="42.82773" lon="1.03523">
        <ele>984.05</ele>
        <time>2019-03-31T13:06:32Z</time>
      </trkpt>
      <trkpt lat="42.82774" lon="1.03522">
        <ele>984.05</ele>
        <time>2019-03-31T13:06:33Z</time>
      </trkpt>
      <trkpt lat="42.82776" lon="1.03521">
        <ele>984.05</ele>
        <time>2019-03-31T13:06:34Z</time>
      </trkpt>
      <trkpt lat="42.82777" lon="1.03519">
        <ele>984.53</ele>
        <time>2019-03-31T13:06:35Z</time>
      </trkpt>
      <trkpt lat="42.82779" lon="1.03518">
        <ele>984.53</ele>
        <time>2019-03-31T13:06:36Z</time>
      </trkpt>
      <trkpt lat="42.8278" lon="1.03517">
        <ele>983.57</ele>
        <time>2019-03-31T13:06:37Z</time>
      </trkpt>
      <trkpt lat="42.82781" lon="1.03516">
        <ele>983.57</ele>
        <time>2019-03-31T13:06:38Z</time>
      </trkpt>
      <trkpt lat="42.82783" lon="1.03514">
        <ele>983.57</ele>
        <time>2019-03-31T13:06:39Z</time>
      </trkpt>
      <trkpt lat="42.82784" lon="1.03514">
        <ele>983.57</ele>
        <time>2019-03-31T13:06:40Z</time>
      </trkpt>
      <trkpt lat="42.82793" lon="1.03504">
        <ele>983.09</ele>
        <time>2019-03-31T13:06:47Z</time>
      </trkpt>
      <trkpt lat="42.82795" lon="1.03502">
        <ele>984.05</ele>
        <time>2019-03-31T13:06:49Z</time>
      </trkpt>
      <trkpt lat="42.82796" lon="1.03501">
        <ele>982.6</ele>
        <time>2019-03-31T13:06:50Z</time>
      </trkpt>
      <trkpt lat="42.82805" lon="1.0349">
        <ele>981.64</ele>
        <time>2019-03-31T13:06:59Z</time>
      </trkpt>
      <trkpt lat="42.82806" lon="1.03489">
        <ele>981.64</ele>
        <time>2019-03-31T13:07:00Z</time>
      </trkpt>
      <trkpt lat="42.82809" lon="1.03486">
        <ele>981.16</ele>
        <time>2019-03-31T13:07:03Z</time>
      </trkpt>
      <trkpt lat="42.82814" lon="1.03481">
        <ele>980.68</ele>
        <time>2019-03-31T13:07:08Z</time>
      </trkpt>
      <trkpt lat="42.82816" lon="1.03479">
        <ele>982.12</ele>
        <time>2019-03-31T13:07:10Z</time>
      </trkpt>
      <trkpt lat="42.82819" lon="1.03478">
        <ele>980.68</ele>
        <time>2019-03-31T13:07:12Z</time>
      </trkpt>
      <trkpt lat="42.82844" lon="1.03484">
        <ele>980.68</ele>
        <time>2019-03-31T13:07:26Z</time>
      </trkpt>
      <trkpt lat="42.82851" lon="1.03488">
        <ele>982.12</ele>
        <time>2019-03-31T13:07:31Z</time>
      </trkpt>
      <trkpt lat="42.8286" lon="1.03491">
        <ele>981.16</ele>
        <time>2019-03-31T13:07:37Z</time>
      </trkpt>
      <trkpt lat="42.82864" lon="1.03491">
        <ele>979.72</ele>
        <time>2019-03-31T13:07:40Z</time>
      </trkpt>
      <trkpt lat="42.82878" lon="1.03484">
        <ele>979.72</ele>
        <time>2019-03-31T13:07:51Z</time>
      </trkpt>
      <trkpt lat="42.82881" lon="1.0348">
        <ele>979.72</ele>
        <time>2019-03-31T13:07:55Z</time>
      </trkpt>
      <trkpt lat="42.82883" lon="1.03477">
        <ele>979.24</ele>
        <time>2019-03-31T13:07:57Z</time>
      </trkpt>
      <trkpt lat="42.82883" lon="1.03476">
        <ele>979.24</ele>
        <time>2019-03-31T13:07:58Z</time>
      </trkpt>
      <trkpt lat="42.82887" lon="1.03472">
        <ele>980.68</ele>
        <time>2019-03-31T13:08:01Z</time>
      </trkpt>
      <trkpt lat="42.82892" lon="1.03466">
        <ele>979.24</ele>
        <time>2019-03-31T13:08:04Z</time>
      </trkpt>
      <trkpt lat="42.82907" lon="1.03445">
        <ele>980.2</ele>
        <time>2019-03-31T13:08:18Z</time>
      </trkpt>
      <trkpt lat="42.8292" lon="1.03424">
        <ele>978.28</ele>
        <time>2019-03-31T13:08:34Z</time>
      </trkpt>
      <trkpt lat="42.8293" lon="1.03419">
        <ele>978.76</ele>
        <time>2019-03-31T13:08:43Z</time>
      </trkpt>
      <trkpt lat="42.82931" lon="1.03418">
        <ele>978.76</ele>
        <time>2019-03-31T13:08:44Z</time>
      </trkpt>
      <trkpt lat="42.82933" lon="1.03416">
        <ele>978.28</ele>
        <time>2019-03-31T13:08:45Z</time>
      </trkpt>
      <trkpt lat="42.82937" lon="1.03413">
        <ele>979.24</ele>
        <time>2019-03-31T13:08:48Z</time>
      </trkpt>
      <trkpt lat="42.82944" lon="1.03411">
        <ele>977.32</ele>
        <time>2019-03-31T13:08:52Z</time>
      </trkpt>
      <trkpt lat="42.82955" lon="1.034">
        <ele>978.76</ele>
        <time>2019-03-31T13:09:02Z</time>
      </trkpt>
      <trkpt lat="42.82957" lon="1.03398">
        <ele>977.32</ele>
        <time>2019-03-31T13:09:04Z</time>
      </trkpt>
      <trkpt lat="42.82965" lon="1.03386">
        <ele>978.28</ele>
        <time>2019-03-31T13:09:13Z</time>
      </trkpt>
      <trkpt lat="42.82966" lon="1.03381">
        <ele>976.84</ele>
        <time>2019-03-31T13:09:16Z</time>
      </trkpt>
      <trkpt lat="42.82968" lon="1.03377">
        <ele>976.84</ele>
        <time>2019-03-31T13:09:18Z</time>
      </trkpt>
      <trkpt lat="42.82972" lon="1.03372">
        <ele>977.8</ele>
        <time>2019-03-31T13:09:21Z</time>
      </trkpt>
      <trkpt lat="42.82974" lon="1.03367">
        <ele>976.84</ele>
        <time>2019-03-31T13:09:23Z</time>
      </trkpt>
      <trkpt lat="42.82977" lon="1.03361">
        <ele>976.84</ele>
        <time>2019-03-31T13:09:26Z</time>
      </trkpt>
      <trkpt lat="42.82978" lon="1.03359">
        <ele>976.84</ele>
        <time>2019-03-31T13:09:27Z</time>
      </trkpt>
      <trkpt lat="42.82979" lon="1.03358">
        <ele>976.84</ele>
        <time>2019-03-31T13:09:28Z</time>
      </trkpt>
      <trkpt lat="42.8298" lon="1.03356">
        <ele>976.84</ele>
        <time>2019-03-31T13:09:29Z</time>
      </trkpt>
      <trkpt lat="42.82982" lon="1.03355">
        <ele>976.36</ele>
        <time>2019-03-31T13:09:30Z</time>
      </trkpt>
      <trkpt lat="42.82983" lon="1.03353">
        <ele>976.36</ele>
        <time>2019-03-31T13:09:31Z</time>
      </trkpt>
      <trkpt lat="42.82984" lon="1.03351">
        <ele>977.8</ele>
        <time>2019-03-31T13:09:32Z</time>
      </trkpt>
      <trkpt lat="42.82986" lon="1.0335">
        <ele>977.8</ele>
        <time>2019-03-31T13:09:33Z</time>
      </trkpt>
      <trkpt lat="42.82987" lon="1.03348">
        <ele>977.8</ele>
        <time>2019-03-31T13:09:34Z</time>
      </trkpt>
      <trkpt lat="42.82988" lon="1.03347">
        <ele>977.8</ele>
        <time>2019-03-31T13:09:35Z</time>
      </trkpt>
      <trkpt lat="42.82991" lon="1.03344">
        <ele>976.36</ele>
        <time>2019-03-31T13:09:37Z</time>
      </trkpt>
      <trkpt lat="42.82995" lon="1.03337">
        <ele>977.8</ele>
        <time>2019-03-31T13:09:42Z</time>
      </trkpt>
      <trkpt lat="42.82998" lon="1.03332">
        <ele>976.36</ele>
        <time>2019-03-31T13:09:45Z</time>
      </trkpt>
      <trkpt lat="42.82999" lon="1.03331">
        <ele>976.36</ele>
        <time>2019-03-31T13:09:46Z</time>
      </trkpt>
      <trkpt lat="42.83" lon="1.03329">
        <ele>976.36</ele>
        <time>2019-03-31T13:09:47Z</time>
      </trkpt>
      <trkpt lat="42.83001" lon="1.03328">
        <ele>976.36</ele>
        <time>2019-03-31T13:09:48Z</time>
      </trkpt>
      <trkpt lat="42.83002" lon="1.03326">
        <ele>976.36</ele>
        <time>2019-03-31T13:09:49Z</time>
      </trkpt>
      <trkpt lat="42.83003" lon="1.03325">
        <ele>975.88</ele>
        <time>2019-03-31T13:09:50Z</time>
      </trkpt>
      <trkpt lat="42.83027" lon="1.03297">
        <ele>974.43</ele>
        <time>2019-03-31T13:10:07Z</time>
      </trkpt>
      <trkpt lat="42.83033" lon="1.03289">
        <ele>974.43</ele>
        <time>2019-03-31T13:10:12Z</time>
      </trkpt>
      <trkpt lat="42.83039" lon="1.03279">
        <ele>973.95</ele>
        <time>2019-03-31T13:10:18Z</time>
      </trkpt>
      <trkpt lat="42.83041" lon="1.03277">
        <ele>973.95</ele>
        <time>2019-03-31T13:10:19Z</time>
      </trkpt>
      <trkpt lat="42.83058" lon="1.03257">
        <ele>972.99</ele>
        <time>2019-03-31T13:10:36Z</time>
      </trkpt>
      <trkpt lat="42.83057" lon="1.0322">
        <ele>971.55</ele>
        <time>2019-03-31T13:10:54Z</time>
      </trkpt>
      <trkpt lat="42.83058" lon="1.03206">
        <ele>971.55</ele>
        <time>2019-03-31T13:11:02Z</time>
      </trkpt>
      <trkpt lat="42.83073" lon="1.03185">
        <ele>970.59</ele>
        <time>2019-03-31T13:11:17Z</time>
      </trkpt>
      <trkpt lat="42.83074" lon="1.03181">
        <ele>972.51</ele>
        <time>2019-03-31T13:11:19Z</time>
      </trkpt>
      <trkpt lat="42.83077" lon="1.03176">
        <ele>970.59</ele>
        <time>2019-03-31T13:11:22Z</time>
      </trkpt>
      <trkpt lat="42.83081" lon="1.0317">
        <ele>971.55</ele>
        <time>2019-03-31T13:11:26Z</time>
      </trkpt>
      <trkpt lat="42.83084" lon="1.03164">
        <ele>970.11</ele>
        <time>2019-03-31T13:11:30Z</time>
      </trkpt>
      <trkpt lat="42.83099" lon="1.03137">
        <ele>969.63</ele>
        <time>2019-03-31T13:11:46Z</time>
      </trkpt>
      <trkpt lat="42.83113" lon="1.03112">
        <ele>970.11</ele>
        <time>2019-03-31T13:12:02Z</time>
      </trkpt>
      <trkpt lat="42.83118" lon="1.03107">
        <ele>968.18</ele>
        <time>2019-03-31T13:12:06Z</time>
      </trkpt>
      <trkpt lat="42.8312" lon="1.03106">
        <ele>968.18</ele>
        <time>2019-03-31T13:12:07Z</time>
      </trkpt>
      <trkpt lat="42.83121" lon="1.03104">
        <ele>968.18</ele>
        <time>2019-03-31T13:12:08Z</time>
      </trkpt>
      <trkpt lat="42.83138" lon="1.03093">
        <ele>967.7</ele>
        <time>2019-03-31T13:12:22Z</time>
      </trkpt>
      <trkpt lat="42.83163" lon="1.03089">
        <ele>967.22</ele>
        <time>2019-03-31T13:12:39Z</time>
      </trkpt>
      <trkpt lat="42.83189" lon="1.03099">
        <ele>964.82</ele>
        <time>2019-03-31T13:12:59Z</time>
      </trkpt>
      <trkpt lat="42.83196" lon="1.03098">
        <ele>964.34</ele>
        <time>2019-03-31T13:13:04Z</time>
      </trkpt>
      <trkpt lat="42.83216" lon="1.03092">
        <ele>962.9</ele>
        <time>2019-03-31T13:13:21Z</time>
      </trkpt>
      <trkpt lat="42.83217" lon="1.03092">
        <ele>962.9</ele>
        <time>2019-03-31T13:13:22Z</time>
      </trkpt>
      <trkpt lat="42.83219" lon="1.03086">
        <ele>963.38</ele>
        <time>2019-03-31T13:13:39Z</time>
      </trkpt>
      <trkpt lat="42.8322" lon="1.03087">
        <ele>963.38</ele>
        <time>2019-03-31T13:13:57Z</time>
      </trkpt>
      <trkpt lat="42.83226" lon="1.03089">
        <ele>963.38</ele>
        <time>2019-03-31T13:14:24Z</time>
      </trkpt>
      <trkpt lat="42.83231" lon="1.03089">
        <ele>962.9</ele>
        <time>2019-03-31T13:14:53Z</time>
      </trkpt>
      <trkpt lat="42.83222" lon="1.03088">
        <ele>962.9</ele>
        <time>2019-03-31T13:15:24Z</time>
      </trkpt>
      <trkpt lat="42.83224" lon="1.03092">
        <ele>962.42</ele>
        <time>2019-03-31T13:15:45Z</time>
      </trkpt>
      <trkpt lat="42.83225" lon="1.03091">
        <ele>962.42</ele>
        <time>2019-03-31T13:16:25Z</time>
      </trkpt>
      <trkpt lat="42.83226" lon="1.03091">
        <ele>962.9</ele>
        <time>2019-03-31T13:16:59Z</time>
      </trkpt>
      <trkpt lat="42.83226" lon="1.03092">
        <ele>962.9</ele>
        <time>2019-03-31T13:17:32Z</time>
      </trkpt>
      <trkpt lat="42.83227" lon="1.0309">
        <ele>962.42</ele>
        <time>2019-03-31T13:18:05Z</time>
      </trkpt>
      <trkpt lat="42.8323" lon="1.03092">
        <ele>962.42</ele>
        <time>2019-03-31T13:18:39Z</time>
      </trkpt>
      <trkpt lat="42.83228" lon="1.03091">
        <ele>961.94</ele>
        <time>2019-03-31T13:19:05Z</time>
      </trkpt>
      <trkpt lat="42.83226" lon="1.03089">
        <ele>962.42</ele>
        <time>2019-03-31T13:19:36Z</time>
      </trkpt>
      <trkpt lat="42.83225" lon="1.03092">
        <ele>962.42</ele>
        <time>2019-03-31T13:19:56Z</time>
      </trkpt>
      <trkpt lat="42.83226" lon="1.031">
        <ele>962.42</ele>
        <time>2019-03-31T13:20:26Z</time>
      </trkpt>
      <trkpt lat="42.83229" lon="1.03096">
        <ele>961.94</ele>
        <time>2019-03-31T13:20:51Z</time>
      </trkpt>
      <trkpt lat="42.83226" lon="1.03093">
        <ele>961.94</ele>
        <time>2019-03-31T13:21:12Z</time>
      </trkpt>
      <trkpt lat="42.83227" lon="1.03094">
        <ele>960.49</ele>
        <time>2019-03-31T13:21:31Z</time>
      </trkpt>
      <trkpt lat="42.83225" lon="1.03093">
        <ele>961.94</ele>
        <time>2019-03-31T13:21:45Z</time>
      </trkpt>
      <trkpt lat="42.83222" lon="1.03094">
        <ele>960.49</ele>
        <time>2019-03-31T13:21:48Z</time>
      </trkpt>
      <trkpt lat="42.83221" lon="1.03094">
        <ele>960.49</ele>
        <time>2019-03-31T13:21:49Z</time>
      </trkpt>
      <trkpt lat="42.83219" lon="1.03096">
        <ele>961.94</ele>
        <time>2019-03-31T13:21:52Z</time>
      </trkpt>
      <trkpt lat="42.8322" lon="1.03097">
        <ele>961.94</ele>
        <time>2019-03-31T13:21:53Z</time>
      </trkpt>
      <trkpt lat="42.83221" lon="1.03098">
        <ele>961.94</ele>
        <time>2019-03-31T13:21:54Z</time>
      </trkpt>
      <trkpt lat="42.83222" lon="1.03099">
        <ele>961.94</ele>
        <time>2019-03-31T13:21:55Z</time>
      </trkpt>
      <trkpt lat="42.83224" lon="1.03101">
        <ele>960.49</ele>
        <time>2019-03-31T13:21:57Z</time>
      </trkpt>
      <trkpt lat="42.83227" lon="1.03107">
        <ele>958.57</ele>
        <time>2019-03-31T13:22:05Z</time>
      </trkpt>
      <trkpt lat="42.83227" lon="1.03109">
        <ele>957.61</ele>
        <time>2019-03-31T13:22:07Z</time>
      </trkpt>
      <trkpt lat="42.83228" lon="1.0311">
        <ele>957.61</ele>
        <time>2019-03-31T13:22:08Z</time>
      </trkpt>
      <trkpt lat="42.83228" lon="1.03112">
        <ele>957.13</ele>
        <time>2019-03-31T13:22:09Z</time>
      </trkpt>
      <trkpt lat="42.83229" lon="1.03113">
        <ele>956.65</ele>
        <time>2019-03-31T13:22:10Z</time>
      </trkpt>
      <trkpt lat="42.83229" lon="1.03115">
        <ele>956.17</ele>
        <time>2019-03-31T13:22:11Z</time>
      </trkpt>
      <trkpt lat="42.8323" lon="1.03117">
        <ele>955.69</ele>
        <time>2019-03-31T13:22:12Z</time>
      </trkpt>
      <trkpt lat="42.83231" lon="1.03118">
        <ele>955.69</ele>
        <time>2019-03-31T13:22:13Z</time>
      </trkpt>
      <trkpt lat="42.83232" lon="1.0312">
        <ele>955.69</ele>
        <time>2019-03-31T13:22:14Z</time>
      </trkpt>
      <trkpt lat="42.83233" lon="1.03121">
        <ele>955.69</ele>
        <time>2019-03-31T13:22:15Z</time>
      </trkpt>
      <trkpt lat="42.83234" lon="1.03122">
        <ele>955.21</ele>
        <time>2019-03-31T13:22:16Z</time>
      </trkpt>
      <trkpt lat="42.83235" lon="1.03123">
        <ele>955.21</ele>
        <time>2019-03-31T13:22:17Z</time>
      </trkpt>
      <trkpt lat="42.83242" lon="1.03128">
        <ele>955.69</ele>
        <time>2019-03-31T13:22:24Z</time>
      </trkpt>
      <trkpt lat="42.83243" lon="1.03127">
        <ele>954.25</ele>
        <time>2019-03-31T13:22:25Z</time>
      </trkpt>
      <trkpt lat="42.83244" lon="1.03127">
        <ele>954.25</ele>
        <time>2019-03-31T13:22:26Z</time>
      </trkpt>
      <trkpt lat="42.83244" lon="1.03127">
        <ele>956.17</ele>
        <time>2019-03-31T13:22:38Z</time>
      </trkpt>
      <trkpt lat="42.83245" lon="1.03127">
        <ele>956.17</ele>
        <time>2019-03-31T13:22:39Z</time>
      </trkpt>
      <trkpt lat="42.83245" lon="1.03126">
        <ele>954.25</ele>
        <time>2019-03-31T13:22:42Z</time>
      </trkpt>
      <trkpt lat="42.83245" lon="1.03126">
        <ele>957.61</ele>
        <time>2019-03-31T13:22:44Z</time>
      </trkpt>
      <trkpt lat="42.83244" lon="1.03126">
        <ele>954.25</ele>
        <time>2019-03-31T13:22:47Z</time>
      </trkpt>
      <trkpt lat="42.83244" lon="1.03125">
        <ele>953.28</ele>
        <time>2019-03-31T13:22:49Z</time>
      </trkpt>
      <trkpt lat="42.83245" lon="1.03125">
        <ele>955.21</ele>
        <time>2019-03-31T13:22:51Z</time>
      </trkpt>
    </trkseg>
  </trk>
</gpx>